<?xml version="1.0" encoding="UTF-8" standalone="no" ?>
<gpx xmlns="http://www.topografix.com/GPX/1/1" xmlns:xsi="http://www.w3.org/2001/XMLSchema-instance" xsi:schemaLocation="http://www.topografix.com/GPX/1/1 http://www.topografix.com/GPX/1/1/gpx.xsd" version="1.1" creator="VisuGPX - https://www.visugpx.com">
  <metadata>
    <name>24130 LE FLEIX du Port à Cap-de-Fer</name>
    <desc><![CDATA[Du \"Port\" à \"Château-Vieux\" par le marche-pied le long de la Dordogne.
De \"Château-Vieux\" à \"La Tuilière\" par la RD20.
De \"La Tuilière\" à \"Cap-de-Fer\" par l\'ancien chemin charretier du Fleix à Fougueyrolles.
Retour par les mêmes. ]]></desc>
  </metadata>
  <trk>
    <name><![CDATA[Traces enregistrées avec OSMTracker pour Android™]]></name>
    <trkseg>
      <trkpt lat="44.87371" lon="0.24136">
        <ele>52</ele>
        <time>2015-02-10T12:32:58Z</time>
      </trkpt>
      <trkpt lat="44.87371" lon="0.24136">
        <ele>52</ele>
        <time>2015-02-10T12:32:59Z</time>
      </trkpt>
      <trkpt lat="44.87371" lon="0.24136">
        <ele>52</ele>
        <time>2015-02-10T12:33:00Z</time>
      </trkpt>
      <trkpt lat="44.8736" lon="0.24116">
        <ele>52</ele>
        <time>2015-02-10T12:33:20Z</time>
      </trkpt>
      <trkpt lat="44.8736" lon="0.24116">
        <ele>52</ele>
        <time>2015-02-10T12:33:21Z</time>
      </trkpt>
      <trkpt lat="44.8736" lon="0.24116">
        <ele>52</ele>
        <time>2015-02-10T12:33:22Z</time>
      </trkpt>
      <trkpt lat="44.87378" lon="0.24112">
        <ele>52</ele>
        <time>2015-02-10T12:33:31Z</time>
      </trkpt>
      <trkpt lat="44.87387" lon="0.24125">
        <ele>53</ele>
        <time>2015-02-10T12:33:33Z</time>
      </trkpt>
      <trkpt lat="44.87388" lon="0.24125">
        <ele>61</ele>
        <time>2015-02-10T12:33:34Z</time>
      </trkpt>
      <trkpt lat="44.87388" lon="0.24126">
        <ele>66</ele>
        <time>2015-02-10T12:33:35Z</time>
      </trkpt>
      <trkpt lat="44.87386" lon="0.24127">
        <ele>62</ele>
        <time>2015-02-10T12:33:36Z</time>
      </trkpt>
      <trkpt lat="44.87386" lon="0.24127">
        <ele>63</ele>
        <time>2015-02-10T12:33:37Z</time>
      </trkpt>
      <trkpt lat="44.87386" lon="0.24127">
        <ele>58</ele>
        <time>2015-02-10T12:33:38Z</time>
      </trkpt>
      <trkpt lat="44.87386" lon="0.24128">
        <ele>55</ele>
        <time>2015-02-10T12:33:39Z</time>
      </trkpt>
      <trkpt lat="44.87386" lon="0.24128">
        <ele>58</ele>
        <time>2015-02-10T12:33:40Z</time>
      </trkpt>
      <trkpt lat="44.87387" lon="0.24129">
        <ele>61</ele>
        <time>2015-02-10T12:33:41Z</time>
      </trkpt>
      <trkpt lat="44.87387" lon="0.2413">
        <ele>60</ele>
        <time>2015-02-10T12:33:42Z</time>
      </trkpt>
      <trkpt lat="44.87387" lon="0.24131">
        <ele>61</ele>
        <time>2015-02-10T12:33:43Z</time>
      </trkpt>
      <trkpt lat="44.87387" lon="0.24131">
        <ele>62</ele>
        <time>2015-02-10T12:33:44Z</time>
      </trkpt>
      <trkpt lat="44.87386" lon="0.24132">
        <ele>65</ele>
        <time>2015-02-10T12:33:45Z</time>
      </trkpt>
      <trkpt lat="44.87386" lon="0.24132">
        <ele>65</ele>
        <time>2015-02-10T12:33:46Z</time>
      </trkpt>
      <trkpt lat="44.87386" lon="0.24133">
        <ele>65</ele>
        <time>2015-02-10T12:33:47Z</time>
      </trkpt>
      <trkpt lat="44.87386" lon="0.24133">
        <ele>68</ele>
        <time>2015-02-10T12:33:48Z</time>
      </trkpt>
      <trkpt lat="44.87386" lon="0.24134">
        <ele>68</ele>
        <time>2015-02-10T12:33:49Z</time>
      </trkpt>
      <trkpt lat="44.87386" lon="0.24135">
        <ele>69</ele>
        <time>2015-02-10T12:33:50Z</time>
      </trkpt>
      <trkpt lat="44.87385" lon="0.24135">
        <ele>68</ele>
        <time>2015-02-10T12:33:51Z</time>
      </trkpt>
      <trkpt lat="44.87385" lon="0.24137">
        <ele>69</ele>
        <time>2015-02-10T12:33:52Z</time>
      </trkpt>
      <trkpt lat="44.87384" lon="0.24138">
        <ele>67</ele>
        <time>2015-02-10T12:33:53Z</time>
      </trkpt>
      <trkpt lat="44.87381" lon="0.2414">
        <ele>65</ele>
        <time>2015-02-10T12:33:54Z</time>
      </trkpt>
      <trkpt lat="44.87379" lon="0.24141">
        <ele>65</ele>
        <time>2015-02-10T12:33:55Z</time>
      </trkpt>
      <trkpt lat="44.87378" lon="0.24142">
        <ele>68</ele>
        <time>2015-02-10T12:33:56Z</time>
      </trkpt>
      <trkpt lat="44.87377" lon="0.24143">
        <ele>62</ele>
        <time>2015-02-10T12:33:57Z</time>
      </trkpt>
      <trkpt lat="44.87377" lon="0.24143">
        <ele>61</ele>
        <time>2015-02-10T12:33:58Z</time>
      </trkpt>
      <trkpt lat="44.87376" lon="0.24143">
        <ele>61</ele>
        <time>2015-02-10T12:33:59Z</time>
      </trkpt>
      <trkpt lat="44.87376" lon="0.24144">
        <ele>59</ele>
        <time>2015-02-10T12:34:00Z</time>
      </trkpt>
      <trkpt lat="44.87376" lon="0.24144">
        <ele>56</ele>
        <time>2015-02-10T12:34:01Z</time>
      </trkpt>
      <trkpt lat="44.87375" lon="0.24143">
        <ele>55</ele>
        <time>2015-02-10T12:34:02Z</time>
      </trkpt>
      <trkpt lat="44.87375" lon="0.24142">
        <ele>54</ele>
        <time>2015-02-10T12:34:03Z</time>
      </trkpt>
      <trkpt lat="44.87374" lon="0.24141">
        <ele>55</ele>
        <time>2015-02-10T12:34:04Z</time>
      </trkpt>
      <trkpt lat="44.87374" lon="0.2414">
        <ele>55</ele>
        <time>2015-02-10T12:34:05Z</time>
      </trkpt>
      <trkpt lat="44.87373" lon="0.24139">
        <ele>53</ele>
        <time>2015-02-10T12:34:06Z</time>
      </trkpt>
      <trkpt lat="44.87373" lon="0.24138">
        <ele>55</ele>
        <time>2015-02-10T12:34:07Z</time>
      </trkpt>
      <trkpt lat="44.87373" lon="0.24137">
        <ele>59</ele>
        <time>2015-02-10T12:34:08Z</time>
      </trkpt>
      <trkpt lat="44.87373" lon="0.24136">
        <ele>59</ele>
        <time>2015-02-10T12:34:09Z</time>
      </trkpt>
      <trkpt lat="44.87372" lon="0.24135">
        <ele>60</ele>
        <time>2015-02-10T12:34:10Z</time>
      </trkpt>
      <trkpt lat="44.87372" lon="0.24134">
        <ele>57</ele>
        <time>2015-02-10T12:34:11Z</time>
      </trkpt>
      <trkpt lat="44.87372" lon="0.24134">
        <ele>51</ele>
        <time>2015-02-10T12:34:12Z</time>
      </trkpt>
      <trkpt lat="44.87371" lon="0.24134">
        <ele>52</ele>
        <time>2015-02-10T12:34:13Z</time>
      </trkpt>
      <trkpt lat="44.87371" lon="0.24133">
        <ele>54</ele>
        <time>2015-02-10T12:34:14Z</time>
      </trkpt>
      <trkpt lat="44.8737" lon="0.24132">
        <ele>54</ele>
        <time>2015-02-10T12:34:15Z</time>
      </trkpt>
      <trkpt lat="44.8737" lon="0.24132">
        <ele>53</ele>
        <time>2015-02-10T12:34:16Z</time>
      </trkpt>
      <trkpt lat="44.87368" lon="0.24129">
        <ele>56</ele>
        <time>2015-02-10T12:34:17Z</time>
      </trkpt>
      <trkpt lat="44.87368" lon="0.24128">
        <ele>57</ele>
        <time>2015-02-10T12:34:18Z</time>
      </trkpt>
      <trkpt lat="44.87368" lon="0.24126">
        <ele>56</ele>
        <time>2015-02-10T12:34:19Z</time>
      </trkpt>
      <trkpt lat="44.87368" lon="0.24125">
        <ele>56</ele>
        <time>2015-02-10T12:34:20Z</time>
      </trkpt>
      <trkpt lat="44.87368" lon="0.24124">
        <ele>57</ele>
        <time>2015-02-10T12:34:21Z</time>
      </trkpt>
      <trkpt lat="44.87367" lon="0.24124">
        <ele>54</ele>
        <time>2015-02-10T12:34:22Z</time>
      </trkpt>
      <trkpt lat="44.87367" lon="0.24124">
        <ele>54</ele>
        <time>2015-02-10T12:34:23Z</time>
      </trkpt>
      <trkpt lat="44.87367" lon="0.24124">
        <ele>54</ele>
        <time>2015-02-10T12:34:24Z</time>
      </trkpt>
      <trkpt lat="44.87367" lon="0.24123">
        <ele>56</ele>
        <time>2015-02-10T12:34:25Z</time>
      </trkpt>
      <trkpt lat="44.87367" lon="0.24122">
        <ele>56</ele>
        <time>2015-02-10T12:34:26Z</time>
      </trkpt>
      <trkpt lat="44.87366" lon="0.24121">
        <ele>57</ele>
        <time>2015-02-10T12:34:27Z</time>
      </trkpt>
      <trkpt lat="44.87366" lon="0.2412">
        <ele>56</ele>
        <time>2015-02-10T12:34:28Z</time>
      </trkpt>
      <trkpt lat="44.87366" lon="0.24119">
        <ele>55</ele>
        <time>2015-02-10T12:34:29Z</time>
      </trkpt>
      <trkpt lat="44.87366" lon="0.24116">
        <ele>55</ele>
        <time>2015-02-10T12:34:30Z</time>
      </trkpt>
      <trkpt lat="44.87366" lon="0.24115">
        <ele>56</ele>
        <time>2015-02-10T12:34:31Z</time>
      </trkpt>
      <trkpt lat="44.87366" lon="0.24114">
        <ele>54</ele>
        <time>2015-02-10T12:34:32Z</time>
      </trkpt>
      <trkpt lat="44.87367" lon="0.24113">
        <ele>53</ele>
        <time>2015-02-10T12:34:33Z</time>
      </trkpt>
      <trkpt lat="44.87367" lon="0.24112">
        <ele>55</ele>
        <time>2015-02-10T12:34:34Z</time>
      </trkpt>
      <trkpt lat="44.87367" lon="0.2411">
        <ele>56</ele>
        <time>2015-02-10T12:34:35Z</time>
      </trkpt>
      <trkpt lat="44.87368" lon="0.2411">
        <ele>53</ele>
        <time>2015-02-10T12:34:36Z</time>
      </trkpt>
      <trkpt lat="44.87367" lon="0.24109">
        <ele>52</ele>
        <time>2015-02-10T12:34:37Z</time>
      </trkpt>
      <trkpt lat="44.87367" lon="0.24109">
        <ele>53</ele>
        <time>2015-02-10T12:34:38Z</time>
      </trkpt>
      <trkpt lat="44.87367" lon="0.24108">
        <ele>52</ele>
        <time>2015-02-10T12:34:39Z</time>
      </trkpt>
      <trkpt lat="44.87367" lon="0.24107">
        <ele>50</ele>
        <time>2015-02-10T12:34:40Z</time>
      </trkpt>
      <trkpt lat="44.87367" lon="0.24106">
        <ele>54</ele>
        <time>2015-02-10T12:34:41Z</time>
      </trkpt>
      <trkpt lat="44.87367" lon="0.24105">
        <ele>55</ele>
        <time>2015-02-10T12:34:42Z</time>
      </trkpt>
      <trkpt lat="44.87367" lon="0.24103">
        <ele>56</ele>
        <time>2015-02-10T12:34:43Z</time>
      </trkpt>
      <trkpt lat="44.87367" lon="0.24102">
        <ele>53</ele>
        <time>2015-02-10T12:34:44Z</time>
      </trkpt>
      <trkpt lat="44.87368" lon="0.241">
        <ele>52</ele>
        <time>2015-02-10T12:34:45Z</time>
      </trkpt>
      <trkpt lat="44.87368" lon="0.24098">
        <ele>51</ele>
        <time>2015-02-10T12:34:46Z</time>
      </trkpt>
      <trkpt lat="44.87368" lon="0.24095">
        <ele>54</ele>
        <time>2015-02-10T12:34:47Z</time>
      </trkpt>
      <trkpt lat="44.87368" lon="0.24094">
        <ele>58</ele>
        <time>2015-02-10T12:34:48Z</time>
      </trkpt>
      <trkpt lat="44.87368" lon="0.24092">
        <ele>60</ele>
        <time>2015-02-10T12:34:49Z</time>
      </trkpt>
      <trkpt lat="44.87368" lon="0.24091">
        <ele>60</ele>
        <time>2015-02-10T12:34:50Z</time>
      </trkpt>
      <trkpt lat="44.87368" lon="0.2409">
        <ele>57</ele>
        <time>2015-02-10T12:34:51Z</time>
      </trkpt>
      <trkpt lat="44.87369" lon="0.24088">
        <ele>59</ele>
        <time>2015-02-10T12:34:52Z</time>
      </trkpt>
      <trkpt lat="44.87369" lon="0.24087">
        <ele>58</ele>
        <time>2015-02-10T12:34:53Z</time>
      </trkpt>
      <trkpt lat="44.87369" lon="0.24086">
        <ele>59</ele>
        <time>2015-02-10T12:34:54Z</time>
      </trkpt>
      <trkpt lat="44.87369" lon="0.24085">
        <ele>60</ele>
        <time>2015-02-10T12:34:55Z</time>
      </trkpt>
      <trkpt lat="44.87369" lon="0.24084">
        <ele>57</ele>
        <time>2015-02-10T12:34:56Z</time>
      </trkpt>
      <trkpt lat="44.87369" lon="0.24083">
        <ele>56</ele>
        <time>2015-02-10T12:34:57Z</time>
      </trkpt>
      <trkpt lat="44.87369" lon="0.24081">
        <ele>57</ele>
        <time>2015-02-10T12:34:58Z</time>
      </trkpt>
      <trkpt lat="44.87369" lon="0.24079">
        <ele>56</ele>
        <time>2015-02-10T12:34:59Z</time>
      </trkpt>
      <trkpt lat="44.87369" lon="0.24077">
        <ele>55</ele>
        <time>2015-02-10T12:35:00Z</time>
      </trkpt>
      <trkpt lat="44.87369" lon="0.24076">
        <ele>56</ele>
        <time>2015-02-10T12:35:01Z</time>
      </trkpt>
      <trkpt lat="44.87368" lon="0.24074">
        <ele>57</ele>
        <time>2015-02-10T12:35:02Z</time>
      </trkpt>
      <trkpt lat="44.87368" lon="0.24073">
        <ele>54</ele>
        <time>2015-02-10T12:35:03Z</time>
      </trkpt>
      <trkpt lat="44.87368" lon="0.24071">
        <ele>53</ele>
        <time>2015-02-10T12:35:04Z</time>
      </trkpt>
      <trkpt lat="44.87369" lon="0.24069">
        <ele>52</ele>
        <time>2015-02-10T12:35:05Z</time>
      </trkpt>
      <trkpt lat="44.87368" lon="0.24068">
        <ele>53</ele>
        <time>2015-02-10T12:35:06Z</time>
      </trkpt>
      <trkpt lat="44.87368" lon="0.24066">
        <ele>52</ele>
        <time>2015-02-10T12:35:07Z</time>
      </trkpt>
      <trkpt lat="44.87368" lon="0.24065">
        <ele>54</ele>
        <time>2015-02-10T12:35:08Z</time>
      </trkpt>
      <trkpt lat="44.87368" lon="0.24063">
        <ele>56</ele>
        <time>2015-02-10T12:35:09Z</time>
      </trkpt>
      <trkpt lat="44.87368" lon="0.24062">
        <ele>59</ele>
        <time>2015-02-10T12:35:10Z</time>
      </trkpt>
      <trkpt lat="44.87368" lon="0.2406">
        <ele>60</ele>
        <time>2015-02-10T12:35:11Z</time>
      </trkpt>
      <trkpt lat="44.87368" lon="0.24059">
        <ele>62</ele>
        <time>2015-02-10T12:35:12Z</time>
      </trkpt>
      <trkpt lat="44.87368" lon="0.24057">
        <ele>62</ele>
        <time>2015-02-10T12:35:13Z</time>
      </trkpt>
      <trkpt lat="44.87368" lon="0.24056">
        <ele>62</ele>
        <time>2015-02-10T12:35:14Z</time>
      </trkpt>
      <trkpt lat="44.87368" lon="0.24054">
        <ele>61</ele>
        <time>2015-02-10T12:35:15Z</time>
      </trkpt>
      <trkpt lat="44.87368" lon="0.24052">
        <ele>62</ele>
        <time>2015-02-10T12:35:16Z</time>
      </trkpt>
      <trkpt lat="44.87368" lon="0.24051">
        <ele>64</ele>
        <time>2015-02-10T12:35:17Z</time>
      </trkpt>
      <trkpt lat="44.87368" lon="0.2405">
        <ele>64</ele>
        <time>2015-02-10T12:35:18Z</time>
      </trkpt>
      <trkpt lat="44.87368" lon="0.24049">
        <ele>61</ele>
        <time>2015-02-10T12:35:19Z</time>
      </trkpt>
      <trkpt lat="44.87368" lon="0.24047">
        <ele>60</ele>
        <time>2015-02-10T12:35:20Z</time>
      </trkpt>
      <trkpt lat="44.87369" lon="0.24044">
        <ele>60</ele>
        <time>2015-02-10T12:35:21Z</time>
      </trkpt>
      <trkpt lat="44.87369" lon="0.24042">
        <ele>59</ele>
        <time>2015-02-10T12:35:22Z</time>
      </trkpt>
      <trkpt lat="44.87369" lon="0.2404">
        <ele>61</ele>
        <time>2015-02-10T12:35:23Z</time>
      </trkpt>
      <trkpt lat="44.87369" lon="0.24039">
        <ele>62</ele>
        <time>2015-02-10T12:35:24Z</time>
      </trkpt>
      <trkpt lat="44.87369" lon="0.24037">
        <ele>61</ele>
        <time>2015-02-10T12:35:25Z</time>
      </trkpt>
      <trkpt lat="44.87369" lon="0.24036">
        <ele>61</ele>
        <time>2015-02-10T12:35:26Z</time>
      </trkpt>
      <trkpt lat="44.87369" lon="0.24034">
        <ele>61</ele>
        <time>2015-02-10T12:35:27Z</time>
      </trkpt>
      <trkpt lat="44.87368" lon="0.24033">
        <ele>62</ele>
        <time>2015-02-10T12:35:28Z</time>
      </trkpt>
      <trkpt lat="44.87368" lon="0.24032">
        <ele>62</ele>
        <time>2015-02-10T12:35:29Z</time>
      </trkpt>
      <trkpt lat="44.87368" lon="0.2403">
        <ele>61</ele>
        <time>2015-02-10T12:35:30Z</time>
      </trkpt>
      <trkpt lat="44.87368" lon="0.24029">
        <ele>61</ele>
        <time>2015-02-10T12:35:31Z</time>
      </trkpt>
      <trkpt lat="44.87368" lon="0.24027">
        <ele>60</ele>
        <time>2015-02-10T12:35:32Z</time>
      </trkpt>
      <trkpt lat="44.87368" lon="0.24025">
        <ele>58</ele>
        <time>2015-02-10T12:35:33Z</time>
      </trkpt>
      <trkpt lat="44.87368" lon="0.24023">
        <ele>58</ele>
        <time>2015-02-10T12:35:34Z</time>
      </trkpt>
      <trkpt lat="44.87368" lon="0.24022">
        <ele>58</ele>
        <time>2015-02-10T12:35:35Z</time>
      </trkpt>
      <trkpt lat="44.87368" lon="0.24021">
        <ele>58</ele>
        <time>2015-02-10T12:35:36Z</time>
      </trkpt>
      <trkpt lat="44.87368" lon="0.24019">
        <ele>58</ele>
        <time>2015-02-10T12:35:37Z</time>
      </trkpt>
      <trkpt lat="44.87368" lon="0.24017">
        <ele>58</ele>
        <time>2015-02-10T12:35:38Z</time>
      </trkpt>
      <trkpt lat="44.87368" lon="0.24016">
        <ele>61</ele>
        <time>2015-02-10T12:35:39Z</time>
      </trkpt>
      <trkpt lat="44.87368" lon="0.24014">
        <ele>60</ele>
        <time>2015-02-10T12:35:40Z</time>
      </trkpt>
      <trkpt lat="44.87368" lon="0.24013">
        <ele>60</ele>
        <time>2015-02-10T12:35:41Z</time>
      </trkpt>
      <trkpt lat="44.87368" lon="0.24012">
        <ele>61</ele>
        <time>2015-02-10T12:35:42Z</time>
      </trkpt>
      <trkpt lat="44.87368" lon="0.2401">
        <ele>60</ele>
        <time>2015-02-10T12:35:43Z</time>
      </trkpt>
      <trkpt lat="44.87368" lon="0.24008">
        <ele>63</ele>
        <time>2015-02-10T12:35:44Z</time>
      </trkpt>
      <trkpt lat="44.87368" lon="0.24007">
        <ele>62</ele>
        <time>2015-02-10T12:35:45Z</time>
      </trkpt>
      <trkpt lat="44.87368" lon="0.24008">
        <ele>62</ele>
        <time>2015-02-10T12:35:46Z</time>
      </trkpt>
      <trkpt lat="44.87368" lon="0.24007">
        <ele>60</ele>
        <time>2015-02-10T12:35:47Z</time>
      </trkpt>
      <trkpt lat="44.87367" lon="0.24004">
        <ele>62</ele>
        <time>2015-02-10T12:35:48Z</time>
      </trkpt>
      <trkpt lat="44.87366" lon="0.24002">
        <ele>61</ele>
        <time>2015-02-10T12:35:49Z</time>
      </trkpt>
      <trkpt lat="44.87366" lon="0.24">
        <ele>62</ele>
        <time>2015-02-10T12:35:50Z</time>
      </trkpt>
      <trkpt lat="44.87366" lon="0.23998">
        <ele>62</ele>
        <time>2015-02-10T12:35:51Z</time>
      </trkpt>
      <trkpt lat="44.87365" lon="0.23997">
        <ele>59</ele>
        <time>2015-02-10T12:35:52Z</time>
      </trkpt>
      <trkpt lat="44.87365" lon="0.23996">
        <ele>59</ele>
        <time>2015-02-10T12:35:53Z</time>
      </trkpt>
      <trkpt lat="44.87365" lon="0.23996">
        <ele>59</ele>
        <time>2015-02-10T12:35:54Z</time>
      </trkpt>
      <trkpt lat="44.87365" lon="0.23995">
        <ele>57</ele>
        <time>2015-02-10T12:35:55Z</time>
      </trkpt>
      <trkpt lat="44.87365" lon="0.23994">
        <ele>57</ele>
        <time>2015-02-10T12:35:56Z</time>
      </trkpt>
      <trkpt lat="44.87365" lon="0.23994">
        <ele>58</ele>
        <time>2015-02-10T12:35:57Z</time>
      </trkpt>
      <trkpt lat="44.87365" lon="0.23994">
        <ele>57</ele>
        <time>2015-02-10T12:35:58Z</time>
      </trkpt>
      <trkpt lat="44.87365" lon="0.23993">
        <ele>57</ele>
        <time>2015-02-10T12:35:59Z</time>
      </trkpt>
      <trkpt lat="44.87365" lon="0.23993">
        <ele>54</ele>
        <time>2015-02-10T12:36:00Z</time>
      </trkpt>
      <trkpt lat="44.87365" lon="0.23993">
        <ele>52</ele>
        <time>2015-02-10T12:36:01Z</time>
      </trkpt>
      <trkpt lat="44.87365" lon="0.23993">
        <ele>52</ele>
        <time>2015-02-10T12:36:02Z</time>
      </trkpt>
      <trkpt lat="44.87365" lon="0.23993">
        <ele>52</ele>
        <time>2015-02-10T12:36:03Z</time>
      </trkpt>
      <trkpt lat="44.87365" lon="0.23993">
        <ele>51</ele>
        <time>2015-02-10T12:36:04Z</time>
      </trkpt>
      <trkpt lat="44.87366" lon="0.23993">
        <ele>50</ele>
        <time>2015-02-10T12:36:05Z</time>
      </trkpt>
      <trkpt lat="44.87366" lon="0.23993">
        <ele>49</ele>
        <time>2015-02-10T12:36:06Z</time>
      </trkpt>
      <trkpt lat="44.87366" lon="0.23993">
        <ele>49</ele>
        <time>2015-02-10T12:36:07Z</time>
      </trkpt>
      <trkpt lat="44.87366" lon="0.23993">
        <ele>48</ele>
        <time>2015-02-10T12:36:08Z</time>
      </trkpt>
      <trkpt lat="44.87367" lon="0.23993">
        <ele>48</ele>
        <time>2015-02-10T12:36:09Z</time>
      </trkpt>
      <trkpt lat="44.87366" lon="0.23994">
        <ele>49</ele>
        <time>2015-02-10T12:36:10Z</time>
      </trkpt>
      <trkpt lat="44.87366" lon="0.23994">
        <ele>49</ele>
        <time>2015-02-10T12:36:11Z</time>
      </trkpt>
      <trkpt lat="44.87366" lon="0.23994">
        <ele>50</ele>
        <time>2015-02-10T12:36:12Z</time>
      </trkpt>
      <trkpt lat="44.87366" lon="0.23994">
        <ele>51</ele>
        <time>2015-02-10T12:36:13Z</time>
      </trkpt>
      <trkpt lat="44.87366" lon="0.23994">
        <ele>52</ele>
        <time>2015-02-10T12:36:14Z</time>
      </trkpt>
      <trkpt lat="44.87366" lon="0.23994">
        <ele>51</ele>
        <time>2015-02-10T12:36:15Z</time>
      </trkpt>
      <trkpt lat="44.87366" lon="0.23994">
        <ele>51</ele>
        <time>2015-02-10T12:36:16Z</time>
      </trkpt>
      <trkpt lat="44.87366" lon="0.23995">
        <ele>51</ele>
        <time>2015-02-10T12:36:17Z</time>
      </trkpt>
      <trkpt lat="44.87366" lon="0.23995">
        <ele>53</ele>
        <time>2015-02-10T12:36:18Z</time>
      </trkpt>
      <trkpt lat="44.87366" lon="0.23995">
        <ele>52</ele>
        <time>2015-02-10T12:36:19Z</time>
      </trkpt>
      <trkpt lat="44.87366" lon="0.23995">
        <ele>54</ele>
        <time>2015-02-10T12:36:20Z</time>
      </trkpt>
      <trkpt lat="44.87366" lon="0.23995">
        <ele>56</ele>
        <time>2015-02-10T12:36:21Z</time>
      </trkpt>
      <trkpt lat="44.87366" lon="0.23995">
        <ele>58</ele>
        <time>2015-02-10T12:36:22Z</time>
      </trkpt>
      <trkpt lat="44.87366" lon="0.23995">
        <ele>59</ele>
        <time>2015-02-10T12:36:23Z</time>
      </trkpt>
      <trkpt lat="44.87366" lon="0.23995">
        <ele>63</ele>
        <time>2015-02-10T12:36:24Z</time>
      </trkpt>
      <trkpt lat="44.87366" lon="0.23995">
        <ele>60</ele>
        <time>2015-02-10T12:36:25Z</time>
      </trkpt>
      <trkpt lat="44.87365" lon="0.23994">
        <ele>56</ele>
        <time>2015-02-10T12:36:26Z</time>
      </trkpt>
      <trkpt lat="44.87365" lon="0.23992">
        <ele>55</ele>
        <time>2015-02-10T12:36:27Z</time>
      </trkpt>
      <trkpt lat="44.87364" lon="0.23991">
        <ele>56</ele>
        <time>2015-02-10T12:36:28Z</time>
      </trkpt>
      <trkpt lat="44.87364" lon="0.2399">
        <ele>55</ele>
        <time>2015-02-10T12:36:29Z</time>
      </trkpt>
      <trkpt lat="44.87364" lon="0.2399">
        <ele>56</ele>
        <time>2015-02-10T12:36:30Z</time>
      </trkpt>
      <trkpt lat="44.87364" lon="0.23989">
        <ele>54</ele>
        <time>2015-02-10T12:36:31Z</time>
      </trkpt>
      <trkpt lat="44.87363" lon="0.23988">
        <ele>55</ele>
        <time>2015-02-10T12:36:32Z</time>
      </trkpt>
      <trkpt lat="44.87363" lon="0.23986">
        <ele>54</ele>
        <time>2015-02-10T12:36:33Z</time>
      </trkpt>
      <trkpt lat="44.87363" lon="0.23984">
        <ele>55</ele>
        <time>2015-02-10T12:36:34Z</time>
      </trkpt>
      <trkpt lat="44.87362" lon="0.23983">
        <ele>57</ele>
        <time>2015-02-10T12:36:35Z</time>
      </trkpt>
      <trkpt lat="44.87362" lon="0.23981">
        <ele>58</ele>
        <time>2015-02-10T12:36:36Z</time>
      </trkpt>
      <trkpt lat="44.87362" lon="0.2398">
        <ele>60</ele>
        <time>2015-02-10T12:36:37Z</time>
      </trkpt>
      <trkpt lat="44.87361" lon="0.23978">
        <ele>59</ele>
        <time>2015-02-10T12:36:38Z</time>
      </trkpt>
      <trkpt lat="44.87361" lon="0.23976">
        <ele>57</ele>
        <time>2015-02-10T12:36:39Z</time>
      </trkpt>
      <trkpt lat="44.87361" lon="0.23974">
        <ele>54</ele>
        <time>2015-02-10T12:36:40Z</time>
      </trkpt>
      <trkpt lat="44.8736" lon="0.23972">
        <ele>55</ele>
        <time>2015-02-10T12:36:41Z</time>
      </trkpt>
      <trkpt lat="44.8736" lon="0.23971">
        <ele>57</ele>
        <time>2015-02-10T12:36:42Z</time>
      </trkpt>
      <trkpt lat="44.8736" lon="0.2397">
        <ele>57</ele>
        <time>2015-02-10T12:36:43Z</time>
      </trkpt>
      <trkpt lat="44.87359" lon="0.23968">
        <ele>57</ele>
        <time>2015-02-10T12:36:44Z</time>
      </trkpt>
      <trkpt lat="44.87359" lon="0.23967">
        <ele>57</ele>
        <time>2015-02-10T12:36:45Z</time>
      </trkpt>
      <trkpt lat="44.87359" lon="0.23965">
        <ele>57</ele>
        <time>2015-02-10T12:36:46Z</time>
      </trkpt>
      <trkpt lat="44.87359" lon="0.23964">
        <ele>58</ele>
        <time>2015-02-10T12:36:47Z</time>
      </trkpt>
      <trkpt lat="44.87359" lon="0.23963">
        <ele>60</ele>
        <time>2015-02-10T12:36:48Z</time>
      </trkpt>
      <trkpt lat="44.87359" lon="0.23962">
        <ele>59</ele>
        <time>2015-02-10T12:36:49Z</time>
      </trkpt>
      <trkpt lat="44.87359" lon="0.2396">
        <ele>56</ele>
        <time>2015-02-10T12:36:50Z</time>
      </trkpt>
      <trkpt lat="44.87359" lon="0.23958">
        <ele>57</ele>
        <time>2015-02-10T12:36:51Z</time>
      </trkpt>
      <trkpt lat="44.87358" lon="0.23958">
        <ele>57</ele>
        <time>2015-02-10T12:36:52Z</time>
      </trkpt>
      <trkpt lat="44.87357" lon="0.23957">
        <ele>56</ele>
        <time>2015-02-10T12:36:53Z</time>
      </trkpt>
      <trkpt lat="44.87357" lon="0.23957">
        <ele>57</ele>
        <time>2015-02-10T12:36:54Z</time>
      </trkpt>
      <trkpt lat="44.87357" lon="0.23957">
        <ele>57</ele>
        <time>2015-02-10T12:36:55Z</time>
      </trkpt>
      <trkpt lat="44.87357" lon="0.23957">
        <ele>60</ele>
        <time>2015-02-10T12:36:56Z</time>
      </trkpt>
      <trkpt lat="44.87357" lon="0.23957">
        <ele>61</ele>
        <time>2015-02-10T12:36:57Z</time>
      </trkpt>
      <trkpt lat="44.87357" lon="0.23957">
        <ele>62</ele>
        <time>2015-02-10T12:36:58Z</time>
      </trkpt>
      <trkpt lat="44.87357" lon="0.23957">
        <ele>64</ele>
        <time>2015-02-10T12:36:59Z</time>
      </trkpt>
      <trkpt lat="44.87357" lon="0.23957">
        <ele>66</ele>
        <time>2015-02-10T12:37:00Z</time>
      </trkpt>
      <trkpt lat="44.87357" lon="0.23957">
        <ele>66</ele>
        <time>2015-02-10T12:37:01Z</time>
      </trkpt>
      <trkpt lat="44.87357" lon="0.23957">
        <ele>67</ele>
        <time>2015-02-10T12:37:02Z</time>
      </trkpt>
      <trkpt lat="44.87357" lon="0.23957">
        <ele>67</ele>
        <time>2015-02-10T12:37:03Z</time>
      </trkpt>
      <trkpt lat="44.87357" lon="0.23956">
        <ele>66</ele>
        <time>2015-02-10T12:37:04Z</time>
      </trkpt>
      <trkpt lat="44.87357" lon="0.23955">
        <ele>64</ele>
        <time>2015-02-10T12:37:05Z</time>
      </trkpt>
      <trkpt lat="44.87357" lon="0.23954">
        <ele>63</ele>
        <time>2015-02-10T12:37:06Z</time>
      </trkpt>
      <trkpt lat="44.87357" lon="0.23952">
        <ele>63</ele>
        <time>2015-02-10T12:37:07Z</time>
      </trkpt>
      <trkpt lat="44.87357" lon="0.23951">
        <ele>61</ele>
        <time>2015-02-10T12:37:08Z</time>
      </trkpt>
      <trkpt lat="44.87357" lon="0.23949">
        <ele>61</ele>
        <time>2015-02-10T12:37:09Z</time>
      </trkpt>
      <trkpt lat="44.87356" lon="0.23947">
        <ele>61</ele>
        <time>2015-02-10T12:37:10Z</time>
      </trkpt>
      <trkpt lat="44.87356" lon="0.23945">
        <ele>60</ele>
        <time>2015-02-10T12:37:11Z</time>
      </trkpt>
      <trkpt lat="44.87356" lon="0.23943">
        <ele>63</ele>
        <time>2015-02-10T12:37:12Z</time>
      </trkpt>
      <trkpt lat="44.87356" lon="0.23942">
        <ele>60</ele>
        <time>2015-02-10T12:37:13Z</time>
      </trkpt>
      <trkpt lat="44.87356" lon="0.23941">
        <ele>61</ele>
        <time>2015-02-10T12:37:14Z</time>
      </trkpt>
      <trkpt lat="44.87356" lon="0.23939">
        <ele>62</ele>
        <time>2015-02-10T12:37:15Z</time>
      </trkpt>
      <trkpt lat="44.87356" lon="0.23937">
        <ele>63</ele>
        <time>2015-02-10T12:37:16Z</time>
      </trkpt>
      <trkpt lat="44.87356" lon="0.23935">
        <ele>64</ele>
        <time>2015-02-10T12:37:17Z</time>
      </trkpt>
      <trkpt lat="44.87356" lon="0.23933">
        <ele>62</ele>
        <time>2015-02-10T12:37:18Z</time>
      </trkpt>
      <trkpt lat="44.87356" lon="0.23932">
        <ele>61</ele>
        <time>2015-02-10T12:37:19Z</time>
      </trkpt>
      <trkpt lat="44.87356" lon="0.23931">
        <ele>60</ele>
        <time>2015-02-10T12:37:20Z</time>
      </trkpt>
      <trkpt lat="44.87356" lon="0.2393">
        <ele>60</ele>
        <time>2015-02-10T12:37:21Z</time>
      </trkpt>
      <trkpt lat="44.87356" lon="0.23928">
        <ele>60</ele>
        <time>2015-02-10T12:37:22Z</time>
      </trkpt>
      <trkpt lat="44.87356" lon="0.23926">
        <ele>62</ele>
        <time>2015-02-10T12:37:23Z</time>
      </trkpt>
      <trkpt lat="44.87356" lon="0.23925">
        <ele>60</ele>
        <time>2015-02-10T12:37:24Z</time>
      </trkpt>
      <trkpt lat="44.87356" lon="0.23923">
        <ele>60</ele>
        <time>2015-02-10T12:37:25Z</time>
      </trkpt>
      <trkpt lat="44.87355" lon="0.23921">
        <ele>61</ele>
        <time>2015-02-10T12:37:26Z</time>
      </trkpt>
      <trkpt lat="44.87355" lon="0.2392">
        <ele>61</ele>
        <time>2015-02-10T12:37:27Z</time>
      </trkpt>
      <trkpt lat="44.87355" lon="0.23918">
        <ele>56</ele>
        <time>2015-02-10T12:37:28Z</time>
      </trkpt>
      <trkpt lat="44.87354" lon="0.23917">
        <ele>59</ele>
        <time>2015-02-10T12:37:29Z</time>
      </trkpt>
      <trkpt lat="44.87354" lon="0.23915">
        <ele>57</ele>
        <time>2015-02-10T12:37:30Z</time>
      </trkpt>
      <trkpt lat="44.87354" lon="0.23914">
        <ele>59</ele>
        <time>2015-02-10T12:37:31Z</time>
      </trkpt>
      <trkpt lat="44.87354" lon="0.23911">
        <ele>59</ele>
        <time>2015-02-10T12:37:32Z</time>
      </trkpt>
      <trkpt lat="44.87354" lon="0.23909">
        <ele>61</ele>
        <time>2015-02-10T12:37:33Z</time>
      </trkpt>
      <trkpt lat="44.87354" lon="0.23908">
        <ele>63</ele>
        <time>2015-02-10T12:37:34Z</time>
      </trkpt>
      <trkpt lat="44.87353" lon="0.23906">
        <ele>63</ele>
        <time>2015-02-10T12:37:35Z</time>
      </trkpt>
      <trkpt lat="44.87353" lon="0.23904">
        <ele>61</ele>
        <time>2015-02-10T12:37:36Z</time>
      </trkpt>
      <trkpt lat="44.87353" lon="0.23903">
        <ele>60</ele>
        <time>2015-02-10T12:37:37Z</time>
      </trkpt>
      <trkpt lat="44.87353" lon="0.23901">
        <ele>61</ele>
        <time>2015-02-10T12:37:38Z</time>
      </trkpt>
      <trkpt lat="44.87352" lon="0.23899">
        <ele>61</ele>
        <time>2015-02-10T12:37:39Z</time>
      </trkpt>
      <trkpt lat="44.87352" lon="0.23898">
        <ele>62</ele>
        <time>2015-02-10T12:37:40Z</time>
      </trkpt>
      <trkpt lat="44.87352" lon="0.23897">
        <ele>63</ele>
        <time>2015-02-10T12:37:41Z</time>
      </trkpt>
      <trkpt lat="44.87351" lon="0.23895">
        <ele>64</ele>
        <time>2015-02-10T12:37:42Z</time>
      </trkpt>
      <trkpt lat="44.87351" lon="0.23893">
        <ele>62</ele>
        <time>2015-02-10T12:37:43Z</time>
      </trkpt>
      <trkpt lat="44.8735" lon="0.23891">
        <ele>63</ele>
        <time>2015-02-10T12:37:44Z</time>
      </trkpt>
      <trkpt lat="44.8735" lon="0.2389">
        <ele>64</ele>
        <time>2015-02-10T12:37:45Z</time>
      </trkpt>
      <trkpt lat="44.87349" lon="0.23889">
        <ele>63</ele>
        <time>2015-02-10T12:37:46Z</time>
      </trkpt>
      <trkpt lat="44.87349" lon="0.23887">
        <ele>61</ele>
        <time>2015-02-10T12:37:47Z</time>
      </trkpt>
      <trkpt lat="44.87349" lon="0.23886">
        <ele>65</ele>
        <time>2015-02-10T12:37:48Z</time>
      </trkpt>
      <trkpt lat="44.87349" lon="0.23884">
        <ele>63</ele>
        <time>2015-02-10T12:37:49Z</time>
      </trkpt>
      <trkpt lat="44.87349" lon="0.23882">
        <ele>63</ele>
        <time>2015-02-10T12:37:50Z</time>
      </trkpt>
      <trkpt lat="44.87348" lon="0.23881">
        <ele>61</ele>
        <time>2015-02-10T12:37:51Z</time>
      </trkpt>
      <trkpt lat="44.87348" lon="0.2388">
        <ele>58</ele>
        <time>2015-02-10T12:37:52Z</time>
      </trkpt>
      <trkpt lat="44.87348" lon="0.2388">
        <ele>58</ele>
        <time>2015-02-10T12:37:53Z</time>
      </trkpt>
      <trkpt lat="44.87348" lon="0.23879">
        <ele>56</ele>
        <time>2015-02-10T12:37:54Z</time>
      </trkpt>
      <trkpt lat="44.87347" lon="0.23878">
        <ele>62</ele>
        <time>2015-02-10T12:37:55Z</time>
      </trkpt>
      <trkpt lat="44.87347" lon="0.23877">
        <ele>60</ele>
        <time>2015-02-10T12:37:56Z</time>
      </trkpt>
      <trkpt lat="44.87347" lon="0.23875">
        <ele>59</ele>
        <time>2015-02-10T12:37:57Z</time>
      </trkpt>
      <trkpt lat="44.87345" lon="0.23873">
        <ele>58</ele>
        <time>2015-02-10T12:37:58Z</time>
      </trkpt>
      <trkpt lat="44.87345" lon="0.23872">
        <ele>58</ele>
        <time>2015-02-10T12:37:59Z</time>
      </trkpt>
      <trkpt lat="44.87344" lon="0.23869">
        <ele>59</ele>
        <time>2015-02-10T12:38:00Z</time>
      </trkpt>
      <trkpt lat="44.87344" lon="0.23868">
        <ele>61</ele>
        <time>2015-02-10T12:38:01Z</time>
      </trkpt>
      <trkpt lat="44.87344" lon="0.23867">
        <ele>63</ele>
        <time>2015-02-10T12:38:02Z</time>
      </trkpt>
      <trkpt lat="44.87343" lon="0.23866">
        <ele>64</ele>
        <time>2015-02-10T12:38:03Z</time>
      </trkpt>
      <trkpt lat="44.87343" lon="0.23864">
        <ele>65</ele>
        <time>2015-02-10T12:38:04Z</time>
      </trkpt>
      <trkpt lat="44.87343" lon="0.23861">
        <ele>64</ele>
        <time>2015-02-10T12:38:05Z</time>
      </trkpt>
      <trkpt lat="44.87343" lon="0.2386">
        <ele>67</ele>
        <time>2015-02-10T12:38:06Z</time>
      </trkpt>
      <trkpt lat="44.87342" lon="0.23857">
        <ele>66</ele>
        <time>2015-02-10T12:38:07Z</time>
      </trkpt>
      <trkpt lat="44.87341" lon="0.23856">
        <ele>64</ele>
        <time>2015-02-10T12:38:08Z</time>
      </trkpt>
      <trkpt lat="44.87341" lon="0.23855">
        <ele>62</ele>
        <time>2015-02-10T12:38:09Z</time>
      </trkpt>
      <trkpt lat="44.87341" lon="0.23854">
        <ele>60</ele>
        <time>2015-02-10T12:38:10Z</time>
      </trkpt>
      <trkpt lat="44.8734" lon="0.23853">
        <ele>62</ele>
        <time>2015-02-10T12:38:11Z</time>
      </trkpt>
      <trkpt lat="44.8734" lon="0.23851">
        <ele>61</ele>
        <time>2015-02-10T12:38:12Z</time>
      </trkpt>
      <trkpt lat="44.87339" lon="0.23849">
        <ele>62</ele>
        <time>2015-02-10T12:38:13Z</time>
      </trkpt>
      <trkpt lat="44.87338" lon="0.23848">
        <ele>62</ele>
        <time>2015-02-10T12:38:14Z</time>
      </trkpt>
      <trkpt lat="44.87338" lon="0.23846">
        <ele>59</ele>
        <time>2015-02-10T12:38:15Z</time>
      </trkpt>
      <trkpt lat="44.87338" lon="0.23845">
        <ele>59</ele>
        <time>2015-02-10T12:38:16Z</time>
      </trkpt>
      <trkpt lat="44.87337" lon="0.23844">
        <ele>58</ele>
        <time>2015-02-10T12:38:17Z</time>
      </trkpt>
      <trkpt lat="44.87337" lon="0.23843">
        <ele>58</ele>
        <time>2015-02-10T12:38:18Z</time>
      </trkpt>
      <trkpt lat="44.87336" lon="0.23842">
        <ele>59</ele>
        <time>2015-02-10T12:38:19Z</time>
      </trkpt>
      <trkpt lat="44.87336" lon="0.2384">
        <ele>62</ele>
        <time>2015-02-10T12:38:20Z</time>
      </trkpt>
      <trkpt lat="44.87335" lon="0.23838">
        <ele>64</ele>
        <time>2015-02-10T12:38:21Z</time>
      </trkpt>
      <trkpt lat="44.87335" lon="0.23836">
        <ele>64</ele>
        <time>2015-02-10T12:38:22Z</time>
      </trkpt>
      <trkpt lat="44.87335" lon="0.23835">
        <ele>64</ele>
        <time>2015-02-10T12:38:23Z</time>
      </trkpt>
      <trkpt lat="44.87334" lon="0.23834">
        <ele>63</ele>
        <time>2015-02-10T12:38:24Z</time>
      </trkpt>
      <trkpt lat="44.87334" lon="0.23832">
        <ele>63</ele>
        <time>2015-02-10T12:38:25Z</time>
      </trkpt>
      <trkpt lat="44.87333" lon="0.23831">
        <ele>64</ele>
        <time>2015-02-10T12:38:26Z</time>
      </trkpt>
      <trkpt lat="44.87332" lon="0.23829">
        <ele>64</ele>
        <time>2015-02-10T12:38:27Z</time>
      </trkpt>
      <trkpt lat="44.87332" lon="0.23828">
        <ele>64</ele>
        <time>2015-02-10T12:38:28Z</time>
      </trkpt>
      <trkpt lat="44.87331" lon="0.23826">
        <ele>59</ele>
        <time>2015-02-10T12:38:29Z</time>
      </trkpt>
      <trkpt lat="44.87331" lon="0.23826">
        <ele>57</ele>
        <time>2015-02-10T12:38:30Z</time>
      </trkpt>
      <trkpt lat="44.87331" lon="0.23825">
        <ele>62</ele>
        <time>2015-02-10T12:38:31Z</time>
      </trkpt>
      <trkpt lat="44.8733" lon="0.23824">
        <ele>59</ele>
        <time>2015-02-10T12:38:32Z</time>
      </trkpt>
      <trkpt lat="44.8733" lon="0.23823">
        <ele>61</ele>
        <time>2015-02-10T12:38:33Z</time>
      </trkpt>
      <trkpt lat="44.8733" lon="0.23822">
        <ele>62</ele>
        <time>2015-02-10T12:38:34Z</time>
      </trkpt>
      <trkpt lat="44.8733" lon="0.23821">
        <ele>63</ele>
        <time>2015-02-10T12:38:35Z</time>
      </trkpt>
      <trkpt lat="44.8733" lon="0.23819">
        <ele>61</ele>
        <time>2015-02-10T12:38:36Z</time>
      </trkpt>
      <trkpt lat="44.87329" lon="0.23819">
        <ele>60</ele>
        <time>2015-02-10T12:38:37Z</time>
      </trkpt>
      <trkpt lat="44.87329" lon="0.23819">
        <ele>61</ele>
        <time>2015-02-10T12:38:38Z</time>
      </trkpt>
      <trkpt lat="44.87328" lon="0.23818">
        <ele>60</ele>
        <time>2015-02-10T12:38:39Z</time>
      </trkpt>
      <trkpt lat="44.87328" lon="0.23817">
        <ele>59</ele>
        <time>2015-02-10T12:38:40Z</time>
      </trkpt>
      <trkpt lat="44.87326" lon="0.23815">
        <ele>60</ele>
        <time>2015-02-10T12:38:41Z</time>
      </trkpt>
      <trkpt lat="44.87326" lon="0.23814">
        <ele>58</ele>
        <time>2015-02-10T12:38:42Z</time>
      </trkpt>
      <trkpt lat="44.87325" lon="0.23812">
        <ele>55</ele>
        <time>2015-02-10T12:38:43Z</time>
      </trkpt>
      <trkpt lat="44.87325" lon="0.2381">
        <ele>64</ele>
        <time>2015-02-10T12:38:44Z</time>
      </trkpt>
      <trkpt lat="44.87324" lon="0.23809">
        <ele>62</ele>
        <time>2015-02-10T12:38:45Z</time>
      </trkpt>
      <trkpt lat="44.87323" lon="0.23807">
        <ele>65</ele>
        <time>2015-02-10T12:38:46Z</time>
      </trkpt>
      <trkpt lat="44.87322" lon="0.23806">
        <ele>67</ele>
        <time>2015-02-10T12:38:47Z</time>
      </trkpt>
      <trkpt lat="44.87321" lon="0.23805">
        <ele>67</ele>
        <time>2015-02-10T12:38:48Z</time>
      </trkpt>
      <trkpt lat="44.87321" lon="0.23803">
        <ele>66</ele>
        <time>2015-02-10T12:38:49Z</time>
      </trkpt>
      <trkpt lat="44.87321" lon="0.23802">
        <ele>67</ele>
        <time>2015-02-10T12:38:50Z</time>
      </trkpt>
      <trkpt lat="44.8732" lon="0.23801">
        <ele>67</ele>
        <time>2015-02-10T12:38:51Z</time>
      </trkpt>
      <trkpt lat="44.87319" lon="0.23799">
        <ele>66</ele>
        <time>2015-02-10T12:38:52Z</time>
      </trkpt>
      <trkpt lat="44.87319" lon="0.23798">
        <ele>67</ele>
        <time>2015-02-10T12:38:53Z</time>
      </trkpt>
      <trkpt lat="44.87318" lon="0.23796">
        <ele>66</ele>
        <time>2015-02-10T12:38:54Z</time>
      </trkpt>
      <trkpt lat="44.87318" lon="0.23795">
        <ele>68</ele>
        <time>2015-02-10T12:38:55Z</time>
      </trkpt>
      <trkpt lat="44.87317" lon="0.23793">
        <ele>64</ele>
        <time>2015-02-10T12:38:56Z</time>
      </trkpt>
      <trkpt lat="44.87316" lon="0.23792">
        <ele>68</ele>
        <time>2015-02-10T12:38:57Z</time>
      </trkpt>
      <trkpt lat="44.87316" lon="0.23791">
        <ele>64</ele>
        <time>2015-02-10T12:38:58Z</time>
      </trkpt>
      <trkpt lat="44.87316" lon="0.2379">
        <ele>66</ele>
        <time>2015-02-10T12:38:59Z</time>
      </trkpt>
      <trkpt lat="44.87315" lon="0.2379">
        <ele>66</ele>
        <time>2015-02-10T12:39:00Z</time>
      </trkpt>
      <trkpt lat="44.87314" lon="0.23788">
        <ele>63</ele>
        <time>2015-02-10T12:39:01Z</time>
      </trkpt>
      <trkpt lat="44.87313" lon="0.23787">
        <ele>63</ele>
        <time>2015-02-10T12:39:02Z</time>
      </trkpt>
      <trkpt lat="44.87313" lon="0.23784">
        <ele>64</ele>
        <time>2015-02-10T12:39:03Z</time>
      </trkpt>
      <trkpt lat="44.87312" lon="0.23783">
        <ele>66</ele>
        <time>2015-02-10T12:39:04Z</time>
      </trkpt>
      <trkpt lat="44.87312" lon="0.23782">
        <ele>68</ele>
        <time>2015-02-10T12:39:05Z</time>
      </trkpt>
      <trkpt lat="44.87311" lon="0.23781">
        <ele>68</ele>
        <time>2015-02-10T12:39:06Z</time>
      </trkpt>
      <trkpt lat="44.87311" lon="0.23779">
        <ele>66</ele>
        <time>2015-02-10T12:39:07Z</time>
      </trkpt>
      <trkpt lat="44.87311" lon="0.23777">
        <ele>63</ele>
        <time>2015-02-10T12:39:08Z</time>
      </trkpt>
      <trkpt lat="44.87311" lon="0.23776">
        <ele>65</ele>
        <time>2015-02-10T12:39:09Z</time>
      </trkpt>
      <trkpt lat="44.8731" lon="0.23775">
        <ele>65</ele>
        <time>2015-02-10T12:39:10Z</time>
      </trkpt>
      <trkpt lat="44.8731" lon="0.23774">
        <ele>66</ele>
        <time>2015-02-10T12:39:11Z</time>
      </trkpt>
      <trkpt lat="44.87309" lon="0.23773">
        <ele>68</ele>
        <time>2015-02-10T12:39:12Z</time>
      </trkpt>
      <trkpt lat="44.87309" lon="0.23772">
        <ele>59</ele>
        <time>2015-02-10T12:39:13Z</time>
      </trkpt>
      <trkpt lat="44.87309" lon="0.23771">
        <ele>60</ele>
        <time>2015-02-10T12:39:14Z</time>
      </trkpt>
      <trkpt lat="44.87309" lon="0.2377">
        <ele>61</ele>
        <time>2015-02-10T12:39:15Z</time>
      </trkpt>
      <trkpt lat="44.87309" lon="0.23769">
        <ele>62</ele>
        <time>2015-02-10T12:39:16Z</time>
      </trkpt>
      <trkpt lat="44.87308" lon="0.23768">
        <ele>63</ele>
        <time>2015-02-10T12:39:17Z</time>
      </trkpt>
      <trkpt lat="44.87308" lon="0.23766">
        <ele>62</ele>
        <time>2015-02-10T12:39:18Z</time>
      </trkpt>
      <trkpt lat="44.87307" lon="0.23765">
        <ele>61</ele>
        <time>2015-02-10T12:39:19Z</time>
      </trkpt>
      <trkpt lat="44.87306" lon="0.23764">
        <ele>62</ele>
        <time>2015-02-10T12:39:20Z</time>
      </trkpt>
      <trkpt lat="44.87306" lon="0.23763">
        <ele>61</ele>
        <time>2015-02-10T12:39:21Z</time>
      </trkpt>
      <trkpt lat="44.87306" lon="0.23762">
        <ele>60</ele>
        <time>2015-02-10T12:39:22Z</time>
      </trkpt>
      <trkpt lat="44.87306" lon="0.23762">
        <ele>63</ele>
        <time>2015-02-10T12:39:23Z</time>
      </trkpt>
      <trkpt lat="44.87306" lon="0.23761">
        <ele>62</ele>
        <time>2015-02-10T12:39:24Z</time>
      </trkpt>
      <trkpt lat="44.87305" lon="0.2376">
        <ele>62</ele>
        <time>2015-02-10T12:39:25Z</time>
      </trkpt>
      <trkpt lat="44.87305" lon="0.23759">
        <ele>64</ele>
        <time>2015-02-10T12:39:26Z</time>
      </trkpt>
      <trkpt lat="44.87304" lon="0.23758">
        <ele>63</ele>
        <time>2015-02-10T12:39:27Z</time>
      </trkpt>
      <trkpt lat="44.87304" lon="0.23757">
        <ele>65</ele>
        <time>2015-02-10T12:39:28Z</time>
      </trkpt>
      <trkpt lat="44.87304" lon="0.23756">
        <ele>64</ele>
        <time>2015-02-10T12:39:29Z</time>
      </trkpt>
      <trkpt lat="44.87303" lon="0.23755">
        <ele>65</ele>
        <time>2015-02-10T12:39:30Z</time>
      </trkpt>
      <trkpt lat="44.87303" lon="0.23754">
        <ele>65</ele>
        <time>2015-02-10T12:39:31Z</time>
      </trkpt>
      <trkpt lat="44.87302" lon="0.23753">
        <ele>66</ele>
        <time>2015-02-10T12:39:32Z</time>
      </trkpt>
      <trkpt lat="44.87301" lon="0.23752">
        <ele>64</ele>
        <time>2015-02-10T12:39:33Z</time>
      </trkpt>
      <trkpt lat="44.873" lon="0.23751">
        <ele>63</ele>
        <time>2015-02-10T12:39:34Z</time>
      </trkpt>
      <trkpt lat="44.873" lon="0.2375">
        <ele>64</ele>
        <time>2015-02-10T12:39:35Z</time>
      </trkpt>
      <trkpt lat="44.87299" lon="0.23749">
        <ele>67</ele>
        <time>2015-02-10T12:39:36Z</time>
      </trkpt>
      <trkpt lat="44.87299" lon="0.23748">
        <ele>64</ele>
        <time>2015-02-10T12:39:37Z</time>
      </trkpt>
      <trkpt lat="44.87299" lon="0.23747">
        <ele>65</ele>
        <time>2015-02-10T12:39:38Z</time>
      </trkpt>
      <trkpt lat="44.87298" lon="0.23746">
        <ele>65</ele>
        <time>2015-02-10T12:39:39Z</time>
      </trkpt>
      <trkpt lat="44.87298" lon="0.23745">
        <ele>64</ele>
        <time>2015-02-10T12:39:40Z</time>
      </trkpt>
      <trkpt lat="44.87297" lon="0.23744">
        <ele>61</ele>
        <time>2015-02-10T12:39:41Z</time>
      </trkpt>
      <trkpt lat="44.87296" lon="0.23744">
        <ele>61</ele>
        <time>2015-02-10T12:39:42Z</time>
      </trkpt>
      <trkpt lat="44.87295" lon="0.23744">
        <ele>56</ele>
        <time>2015-02-10T12:39:43Z</time>
      </trkpt>
      <trkpt lat="44.87294" lon="0.23744">
        <ele>58</ele>
        <time>2015-02-10T12:39:44Z</time>
      </trkpt>
      <trkpt lat="44.87293" lon="0.23742">
        <ele>57</ele>
        <time>2015-02-10T12:39:45Z</time>
      </trkpt>
      <trkpt lat="44.87291" lon="0.23741">
        <ele>58</ele>
        <time>2015-02-10T12:39:46Z</time>
      </trkpt>
      <trkpt lat="44.8729" lon="0.2374">
        <ele>55</ele>
        <time>2015-02-10T12:39:47Z</time>
      </trkpt>
      <trkpt lat="44.8729" lon="0.23738">
        <ele>56</ele>
        <time>2015-02-10T12:39:48Z</time>
      </trkpt>
      <trkpt lat="44.87289" lon="0.23737">
        <ele>54</ele>
        <time>2015-02-10T12:39:49Z</time>
      </trkpt>
      <trkpt lat="44.87288" lon="0.23734">
        <ele>60</ele>
        <time>2015-02-10T12:39:50Z</time>
      </trkpt>
      <trkpt lat="44.87286" lon="0.23732">
        <ele>59</ele>
        <time>2015-02-10T12:39:51Z</time>
      </trkpt>
      <trkpt lat="44.87285" lon="0.23731">
        <ele>59</ele>
        <time>2015-02-10T12:39:52Z</time>
      </trkpt>
      <trkpt lat="44.87284" lon="0.2373">
        <ele>65</ele>
        <time>2015-02-10T12:39:53Z</time>
      </trkpt>
      <trkpt lat="44.87284" lon="0.23729">
        <ele>59</ele>
        <time>2015-02-10T12:39:54Z</time>
      </trkpt>
      <trkpt lat="44.87283" lon="0.23728">
        <ele>60</ele>
        <time>2015-02-10T12:39:55Z</time>
      </trkpt>
      <trkpt lat="44.87282" lon="0.23727">
        <ele>62</ele>
        <time>2015-02-10T12:39:56Z</time>
      </trkpt>
      <trkpt lat="44.87282" lon="0.23726">
        <ele>62</ele>
        <time>2015-02-10T12:39:57Z</time>
      </trkpt>
      <trkpt lat="44.87282" lon="0.23726">
        <ele>62</ele>
        <time>2015-02-10T12:39:58Z</time>
      </trkpt>
      <trkpt lat="44.87281" lon="0.23725">
        <ele>62</ele>
        <time>2015-02-10T12:39:59Z</time>
      </trkpt>
      <trkpt lat="44.87281" lon="0.23725">
        <ele>61</ele>
        <time>2015-02-10T12:40:00Z</time>
      </trkpt>
      <trkpt lat="44.8728" lon="0.23724">
        <ele>61</ele>
        <time>2015-02-10T12:40:01Z</time>
      </trkpt>
      <trkpt lat="44.87279" lon="0.23722">
        <ele>61</ele>
        <time>2015-02-10T12:40:02Z</time>
      </trkpt>
      <trkpt lat="44.87279" lon="0.23721">
        <ele>61</ele>
        <time>2015-02-10T12:40:03Z</time>
      </trkpt>
      <trkpt lat="44.87279" lon="0.23719">
        <ele>57</ele>
        <time>2015-02-10T12:40:04Z</time>
      </trkpt>
      <trkpt lat="44.87278" lon="0.23718">
        <ele>56</ele>
        <time>2015-02-10T12:40:05Z</time>
      </trkpt>
      <trkpt lat="44.87277" lon="0.23716">
        <ele>60</ele>
        <time>2015-02-10T12:40:06Z</time>
      </trkpt>
      <trkpt lat="44.87276" lon="0.23715">
        <ele>63</ele>
        <time>2015-02-10T12:40:07Z</time>
      </trkpt>
      <trkpt lat="44.87276" lon="0.23714">
        <ele>64</ele>
        <time>2015-02-10T12:40:08Z</time>
      </trkpt>
      <trkpt lat="44.87276" lon="0.23713">
        <ele>61</ele>
        <time>2015-02-10T12:40:09Z</time>
      </trkpt>
      <trkpt lat="44.87276" lon="0.23712">
        <ele>61</ele>
        <time>2015-02-10T12:40:10Z</time>
      </trkpt>
      <trkpt lat="44.87275" lon="0.23711">
        <ele>61</ele>
        <time>2015-02-10T12:40:11Z</time>
      </trkpt>
      <trkpt lat="44.87274" lon="0.23709">
        <ele>60</ele>
        <time>2015-02-10T12:40:12Z</time>
      </trkpt>
      <trkpt lat="44.87274" lon="0.23708">
        <ele>60</ele>
        <time>2015-02-10T12:40:13Z</time>
      </trkpt>
      <trkpt lat="44.87274" lon="0.23707">
        <ele>58</ele>
        <time>2015-02-10T12:40:14Z</time>
      </trkpt>
      <trkpt lat="44.87274" lon="0.23705">
        <ele>61</ele>
        <time>2015-02-10T12:40:15Z</time>
      </trkpt>
      <trkpt lat="44.87274" lon="0.23704">
        <ele>59</ele>
        <time>2015-02-10T12:40:16Z</time>
      </trkpt>
      <trkpt lat="44.87275" lon="0.23703">
        <ele>60</ele>
        <time>2015-02-10T12:40:17Z</time>
      </trkpt>
      <trkpt lat="44.87275" lon="0.23702">
        <ele>57</ele>
        <time>2015-02-10T12:40:18Z</time>
      </trkpt>
      <trkpt lat="44.87275" lon="0.23701">
        <ele>58</ele>
        <time>2015-02-10T12:40:19Z</time>
      </trkpt>
      <trkpt lat="44.87275" lon="0.23701">
        <ele>55</ele>
        <time>2015-02-10T12:40:20Z</time>
      </trkpt>
      <trkpt lat="44.87275" lon="0.23701">
        <ele>53</ele>
        <time>2015-02-10T12:40:21Z</time>
      </trkpt>
      <trkpt lat="44.87275" lon="0.237">
        <ele>53</ele>
        <time>2015-02-10T12:40:22Z</time>
      </trkpt>
      <trkpt lat="44.87276" lon="0.237">
        <ele>54</ele>
        <time>2015-02-10T12:40:23Z</time>
      </trkpt>
      <trkpt lat="44.87277" lon="0.23699">
        <ele>54</ele>
        <time>2015-02-10T12:40:24Z</time>
      </trkpt>
      <trkpt lat="44.87277" lon="0.23699">
        <ele>57</ele>
        <time>2015-02-10T12:40:25Z</time>
      </trkpt>
      <trkpt lat="44.87277" lon="0.23698">
        <ele>58</ele>
        <time>2015-02-10T12:40:26Z</time>
      </trkpt>
      <trkpt lat="44.87277" lon="0.23697">
        <ele>53</ele>
        <time>2015-02-10T12:40:27Z</time>
      </trkpt>
      <trkpt lat="44.87277" lon="0.23697">
        <ele>43</ele>
        <time>2015-02-10T12:40:28Z</time>
      </trkpt>
      <trkpt lat="44.87278" lon="0.23696">
        <ele>49</ele>
        <time>2015-02-10T12:40:29Z</time>
      </trkpt>
      <trkpt lat="44.87278" lon="0.23695">
        <ele>46</ele>
        <time>2015-02-10T12:40:30Z</time>
      </trkpt>
      <trkpt lat="44.87278" lon="0.23694">
        <ele>46</ele>
        <time>2015-02-10T12:40:31Z</time>
      </trkpt>
      <trkpt lat="44.87278" lon="0.23694">
        <ele>47</ele>
        <time>2015-02-10T12:40:32Z</time>
      </trkpt>
      <trkpt lat="44.87278" lon="0.23694">
        <ele>44</ele>
        <time>2015-02-10T12:40:33Z</time>
      </trkpt>
      <trkpt lat="44.87279" lon="0.23693">
        <ele>46</ele>
        <time>2015-02-10T12:40:34Z</time>
      </trkpt>
      <trkpt lat="44.87279" lon="0.23692">
        <ele>51</ele>
        <time>2015-02-10T12:40:35Z</time>
      </trkpt>
      <trkpt lat="44.87279" lon="0.23691">
        <ele>54</ele>
        <time>2015-02-10T12:40:36Z</time>
      </trkpt>
      <trkpt lat="44.87279" lon="0.23689">
        <ele>60</ele>
        <time>2015-02-10T12:40:37Z</time>
      </trkpt>
      <trkpt lat="44.8728" lon="0.23689">
        <ele>60</ele>
        <time>2015-02-10T12:40:38Z</time>
      </trkpt>
      <trkpt lat="44.87281" lon="0.23688">
        <ele>61</ele>
        <time>2015-02-10T12:40:39Z</time>
      </trkpt>
      <trkpt lat="44.87281" lon="0.23688">
        <ele>57</ele>
        <time>2015-02-10T12:40:40Z</time>
      </trkpt>
      <trkpt lat="44.87281" lon="0.23688">
        <ele>58</ele>
        <time>2015-02-10T12:40:41Z</time>
      </trkpt>
      <trkpt lat="44.87281" lon="0.23688">
        <ele>64</ele>
        <time>2015-02-10T12:40:42Z</time>
      </trkpt>
      <trkpt lat="44.8728" lon="0.23689">
        <ele>64</ele>
        <time>2015-02-10T12:40:43Z</time>
      </trkpt>
      <trkpt lat="44.87281" lon="0.23689">
        <ele>61</ele>
        <time>2015-02-10T12:40:44Z</time>
      </trkpt>
      <trkpt lat="44.87281" lon="0.23689">
        <ele>64</ele>
        <time>2015-02-10T12:40:45Z</time>
      </trkpt>
      <trkpt lat="44.87281" lon="0.23688">
        <ele>55</ele>
        <time>2015-02-10T12:40:46Z</time>
      </trkpt>
      <trkpt lat="44.87282" lon="0.23687">
        <ele>56</ele>
        <time>2015-02-10T12:40:47Z</time>
      </trkpt>
      <trkpt lat="44.87283" lon="0.23686">
        <ele>58</ele>
        <time>2015-02-10T12:40:48Z</time>
      </trkpt>
      <trkpt lat="44.87284" lon="0.23685">
        <ele>59</ele>
        <time>2015-02-10T12:40:49Z</time>
      </trkpt>
      <trkpt lat="44.87285" lon="0.23684">
        <ele>57</ele>
        <time>2015-02-10T12:40:50Z</time>
      </trkpt>
      <trkpt lat="44.87285" lon="0.23685">
        <ele>57</ele>
        <time>2015-02-10T12:40:51Z</time>
      </trkpt>
      <trkpt lat="44.87286" lon="0.23686">
        <ele>56</ele>
        <time>2015-02-10T12:40:52Z</time>
      </trkpt>
      <trkpt lat="44.87286" lon="0.23687">
        <ele>57</ele>
        <time>2015-02-10T12:40:53Z</time>
      </trkpt>
      <trkpt lat="44.87288" lon="0.23688">
        <ele>57</ele>
        <time>2015-02-10T12:40:54Z</time>
      </trkpt>
      <trkpt lat="44.87288" lon="0.2369">
        <ele>58</ele>
        <time>2015-02-10T12:40:55Z</time>
      </trkpt>
      <trkpt lat="44.87288" lon="0.2369">
        <ele>54</ele>
        <time>2015-02-10T12:40:56Z</time>
      </trkpt>
      <trkpt lat="44.87288" lon="0.23691">
        <ele>54</ele>
        <time>2015-02-10T12:40:57Z</time>
      </trkpt>
      <trkpt lat="44.87288" lon="0.23692">
        <ele>57</ele>
        <time>2015-02-10T12:40:58Z</time>
      </trkpt>
      <trkpt lat="44.87289" lon="0.23692">
        <ele>57</ele>
        <time>2015-02-10T12:40:59Z</time>
      </trkpt>
      <trkpt lat="44.8729" lon="0.23693">
        <ele>56</ele>
        <time>2015-02-10T12:41:00Z</time>
      </trkpt>
      <trkpt lat="44.87291" lon="0.23694">
        <ele>59</ele>
        <time>2015-02-10T12:41:01Z</time>
      </trkpt>
      <trkpt lat="44.87292" lon="0.23694">
        <ele>61</ele>
        <time>2015-02-10T12:41:02Z</time>
      </trkpt>
      <trkpt lat="44.87294" lon="0.23695">
        <ele>59</ele>
        <time>2015-02-10T12:41:03Z</time>
      </trkpt>
      <trkpt lat="44.87296" lon="0.23695">
        <ele>57</ele>
        <time>2015-02-10T12:41:04Z</time>
      </trkpt>
      <trkpt lat="44.87298" lon="0.23696">
        <ele>57</ele>
        <time>2015-02-10T12:41:05Z</time>
      </trkpt>
      <trkpt lat="44.873" lon="0.23697">
        <ele>57</ele>
        <time>2015-02-10T12:41:06Z</time>
      </trkpt>
      <trkpt lat="44.87301" lon="0.23698">
        <ele>57</ele>
        <time>2015-02-10T12:41:07Z</time>
      </trkpt>
      <trkpt lat="44.87302" lon="0.23699">
        <ele>55</ele>
        <time>2015-02-10T12:41:08Z</time>
      </trkpt>
      <trkpt lat="44.87304" lon="0.237">
        <ele>56</ele>
        <time>2015-02-10T12:41:09Z</time>
      </trkpt>
      <trkpt lat="44.87305" lon="0.237">
        <ele>55</ele>
        <time>2015-02-10T12:41:10Z</time>
      </trkpt>
      <trkpt lat="44.87306" lon="0.237">
        <ele>57</ele>
        <time>2015-02-10T12:41:11Z</time>
      </trkpt>
      <trkpt lat="44.87307" lon="0.237">
        <ele>53</ele>
        <time>2015-02-10T12:41:12Z</time>
      </trkpt>
      <trkpt lat="44.87308" lon="0.23701">
        <ele>54</ele>
        <time>2015-02-10T12:41:13Z</time>
      </trkpt>
      <trkpt lat="44.87309" lon="0.23701">
        <ele>56</ele>
        <time>2015-02-10T12:41:14Z</time>
      </trkpt>
      <trkpt lat="44.87311" lon="0.23701">
        <ele>59</ele>
        <time>2015-02-10T12:41:15Z</time>
      </trkpt>
      <trkpt lat="44.87312" lon="0.23701">
        <ele>61</ele>
        <time>2015-02-10T12:41:16Z</time>
      </trkpt>
      <trkpt lat="44.87314" lon="0.237">
        <ele>59</ele>
        <time>2015-02-10T12:41:17Z</time>
      </trkpt>
      <trkpt lat="44.87315" lon="0.237">
        <ele>59</ele>
        <time>2015-02-10T12:41:18Z</time>
      </trkpt>
      <trkpt lat="44.87316" lon="0.237">
        <ele>58</ele>
        <time>2015-02-10T12:41:19Z</time>
      </trkpt>
      <trkpt lat="44.87317" lon="0.23701">
        <ele>56</ele>
        <time>2015-02-10T12:41:20Z</time>
      </trkpt>
      <trkpt lat="44.87318" lon="0.23702">
        <ele>56</ele>
        <time>2015-02-10T12:41:21Z</time>
      </trkpt>
      <trkpt lat="44.87319" lon="0.23703">
        <ele>56</ele>
        <time>2015-02-10T12:41:22Z</time>
      </trkpt>
      <trkpt lat="44.8732" lon="0.23703">
        <ele>58</ele>
        <time>2015-02-10T12:41:23Z</time>
      </trkpt>
      <trkpt lat="44.87321" lon="0.23704">
        <ele>58</ele>
        <time>2015-02-10T12:41:24Z</time>
      </trkpt>
      <trkpt lat="44.87322" lon="0.23705">
        <ele>60</ele>
        <time>2015-02-10T12:41:25Z</time>
      </trkpt>
      <trkpt lat="44.87323" lon="0.23705">
        <ele>60</ele>
        <time>2015-02-10T12:41:26Z</time>
      </trkpt>
      <trkpt lat="44.87324" lon="0.23706">
        <ele>61</ele>
        <time>2015-02-10T12:41:27Z</time>
      </trkpt>
      <trkpt lat="44.87325" lon="0.23706">
        <ele>60</ele>
        <time>2015-02-10T12:41:28Z</time>
      </trkpt>
      <trkpt lat="44.87326" lon="0.23707">
        <ele>63</ele>
        <time>2015-02-10T12:41:29Z</time>
      </trkpt>
      <trkpt lat="44.87327" lon="0.23707">
        <ele>63</ele>
        <time>2015-02-10T12:41:30Z</time>
      </trkpt>
      <trkpt lat="44.87328" lon="0.23707">
        <ele>63</ele>
        <time>2015-02-10T12:41:31Z</time>
      </trkpt>
      <trkpt lat="44.8733" lon="0.23708">
        <ele>64</ele>
        <time>2015-02-10T12:41:32Z</time>
      </trkpt>
      <trkpt lat="44.87331" lon="0.23708">
        <ele>61</ele>
        <time>2015-02-10T12:41:33Z</time>
      </trkpt>
      <trkpt lat="44.87332" lon="0.23709">
        <ele>63</ele>
        <time>2015-02-10T12:41:34Z</time>
      </trkpt>
      <trkpt lat="44.87333" lon="0.23709">
        <ele>62</ele>
        <time>2015-02-10T12:41:35Z</time>
      </trkpt>
      <trkpt lat="44.87334" lon="0.2371">
        <ele>64</ele>
        <time>2015-02-10T12:41:36Z</time>
      </trkpt>
      <trkpt lat="44.87335" lon="0.2371">
        <ele>65</ele>
        <time>2015-02-10T12:41:37Z</time>
      </trkpt>
      <trkpt lat="44.87337" lon="0.23711">
        <ele>67</ele>
        <time>2015-02-10T12:41:38Z</time>
      </trkpt>
      <trkpt lat="44.87338" lon="0.23711">
        <ele>64</ele>
        <time>2015-02-10T12:41:39Z</time>
      </trkpt>
      <trkpt lat="44.8734" lon="0.23712">
        <ele>63</ele>
        <time>2015-02-10T12:41:40Z</time>
      </trkpt>
      <trkpt lat="44.87341" lon="0.23712">
        <ele>59</ele>
        <time>2015-02-10T12:41:41Z</time>
      </trkpt>
      <trkpt lat="44.87342" lon="0.23712">
        <ele>60</ele>
        <time>2015-02-10T12:41:42Z</time>
      </trkpt>
      <trkpt lat="44.87342" lon="0.23713">
        <ele>62</ele>
        <time>2015-02-10T12:41:43Z</time>
      </trkpt>
      <trkpt lat="44.87343" lon="0.23713">
        <ele>60</ele>
        <time>2015-02-10T12:41:44Z</time>
      </trkpt>
      <trkpt lat="44.87345" lon="0.23714">
        <ele>62</ele>
        <time>2015-02-10T12:41:45Z</time>
      </trkpt>
      <trkpt lat="44.87346" lon="0.23714">
        <ele>64</ele>
        <time>2015-02-10T12:41:46Z</time>
      </trkpt>
      <trkpt lat="44.87347" lon="0.23714">
        <ele>61</ele>
        <time>2015-02-10T12:41:47Z</time>
      </trkpt>
      <trkpt lat="44.87348" lon="0.23715">
        <ele>61</ele>
        <time>2015-02-10T12:41:48Z</time>
      </trkpt>
      <trkpt lat="44.8735" lon="0.23715">
        <ele>62</ele>
        <time>2015-02-10T12:41:49Z</time>
      </trkpt>
      <trkpt lat="44.87351" lon="0.23716">
        <ele>62</ele>
        <time>2015-02-10T12:41:50Z</time>
      </trkpt>
      <trkpt lat="44.87352" lon="0.23717">
        <ele>59</ele>
        <time>2015-02-10T12:41:51Z</time>
      </trkpt>
      <trkpt lat="44.87353" lon="0.23718">
        <ele>60</ele>
        <time>2015-02-10T12:41:52Z</time>
      </trkpt>
      <trkpt lat="44.87354" lon="0.23718">
        <ele>62</ele>
        <time>2015-02-10T12:41:53Z</time>
      </trkpt>
      <trkpt lat="44.87355" lon="0.23719">
        <ele>64</ele>
        <time>2015-02-10T12:41:54Z</time>
      </trkpt>
      <trkpt lat="44.87356" lon="0.23719">
        <ele>64</ele>
        <time>2015-02-10T12:41:55Z</time>
      </trkpt>
      <trkpt lat="44.87356" lon="0.23719">
        <ele>62</ele>
        <time>2015-02-10T12:41:56Z</time>
      </trkpt>
      <trkpt lat="44.87357" lon="0.2372">
        <ele>62</ele>
        <time>2015-02-10T12:41:57Z</time>
      </trkpt>
      <trkpt lat="44.87358" lon="0.23721">
        <ele>62</ele>
        <time>2015-02-10T12:41:58Z</time>
      </trkpt>
      <trkpt lat="44.87359" lon="0.23722">
        <ele>62</ele>
        <time>2015-02-10T12:41:59Z</time>
      </trkpt>
      <trkpt lat="44.87361" lon="0.23722">
        <ele>62</ele>
        <time>2015-02-10T12:42:00Z</time>
      </trkpt>
      <trkpt lat="44.87362" lon="0.23723">
        <ele>63</ele>
        <time>2015-02-10T12:42:01Z</time>
      </trkpt>
      <trkpt lat="44.87363" lon="0.23723">
        <ele>62</ele>
        <time>2015-02-10T12:42:02Z</time>
      </trkpt>
      <trkpt lat="44.87364" lon="0.23724">
        <ele>60</ele>
        <time>2015-02-10T12:42:03Z</time>
      </trkpt>
      <trkpt lat="44.87364" lon="0.23724">
        <ele>62</ele>
        <time>2015-02-10T12:42:04Z</time>
      </trkpt>
      <trkpt lat="44.87366" lon="0.23725">
        <ele>59</ele>
        <time>2015-02-10T12:42:05Z</time>
      </trkpt>
      <trkpt lat="44.87367" lon="0.23726">
        <ele>58</ele>
        <time>2015-02-10T12:42:06Z</time>
      </trkpt>
      <trkpt lat="44.87367" lon="0.23727">
        <ele>59</ele>
        <time>2015-02-10T12:42:07Z</time>
      </trkpt>
      <trkpt lat="44.87369" lon="0.23728">
        <ele>58</ele>
        <time>2015-02-10T12:42:08Z</time>
      </trkpt>
      <trkpt lat="44.87369" lon="0.23728">
        <ele>57</ele>
        <time>2015-02-10T12:42:09Z</time>
      </trkpt>
      <trkpt lat="44.8737" lon="0.23729">
        <ele>56</ele>
        <time>2015-02-10T12:42:10Z</time>
      </trkpt>
      <trkpt lat="44.87371" lon="0.23729">
        <ele>59</ele>
        <time>2015-02-10T12:42:11Z</time>
      </trkpt>
      <trkpt lat="44.87372" lon="0.2373">
        <ele>58</ele>
        <time>2015-02-10T12:42:12Z</time>
      </trkpt>
      <trkpt lat="44.87374" lon="0.23731">
        <ele>59</ele>
        <time>2015-02-10T12:42:13Z</time>
      </trkpt>
      <trkpt lat="44.87375" lon="0.23731">
        <ele>57</ele>
        <time>2015-02-10T12:42:14Z</time>
      </trkpt>
      <trkpt lat="44.87376" lon="0.23732">
        <ele>60</ele>
        <time>2015-02-10T12:42:15Z</time>
      </trkpt>
      <trkpt lat="44.87377" lon="0.23733">
        <ele>61</ele>
        <time>2015-02-10T12:42:16Z</time>
      </trkpt>
      <trkpt lat="44.87378" lon="0.23734">
        <ele>60</ele>
        <time>2015-02-10T12:42:17Z</time>
      </trkpt>
      <trkpt lat="44.87379" lon="0.23735">
        <ele>60</ele>
        <time>2015-02-10T12:42:18Z</time>
      </trkpt>
      <trkpt lat="44.8738" lon="0.23736">
        <ele>60</ele>
        <time>2015-02-10T12:42:19Z</time>
      </trkpt>
      <trkpt lat="44.87381" lon="0.23736">
        <ele>59</ele>
        <time>2015-02-10T12:42:20Z</time>
      </trkpt>
      <trkpt lat="44.87382" lon="0.23736">
        <ele>59</ele>
        <time>2015-02-10T12:42:21Z</time>
      </trkpt>
      <trkpt lat="44.87383" lon="0.23737">
        <ele>60</ele>
        <time>2015-02-10T12:42:22Z</time>
      </trkpt>
      <trkpt lat="44.87384" lon="0.23737">
        <ele>61</ele>
        <time>2015-02-10T12:42:23Z</time>
      </trkpt>
      <trkpt lat="44.87385" lon="0.23737">
        <ele>61</ele>
        <time>2015-02-10T12:42:24Z</time>
      </trkpt>
      <trkpt lat="44.87386" lon="0.23737">
        <ele>62</ele>
        <time>2015-02-10T12:42:25Z</time>
      </trkpt>
      <trkpt lat="44.87387" lon="0.23737">
        <ele>60</ele>
        <time>2015-02-10T12:42:26Z</time>
      </trkpt>
      <trkpt lat="44.87388" lon="0.23735">
        <ele>59</ele>
        <time>2015-02-10T12:42:27Z</time>
      </trkpt>
      <trkpt lat="44.87389" lon="0.23735">
        <ele>59</ele>
        <time>2015-02-10T12:42:28Z</time>
      </trkpt>
      <trkpt lat="44.87389" lon="0.23734">
        <ele>63</ele>
        <time>2015-02-10T12:42:29Z</time>
      </trkpt>
      <trkpt lat="44.8739" lon="0.23733">
        <ele>63</ele>
        <time>2015-02-10T12:42:30Z</time>
      </trkpt>
      <trkpt lat="44.8739" lon="0.23732">
        <ele>62</ele>
        <time>2015-02-10T12:42:31Z</time>
      </trkpt>
      <trkpt lat="44.8739" lon="0.23731">
        <ele>62</ele>
        <time>2015-02-10T12:42:32Z</time>
      </trkpt>
      <trkpt lat="44.87391" lon="0.2373">
        <ele>63</ele>
        <time>2015-02-10T12:42:33Z</time>
      </trkpt>
      <trkpt lat="44.87391" lon="0.23728">
        <ele>64</ele>
        <time>2015-02-10T12:42:34Z</time>
      </trkpt>
      <trkpt lat="44.87391" lon="0.23727">
        <ele>64</ele>
        <time>2015-02-10T12:42:35Z</time>
      </trkpt>
      <trkpt lat="44.87391" lon="0.23725">
        <ele>63</ele>
        <time>2015-02-10T12:42:36Z</time>
      </trkpt>
      <trkpt lat="44.87391" lon="0.23725">
        <ele>64</ele>
        <time>2015-02-10T12:42:37Z</time>
      </trkpt>
      <trkpt lat="44.87391" lon="0.23724">
        <ele>63</ele>
        <time>2015-02-10T12:42:38Z</time>
      </trkpt>
      <trkpt lat="44.87391" lon="0.23723">
        <ele>65</ele>
        <time>2015-02-10T12:42:39Z</time>
      </trkpt>
      <trkpt lat="44.87391" lon="0.23722">
        <ele>65</ele>
        <time>2015-02-10T12:42:40Z</time>
      </trkpt>
      <trkpt lat="44.87392" lon="0.23722">
        <ele>65</ele>
        <time>2015-02-10T12:42:41Z</time>
      </trkpt>
      <trkpt lat="44.87392" lon="0.23721">
        <ele>65</ele>
        <time>2015-02-10T12:42:42Z</time>
      </trkpt>
      <trkpt lat="44.87392" lon="0.2372">
        <ele>64</ele>
        <time>2015-02-10T12:42:43Z</time>
      </trkpt>
      <trkpt lat="44.87392" lon="0.2372">
        <ele>65</ele>
        <time>2015-02-10T12:42:44Z</time>
      </trkpt>
      <trkpt lat="44.87393" lon="0.23719">
        <ele>66</ele>
        <time>2015-02-10T12:42:45Z</time>
      </trkpt>
      <trkpt lat="44.87393" lon="0.23718">
        <ele>68</ele>
        <time>2015-02-10T12:42:46Z</time>
      </trkpt>
      <trkpt lat="44.87393" lon="0.23717">
        <ele>68</ele>
        <time>2015-02-10T12:42:47Z</time>
      </trkpt>
      <trkpt lat="44.87393" lon="0.23717">
        <ele>66</ele>
        <time>2015-02-10T12:42:48Z</time>
      </trkpt>
      <trkpt lat="44.87393" lon="0.23717">
        <ele>66</ele>
        <time>2015-02-10T12:42:49Z</time>
      </trkpt>
      <trkpt lat="44.87393" lon="0.23717">
        <ele>70</ele>
        <time>2015-02-10T12:42:50Z</time>
      </trkpt>
      <trkpt lat="44.87393" lon="0.23717">
        <ele>70</ele>
        <time>2015-02-10T12:42:51Z</time>
      </trkpt>
      <trkpt lat="44.87393" lon="0.23717">
        <ele>69</ele>
        <time>2015-02-10T12:42:52Z</time>
      </trkpt>
      <trkpt lat="44.87393" lon="0.23717">
        <ele>69</ele>
        <time>2015-02-10T12:42:53Z</time>
      </trkpt>
      <trkpt lat="44.87393" lon="0.23717">
        <ele>69</ele>
        <time>2015-02-10T12:42:54Z</time>
      </trkpt>
      <trkpt lat="44.87393" lon="0.23717">
        <ele>69</ele>
        <time>2015-02-10T12:42:55Z</time>
      </trkpt>
      <trkpt lat="44.87393" lon="0.23717">
        <ele>68</ele>
        <time>2015-02-10T12:42:56Z</time>
      </trkpt>
      <trkpt lat="44.87393" lon="0.23717">
        <ele>68</ele>
        <time>2015-02-10T12:42:57Z</time>
      </trkpt>
      <trkpt lat="44.87393" lon="0.23717">
        <ele>67</ele>
        <time>2015-02-10T12:42:58Z</time>
      </trkpt>
      <trkpt lat="44.87393" lon="0.23717">
        <ele>69</ele>
        <time>2015-02-10T12:42:59Z</time>
      </trkpt>
      <trkpt lat="44.87393" lon="0.23717">
        <ele>69</ele>
        <time>2015-02-10T12:43:00Z</time>
      </trkpt>
      <trkpt lat="44.87394" lon="0.23717">
        <ele>67</ele>
        <time>2015-02-10T12:43:01Z</time>
      </trkpt>
      <trkpt lat="44.87394" lon="0.23716">
        <ele>70</ele>
        <time>2015-02-10T12:43:02Z</time>
      </trkpt>
      <trkpt lat="44.87395" lon="0.23715">
        <ele>66</ele>
        <time>2015-02-10T12:43:03Z</time>
      </trkpt>
      <trkpt lat="44.87395" lon="0.23714">
        <ele>64</ele>
        <time>2015-02-10T12:43:04Z</time>
      </trkpt>
      <trkpt lat="44.87395" lon="0.23713">
        <ele>64</ele>
        <time>2015-02-10T12:43:05Z</time>
      </trkpt>
      <trkpt lat="44.87395" lon="0.23712">
        <ele>62</ele>
        <time>2015-02-10T12:43:06Z</time>
      </trkpt>
      <trkpt lat="44.87395" lon="0.2371">
        <ele>64</ele>
        <time>2015-02-10T12:43:07Z</time>
      </trkpt>
      <trkpt lat="44.87395" lon="0.23709">
        <ele>64</ele>
        <time>2015-02-10T12:43:08Z</time>
      </trkpt>
      <trkpt lat="44.87396" lon="0.23708">
        <ele>64</ele>
        <time>2015-02-10T12:43:09Z</time>
      </trkpt>
      <trkpt lat="44.87396" lon="0.23705">
        <ele>65</ele>
        <time>2015-02-10T12:43:10Z</time>
      </trkpt>
      <trkpt lat="44.87396" lon="0.23704">
        <ele>67</ele>
        <time>2015-02-10T12:43:11Z</time>
      </trkpt>
      <trkpt lat="44.87396" lon="0.23702">
        <ele>65</ele>
        <time>2015-02-10T12:43:12Z</time>
      </trkpt>
      <trkpt lat="44.87396" lon="0.237">
        <ele>63</ele>
        <time>2015-02-10T12:43:13Z</time>
      </trkpt>
      <trkpt lat="44.87396" lon="0.23699">
        <ele>63</ele>
        <time>2015-02-10T12:43:14Z</time>
      </trkpt>
      <trkpt lat="44.87396" lon="0.23698">
        <ele>64</ele>
        <time>2015-02-10T12:43:15Z</time>
      </trkpt>
      <trkpt lat="44.87396" lon="0.23697">
        <ele>64</ele>
        <time>2015-02-10T12:43:16Z</time>
      </trkpt>
      <trkpt lat="44.87396" lon="0.23696">
        <ele>64</ele>
        <time>2015-02-10T12:43:17Z</time>
      </trkpt>
      <trkpt lat="44.87396" lon="0.23694">
        <ele>66</ele>
        <time>2015-02-10T12:43:18Z</time>
      </trkpt>
      <trkpt lat="44.87396" lon="0.23693">
        <ele>63</ele>
        <time>2015-02-10T12:43:19Z</time>
      </trkpt>
      <trkpt lat="44.87396" lon="0.23692">
        <ele>63</ele>
        <time>2015-02-10T12:43:20Z</time>
      </trkpt>
      <trkpt lat="44.87397" lon="0.2369">
        <ele>62</ele>
        <time>2015-02-10T12:43:21Z</time>
      </trkpt>
      <trkpt lat="44.87397" lon="0.23689">
        <ele>64</ele>
        <time>2015-02-10T12:43:22Z</time>
      </trkpt>
      <trkpt lat="44.87397" lon="0.23688">
        <ele>62</ele>
        <time>2015-02-10T12:43:23Z</time>
      </trkpt>
      <trkpt lat="44.87397" lon="0.23687">
        <ele>61</ele>
        <time>2015-02-10T12:43:24Z</time>
      </trkpt>
      <trkpt lat="44.87397" lon="0.23686">
        <ele>61</ele>
        <time>2015-02-10T12:43:25Z</time>
      </trkpt>
      <trkpt lat="44.87398" lon="0.23685">
        <ele>63</ele>
        <time>2015-02-10T12:43:26Z</time>
      </trkpt>
      <trkpt lat="44.87399" lon="0.23684">
        <ele>63</ele>
        <time>2015-02-10T12:43:27Z</time>
      </trkpt>
      <trkpt lat="44.87399" lon="0.23682">
        <ele>64</ele>
        <time>2015-02-10T12:43:28Z</time>
      </trkpt>
      <trkpt lat="44.874" lon="0.23681">
        <ele>63</ele>
        <time>2015-02-10T12:43:29Z</time>
      </trkpt>
      <trkpt lat="44.874" lon="0.2368">
        <ele>62</ele>
        <time>2015-02-10T12:43:30Z</time>
      </trkpt>
      <trkpt lat="44.874" lon="0.23678">
        <ele>63</ele>
        <time>2015-02-10T12:43:31Z</time>
      </trkpt>
      <trkpt lat="44.87401" lon="0.23677">
        <ele>64</ele>
        <time>2015-02-10T12:43:32Z</time>
      </trkpt>
      <trkpt lat="44.87401" lon="0.23676">
        <ele>64</ele>
        <time>2015-02-10T12:43:33Z</time>
      </trkpt>
      <trkpt lat="44.87402" lon="0.23674">
        <ele>65</ele>
        <time>2015-02-10T12:43:34Z</time>
      </trkpt>
      <trkpt lat="44.87402" lon="0.23673">
        <ele>67</ele>
        <time>2015-02-10T12:43:35Z</time>
      </trkpt>
      <trkpt lat="44.87403" lon="0.23672">
        <ele>66</ele>
        <time>2015-02-10T12:43:36Z</time>
      </trkpt>
      <trkpt lat="44.87403" lon="0.2367">
        <ele>64</ele>
        <time>2015-02-10T12:43:37Z</time>
      </trkpt>
      <trkpt lat="44.87404" lon="0.23669">
        <ele>65</ele>
        <time>2015-02-10T12:43:38Z</time>
      </trkpt>
      <trkpt lat="44.87404" lon="0.23668">
        <ele>66</ele>
        <time>2015-02-10T12:43:39Z</time>
      </trkpt>
      <trkpt lat="44.87404" lon="0.23667">
        <ele>67</ele>
        <time>2015-02-10T12:43:40Z</time>
      </trkpt>
      <trkpt lat="44.87405" lon="0.23666">
        <ele>66</ele>
        <time>2015-02-10T12:43:41Z</time>
      </trkpt>
      <trkpt lat="44.87405" lon="0.23665">
        <ele>66</ele>
        <time>2015-02-10T12:43:42Z</time>
      </trkpt>
      <trkpt lat="44.87406" lon="0.23664">
        <ele>66</ele>
        <time>2015-02-10T12:43:43Z</time>
      </trkpt>
      <trkpt lat="44.87407" lon="0.23662">
        <ele>66</ele>
        <time>2015-02-10T12:43:44Z</time>
      </trkpt>
      <trkpt lat="44.87408" lon="0.23661">
        <ele>65</ele>
        <time>2015-02-10T12:43:45Z</time>
      </trkpt>
      <trkpt lat="44.87408" lon="0.2366">
        <ele>63</ele>
        <time>2015-02-10T12:43:46Z</time>
      </trkpt>
      <trkpt lat="44.87409" lon="0.23659">
        <ele>62</ele>
        <time>2015-02-10T12:43:47Z</time>
      </trkpt>
      <trkpt lat="44.87409" lon="0.23658">
        <ele>61</ele>
        <time>2015-02-10T12:43:48Z</time>
      </trkpt>
      <trkpt lat="44.8741" lon="0.23657">
        <ele>65</ele>
        <time>2015-02-10T12:43:49Z</time>
      </trkpt>
      <trkpt lat="44.87411" lon="0.23655">
        <ele>66</ele>
        <time>2015-02-10T12:43:50Z</time>
      </trkpt>
      <trkpt lat="44.87412" lon="0.23654">
        <ele>66</ele>
        <time>2015-02-10T12:43:51Z</time>
      </trkpt>
      <trkpt lat="44.87412" lon="0.23652">
        <ele>69</ele>
        <time>2015-02-10T12:43:52Z</time>
      </trkpt>
      <trkpt lat="44.87412" lon="0.2365">
        <ele>67</ele>
        <time>2015-02-10T12:43:53Z</time>
      </trkpt>
      <trkpt lat="44.87413" lon="0.23649">
        <ele>67</ele>
        <time>2015-02-10T12:43:54Z</time>
      </trkpt>
      <trkpt lat="44.87413" lon="0.23647">
        <ele>64</ele>
        <time>2015-02-10T12:43:55Z</time>
      </trkpt>
      <trkpt lat="44.87414" lon="0.23646">
        <ele>64</ele>
        <time>2015-02-10T12:43:56Z</time>
      </trkpt>
      <trkpt lat="44.87414" lon="0.23645">
        <ele>65</ele>
        <time>2015-02-10T12:43:57Z</time>
      </trkpt>
      <trkpt lat="44.87415" lon="0.23644">
        <ele>67</ele>
        <time>2015-02-10T12:43:58Z</time>
      </trkpt>
      <trkpt lat="44.87415" lon="0.23643">
        <ele>68</ele>
        <time>2015-02-10T12:43:59Z</time>
      </trkpt>
      <trkpt lat="44.87416" lon="0.23641">
        <ele>67</ele>
        <time>2015-02-10T12:44:00Z</time>
      </trkpt>
      <trkpt lat="44.87417" lon="0.2364">
        <ele>67</ele>
        <time>2015-02-10T12:44:01Z</time>
      </trkpt>
      <trkpt lat="44.87418" lon="0.23639">
        <ele>66</ele>
        <time>2015-02-10T12:44:02Z</time>
      </trkpt>
      <trkpt lat="44.87418" lon="0.23637">
        <ele>64</ele>
        <time>2015-02-10T12:44:03Z</time>
      </trkpt>
      <trkpt lat="44.87419" lon="0.23636">
        <ele>66</ele>
        <time>2015-02-10T12:44:04Z</time>
      </trkpt>
      <trkpt lat="44.87419" lon="0.23635">
        <ele>67</ele>
        <time>2015-02-10T12:44:05Z</time>
      </trkpt>
      <trkpt lat="44.87419" lon="0.23633">
        <ele>67</ele>
        <time>2015-02-10T12:44:06Z</time>
      </trkpt>
      <trkpt lat="44.87419" lon="0.23633">
        <ele>67</ele>
        <time>2015-02-10T12:44:07Z</time>
      </trkpt>
      <trkpt lat="44.8742" lon="0.23631">
        <ele>68</ele>
        <time>2015-02-10T12:44:08Z</time>
      </trkpt>
      <trkpt lat="44.8742" lon="0.23629">
        <ele>69</ele>
        <time>2015-02-10T12:44:09Z</time>
      </trkpt>
      <trkpt lat="44.8742" lon="0.23628">
        <ele>70</ele>
        <time>2015-02-10T12:44:10Z</time>
      </trkpt>
      <trkpt lat="44.87421" lon="0.23626">
        <ele>68</ele>
        <time>2015-02-10T12:44:11Z</time>
      </trkpt>
      <trkpt lat="44.87421" lon="0.23624">
        <ele>63</ele>
        <time>2015-02-10T12:44:12Z</time>
      </trkpt>
      <trkpt lat="44.87421" lon="0.23622">
        <ele>65</ele>
        <time>2015-02-10T12:44:13Z</time>
      </trkpt>
      <trkpt lat="44.87422" lon="0.23621">
        <ele>64</ele>
        <time>2015-02-10T12:44:14Z</time>
      </trkpt>
      <trkpt lat="44.87422" lon="0.23619">
        <ele>65</ele>
        <time>2015-02-10T12:44:15Z</time>
      </trkpt>
      <trkpt lat="44.87422" lon="0.23617">
        <ele>65</ele>
        <time>2015-02-10T12:44:16Z</time>
      </trkpt>
      <trkpt lat="44.87423" lon="0.23616">
        <ele>67</ele>
        <time>2015-02-10T12:44:17Z</time>
      </trkpt>
      <trkpt lat="44.87423" lon="0.23614">
        <ele>67</ele>
        <time>2015-02-10T12:44:18Z</time>
      </trkpt>
      <trkpt lat="44.87424" lon="0.23613">
        <ele>67</ele>
        <time>2015-02-10T12:44:19Z</time>
      </trkpt>
      <trkpt lat="44.87425" lon="0.23611">
        <ele>68</ele>
        <time>2015-02-10T12:44:20Z</time>
      </trkpt>
      <trkpt lat="44.87425" lon="0.2361">
        <ele>70</ele>
        <time>2015-02-10T12:44:21Z</time>
      </trkpt>
      <trkpt lat="44.87425" lon="0.23609">
        <ele>71</ele>
        <time>2015-02-10T12:44:22Z</time>
      </trkpt>
      <trkpt lat="44.87426" lon="0.23608">
        <ele>71</ele>
        <time>2015-02-10T12:44:23Z</time>
      </trkpt>
      <trkpt lat="44.87426" lon="0.23607">
        <ele>71</ele>
        <time>2015-02-10T12:44:24Z</time>
      </trkpt>
      <trkpt lat="44.87426" lon="0.23606">
        <ele>69</ele>
        <time>2015-02-10T12:44:25Z</time>
      </trkpt>
      <trkpt lat="44.87426" lon="0.23605">
        <ele>69</ele>
        <time>2015-02-10T12:44:26Z</time>
      </trkpt>
      <trkpt lat="44.87426" lon="0.23604">
        <ele>69</ele>
        <time>2015-02-10T12:44:27Z</time>
      </trkpt>
      <trkpt lat="44.87427" lon="0.23603">
        <ele>69</ele>
        <time>2015-02-10T12:44:28Z</time>
      </trkpt>
      <trkpt lat="44.87427" lon="0.23601">
        <ele>69</ele>
        <time>2015-02-10T12:44:29Z</time>
      </trkpt>
      <trkpt lat="44.87427" lon="0.236">
        <ele>68</ele>
        <time>2015-02-10T12:44:30Z</time>
      </trkpt>
      <trkpt lat="44.87428" lon="0.23599">
        <ele>68</ele>
        <time>2015-02-10T12:44:31Z</time>
      </trkpt>
      <trkpt lat="44.87428" lon="0.23597">
        <ele>67</ele>
        <time>2015-02-10T12:44:32Z</time>
      </trkpt>
      <trkpt lat="44.87428" lon="0.23595">
        <ele>67</ele>
        <time>2015-02-10T12:44:33Z</time>
      </trkpt>
      <trkpt lat="44.87429" lon="0.23593">
        <ele>67</ele>
        <time>2015-02-10T12:44:34Z</time>
      </trkpt>
      <trkpt lat="44.87429" lon="0.23592">
        <ele>67</ele>
        <time>2015-02-10T12:44:35Z</time>
      </trkpt>
      <trkpt lat="44.8743" lon="0.2359">
        <ele>67</ele>
        <time>2015-02-10T12:44:36Z</time>
      </trkpt>
      <trkpt lat="44.8743" lon="0.23589">
        <ele>68</ele>
        <time>2015-02-10T12:44:37Z</time>
      </trkpt>
      <trkpt lat="44.8743" lon="0.23587">
        <ele>68</ele>
        <time>2015-02-10T12:44:38Z</time>
      </trkpt>
      <trkpt lat="44.8743" lon="0.23586">
        <ele>67</ele>
        <time>2015-02-10T12:44:39Z</time>
      </trkpt>
      <trkpt lat="44.8743" lon="0.23585">
        <ele>68</ele>
        <time>2015-02-10T12:44:40Z</time>
      </trkpt>
      <trkpt lat="44.87431" lon="0.23584">
        <ele>66</ele>
        <time>2015-02-10T12:44:41Z</time>
      </trkpt>
      <trkpt lat="44.87431" lon="0.23582">
        <ele>66</ele>
        <time>2015-02-10T12:44:42Z</time>
      </trkpt>
      <trkpt lat="44.87431" lon="0.23581">
        <ele>65</ele>
        <time>2015-02-10T12:44:43Z</time>
      </trkpt>
      <trkpt lat="44.87431" lon="0.2358">
        <ele>65</ele>
        <time>2015-02-10T12:44:44Z</time>
      </trkpt>
      <trkpt lat="44.87432" lon="0.23579">
        <ele>63</ele>
        <time>2015-02-10T12:44:45Z</time>
      </trkpt>
      <trkpt lat="44.87432" lon="0.23578">
        <ele>65</ele>
        <time>2015-02-10T12:44:46Z</time>
      </trkpt>
      <trkpt lat="44.87432" lon="0.23577">
        <ele>64</ele>
        <time>2015-02-10T12:44:47Z</time>
      </trkpt>
      <trkpt lat="44.87432" lon="0.23576">
        <ele>62</ele>
        <time>2015-02-10T12:44:48Z</time>
      </trkpt>
      <trkpt lat="44.87433" lon="0.23575">
        <ele>61</ele>
        <time>2015-02-10T12:44:49Z</time>
      </trkpt>
      <trkpt lat="44.87433" lon="0.23574">
        <ele>61</ele>
        <time>2015-02-10T12:44:50Z</time>
      </trkpt>
      <trkpt lat="44.87433" lon="0.23573">
        <ele>60</ele>
        <time>2015-02-10T12:44:51Z</time>
      </trkpt>
      <trkpt lat="44.87434" lon="0.23571">
        <ele>64</ele>
        <time>2015-02-10T12:44:52Z</time>
      </trkpt>
      <trkpt lat="44.87434" lon="0.2357">
        <ele>65</ele>
        <time>2015-02-10T12:44:53Z</time>
      </trkpt>
      <trkpt lat="44.87435" lon="0.23569">
        <ele>66</ele>
        <time>2015-02-10T12:44:54Z</time>
      </trkpt>
      <trkpt lat="44.87434" lon="0.23568">
        <ele>64</ele>
        <time>2015-02-10T12:44:55Z</time>
      </trkpt>
      <trkpt lat="44.87434" lon="0.23567">
        <ele>66</ele>
        <time>2015-02-10T12:44:56Z</time>
      </trkpt>
      <trkpt lat="44.87434" lon="0.23566">
        <ele>64</ele>
        <time>2015-02-10T12:44:57Z</time>
      </trkpt>
      <trkpt lat="44.87435" lon="0.23565">
        <ele>66</ele>
        <time>2015-02-10T12:44:58Z</time>
      </trkpt>
      <trkpt lat="44.87436" lon="0.23564">
        <ele>62</ele>
        <time>2015-02-10T12:44:59Z</time>
      </trkpt>
      <trkpt lat="44.87435" lon="0.23563">
        <ele>64</ele>
        <time>2015-02-10T12:45:00Z</time>
      </trkpt>
      <trkpt lat="44.87435" lon="0.23562">
        <ele>66</ele>
        <time>2015-02-10T12:45:01Z</time>
      </trkpt>
      <trkpt lat="44.87436" lon="0.23561">
        <ele>66</ele>
        <time>2015-02-10T12:45:02Z</time>
      </trkpt>
      <trkpt lat="44.87436" lon="0.2356">
        <ele>64</ele>
        <time>2015-02-10T12:45:03Z</time>
      </trkpt>
      <trkpt lat="44.87436" lon="0.23559">
        <ele>65</ele>
        <time>2015-02-10T12:45:04Z</time>
      </trkpt>
      <trkpt lat="44.87436" lon="0.23557">
        <ele>68</ele>
        <time>2015-02-10T12:45:05Z</time>
      </trkpt>
      <trkpt lat="44.87436" lon="0.23556">
        <ele>68</ele>
        <time>2015-02-10T12:45:06Z</time>
      </trkpt>
      <trkpt lat="44.87437" lon="0.23555">
        <ele>65</ele>
        <time>2015-02-10T12:45:07Z</time>
      </trkpt>
      <trkpt lat="44.87437" lon="0.23554">
        <ele>61</ele>
        <time>2015-02-10T12:45:08Z</time>
      </trkpt>
      <trkpt lat="44.87437" lon="0.23552">
        <ele>63</ele>
        <time>2015-02-10T12:45:09Z</time>
      </trkpt>
      <trkpt lat="44.87437" lon="0.23549">
        <ele>64</ele>
        <time>2015-02-10T12:45:10Z</time>
      </trkpt>
      <trkpt lat="44.87437" lon="0.23548">
        <ele>70</ele>
        <time>2015-02-10T12:45:11Z</time>
      </trkpt>
      <trkpt lat="44.87437" lon="0.23547">
        <ele>70</ele>
        <time>2015-02-10T12:45:12Z</time>
      </trkpt>
      <trkpt lat="44.87438" lon="0.23546">
        <ele>72</ele>
        <time>2015-02-10T12:45:13Z</time>
      </trkpt>
      <trkpt lat="44.87439" lon="0.23545">
        <ele>72</ele>
        <time>2015-02-10T12:45:14Z</time>
      </trkpt>
      <trkpt lat="44.87439" lon="0.23543">
        <ele>78</ele>
        <time>2015-02-10T12:45:15Z</time>
      </trkpt>
      <trkpt lat="44.87441" lon="0.2354">
        <ele>72</ele>
        <time>2015-02-10T12:45:16Z</time>
      </trkpt>
      <trkpt lat="44.87441" lon="0.23539">
        <ele>68</ele>
        <time>2015-02-10T12:45:17Z</time>
      </trkpt>
      <trkpt lat="44.87441" lon="0.23536">
        <ele>70</ele>
        <time>2015-02-10T12:45:18Z</time>
      </trkpt>
      <trkpt lat="44.87442" lon="0.23536">
        <ele>65</ele>
        <time>2015-02-10T12:45:19Z</time>
      </trkpt>
      <trkpt lat="44.87442" lon="0.23535">
        <ele>69</ele>
        <time>2015-02-10T12:45:20Z</time>
      </trkpt>
      <trkpt lat="44.87443" lon="0.23534">
        <ele>71</ele>
        <time>2015-02-10T12:45:21Z</time>
      </trkpt>
      <trkpt lat="44.87443" lon="0.23533">
        <ele>70</ele>
        <time>2015-02-10T12:45:22Z</time>
      </trkpt>
      <trkpt lat="44.87444" lon="0.23533">
        <ele>75</ele>
        <time>2015-02-10T12:45:23Z</time>
      </trkpt>
      <trkpt lat="44.87445" lon="0.23532">
        <ele>74</ele>
        <time>2015-02-10T12:45:24Z</time>
      </trkpt>
      <trkpt lat="44.87446" lon="0.23531">
        <ele>77</ele>
        <time>2015-02-10T12:45:25Z</time>
      </trkpt>
      <trkpt lat="44.87446" lon="0.2353">
        <ele>75</ele>
        <time>2015-02-10T12:45:26Z</time>
      </trkpt>
      <trkpt lat="44.87447" lon="0.23528">
        <ele>76</ele>
        <time>2015-02-10T12:45:27Z</time>
      </trkpt>
      <trkpt lat="44.87447" lon="0.23527">
        <ele>75</ele>
        <time>2015-02-10T12:45:28Z</time>
      </trkpt>
      <trkpt lat="44.87447" lon="0.23526">
        <ele>71</ele>
        <time>2015-02-10T12:45:29Z</time>
      </trkpt>
      <trkpt lat="44.87448" lon="0.23524">
        <ele>71</ele>
        <time>2015-02-10T12:45:30Z</time>
      </trkpt>
      <trkpt lat="44.87449" lon="0.23522">
        <ele>69</ele>
        <time>2015-02-10T12:45:31Z</time>
      </trkpt>
      <trkpt lat="44.8745" lon="0.23521">
        <ele>73</ele>
        <time>2015-02-10T12:45:32Z</time>
      </trkpt>
      <trkpt lat="44.87451" lon="0.2352">
        <ele>72</ele>
        <time>2015-02-10T12:45:33Z</time>
      </trkpt>
      <trkpt lat="44.87451" lon="0.23518">
        <ele>70</ele>
        <time>2015-02-10T12:45:34Z</time>
      </trkpt>
      <trkpt lat="44.87452" lon="0.23517">
        <ele>67</ele>
        <time>2015-02-10T12:45:35Z</time>
      </trkpt>
      <trkpt lat="44.87452" lon="0.23516">
        <ele>69</ele>
        <time>2015-02-10T12:45:36Z</time>
      </trkpt>
      <trkpt lat="44.87452" lon="0.23515">
        <ele>71</ele>
        <time>2015-02-10T12:45:37Z</time>
      </trkpt>
      <trkpt lat="44.87453" lon="0.23514">
        <ele>71</ele>
        <time>2015-02-10T12:45:38Z</time>
      </trkpt>
      <trkpt lat="44.87454" lon="0.23514">
        <ele>73</ele>
        <time>2015-02-10T12:45:39Z</time>
      </trkpt>
      <trkpt lat="44.87455" lon="0.23513">
        <ele>76</ele>
        <time>2015-02-10T12:45:40Z</time>
      </trkpt>
      <trkpt lat="44.87455" lon="0.23512">
        <ele>75</ele>
        <time>2015-02-10T12:45:41Z</time>
      </trkpt>
      <trkpt lat="44.87456" lon="0.23511">
        <ele>70</ele>
        <time>2015-02-10T12:45:42Z</time>
      </trkpt>
      <trkpt lat="44.87456" lon="0.2351">
        <ele>70</ele>
        <time>2015-02-10T12:45:43Z</time>
      </trkpt>
      <trkpt lat="44.87456" lon="0.23509">
        <ele>71</ele>
        <time>2015-02-10T12:45:44Z</time>
      </trkpt>
      <trkpt lat="44.87457" lon="0.23509">
        <ele>69</ele>
        <time>2015-02-10T12:45:45Z</time>
      </trkpt>
      <trkpt lat="44.87458" lon="0.23508">
        <ele>70</ele>
        <time>2015-02-10T12:45:46Z</time>
      </trkpt>
      <trkpt lat="44.87459" lon="0.23509">
        <ele>68</ele>
        <time>2015-02-10T12:45:47Z</time>
      </trkpt>
      <trkpt lat="44.87459" lon="0.23508">
        <ele>74</ele>
        <time>2015-02-10T12:45:48Z</time>
      </trkpt>
      <trkpt lat="44.8746" lon="0.23508">
        <ele>74</ele>
        <time>2015-02-10T12:45:49Z</time>
      </trkpt>
      <trkpt lat="44.8746" lon="0.23508">
        <ele>79</ele>
        <time>2015-02-10T12:45:50Z</time>
      </trkpt>
      <trkpt lat="44.87461" lon="0.23508">
        <ele>80</ele>
        <time>2015-02-10T12:45:51Z</time>
      </trkpt>
      <trkpt lat="44.87462" lon="0.23508">
        <ele>79</ele>
        <time>2015-02-10T12:45:52Z</time>
      </trkpt>
      <trkpt lat="44.87462" lon="0.23508">
        <ele>79</ele>
        <time>2015-02-10T12:45:53Z</time>
      </trkpt>
      <trkpt lat="44.87463" lon="0.23507">
        <ele>78</ele>
        <time>2015-02-10T12:45:54Z</time>
      </trkpt>
      <trkpt lat="44.87463" lon="0.23507">
        <ele>81</ele>
        <time>2015-02-10T12:45:55Z</time>
      </trkpt>
      <trkpt lat="44.87463" lon="0.23507">
        <ele>79</ele>
        <time>2015-02-10T12:45:56Z</time>
      </trkpt>
      <trkpt lat="44.87463" lon="0.23507">
        <ele>77</ele>
        <time>2015-02-10T12:45:57Z</time>
      </trkpt>
      <trkpt lat="44.87463" lon="0.23507">
        <ele>75</ele>
        <time>2015-02-10T12:45:58Z</time>
      </trkpt>
      <trkpt lat="44.87464" lon="0.23507">
        <ele>75</ele>
        <time>2015-02-10T12:45:59Z</time>
      </trkpt>
      <trkpt lat="44.87464" lon="0.23507">
        <ele>72</ele>
        <time>2015-02-10T12:46:00Z</time>
      </trkpt>
      <trkpt lat="44.87464" lon="0.23508">
        <ele>77</ele>
        <time>2015-02-10T12:46:01Z</time>
      </trkpt>
      <trkpt lat="44.87465" lon="0.23508">
        <ele>78</ele>
        <time>2015-02-10T12:46:02Z</time>
      </trkpt>
      <trkpt lat="44.87466" lon="0.23508">
        <ele>79</ele>
        <time>2015-02-10T12:46:03Z</time>
      </trkpt>
      <trkpt lat="44.87468" lon="0.23508">
        <ele>78</ele>
        <time>2015-02-10T12:46:04Z</time>
      </trkpt>
      <trkpt lat="44.87469" lon="0.23508">
        <ele>76</ele>
        <time>2015-02-10T12:46:05Z</time>
      </trkpt>
      <trkpt lat="44.8747" lon="0.23509">
        <ele>74</ele>
        <time>2015-02-10T12:46:06Z</time>
      </trkpt>
      <trkpt lat="44.87471" lon="0.23509">
        <ele>75</ele>
        <time>2015-02-10T12:46:07Z</time>
      </trkpt>
      <trkpt lat="44.87472" lon="0.23509">
        <ele>72</ele>
        <time>2015-02-10T12:46:08Z</time>
      </trkpt>
      <trkpt lat="44.87473" lon="0.23508">
        <ele>69</ele>
        <time>2015-02-10T12:46:09Z</time>
      </trkpt>
      <trkpt lat="44.87474" lon="0.23508">
        <ele>67</ele>
        <time>2015-02-10T12:46:10Z</time>
      </trkpt>
      <trkpt lat="44.87475" lon="0.23508">
        <ele>68</ele>
        <time>2015-02-10T12:46:11Z</time>
      </trkpt>
      <trkpt lat="44.87475" lon="0.23507">
        <ele>70</ele>
        <time>2015-02-10T12:46:12Z</time>
      </trkpt>
      <trkpt lat="44.87476" lon="0.23507">
        <ele>69</ele>
        <time>2015-02-10T12:46:13Z</time>
      </trkpt>
      <trkpt lat="44.87477" lon="0.23507">
        <ele>69</ele>
        <time>2015-02-10T12:46:14Z</time>
      </trkpt>
      <trkpt lat="44.87478" lon="0.23507">
        <ele>70</ele>
        <time>2015-02-10T12:46:15Z</time>
      </trkpt>
      <trkpt lat="44.87479" lon="0.23507">
        <ele>68</ele>
        <time>2015-02-10T12:46:16Z</time>
      </trkpt>
      <trkpt lat="44.8748" lon="0.23508">
        <ele>70</ele>
        <time>2015-02-10T12:46:17Z</time>
      </trkpt>
      <trkpt lat="44.87482" lon="0.23508">
        <ele>70</ele>
        <time>2015-02-10T12:46:18Z</time>
      </trkpt>
      <trkpt lat="44.87482" lon="0.23508">
        <ele>68</ele>
        <time>2015-02-10T12:46:19Z</time>
      </trkpt>
      <trkpt lat="44.87483" lon="0.23508">
        <ele>69</ele>
        <time>2015-02-10T12:46:20Z</time>
      </trkpt>
      <trkpt lat="44.87484" lon="0.23508">
        <ele>69</ele>
        <time>2015-02-10T12:46:21Z</time>
      </trkpt>
      <trkpt lat="44.87484" lon="0.23509">
        <ele>71</ele>
        <time>2015-02-10T12:46:22Z</time>
      </trkpt>
      <trkpt lat="44.87485" lon="0.23509">
        <ele>73</ele>
        <time>2015-02-10T12:46:23Z</time>
      </trkpt>
      <trkpt lat="44.87486" lon="0.23509">
        <ele>69</ele>
        <time>2015-02-10T12:46:24Z</time>
      </trkpt>
      <trkpt lat="44.87487" lon="0.2351">
        <ele>74</ele>
        <time>2015-02-10T12:46:25Z</time>
      </trkpt>
      <trkpt lat="44.87488" lon="0.23511">
        <ele>69</ele>
        <time>2015-02-10T12:46:26Z</time>
      </trkpt>
      <trkpt lat="44.87489" lon="0.23511">
        <ele>72</ele>
        <time>2015-02-10T12:46:27Z</time>
      </trkpt>
      <trkpt lat="44.8749" lon="0.23512">
        <ele>74</ele>
        <time>2015-02-10T12:46:28Z</time>
      </trkpt>
      <trkpt lat="44.8749" lon="0.23513">
        <ele>78</ele>
        <time>2015-02-10T12:46:29Z</time>
      </trkpt>
      <trkpt lat="44.87491" lon="0.23513">
        <ele>79</ele>
        <time>2015-02-10T12:46:30Z</time>
      </trkpt>
      <trkpt lat="44.87491" lon="0.23513">
        <ele>81</ele>
        <time>2015-02-10T12:46:31Z</time>
      </trkpt>
      <trkpt lat="44.87492" lon="0.23513">
        <ele>78</ele>
        <time>2015-02-10T12:46:32Z</time>
      </trkpt>
      <trkpt lat="44.87493" lon="0.23513">
        <ele>78</ele>
        <time>2015-02-10T12:46:33Z</time>
      </trkpt>
      <trkpt lat="44.87494" lon="0.23514">
        <ele>75</ele>
        <time>2015-02-10T12:46:34Z</time>
      </trkpt>
      <trkpt lat="44.87494" lon="0.23514">
        <ele>75</ele>
        <time>2015-02-10T12:46:35Z</time>
      </trkpt>
      <trkpt lat="44.87495" lon="0.23514">
        <ele>74</ele>
        <time>2015-02-10T12:46:36Z</time>
      </trkpt>
      <trkpt lat="44.87495" lon="0.23514">
        <ele>76</ele>
        <time>2015-02-10T12:46:37Z</time>
      </trkpt>
      <trkpt lat="44.87496" lon="0.23514">
        <ele>77</ele>
        <time>2015-02-10T12:46:38Z</time>
      </trkpt>
      <trkpt lat="44.87496" lon="0.23514">
        <ele>79</ele>
        <time>2015-02-10T12:46:39Z</time>
      </trkpt>
      <trkpt lat="44.87497" lon="0.23514">
        <ele>84</ele>
        <time>2015-02-10T12:46:40Z</time>
      </trkpt>
      <trkpt lat="44.87497" lon="0.23514">
        <ele>81</ele>
        <time>2015-02-10T12:46:41Z</time>
      </trkpt>
      <trkpt lat="44.87497" lon="0.23513">
        <ele>83</ele>
        <time>2015-02-10T12:46:42Z</time>
      </trkpt>
      <trkpt lat="44.87498" lon="0.23513">
        <ele>81</ele>
        <time>2015-02-10T12:46:43Z</time>
      </trkpt>
      <trkpt lat="44.87499" lon="0.23512">
        <ele>79</ele>
        <time>2015-02-10T12:46:44Z</time>
      </trkpt>
      <trkpt lat="44.87499" lon="0.23512">
        <ele>80</ele>
        <time>2015-02-10T12:46:45Z</time>
      </trkpt>
      <trkpt lat="44.875" lon="0.23511">
        <ele>80</ele>
        <time>2015-02-10T12:46:46Z</time>
      </trkpt>
      <trkpt lat="44.87501" lon="0.23511">
        <ele>82</ele>
        <time>2015-02-10T12:46:47Z</time>
      </trkpt>
      <trkpt lat="44.87502" lon="0.2351">
        <ele>79</ele>
        <time>2015-02-10T12:46:48Z</time>
      </trkpt>
      <trkpt lat="44.87502" lon="0.23509">
        <ele>79</ele>
        <time>2015-02-10T12:46:49Z</time>
      </trkpt>
      <trkpt lat="44.87503" lon="0.23509">
        <ele>79</ele>
        <time>2015-02-10T12:46:50Z</time>
      </trkpt>
      <trkpt lat="44.87505" lon="0.23508">
        <ele>78</ele>
        <time>2015-02-10T12:46:51Z</time>
      </trkpt>
      <trkpt lat="44.87506" lon="0.23507">
        <ele>79</ele>
        <time>2015-02-10T12:46:52Z</time>
      </trkpt>
      <trkpt lat="44.87506" lon="0.23507">
        <ele>79</ele>
        <time>2015-02-10T12:46:53Z</time>
      </trkpt>
      <trkpt lat="44.87507" lon="0.23506">
        <ele>77</ele>
        <time>2015-02-10T12:46:54Z</time>
      </trkpt>
      <trkpt lat="44.87507" lon="0.23505">
        <ele>79</ele>
        <time>2015-02-10T12:46:55Z</time>
      </trkpt>
      <trkpt lat="44.87507" lon="0.23504">
        <ele>79</ele>
        <time>2015-02-10T12:46:56Z</time>
      </trkpt>
      <trkpt lat="44.87507" lon="0.23503">
        <ele>80</ele>
        <time>2015-02-10T12:46:57Z</time>
      </trkpt>
      <trkpt lat="44.87507" lon="0.23502">
        <ele>83</ele>
        <time>2015-02-10T12:46:58Z</time>
      </trkpt>
      <trkpt lat="44.87507" lon="0.23501">
        <ele>83</ele>
        <time>2015-02-10T12:46:59Z</time>
      </trkpt>
      <trkpt lat="44.87508" lon="0.23501">
        <ele>81</ele>
        <time>2015-02-10T12:47:00Z</time>
      </trkpt>
      <trkpt lat="44.87508" lon="0.23501">
        <ele>79</ele>
        <time>2015-02-10T12:47:01Z</time>
      </trkpt>
      <trkpt lat="44.87507" lon="0.235">
        <ele>80</ele>
        <time>2015-02-10T12:47:02Z</time>
      </trkpt>
      <trkpt lat="44.87507" lon="0.235">
        <ele>82</ele>
        <time>2015-02-10T12:47:03Z</time>
      </trkpt>
      <trkpt lat="44.87508" lon="0.23499">
        <ele>81</ele>
        <time>2015-02-10T12:47:04Z</time>
      </trkpt>
      <trkpt lat="44.87509" lon="0.23498">
        <ele>81</ele>
        <time>2015-02-10T12:47:05Z</time>
      </trkpt>
      <trkpt lat="44.87509" lon="0.23497">
        <ele>83</ele>
        <time>2015-02-10T12:47:06Z</time>
      </trkpt>
      <trkpt lat="44.87509" lon="0.23496">
        <ele>79</ele>
        <time>2015-02-10T12:47:07Z</time>
      </trkpt>
      <trkpt lat="44.87509" lon="0.23495">
        <ele>85</ele>
        <time>2015-02-10T12:47:08Z</time>
      </trkpt>
      <trkpt lat="44.87509" lon="0.23495">
        <ele>85</ele>
        <time>2015-02-10T12:47:09Z</time>
      </trkpt>
      <trkpt lat="44.87509" lon="0.23494">
        <ele>80</ele>
        <time>2015-02-10T12:47:10Z</time>
      </trkpt>
      <trkpt lat="44.87509" lon="0.23493">
        <ele>81</ele>
        <time>2015-02-10T12:47:11Z</time>
      </trkpt>
      <trkpt lat="44.87509" lon="0.23492">
        <ele>78</ele>
        <time>2015-02-10T12:47:12Z</time>
      </trkpt>
      <trkpt lat="44.8751" lon="0.23491">
        <ele>81</ele>
        <time>2015-02-10T12:47:13Z</time>
      </trkpt>
      <trkpt lat="44.8751" lon="0.2349">
        <ele>82</ele>
        <time>2015-02-10T12:47:14Z</time>
      </trkpt>
      <trkpt lat="44.8751" lon="0.2349">
        <ele>79</ele>
        <time>2015-02-10T12:47:15Z</time>
      </trkpt>
      <trkpt lat="44.87511" lon="0.23489">
        <ele>81</ele>
        <time>2015-02-10T12:47:16Z</time>
      </trkpt>
      <trkpt lat="44.87511" lon="0.23487">
        <ele>81</ele>
        <time>2015-02-10T12:47:17Z</time>
      </trkpt>
      <trkpt lat="44.87511" lon="0.23486">
        <ele>81</ele>
        <time>2015-02-10T12:47:18Z</time>
      </trkpt>
      <trkpt lat="44.87511" lon="0.23485">
        <ele>82</ele>
        <time>2015-02-10T12:47:19Z</time>
      </trkpt>
      <trkpt lat="44.87511" lon="0.23483">
        <ele>82</ele>
        <time>2015-02-10T12:47:20Z</time>
      </trkpt>
      <trkpt lat="44.87511" lon="0.23482">
        <ele>84</ele>
        <time>2015-02-10T12:47:21Z</time>
      </trkpt>
      <trkpt lat="44.8751" lon="0.2348">
        <ele>86</ele>
        <time>2015-02-10T12:47:22Z</time>
      </trkpt>
      <trkpt lat="44.87509" lon="0.23479">
        <ele>86</ele>
        <time>2015-02-10T12:47:23Z</time>
      </trkpt>
      <trkpt lat="44.87509" lon="0.23478">
        <ele>84</ele>
        <time>2015-02-10T12:47:24Z</time>
      </trkpt>
      <trkpt lat="44.87509" lon="0.23477">
        <ele>81</ele>
        <time>2015-02-10T12:47:25Z</time>
      </trkpt>
      <trkpt lat="44.87509" lon="0.23476">
        <ele>82</ele>
        <time>2015-02-10T12:47:26Z</time>
      </trkpt>
      <trkpt lat="44.87508" lon="0.23475">
        <ele>83</ele>
        <time>2015-02-10T12:47:27Z</time>
      </trkpt>
      <trkpt lat="44.87508" lon="0.23473">
        <ele>81</ele>
        <time>2015-02-10T12:47:28Z</time>
      </trkpt>
      <trkpt lat="44.87509" lon="0.23472">
        <ele>82</ele>
        <time>2015-02-10T12:47:29Z</time>
      </trkpt>
      <trkpt lat="44.87509" lon="0.23471">
        <ele>80</ele>
        <time>2015-02-10T12:47:30Z</time>
      </trkpt>
      <trkpt lat="44.87509" lon="0.2347">
        <ele>80</ele>
        <time>2015-02-10T12:47:31Z</time>
      </trkpt>
      <trkpt lat="44.87509" lon="0.23469">
        <ele>77</ele>
        <time>2015-02-10T12:47:32Z</time>
      </trkpt>
      <trkpt lat="44.87509" lon="0.23467">
        <ele>83</ele>
        <time>2015-02-10T12:47:34Z</time>
      </trkpt>
      <trkpt lat="44.87509" lon="0.23466">
        <ele>82</ele>
        <time>2015-02-10T12:47:35Z</time>
      </trkpt>
      <trkpt lat="44.8751" lon="0.23465">
        <ele>82</ele>
        <time>2015-02-10T12:47:36Z</time>
      </trkpt>
      <trkpt lat="44.8751" lon="0.23464">
        <ele>82</ele>
        <time>2015-02-10T12:47:37Z</time>
      </trkpt>
      <trkpt lat="44.8751" lon="0.23463">
        <ele>82</ele>
        <time>2015-02-10T12:47:38Z</time>
      </trkpt>
      <trkpt lat="44.8751" lon="0.23461">
        <ele>79</ele>
        <time>2015-02-10T12:47:39Z</time>
      </trkpt>
      <trkpt lat="44.8751" lon="0.2346">
        <ele>77</ele>
        <time>2015-02-10T12:47:40Z</time>
      </trkpt>
      <trkpt lat="44.87511" lon="0.23459">
        <ele>79</ele>
        <time>2015-02-10T12:47:41Z</time>
      </trkpt>
      <trkpt lat="44.87511" lon="0.23457">
        <ele>79</ele>
        <time>2015-02-10T12:47:42Z</time>
      </trkpt>
      <trkpt lat="44.87511" lon="0.23455">
        <ele>81</ele>
        <time>2015-02-10T12:47:43Z</time>
      </trkpt>
      <trkpt lat="44.87511" lon="0.23455">
        <ele>80</ele>
        <time>2015-02-10T12:47:44Z</time>
      </trkpt>
      <trkpt lat="44.87511" lon="0.23454">
        <ele>78</ele>
        <time>2015-02-10T12:47:45Z</time>
      </trkpt>
      <trkpt lat="44.87512" lon="0.23452">
        <ele>79</ele>
        <time>2015-02-10T12:47:46Z</time>
      </trkpt>
      <trkpt lat="44.87512" lon="0.2345">
        <ele>77</ele>
        <time>2015-02-10T12:47:47Z</time>
      </trkpt>
      <trkpt lat="44.87512" lon="0.23449">
        <ele>79</ele>
        <time>2015-02-10T12:47:48Z</time>
      </trkpt>
      <trkpt lat="44.87512" lon="0.23448">
        <ele>80</ele>
        <time>2015-02-10T12:47:49Z</time>
      </trkpt>
      <trkpt lat="44.87513" lon="0.23447">
        <ele>83</ele>
        <time>2015-02-10T12:47:50Z</time>
      </trkpt>
      <trkpt lat="44.87513" lon="0.23445">
        <ele>83</ele>
        <time>2015-02-10T12:47:51Z</time>
      </trkpt>
      <trkpt lat="44.87513" lon="0.23445">
        <ele>82</ele>
        <time>2015-02-10T12:47:52Z</time>
      </trkpt>
      <trkpt lat="44.87514" lon="0.23444">
        <ele>83</ele>
        <time>2015-02-10T12:47:53Z</time>
      </trkpt>
      <trkpt lat="44.87515" lon="0.23443">
        <ele>86</ele>
        <time>2015-02-10T12:47:54Z</time>
      </trkpt>
      <trkpt lat="44.87515" lon="0.23442">
        <ele>86</ele>
        <time>2015-02-10T12:47:55Z</time>
      </trkpt>
      <trkpt lat="44.87515" lon="0.23441">
        <ele>88</ele>
        <time>2015-02-10T12:47:56Z</time>
      </trkpt>
      <trkpt lat="44.87515" lon="0.2344">
        <ele>89</ele>
        <time>2015-02-10T12:47:57Z</time>
      </trkpt>
      <trkpt lat="44.87516" lon="0.23439">
        <ele>87</ele>
        <time>2015-02-10T12:47:58Z</time>
      </trkpt>
      <trkpt lat="44.87516" lon="0.23438">
        <ele>88</ele>
        <time>2015-02-10T12:47:59Z</time>
      </trkpt>
      <trkpt lat="44.87516" lon="0.23438">
        <ele>89</ele>
        <time>2015-02-10T12:48:00Z</time>
      </trkpt>
      <trkpt lat="44.87516" lon="0.23438">
        <ele>86</ele>
        <time>2015-02-10T12:48:01Z</time>
      </trkpt>
      <trkpt lat="44.87516" lon="0.23438">
        <ele>87</ele>
        <time>2015-02-10T12:48:02Z</time>
      </trkpt>
      <trkpt lat="44.87516" lon="0.23438">
        <ele>87</ele>
        <time>2015-02-10T12:48:03Z</time>
      </trkpt>
      <trkpt lat="44.87516" lon="0.23438">
        <ele>88</ele>
        <time>2015-02-10T12:48:04Z</time>
      </trkpt>
      <trkpt lat="44.87516" lon="0.23438">
        <ele>86</ele>
        <time>2015-02-10T12:48:05Z</time>
      </trkpt>
      <trkpt lat="44.87516" lon="0.23438">
        <ele>88</ele>
        <time>2015-02-10T12:48:06Z</time>
      </trkpt>
      <trkpt lat="44.87516" lon="0.23438">
        <ele>91</ele>
        <time>2015-02-10T12:48:07Z</time>
      </trkpt>
      <trkpt lat="44.87516" lon="0.23438">
        <ele>93</ele>
        <time>2015-02-10T12:48:08Z</time>
      </trkpt>
      <trkpt lat="44.87516" lon="0.23438">
        <ele>90</ele>
        <time>2015-02-10T12:48:09Z</time>
      </trkpt>
      <trkpt lat="44.87516" lon="0.23438">
        <ele>88</ele>
        <time>2015-02-10T12:48:10Z</time>
      </trkpt>
      <trkpt lat="44.87517" lon="0.23437">
        <ele>82</ele>
        <time>2015-02-10T12:48:11Z</time>
      </trkpt>
      <trkpt lat="44.87517" lon="0.23436">
        <ele>83</ele>
        <time>2015-02-10T12:48:12Z</time>
      </trkpt>
      <trkpt lat="44.87517" lon="0.23435">
        <ele>85</ele>
        <time>2015-02-10T12:48:13Z</time>
      </trkpt>
      <trkpt lat="44.87518" lon="0.23434">
        <ele>89</ele>
        <time>2015-02-10T12:48:14Z</time>
      </trkpt>
      <trkpt lat="44.87518" lon="0.23433">
        <ele>84</ele>
        <time>2015-02-10T12:48:15Z</time>
      </trkpt>
      <trkpt lat="44.87519" lon="0.23433">
        <ele>84</ele>
        <time>2015-02-10T12:48:16Z</time>
      </trkpt>
      <trkpt lat="44.8752" lon="0.23432">
        <ele>85</ele>
        <time>2015-02-10T12:48:17Z</time>
      </trkpt>
      <trkpt lat="44.8752" lon="0.23431">
        <ele>86</ele>
        <time>2015-02-10T12:48:18Z</time>
      </trkpt>
      <trkpt lat="44.87521" lon="0.2343">
        <ele>82</ele>
        <time>2015-02-10T12:48:19Z</time>
      </trkpt>
      <trkpt lat="44.87521" lon="0.23429">
        <ele>86</ele>
        <time>2015-02-10T12:48:20Z</time>
      </trkpt>
      <trkpt lat="44.87521" lon="0.23428">
        <ele>83</ele>
        <time>2015-02-10T12:48:21Z</time>
      </trkpt>
      <trkpt lat="44.87522" lon="0.23427">
        <ele>83</ele>
        <time>2015-02-10T12:48:22Z</time>
      </trkpt>
      <trkpt lat="44.87522" lon="0.23425">
        <ele>84</ele>
        <time>2015-02-10T12:48:23Z</time>
      </trkpt>
      <trkpt lat="44.87522" lon="0.23424">
        <ele>83</ele>
        <time>2015-02-10T12:48:24Z</time>
      </trkpt>
      <trkpt lat="44.87522" lon="0.23423">
        <ele>83</ele>
        <time>2015-02-10T12:48:25Z</time>
      </trkpt>
      <trkpt lat="44.87522" lon="0.23422">
        <ele>80</ele>
        <time>2015-02-10T12:48:26Z</time>
      </trkpt>
      <trkpt lat="44.87522" lon="0.23421">
        <ele>80</ele>
        <time>2015-02-10T12:48:27Z</time>
      </trkpt>
      <trkpt lat="44.87522" lon="0.2342">
        <ele>81</ele>
        <time>2015-02-10T12:48:28Z</time>
      </trkpt>
      <trkpt lat="44.87522" lon="0.23419">
        <ele>81</ele>
        <time>2015-02-10T12:48:29Z</time>
      </trkpt>
      <trkpt lat="44.87522" lon="0.23419">
        <ele>82</ele>
        <time>2015-02-10T12:48:30Z</time>
      </trkpt>
      <trkpt lat="44.87522" lon="0.23418">
        <ele>83</ele>
        <time>2015-02-10T12:48:31Z</time>
      </trkpt>
      <trkpt lat="44.87522" lon="0.23417">
        <ele>82</ele>
        <time>2015-02-10T12:48:32Z</time>
      </trkpt>
      <trkpt lat="44.87522" lon="0.23416">
        <ele>80</ele>
        <time>2015-02-10T12:48:33Z</time>
      </trkpt>
      <trkpt lat="44.87522" lon="0.23416">
        <ele>79</ele>
        <time>2015-02-10T12:48:34Z</time>
      </trkpt>
      <trkpt lat="44.87521" lon="0.23415">
        <ele>79</ele>
        <time>2015-02-10T12:48:35Z</time>
      </trkpt>
      <trkpt lat="44.87521" lon="0.23414">
        <ele>79</ele>
        <time>2015-02-10T12:48:36Z</time>
      </trkpt>
      <trkpt lat="44.87521" lon="0.23413">
        <ele>81</ele>
        <time>2015-02-10T12:48:37Z</time>
      </trkpt>
      <trkpt lat="44.87521" lon="0.23412">
        <ele>82</ele>
        <time>2015-02-10T12:48:38Z</time>
      </trkpt>
      <trkpt lat="44.87522" lon="0.23411">
        <ele>81</ele>
        <time>2015-02-10T12:48:39Z</time>
      </trkpt>
      <trkpt lat="44.87522" lon="0.23411">
        <ele>83</ele>
        <time>2015-02-10T12:48:40Z</time>
      </trkpt>
      <trkpt lat="44.87522" lon="0.2341">
        <ele>84</ele>
        <time>2015-02-10T12:48:41Z</time>
      </trkpt>
      <trkpt lat="44.87522" lon="0.23409">
        <ele>86</ele>
        <time>2015-02-10T12:48:42Z</time>
      </trkpt>
      <trkpt lat="44.87523" lon="0.23408">
        <ele>88</ele>
        <time>2015-02-10T12:48:43Z</time>
      </trkpt>
      <trkpt lat="44.87523" lon="0.23407">
        <ele>87</ele>
        <time>2015-02-10T12:48:44Z</time>
      </trkpt>
      <trkpt lat="44.87523" lon="0.23406">
        <ele>87</ele>
        <time>2015-02-10T12:48:45Z</time>
      </trkpt>
      <trkpt lat="44.87524" lon="0.23405">
        <ele>87</ele>
        <time>2015-02-10T12:48:46Z</time>
      </trkpt>
      <trkpt lat="44.87524" lon="0.23404">
        <ele>91</ele>
        <time>2015-02-10T12:48:47Z</time>
      </trkpt>
      <trkpt lat="44.87524" lon="0.23403">
        <ele>94</ele>
        <time>2015-02-10T12:48:48Z</time>
      </trkpt>
      <trkpt lat="44.87524" lon="0.23402">
        <ele>92</ele>
        <time>2015-02-10T12:48:49Z</time>
      </trkpt>
      <trkpt lat="44.87525" lon="0.23401">
        <ele>91</ele>
        <time>2015-02-10T12:48:50Z</time>
      </trkpt>
      <trkpt lat="44.87525" lon="0.234">
        <ele>93</ele>
        <time>2015-02-10T12:48:51Z</time>
      </trkpt>
      <trkpt lat="44.87525" lon="0.234">
        <ele>93</ele>
        <time>2015-02-10T12:48:52Z</time>
      </trkpt>
      <trkpt lat="44.87525" lon="0.23399">
        <ele>90</ele>
        <time>2015-02-10T12:48:53Z</time>
      </trkpt>
      <trkpt lat="44.87525" lon="0.23398">
        <ele>91</ele>
        <time>2015-02-10T12:48:54Z</time>
      </trkpt>
      <trkpt lat="44.87525" lon="0.23397">
        <ele>92</ele>
        <time>2015-02-10T12:48:55Z</time>
      </trkpt>
      <trkpt lat="44.87525" lon="0.23397">
        <ele>88</ele>
        <time>2015-02-10T12:48:56Z</time>
      </trkpt>
      <trkpt lat="44.87526" lon="0.23396">
        <ele>91</ele>
        <time>2015-02-10T12:48:57Z</time>
      </trkpt>
      <trkpt lat="44.87526" lon="0.23396">
        <ele>91</ele>
        <time>2015-02-10T12:48:58Z</time>
      </trkpt>
      <trkpt lat="44.87526" lon="0.23395">
        <ele>93</ele>
        <time>2015-02-10T12:48:59Z</time>
      </trkpt>
      <trkpt lat="44.87527" lon="0.23394">
        <ele>95</ele>
        <time>2015-02-10T12:49:00Z</time>
      </trkpt>
      <trkpt lat="44.87527" lon="0.23393">
        <ele>94</ele>
        <time>2015-02-10T12:49:01Z</time>
      </trkpt>
      <trkpt lat="44.87527" lon="0.23392">
        <ele>95</ele>
        <time>2015-02-10T12:49:02Z</time>
      </trkpt>
      <trkpt lat="44.87528" lon="0.23391">
        <ele>95</ele>
        <time>2015-02-10T12:49:03Z</time>
      </trkpt>
      <trkpt lat="44.87528" lon="0.2339">
        <ele>93</ele>
        <time>2015-02-10T12:49:04Z</time>
      </trkpt>
      <trkpt lat="44.87528" lon="0.23389">
        <ele>92</ele>
        <time>2015-02-10T12:49:05Z</time>
      </trkpt>
      <trkpt lat="44.87528" lon="0.23388">
        <ele>91</ele>
        <time>2015-02-10T12:49:06Z</time>
      </trkpt>
      <trkpt lat="44.87528" lon="0.23387">
        <ele>92</ele>
        <time>2015-02-10T12:49:07Z</time>
      </trkpt>
      <trkpt lat="44.87529" lon="0.23387">
        <ele>92</ele>
        <time>2015-02-10T12:49:08Z</time>
      </trkpt>
      <trkpt lat="44.87529" lon="0.23387">
        <ele>94</ele>
        <time>2015-02-10T12:49:09Z</time>
      </trkpt>
      <trkpt lat="44.87529" lon="0.23387">
        <ele>95</ele>
        <time>2015-02-10T12:49:10Z</time>
      </trkpt>
      <trkpt lat="44.87529" lon="0.23387">
        <ele>94</ele>
        <time>2015-02-10T12:49:11Z</time>
      </trkpt>
      <trkpt lat="44.87529" lon="0.23387">
        <ele>95</ele>
        <time>2015-02-10T12:49:12Z</time>
      </trkpt>
      <trkpt lat="44.87529" lon="0.23387">
        <ele>93</ele>
        <time>2015-02-10T12:49:13Z</time>
      </trkpt>
      <trkpt lat="44.87529" lon="0.23387">
        <ele>91</ele>
        <time>2015-02-10T12:49:14Z</time>
      </trkpt>
      <trkpt lat="44.87529" lon="0.23387">
        <ele>89</ele>
        <time>2015-02-10T12:49:15Z</time>
      </trkpt>
      <trkpt lat="44.87529" lon="0.23386">
        <ele>93</ele>
        <time>2015-02-10T12:49:16Z</time>
      </trkpt>
      <trkpt lat="44.87529" lon="0.23386">
        <ele>93</ele>
        <time>2015-02-10T12:49:17Z</time>
      </trkpt>
      <trkpt lat="44.87529" lon="0.23386">
        <ele>92</ele>
        <time>2015-02-10T12:49:18Z</time>
      </trkpt>
      <trkpt lat="44.87529" lon="0.23386">
        <ele>91</ele>
        <time>2015-02-10T12:49:19Z</time>
      </trkpt>
      <trkpt lat="44.8753" lon="0.23386">
        <ele>90</ele>
        <time>2015-02-10T12:49:20Z</time>
      </trkpt>
      <trkpt lat="44.8753" lon="0.23386">
        <ele>87</ele>
        <time>2015-02-10T12:49:21Z</time>
      </trkpt>
      <trkpt lat="44.8753" lon="0.23386">
        <ele>86</ele>
        <time>2015-02-10T12:49:22Z</time>
      </trkpt>
      <trkpt lat="44.8753" lon="0.23386">
        <ele>83</ele>
        <time>2015-02-10T12:49:23Z</time>
      </trkpt>
      <trkpt lat="44.8753" lon="0.23386">
        <ele>83</ele>
        <time>2015-02-10T12:49:24Z</time>
      </trkpt>
      <trkpt lat="44.8753" lon="0.23385">
        <ele>83</ele>
        <time>2015-02-10T12:49:25Z</time>
      </trkpt>
      <trkpt lat="44.8753" lon="0.23384">
        <ele>87</ele>
        <time>2015-02-10T12:49:26Z</time>
      </trkpt>
      <trkpt lat="44.8753" lon="0.23384">
        <ele>85</ele>
        <time>2015-02-10T12:49:27Z</time>
      </trkpt>
      <trkpt lat="44.8753" lon="0.23383">
        <ele>88</ele>
        <time>2015-02-10T12:49:28Z</time>
      </trkpt>
      <trkpt lat="44.8753" lon="0.23382">
        <ele>90</ele>
        <time>2015-02-10T12:49:29Z</time>
      </trkpt>
      <trkpt lat="44.8753" lon="0.23381">
        <ele>90</ele>
        <time>2015-02-10T12:49:30Z</time>
      </trkpt>
      <trkpt lat="44.87531" lon="0.2338">
        <ele>92</ele>
        <time>2015-02-10T12:49:31Z</time>
      </trkpt>
      <trkpt lat="44.87531" lon="0.23379">
        <ele>92</ele>
        <time>2015-02-10T12:49:32Z</time>
      </trkpt>
      <trkpt lat="44.87532" lon="0.23378">
        <ele>91</ele>
        <time>2015-02-10T12:49:33Z</time>
      </trkpt>
      <trkpt lat="44.87532" lon="0.23378">
        <ele>86</ele>
        <time>2015-02-10T12:49:34Z</time>
      </trkpt>
      <trkpt lat="44.87532" lon="0.23378">
        <ele>88</ele>
        <time>2015-02-10T12:49:35Z</time>
      </trkpt>
      <trkpt lat="44.87532" lon="0.23378">
        <ele>93</ele>
        <time>2015-02-10T12:49:36Z</time>
      </trkpt>
      <trkpt lat="44.87532" lon="0.23377">
        <ele>91</ele>
        <time>2015-02-10T12:49:37Z</time>
      </trkpt>
      <trkpt lat="44.87532" lon="0.23376">
        <ele>93</ele>
        <time>2015-02-10T12:49:38Z</time>
      </trkpt>
      <trkpt lat="44.87532" lon="0.23376">
        <ele>92</ele>
        <time>2015-02-10T12:49:39Z</time>
      </trkpt>
      <trkpt lat="44.87532" lon="0.23375">
        <ele>91</ele>
        <time>2015-02-10T12:49:40Z</time>
      </trkpt>
      <trkpt lat="44.87532" lon="0.23375">
        <ele>91</ele>
        <time>2015-02-10T12:49:41Z</time>
      </trkpt>
      <trkpt lat="44.87532" lon="0.23375">
        <ele>92</ele>
        <time>2015-02-10T12:49:42Z</time>
      </trkpt>
      <trkpt lat="44.87533" lon="0.23374">
        <ele>95</ele>
        <time>2015-02-10T12:49:43Z</time>
      </trkpt>
      <trkpt lat="44.87533" lon="0.23373">
        <ele>94</ele>
        <time>2015-02-10T12:49:44Z</time>
      </trkpt>
      <trkpt lat="44.87533" lon="0.23372">
        <ele>92</ele>
        <time>2015-02-10T12:49:45Z</time>
      </trkpt>
      <trkpt lat="44.87533" lon="0.23371">
        <ele>93</ele>
        <time>2015-02-10T12:49:46Z</time>
      </trkpt>
      <trkpt lat="44.87533" lon="0.2337">
        <ele>92</ele>
        <time>2015-02-10T12:49:47Z</time>
      </trkpt>
      <trkpt lat="44.87533" lon="0.2337">
        <ele>91</ele>
        <time>2015-02-10T12:49:48Z</time>
      </trkpt>
      <trkpt lat="44.87533" lon="0.2337">
        <ele>93</ele>
        <time>2015-02-10T12:49:49Z</time>
      </trkpt>
      <trkpt lat="44.87533" lon="0.23369">
        <ele>94</ele>
        <time>2015-02-10T12:49:50Z</time>
      </trkpt>
      <trkpt lat="44.87533" lon="0.23368">
        <ele>93</ele>
        <time>2015-02-10T12:49:51Z</time>
      </trkpt>
      <trkpt lat="44.87534" lon="0.23367">
        <ele>93</ele>
        <time>2015-02-10T12:49:52Z</time>
      </trkpt>
      <trkpt lat="44.87534" lon="0.23366">
        <ele>93</ele>
        <time>2015-02-10T12:49:53Z</time>
      </trkpt>
      <trkpt lat="44.87533" lon="0.23365">
        <ele>91</ele>
        <time>2015-02-10T12:49:54Z</time>
      </trkpt>
      <trkpt lat="44.87533" lon="0.23364">
        <ele>93</ele>
        <time>2015-02-10T12:49:55Z</time>
      </trkpt>
      <trkpt lat="44.87533" lon="0.23364">
        <ele>91</ele>
        <time>2015-02-10T12:49:56Z</time>
      </trkpt>
      <trkpt lat="44.87533" lon="0.23364">
        <ele>95</ele>
        <time>2015-02-10T12:49:57Z</time>
      </trkpt>
      <trkpt lat="44.87534" lon="0.23364">
        <ele>97</ele>
        <time>2015-02-10T12:49:58Z</time>
      </trkpt>
      <trkpt lat="44.87534" lon="0.23363">
        <ele>97</ele>
        <time>2015-02-10T12:49:59Z</time>
      </trkpt>
      <trkpt lat="44.87534" lon="0.23362">
        <ele>96</ele>
        <time>2015-02-10T12:50:00Z</time>
      </trkpt>
      <trkpt lat="44.87534" lon="0.23361">
        <ele>95</ele>
        <time>2015-02-10T12:50:01Z</time>
      </trkpt>
      <trkpt lat="44.87534" lon="0.23361">
        <ele>96</ele>
        <time>2015-02-10T12:50:02Z</time>
      </trkpt>
      <trkpt lat="44.87535" lon="0.2336">
        <ele>93</ele>
        <time>2015-02-10T12:50:03Z</time>
      </trkpt>
      <trkpt lat="44.87535" lon="0.2336">
        <ele>95</ele>
        <time>2015-02-10T12:50:04Z</time>
      </trkpt>
      <trkpt lat="44.87535" lon="0.2336">
        <ele>98</ele>
        <time>2015-02-10T12:50:05Z</time>
      </trkpt>
      <trkpt lat="44.87535" lon="0.2336">
        <ele>95</ele>
        <time>2015-02-10T12:50:06Z</time>
      </trkpt>
      <trkpt lat="44.87535" lon="0.23359">
        <ele>97</ele>
        <time>2015-02-10T12:50:07Z</time>
      </trkpt>
      <trkpt lat="44.87536" lon="0.23358">
        <ele>94</ele>
        <time>2015-02-10T12:50:08Z</time>
      </trkpt>
      <trkpt lat="44.87536" lon="0.23358">
        <ele>97</ele>
        <time>2015-02-10T12:50:09Z</time>
      </trkpt>
      <trkpt lat="44.87536" lon="0.23357">
        <ele>103</ele>
        <time>2015-02-10T12:50:10Z</time>
      </trkpt>
      <trkpt lat="44.87536" lon="0.23357">
        <ele>102</ele>
        <time>2015-02-10T12:50:11Z</time>
      </trkpt>
      <trkpt lat="44.87536" lon="0.23357">
        <ele>103</ele>
        <time>2015-02-10T12:50:12Z</time>
      </trkpt>
      <trkpt lat="44.87537" lon="0.23356">
        <ele>103</ele>
        <time>2015-02-10T12:50:13Z</time>
      </trkpt>
      <trkpt lat="44.87537" lon="0.23355">
        <ele>100</ele>
        <time>2015-02-10T12:50:14Z</time>
      </trkpt>
      <trkpt lat="44.87537" lon="0.23353">
        <ele>103</ele>
        <time>2015-02-10T12:50:15Z</time>
      </trkpt>
      <trkpt lat="44.87537" lon="0.23352">
        <ele>102</ele>
        <time>2015-02-10T12:50:16Z</time>
      </trkpt>
      <trkpt lat="44.87538" lon="0.23351">
        <ele>102</ele>
        <time>2015-02-10T12:50:17Z</time>
      </trkpt>
      <trkpt lat="44.87538" lon="0.2335">
        <ele>105</ele>
        <time>2015-02-10T12:50:18Z</time>
      </trkpt>
      <trkpt lat="44.87538" lon="0.23349">
        <ele>106</ele>
        <time>2015-02-10T12:50:19Z</time>
      </trkpt>
      <trkpt lat="44.87539" lon="0.23347">
        <ele>100</ele>
        <time>2015-02-10T12:50:20Z</time>
      </trkpt>
      <trkpt lat="44.87539" lon="0.23346">
        <ele>97</ele>
        <time>2015-02-10T12:50:21Z</time>
      </trkpt>
      <trkpt lat="44.8754" lon="0.23345">
        <ele>99</ele>
        <time>2015-02-10T12:50:22Z</time>
      </trkpt>
      <trkpt lat="44.8754" lon="0.23345">
        <ele>94</ele>
        <time>2015-02-10T12:50:23Z</time>
      </trkpt>
      <trkpt lat="44.8754" lon="0.23344">
        <ele>96</ele>
        <time>2015-02-10T12:50:24Z</time>
      </trkpt>
      <trkpt lat="44.8754" lon="0.23344">
        <ele>95</ele>
        <time>2015-02-10T12:50:25Z</time>
      </trkpt>
      <trkpt lat="44.8754" lon="0.23343">
        <ele>91</ele>
        <time>2015-02-10T12:50:26Z</time>
      </trkpt>
      <trkpt lat="44.87541" lon="0.23342">
        <ele>94</ele>
        <time>2015-02-10T12:50:27Z</time>
      </trkpt>
      <trkpt lat="44.87541" lon="0.23341">
        <ele>91</ele>
        <time>2015-02-10T12:50:28Z</time>
      </trkpt>
      <trkpt lat="44.87542" lon="0.2334">
        <ele>93</ele>
        <time>2015-02-10T12:50:29Z</time>
      </trkpt>
      <trkpt lat="44.87542" lon="0.23339">
        <ele>93</ele>
        <time>2015-02-10T12:50:30Z</time>
      </trkpt>
      <trkpt lat="44.87543" lon="0.23339">
        <ele>92</ele>
        <time>2015-02-10T12:50:31Z</time>
      </trkpt>
      <trkpt lat="44.87543" lon="0.23338">
        <ele>96</ele>
        <time>2015-02-10T12:50:32Z</time>
      </trkpt>
      <trkpt lat="44.87543" lon="0.23337">
        <ele>99</ele>
        <time>2015-02-10T12:50:33Z</time>
      </trkpt>
      <trkpt lat="44.87543" lon="0.23336">
        <ele>95</ele>
        <time>2015-02-10T12:50:34Z</time>
      </trkpt>
      <trkpt lat="44.87543" lon="0.23336">
        <ele>100</ele>
        <time>2015-02-10T12:50:35Z</time>
      </trkpt>
      <trkpt lat="44.87544" lon="0.23335">
        <ele>98</ele>
        <time>2015-02-10T12:50:36Z</time>
      </trkpt>
      <trkpt lat="44.87544" lon="0.23335">
        <ele>97</ele>
        <time>2015-02-10T12:50:37Z</time>
      </trkpt>
      <trkpt lat="44.87545" lon="0.23334">
        <ele>100</ele>
        <time>2015-02-10T12:50:38Z</time>
      </trkpt>
      <trkpt lat="44.87545" lon="0.23333">
        <ele>100</ele>
        <time>2015-02-10T12:50:39Z</time>
      </trkpt>
      <trkpt lat="44.87545" lon="0.23333">
        <ele>101</ele>
        <time>2015-02-10T12:50:40Z</time>
      </trkpt>
      <trkpt lat="44.87545" lon="0.23333">
        <ele>105</ele>
        <time>2015-02-10T12:50:41Z</time>
      </trkpt>
      <trkpt lat="44.87545" lon="0.23333">
        <ele>106</ele>
        <time>2015-02-10T12:50:42Z</time>
      </trkpt>
      <trkpt lat="44.87545" lon="0.23333">
        <ele>101</ele>
        <time>2015-02-10T12:50:43Z</time>
      </trkpt>
      <trkpt lat="44.87545" lon="0.23332">
        <ele>96</ele>
        <time>2015-02-10T12:50:44Z</time>
      </trkpt>
      <trkpt lat="44.87545" lon="0.23332">
        <ele>93</ele>
        <time>2015-02-10T12:50:45Z</time>
      </trkpt>
      <trkpt lat="44.87546" lon="0.23332">
        <ele>94</ele>
        <time>2015-02-10T12:50:46Z</time>
      </trkpt>
      <trkpt lat="44.87546" lon="0.23332">
        <ele>90</ele>
        <time>2015-02-10T12:50:47Z</time>
      </trkpt>
      <trkpt lat="44.87546" lon="0.23331">
        <ele>89</ele>
        <time>2015-02-10T12:50:48Z</time>
      </trkpt>
      <trkpt lat="44.87546" lon="0.2333">
        <ele>91</ele>
        <time>2015-02-10T12:50:49Z</time>
      </trkpt>
      <trkpt lat="44.87546" lon="0.23329">
        <ele>95</ele>
        <time>2015-02-10T12:50:50Z</time>
      </trkpt>
      <trkpt lat="44.87546" lon="0.23328">
        <ele>98</ele>
        <time>2015-02-10T12:50:51Z</time>
      </trkpt>
      <trkpt lat="44.87546" lon="0.23327">
        <ele>99</ele>
        <time>2015-02-10T12:50:52Z</time>
      </trkpt>
      <trkpt lat="44.87546" lon="0.23325">
        <ele>100</ele>
        <time>2015-02-10T12:50:53Z</time>
      </trkpt>
      <trkpt lat="44.87547" lon="0.23324">
        <ele>101</ele>
        <time>2015-02-10T12:50:54Z</time>
      </trkpt>
      <trkpt lat="44.87547" lon="0.23322">
        <ele>105</ele>
        <time>2015-02-10T12:50:55Z</time>
      </trkpt>
      <trkpt lat="44.87547" lon="0.23321">
        <ele>106</ele>
        <time>2015-02-10T12:50:56Z</time>
      </trkpt>
      <trkpt lat="44.87547" lon="0.2332">
        <ele>104</ele>
        <time>2015-02-10T12:50:57Z</time>
      </trkpt>
      <trkpt lat="44.87548" lon="0.23318">
        <ele>103</ele>
        <time>2015-02-10T12:50:58Z</time>
      </trkpt>
      <trkpt lat="44.87548" lon="0.23317">
        <ele>103</ele>
        <time>2015-02-10T12:50:59Z</time>
      </trkpt>
      <trkpt lat="44.87548" lon="0.23316">
        <ele>102</ele>
        <time>2015-02-10T12:51:00Z</time>
      </trkpt>
      <trkpt lat="44.87548" lon="0.23315">
        <ele>103</ele>
        <time>2015-02-10T12:51:01Z</time>
      </trkpt>
      <trkpt lat="44.87548" lon="0.23314">
        <ele>103</ele>
        <time>2015-02-10T12:51:02Z</time>
      </trkpt>
      <trkpt lat="44.87548" lon="0.23313">
        <ele>105</ele>
        <time>2015-02-10T12:51:03Z</time>
      </trkpt>
      <trkpt lat="44.87548" lon="0.23311">
        <ele>105</ele>
        <time>2015-02-10T12:51:04Z</time>
      </trkpt>
      <trkpt lat="44.87548" lon="0.2331">
        <ele>108</ele>
        <time>2015-02-10T12:51:05Z</time>
      </trkpt>
      <trkpt lat="44.87548" lon="0.2331">
        <ele>107</ele>
        <time>2015-02-10T12:51:06Z</time>
      </trkpt>
      <trkpt lat="44.87549" lon="0.23309">
        <ele>108</ele>
        <time>2015-02-10T12:51:07Z</time>
      </trkpt>
      <trkpt lat="44.87548" lon="0.23308">
        <ele>108</ele>
        <time>2015-02-10T12:51:08Z</time>
      </trkpt>
      <trkpt lat="44.87548" lon="0.23307">
        <ele>107</ele>
        <time>2015-02-10T12:51:09Z</time>
      </trkpt>
      <trkpt lat="44.87549" lon="0.23307">
        <ele>103</ele>
        <time>2015-02-10T12:51:10Z</time>
      </trkpt>
      <trkpt lat="44.87549" lon="0.23306">
        <ele>104</ele>
        <time>2015-02-10T12:51:11Z</time>
      </trkpt>
      <trkpt lat="44.8755" lon="0.23305">
        <ele>106</ele>
        <time>2015-02-10T12:51:12Z</time>
      </trkpt>
      <trkpt lat="44.8755" lon="0.23304">
        <ele>106</ele>
        <time>2015-02-10T12:51:13Z</time>
      </trkpt>
      <trkpt lat="44.8755" lon="0.23304">
        <ele>107</ele>
        <time>2015-02-10T12:51:14Z</time>
      </trkpt>
      <trkpt lat="44.8755" lon="0.23303">
        <ele>103</ele>
        <time>2015-02-10T12:51:15Z</time>
      </trkpt>
      <trkpt lat="44.87551" lon="0.23302">
        <ele>104</ele>
        <time>2015-02-10T12:51:16Z</time>
      </trkpt>
      <trkpt lat="44.87551" lon="0.23301">
        <ele>104</ele>
        <time>2015-02-10T12:51:17Z</time>
      </trkpt>
      <trkpt lat="44.87551" lon="0.23301">
        <ele>105</ele>
        <time>2015-02-10T12:51:18Z</time>
      </trkpt>
      <trkpt lat="44.87551" lon="0.233">
        <ele>105</ele>
        <time>2015-02-10T12:51:19Z</time>
      </trkpt>
      <trkpt lat="44.87551" lon="0.23299">
        <ele>106</ele>
        <time>2015-02-10T12:51:20Z</time>
      </trkpt>
      <trkpt lat="44.87551" lon="0.23299">
        <ele>105</ele>
        <time>2015-02-10T12:51:21Z</time>
      </trkpt>
      <trkpt lat="44.87551" lon="0.23298">
        <ele>106</ele>
        <time>2015-02-10T12:51:22Z</time>
      </trkpt>
      <trkpt lat="44.87551" lon="0.23297">
        <ele>106</ele>
        <time>2015-02-10T12:51:23Z</time>
      </trkpt>
      <trkpt lat="44.87551" lon="0.23297">
        <ele>106</ele>
        <time>2015-02-10T12:51:24Z</time>
      </trkpt>
      <trkpt lat="44.87551" lon="0.23297">
        <ele>107</ele>
        <time>2015-02-10T12:51:25Z</time>
      </trkpt>
      <trkpt lat="44.87551" lon="0.23297">
        <ele>105</ele>
        <time>2015-02-10T12:51:26Z</time>
      </trkpt>
      <trkpt lat="44.87551" lon="0.23297">
        <ele>103</ele>
        <time>2015-02-10T12:51:27Z</time>
      </trkpt>
      <trkpt lat="44.87551" lon="0.23297">
        <ele>103</ele>
        <time>2015-02-10T12:51:28Z</time>
      </trkpt>
      <trkpt lat="44.87551" lon="0.23297">
        <ele>105</ele>
        <time>2015-02-10T12:51:29Z</time>
      </trkpt>
      <trkpt lat="44.87551" lon="0.23297">
        <ele>107</ele>
        <time>2015-02-10T12:51:30Z</time>
      </trkpt>
      <trkpt lat="44.87551" lon="0.23296">
        <ele>106</ele>
        <time>2015-02-10T12:51:31Z</time>
      </trkpt>
      <trkpt lat="44.87551" lon="0.23296">
        <ele>104</ele>
        <time>2015-02-10T12:51:32Z</time>
      </trkpt>
      <trkpt lat="44.87551" lon="0.23296">
        <ele>101</ele>
        <time>2015-02-10T12:51:33Z</time>
      </trkpt>
      <trkpt lat="44.87551" lon="0.23296">
        <ele>96</ele>
        <time>2015-02-10T12:51:34Z</time>
      </trkpt>
      <trkpt lat="44.87551" lon="0.23296">
        <ele>93</ele>
        <time>2015-02-10T12:51:35Z</time>
      </trkpt>
      <trkpt lat="44.87551" lon="0.23296">
        <ele>98</ele>
        <time>2015-02-10T12:51:36Z</time>
      </trkpt>
      <trkpt lat="44.87552" lon="0.23296">
        <ele>97</ele>
        <time>2015-02-10T12:51:37Z</time>
      </trkpt>
      <trkpt lat="44.87552" lon="0.23296">
        <ele>96</ele>
        <time>2015-02-10T12:51:38Z</time>
      </trkpt>
      <trkpt lat="44.87552" lon="0.23296">
        <ele>100</ele>
        <time>2015-02-10T12:51:39Z</time>
      </trkpt>
      <trkpt lat="44.87552" lon="0.23296">
        <ele>106</ele>
        <time>2015-02-10T12:51:40Z</time>
      </trkpt>
      <trkpt lat="44.87552" lon="0.23296">
        <ele>108</ele>
        <time>2015-02-10T12:51:41Z</time>
      </trkpt>
      <trkpt lat="44.87552" lon="0.23298">
        <ele>108</ele>
        <time>2015-02-10T12:51:42Z</time>
      </trkpt>
      <trkpt lat="44.87552" lon="0.233">
        <ele>102</ele>
        <time>2015-02-10T12:51:43Z</time>
      </trkpt>
      <trkpt lat="44.87552" lon="0.233">
        <ele>96</ele>
        <time>2015-02-10T12:51:44Z</time>
      </trkpt>
      <trkpt lat="44.87552" lon="0.233">
        <ele>93</ele>
        <time>2015-02-10T12:51:45Z</time>
      </trkpt>
      <trkpt lat="44.87552" lon="0.233">
        <ele>97</ele>
        <time>2015-02-10T12:51:46Z</time>
      </trkpt>
      <trkpt lat="44.87552" lon="0.233">
        <ele>98</ele>
        <time>2015-02-10T12:51:47Z</time>
      </trkpt>
      <trkpt lat="44.87552" lon="0.233">
        <ele>97</ele>
        <time>2015-02-10T12:51:48Z</time>
      </trkpt>
      <trkpt lat="44.87552" lon="0.233">
        <ele>98</ele>
        <time>2015-02-10T12:51:49Z</time>
      </trkpt>
      <trkpt lat="44.87552" lon="0.233">
        <ele>101</ele>
        <time>2015-02-10T12:51:50Z</time>
      </trkpt>
      <trkpt lat="44.87552" lon="0.233">
        <ele>103</ele>
        <time>2015-02-10T12:51:51Z</time>
      </trkpt>
      <trkpt lat="44.87552" lon="0.233">
        <ele>106</ele>
        <time>2015-02-10T12:51:52Z</time>
      </trkpt>
      <trkpt lat="44.87552" lon="0.233">
        <ele>108</ele>
        <time>2015-02-10T12:51:53Z</time>
      </trkpt>
      <trkpt lat="44.87552" lon="0.233">
        <ele>109</ele>
        <time>2015-02-10T12:51:54Z</time>
      </trkpt>
      <trkpt lat="44.87552" lon="0.233">
        <ele>109</ele>
        <time>2015-02-10T12:51:55Z</time>
      </trkpt>
      <trkpt lat="44.87552" lon="0.233">
        <ele>109</ele>
        <time>2015-02-10T12:51:56Z</time>
      </trkpt>
      <trkpt lat="44.87552" lon="0.233">
        <ele>108</ele>
        <time>2015-02-10T12:51:57Z</time>
      </trkpt>
      <trkpt lat="44.87552" lon="0.233">
        <ele>108</ele>
        <time>2015-02-10T12:51:58Z</time>
      </trkpt>
      <trkpt lat="44.87552" lon="0.233">
        <ele>106</ele>
        <time>2015-02-10T12:51:59Z</time>
      </trkpt>
      <trkpt lat="44.87552" lon="0.233">
        <ele>108</ele>
        <time>2015-02-10T12:52:00Z</time>
      </trkpt>
      <trkpt lat="44.87552" lon="0.233">
        <ele>110</ele>
        <time>2015-02-10T12:52:01Z</time>
      </trkpt>
      <trkpt lat="44.87552" lon="0.233">
        <ele>111</ele>
        <time>2015-02-10T12:52:02Z</time>
      </trkpt>
      <trkpt lat="44.87552" lon="0.23299">
        <ele>106</ele>
        <time>2015-02-10T12:52:03Z</time>
      </trkpt>
      <trkpt lat="44.87552" lon="0.23298">
        <ele>104</ele>
        <time>2015-02-10T12:52:04Z</time>
      </trkpt>
      <trkpt lat="44.87552" lon="0.23297">
        <ele>102</ele>
        <time>2015-02-10T12:52:05Z</time>
      </trkpt>
      <trkpt lat="44.87551" lon="0.23295">
        <ele>104</ele>
        <time>2015-02-10T12:52:06Z</time>
      </trkpt>
      <trkpt lat="44.87551" lon="0.23295">
        <ele>101</ele>
        <time>2015-02-10T12:52:07Z</time>
      </trkpt>
      <trkpt lat="44.87551" lon="0.23293">
        <ele>99</ele>
        <time>2015-02-10T12:52:08Z</time>
      </trkpt>
      <trkpt lat="44.87552" lon="0.23292">
        <ele>101</ele>
        <time>2015-02-10T12:52:09Z</time>
      </trkpt>
      <trkpt lat="44.87552" lon="0.23291">
        <ele>101</ele>
        <time>2015-02-10T12:52:10Z</time>
      </trkpt>
      <trkpt lat="44.87551" lon="0.2329">
        <ele>103</ele>
        <time>2015-02-10T12:52:11Z</time>
      </trkpt>
      <trkpt lat="44.87552" lon="0.23289">
        <ele>103</ele>
        <time>2015-02-10T12:52:12Z</time>
      </trkpt>
      <trkpt lat="44.87551" lon="0.23288">
        <ele>107</ele>
        <time>2015-02-10T12:52:13Z</time>
      </trkpt>
      <trkpt lat="44.87552" lon="0.23287">
        <ele>107</ele>
        <time>2015-02-10T12:52:14Z</time>
      </trkpt>
      <trkpt lat="44.87552" lon="0.23286">
        <ele>105</ele>
        <time>2015-02-10T12:52:15Z</time>
      </trkpt>
      <trkpt lat="44.87552" lon="0.23285">
        <ele>104</ele>
        <time>2015-02-10T12:52:16Z</time>
      </trkpt>
      <trkpt lat="44.87552" lon="0.23285">
        <ele>102</ele>
        <time>2015-02-10T12:52:17Z</time>
      </trkpt>
      <trkpt lat="44.87552" lon="0.23284">
        <ele>105</ele>
        <time>2015-02-10T12:52:18Z</time>
      </trkpt>
      <trkpt lat="44.87552" lon="0.23283">
        <ele>104</ele>
        <time>2015-02-10T12:52:19Z</time>
      </trkpt>
      <trkpt lat="44.87552" lon="0.23282">
        <ele>103</ele>
        <time>2015-02-10T12:52:20Z</time>
      </trkpt>
      <trkpt lat="44.87552" lon="0.23281">
        <ele>103</ele>
        <time>2015-02-10T12:52:21Z</time>
      </trkpt>
      <trkpt lat="44.87553" lon="0.2328">
        <ele>107</ele>
        <time>2015-02-10T12:52:22Z</time>
      </trkpt>
      <trkpt lat="44.87553" lon="0.23278">
        <ele>110</ele>
        <time>2015-02-10T12:52:23Z</time>
      </trkpt>
      <trkpt lat="44.87553" lon="0.23277">
        <ele>112</ele>
        <time>2015-02-10T12:52:24Z</time>
      </trkpt>
      <trkpt lat="44.87553" lon="0.23276">
        <ele>112</ele>
        <time>2015-02-10T12:52:25Z</time>
      </trkpt>
      <trkpt lat="44.87553" lon="0.23275">
        <ele>112</ele>
        <time>2015-02-10T12:52:26Z</time>
      </trkpt>
      <trkpt lat="44.87553" lon="0.23274">
        <ele>112</ele>
        <time>2015-02-10T12:52:27Z</time>
      </trkpt>
      <trkpt lat="44.87554" lon="0.23273">
        <ele>109</ele>
        <time>2015-02-10T12:52:28Z</time>
      </trkpt>
      <trkpt lat="44.87554" lon="0.23272">
        <ele>107</ele>
        <time>2015-02-10T12:52:29Z</time>
      </trkpt>
      <trkpt lat="44.87554" lon="0.23272">
        <ele>107</ele>
        <time>2015-02-10T12:52:30Z</time>
      </trkpt>
      <trkpt lat="44.87554" lon="0.23271">
        <ele>107</ele>
        <time>2015-02-10T12:52:31Z</time>
      </trkpt>
      <trkpt lat="44.87554" lon="0.2327">
        <ele>105</ele>
        <time>2015-02-10T12:52:32Z</time>
      </trkpt>
      <trkpt lat="44.87554" lon="0.23269">
        <ele>101</ele>
        <time>2015-02-10T12:52:33Z</time>
      </trkpt>
      <trkpt lat="44.87555" lon="0.23268">
        <ele>109</ele>
        <time>2015-02-10T12:52:34Z</time>
      </trkpt>
      <trkpt lat="44.87555" lon="0.23268">
        <ele>107</ele>
        <time>2015-02-10T12:52:35Z</time>
      </trkpt>
      <trkpt lat="44.87555" lon="0.23267">
        <ele>108</ele>
        <time>2015-02-10T12:52:36Z</time>
      </trkpt>
      <trkpt lat="44.87555" lon="0.23266">
        <ele>105</ele>
        <time>2015-02-10T12:52:37Z</time>
      </trkpt>
      <trkpt lat="44.87555" lon="0.23265">
        <ele>108</ele>
        <time>2015-02-10T12:52:38Z</time>
      </trkpt>
      <trkpt lat="44.87556" lon="0.23264">
        <ele>108</ele>
        <time>2015-02-10T12:52:39Z</time>
      </trkpt>
      <trkpt lat="44.87556" lon="0.23263">
        <ele>105</ele>
        <time>2015-02-10T12:52:40Z</time>
      </trkpt>
      <trkpt lat="44.87556" lon="0.23262">
        <ele>103</ele>
        <time>2015-02-10T12:52:41Z</time>
      </trkpt>
      <trkpt lat="44.87557" lon="0.23262">
        <ele>107</ele>
        <time>2015-02-10T12:52:42Z</time>
      </trkpt>
      <trkpt lat="44.87557" lon="0.2326">
        <ele>108</ele>
        <time>2015-02-10T12:52:43Z</time>
      </trkpt>
      <trkpt lat="44.87557" lon="0.23259">
        <ele>109</ele>
        <time>2015-02-10T12:52:44Z</time>
      </trkpt>
      <trkpt lat="44.87557" lon="0.23259">
        <ele>110</ele>
        <time>2015-02-10T12:52:45Z</time>
      </trkpt>
      <trkpt lat="44.87557" lon="0.23257">
        <ele>112</ele>
        <time>2015-02-10T12:52:46Z</time>
      </trkpt>
      <trkpt lat="44.87558" lon="0.23257">
        <ele>106</ele>
        <time>2015-02-10T12:52:47Z</time>
      </trkpt>
      <trkpt lat="44.87558" lon="0.23256">
        <ele>108</ele>
        <time>2015-02-10T12:52:48Z</time>
      </trkpt>
      <trkpt lat="44.87558" lon="0.23255">
        <ele>109</ele>
        <time>2015-02-10T12:52:49Z</time>
      </trkpt>
      <trkpt lat="44.87559" lon="0.23254">
        <ele>106</ele>
        <time>2015-02-10T12:52:50Z</time>
      </trkpt>
      <trkpt lat="44.87559" lon="0.23253">
        <ele>107</ele>
        <time>2015-02-10T12:52:51Z</time>
      </trkpt>
      <trkpt lat="44.87559" lon="0.23252">
        <ele>103</ele>
        <time>2015-02-10T12:52:52Z</time>
      </trkpt>
      <trkpt lat="44.8756" lon="0.23251">
        <ele>101</ele>
        <time>2015-02-10T12:52:53Z</time>
      </trkpt>
      <trkpt lat="44.87559" lon="0.2325">
        <ele>101</ele>
        <time>2015-02-10T12:52:54Z</time>
      </trkpt>
      <trkpt lat="44.87559" lon="0.23249">
        <ele>104</ele>
        <time>2015-02-10T12:52:55Z</time>
      </trkpt>
      <trkpt lat="44.87559" lon="0.23248">
        <ele>105</ele>
        <time>2015-02-10T12:52:56Z</time>
      </trkpt>
      <trkpt lat="44.8756" lon="0.23247">
        <ele>106</ele>
        <time>2015-02-10T12:52:57Z</time>
      </trkpt>
      <trkpt lat="44.8756" lon="0.23245">
        <ele>105</ele>
        <time>2015-02-10T12:52:58Z</time>
      </trkpt>
      <trkpt lat="44.8756" lon="0.23244">
        <ele>104</ele>
        <time>2015-02-10T12:52:59Z</time>
      </trkpt>
      <trkpt lat="44.8756" lon="0.23243">
        <ele>102</ele>
        <time>2015-02-10T12:53:00Z</time>
      </trkpt>
      <trkpt lat="44.8756" lon="0.23242">
        <ele>102</ele>
        <time>2015-02-10T12:53:01Z</time>
      </trkpt>
      <trkpt lat="44.8756" lon="0.23241">
        <ele>104</ele>
        <time>2015-02-10T12:53:02Z</time>
      </trkpt>
      <trkpt lat="44.8756" lon="0.23241">
        <ele>103</ele>
        <time>2015-02-10T12:53:03Z</time>
      </trkpt>
      <trkpt lat="44.8756" lon="0.2324">
        <ele>104</ele>
        <time>2015-02-10T12:53:04Z</time>
      </trkpt>
      <trkpt lat="44.8756" lon="0.23239">
        <ele>105</ele>
        <time>2015-02-10T12:53:05Z</time>
      </trkpt>
      <trkpt lat="44.8756" lon="0.23238">
        <ele>109</ele>
        <time>2015-02-10T12:53:06Z</time>
      </trkpt>
      <trkpt lat="44.8756" lon="0.23237">
        <ele>111</ele>
        <time>2015-02-10T12:53:07Z</time>
      </trkpt>
      <trkpt lat="44.8756" lon="0.23236">
        <ele>111</ele>
        <time>2015-02-10T12:53:08Z</time>
      </trkpt>
      <trkpt lat="44.8756" lon="0.23235">
        <ele>111</ele>
        <time>2015-02-10T12:53:09Z</time>
      </trkpt>
      <trkpt lat="44.8756" lon="0.23235">
        <ele>112</ele>
        <time>2015-02-10T12:53:10Z</time>
      </trkpt>
      <trkpt lat="44.8756" lon="0.23233">
        <ele>114</ele>
        <time>2015-02-10T12:53:11Z</time>
      </trkpt>
      <trkpt lat="44.8756" lon="0.23232">
        <ele>112</ele>
        <time>2015-02-10T12:53:12Z</time>
      </trkpt>
      <trkpt lat="44.8756" lon="0.23231">
        <ele>115</ele>
        <time>2015-02-10T12:53:13Z</time>
      </trkpt>
      <trkpt lat="44.8756" lon="0.2323">
        <ele>116</ele>
        <time>2015-02-10T12:53:14Z</time>
      </trkpt>
      <trkpt lat="44.8756" lon="0.23228">
        <ele>118</ele>
        <time>2015-02-10T12:53:15Z</time>
      </trkpt>
      <trkpt lat="44.8756" lon="0.23227">
        <ele>115</ele>
        <time>2015-02-10T12:53:16Z</time>
      </trkpt>
      <trkpt lat="44.8756" lon="0.23226">
        <ele>109</ele>
        <time>2015-02-10T12:53:17Z</time>
      </trkpt>
      <trkpt lat="44.8756" lon="0.23225">
        <ele>108</ele>
        <time>2015-02-10T12:53:18Z</time>
      </trkpt>
      <trkpt lat="44.8756" lon="0.23224">
        <ele>108</ele>
        <time>2015-02-10T12:53:19Z</time>
      </trkpt>
      <trkpt lat="44.8756" lon="0.23223">
        <ele>109</ele>
        <time>2015-02-10T12:53:20Z</time>
      </trkpt>
      <trkpt lat="44.8756" lon="0.23222">
        <ele>113</ele>
        <time>2015-02-10T12:53:21Z</time>
      </trkpt>
      <trkpt lat="44.8756" lon="0.2322">
        <ele>114</ele>
        <time>2015-02-10T12:53:22Z</time>
      </trkpt>
      <trkpt lat="44.8756" lon="0.23219">
        <ele>112</ele>
        <time>2015-02-10T12:53:23Z</time>
      </trkpt>
      <trkpt lat="44.8756" lon="0.23218">
        <ele>112</ele>
        <time>2015-02-10T12:53:24Z</time>
      </trkpt>
      <trkpt lat="44.8756" lon="0.23216">
        <ele>113</ele>
        <time>2015-02-10T12:53:25Z</time>
      </trkpt>
      <trkpt lat="44.8756" lon="0.23214">
        <ele>110</ele>
        <time>2015-02-10T12:53:26Z</time>
      </trkpt>
      <trkpt lat="44.87561" lon="0.23213">
        <ele>109</ele>
        <time>2015-02-10T12:53:27Z</time>
      </trkpt>
      <trkpt lat="44.87561" lon="0.23212">
        <ele>106</ele>
        <time>2015-02-10T12:53:28Z</time>
      </trkpt>
      <trkpt lat="44.87562" lon="0.23211">
        <ele>107</ele>
        <time>2015-02-10T12:53:29Z</time>
      </trkpt>
      <trkpt lat="44.87562" lon="0.2321">
        <ele>107</ele>
        <time>2015-02-10T12:53:30Z</time>
      </trkpt>
      <trkpt lat="44.87562" lon="0.23209">
        <ele>109</ele>
        <time>2015-02-10T12:53:31Z</time>
      </trkpt>
      <trkpt lat="44.87562" lon="0.23208">
        <ele>111</ele>
        <time>2015-02-10T12:53:32Z</time>
      </trkpt>
      <trkpt lat="44.87562" lon="0.23207">
        <ele>111</ele>
        <time>2015-02-10T12:53:33Z</time>
      </trkpt>
      <trkpt lat="44.87562" lon="0.23206">
        <ele>109</ele>
        <time>2015-02-10T12:53:34Z</time>
      </trkpt>
      <trkpt lat="44.87563" lon="0.23205">
        <ele>109</ele>
        <time>2015-02-10T12:53:35Z</time>
      </trkpt>
      <trkpt lat="44.87563" lon="0.23205">
        <ele>111</ele>
        <time>2015-02-10T12:53:36Z</time>
      </trkpt>
      <trkpt lat="44.87562" lon="0.23202">
        <ele>111</ele>
        <time>2015-02-10T12:53:37Z</time>
      </trkpt>
      <trkpt lat="44.87562" lon="0.23201">
        <ele>111</ele>
        <time>2015-02-10T12:53:38Z</time>
      </trkpt>
      <trkpt lat="44.87562" lon="0.23199">
        <ele>112</ele>
        <time>2015-02-10T12:53:39Z</time>
      </trkpt>
      <trkpt lat="44.87562" lon="0.23198">
        <ele>111</ele>
        <time>2015-02-10T12:53:40Z</time>
      </trkpt>
      <trkpt lat="44.87562" lon="0.23196">
        <ele>111</ele>
        <time>2015-02-10T12:53:41Z</time>
      </trkpt>
      <trkpt lat="44.87562" lon="0.23195">
        <ele>113</ele>
        <time>2015-02-10T12:53:42Z</time>
      </trkpt>
      <trkpt lat="44.87562" lon="0.23193">
        <ele>115</ele>
        <time>2015-02-10T12:53:43Z</time>
      </trkpt>
      <trkpt lat="44.87562" lon="0.23192">
        <ele>113</ele>
        <time>2015-02-10T12:53:44Z</time>
      </trkpt>
      <trkpt lat="44.87562" lon="0.23192">
        <ele>115</ele>
        <time>2015-02-10T12:53:45Z</time>
      </trkpt>
      <trkpt lat="44.87562" lon="0.2319">
        <ele>116</ele>
        <time>2015-02-10T12:53:46Z</time>
      </trkpt>
      <trkpt lat="44.87562" lon="0.23189">
        <ele>118</ele>
        <time>2015-02-10T12:53:47Z</time>
      </trkpt>
      <trkpt lat="44.87562" lon="0.23188">
        <ele>117</ele>
        <time>2015-02-10T12:53:48Z</time>
      </trkpt>
      <trkpt lat="44.87563" lon="0.23186">
        <ele>116</ele>
        <time>2015-02-10T12:53:49Z</time>
      </trkpt>
      <trkpt lat="44.87563" lon="0.23185">
        <ele>116</ele>
        <time>2015-02-10T12:53:50Z</time>
      </trkpt>
      <trkpt lat="44.87563" lon="0.23184">
        <ele>115</ele>
        <time>2015-02-10T12:53:51Z</time>
      </trkpt>
      <trkpt lat="44.87563" lon="0.23183">
        <ele>115</ele>
        <time>2015-02-10T12:53:52Z</time>
      </trkpt>
      <trkpt lat="44.87563" lon="0.23181">
        <ele>116</ele>
        <time>2015-02-10T12:53:53Z</time>
      </trkpt>
      <trkpt lat="44.87564" lon="0.2318">
        <ele>115</ele>
        <time>2015-02-10T12:53:54Z</time>
      </trkpt>
      <trkpt lat="44.87564" lon="0.23179">
        <ele>114</ele>
        <time>2015-02-10T12:53:55Z</time>
      </trkpt>
      <trkpt lat="44.87564" lon="0.23178">
        <ele>117</ele>
        <time>2015-02-10T12:53:56Z</time>
      </trkpt>
      <trkpt lat="44.87564" lon="0.23177">
        <ele>114</ele>
        <time>2015-02-10T12:53:57Z</time>
      </trkpt>
      <trkpt lat="44.87564" lon="0.23175">
        <ele>115</ele>
        <time>2015-02-10T12:53:58Z</time>
      </trkpt>
      <trkpt lat="44.87565" lon="0.23174">
        <ele>117</ele>
        <time>2015-02-10T12:53:59Z</time>
      </trkpt>
      <trkpt lat="44.87565" lon="0.23173">
        <ele>115</ele>
        <time>2015-02-10T12:54:00Z</time>
      </trkpt>
      <trkpt lat="44.87565" lon="0.23172">
        <ele>114</ele>
        <time>2015-02-10T12:54:01Z</time>
      </trkpt>
      <trkpt lat="44.87565" lon="0.23171">
        <ele>115</ele>
        <time>2015-02-10T12:54:02Z</time>
      </trkpt>
      <trkpt lat="44.87565" lon="0.2317">
        <ele>111</ele>
        <time>2015-02-10T12:54:03Z</time>
      </trkpt>
      <trkpt lat="44.87565" lon="0.23169">
        <ele>109</ele>
        <time>2015-02-10T12:54:04Z</time>
      </trkpt>
      <trkpt lat="44.87565" lon="0.23167">
        <ele>109</ele>
        <time>2015-02-10T12:54:05Z</time>
      </trkpt>
      <trkpt lat="44.87566" lon="0.23167">
        <ele>110</ele>
        <time>2015-02-10T12:54:06Z</time>
      </trkpt>
      <trkpt lat="44.87566" lon="0.23165">
        <ele>110</ele>
        <time>2015-02-10T12:54:07Z</time>
      </trkpt>
      <trkpt lat="44.87566" lon="0.23164">
        <ele>113</ele>
        <time>2015-02-10T12:54:08Z</time>
      </trkpt>
      <trkpt lat="44.87566" lon="0.23163">
        <ele>113</ele>
        <time>2015-02-10T12:54:09Z</time>
      </trkpt>
      <trkpt lat="44.87566" lon="0.23161">
        <ele>109</ele>
        <time>2015-02-10T12:54:10Z</time>
      </trkpt>
      <trkpt lat="44.87566" lon="0.2316">
        <ele>111</ele>
        <time>2015-02-10T12:54:11Z</time>
      </trkpt>
      <trkpt lat="44.87567" lon="0.23159">
        <ele>114</ele>
        <time>2015-02-10T12:54:12Z</time>
      </trkpt>
      <trkpt lat="44.87567" lon="0.23158">
        <ele>116</ele>
        <time>2015-02-10T12:54:13Z</time>
      </trkpt>
      <trkpt lat="44.87567" lon="0.23157">
        <ele>116</ele>
        <time>2015-02-10T12:54:14Z</time>
      </trkpt>
      <trkpt lat="44.87567" lon="0.23156">
        <ele>117</ele>
        <time>2015-02-10T12:54:15Z</time>
      </trkpt>
      <trkpt lat="44.87567" lon="0.23155">
        <ele>120</ele>
        <time>2015-02-10T12:54:16Z</time>
      </trkpt>
      <trkpt lat="44.87567" lon="0.23154">
        <ele>120</ele>
        <time>2015-02-10T12:54:17Z</time>
      </trkpt>
      <trkpt lat="44.87567" lon="0.23153">
        <ele>121</ele>
        <time>2015-02-10T12:54:18Z</time>
      </trkpt>
      <trkpt lat="44.87568" lon="0.23152">
        <ele>118</ele>
        <time>2015-02-10T12:54:19Z</time>
      </trkpt>
      <trkpt lat="44.87568" lon="0.23151">
        <ele>118</ele>
        <time>2015-02-10T12:54:20Z</time>
      </trkpt>
      <trkpt lat="44.87569" lon="0.23151">
        <ele>116</ele>
        <time>2015-02-10T12:54:21Z</time>
      </trkpt>
      <trkpt lat="44.87569" lon="0.23151">
        <ele>117</ele>
        <time>2015-02-10T12:54:22Z</time>
      </trkpt>
      <trkpt lat="44.87569" lon="0.2315">
        <ele>115</ele>
        <time>2015-02-10T12:54:23Z</time>
      </trkpt>
      <trkpt lat="44.87569" lon="0.23149">
        <ele>110</ele>
        <time>2015-02-10T12:54:24Z</time>
      </trkpt>
      <trkpt lat="44.8757" lon="0.23148">
        <ele>111</ele>
        <time>2015-02-10T12:54:25Z</time>
      </trkpt>
      <trkpt lat="44.8757" lon="0.23148">
        <ele>104</ele>
        <time>2015-02-10T12:54:26Z</time>
      </trkpt>
      <trkpt lat="44.87571" lon="0.23147">
        <ele>109</ele>
        <time>2015-02-10T12:54:27Z</time>
      </trkpt>
      <trkpt lat="44.87571" lon="0.23146">
        <ele>110</ele>
        <time>2015-02-10T12:54:28Z</time>
      </trkpt>
      <trkpt lat="44.87571" lon="0.23145">
        <ele>107</ele>
        <time>2015-02-10T12:54:29Z</time>
      </trkpt>
      <trkpt lat="44.87571" lon="0.23144">
        <ele>107</ele>
        <time>2015-02-10T12:54:30Z</time>
      </trkpt>
      <trkpt lat="44.87572" lon="0.23143">
        <ele>110</ele>
        <time>2015-02-10T12:54:31Z</time>
      </trkpt>
      <trkpt lat="44.87572" lon="0.23143">
        <ele>109</ele>
        <time>2015-02-10T12:54:32Z</time>
      </trkpt>
      <trkpt lat="44.87572" lon="0.23142">
        <ele>111</ele>
        <time>2015-02-10T12:54:33Z</time>
      </trkpt>
      <trkpt lat="44.87572" lon="0.23141">
        <ele>114</ele>
        <time>2015-02-10T12:54:34Z</time>
      </trkpt>
      <trkpt lat="44.87572" lon="0.2314">
        <ele>111</ele>
        <time>2015-02-10T12:54:35Z</time>
      </trkpt>
      <trkpt lat="44.87573" lon="0.23139">
        <ele>113</ele>
        <time>2015-02-10T12:54:36Z</time>
      </trkpt>
      <trkpt lat="44.87573" lon="0.23138">
        <ele>115</ele>
        <time>2015-02-10T12:54:37Z</time>
      </trkpt>
      <trkpt lat="44.87573" lon="0.23138">
        <ele>116</ele>
        <time>2015-02-10T12:54:38Z</time>
      </trkpt>
      <trkpt lat="44.87573" lon="0.23137">
        <ele>115</ele>
        <time>2015-02-10T12:54:39Z</time>
      </trkpt>
      <trkpt lat="44.87573" lon="0.23135">
        <ele>117</ele>
        <time>2015-02-10T12:54:40Z</time>
      </trkpt>
      <trkpt lat="44.87573" lon="0.23135">
        <ele>117</ele>
        <time>2015-02-10T12:54:41Z</time>
      </trkpt>
      <trkpt lat="44.87573" lon="0.23135">
        <ele>119</ele>
        <time>2015-02-10T12:54:42Z</time>
      </trkpt>
      <trkpt lat="44.87572" lon="0.23134">
        <ele>119</ele>
        <time>2015-02-10T12:54:43Z</time>
      </trkpt>
      <trkpt lat="44.87573" lon="0.23133">
        <ele>119</ele>
        <time>2015-02-10T12:54:44Z</time>
      </trkpt>
      <trkpt lat="44.87573" lon="0.23133">
        <ele>119</ele>
        <time>2015-02-10T12:54:45Z</time>
      </trkpt>
      <trkpt lat="44.87573" lon="0.23133">
        <ele>117</ele>
        <time>2015-02-10T12:54:46Z</time>
      </trkpt>
      <trkpt lat="44.87573" lon="0.23133">
        <ele>114</ele>
        <time>2015-02-10T12:54:47Z</time>
      </trkpt>
      <trkpt lat="44.87573" lon="0.23133">
        <ele>113</ele>
        <time>2015-02-10T12:54:48Z</time>
      </trkpt>
      <trkpt lat="44.87573" lon="0.23133">
        <ele>113</ele>
        <time>2015-02-10T12:54:49Z</time>
      </trkpt>
      <trkpt lat="44.87573" lon="0.23133">
        <ele>113</ele>
        <time>2015-02-10T12:54:50Z</time>
      </trkpt>
      <trkpt lat="44.87573" lon="0.23133">
        <ele>112</ele>
        <time>2015-02-10T12:54:51Z</time>
      </trkpt>
      <trkpt lat="44.87573" lon="0.23133">
        <ele>108</ele>
        <time>2015-02-10T12:54:52Z</time>
      </trkpt>
      <trkpt lat="44.87573" lon="0.23133">
        <ele>107</ele>
        <time>2015-02-10T12:54:53Z</time>
      </trkpt>
      <trkpt lat="44.87573" lon="0.23133">
        <ele>106</ele>
        <time>2015-02-10T12:54:54Z</time>
      </trkpt>
      <trkpt lat="44.87573" lon="0.23133">
        <ele>106</ele>
        <time>2015-02-10T12:54:55Z</time>
      </trkpt>
      <trkpt lat="44.87573" lon="0.23132">
        <ele>106</ele>
        <time>2015-02-10T12:54:56Z</time>
      </trkpt>
      <trkpt lat="44.87573" lon="0.23132">
        <ele>107</ele>
        <time>2015-02-10T12:54:57Z</time>
      </trkpt>
      <trkpt lat="44.87573" lon="0.23132">
        <ele>106</ele>
        <time>2015-02-10T12:54:58Z</time>
      </trkpt>
      <trkpt lat="44.87573" lon="0.23132">
        <ele>105</ele>
        <time>2015-02-10T12:54:59Z</time>
      </trkpt>
      <trkpt lat="44.87573" lon="0.23132">
        <ele>107</ele>
        <time>2015-02-10T12:55:00Z</time>
      </trkpt>
      <trkpt lat="44.87573" lon="0.23132">
        <ele>105</ele>
        <time>2015-02-10T12:55:01Z</time>
      </trkpt>
      <trkpt lat="44.87573" lon="0.23132">
        <ele>106</ele>
        <time>2015-02-10T12:55:02Z</time>
      </trkpt>
      <trkpt lat="44.87573" lon="0.23132">
        <ele>111</ele>
        <time>2015-02-10T12:55:03Z</time>
      </trkpt>
      <trkpt lat="44.87573" lon="0.23132">
        <ele>105</ele>
        <time>2015-02-10T12:55:04Z</time>
      </trkpt>
      <trkpt lat="44.87573" lon="0.23132">
        <ele>105</ele>
        <time>2015-02-10T12:55:05Z</time>
      </trkpt>
      <trkpt lat="44.87573" lon="0.23132">
        <ele>105</ele>
        <time>2015-02-10T12:55:06Z</time>
      </trkpt>
      <trkpt lat="44.87573" lon="0.23132">
        <ele>105</ele>
        <time>2015-02-10T12:55:07Z</time>
      </trkpt>
      <trkpt lat="44.87573" lon="0.23132">
        <ele>108</ele>
        <time>2015-02-10T12:55:08Z</time>
      </trkpt>
      <trkpt lat="44.87573" lon="0.23132">
        <ele>108</ele>
        <time>2015-02-10T12:55:09Z</time>
      </trkpt>
      <trkpt lat="44.87573" lon="0.23132">
        <ele>106</ele>
        <time>2015-02-10T12:55:10Z</time>
      </trkpt>
      <trkpt lat="44.87573" lon="0.23131">
        <ele>105</ele>
        <time>2015-02-10T12:55:11Z</time>
      </trkpt>
      <trkpt lat="44.87573" lon="0.23131">
        <ele>105</ele>
        <time>2015-02-10T12:55:12Z</time>
      </trkpt>
      <trkpt lat="44.87573" lon="0.23131">
        <ele>103</ele>
        <time>2015-02-10T12:55:13Z</time>
      </trkpt>
      <trkpt lat="44.87573" lon="0.2313">
        <ele>102</ele>
        <time>2015-02-10T12:55:14Z</time>
      </trkpt>
      <trkpt lat="44.87574" lon="0.23129">
        <ele>107</ele>
        <time>2015-02-10T12:55:15Z</time>
      </trkpt>
      <trkpt lat="44.87574" lon="0.23128">
        <ele>109</ele>
        <time>2015-02-10T12:55:16Z</time>
      </trkpt>
      <trkpt lat="44.87574" lon="0.23127">
        <ele>114</ele>
        <time>2015-02-10T12:55:17Z</time>
      </trkpt>
      <trkpt lat="44.87575" lon="0.23126">
        <ele>113</ele>
        <time>2015-02-10T12:55:18Z</time>
      </trkpt>
      <trkpt lat="44.87575" lon="0.23124">
        <ele>115</ele>
        <time>2015-02-10T12:55:19Z</time>
      </trkpt>
      <trkpt lat="44.87576" lon="0.23123">
        <ele>114</ele>
        <time>2015-02-10T12:55:20Z</time>
      </trkpt>
      <trkpt lat="44.87577" lon="0.23122">
        <ele>112</ele>
        <time>2015-02-10T12:55:21Z</time>
      </trkpt>
      <trkpt lat="44.87578" lon="0.23121">
        <ele>111</ele>
        <time>2015-02-10T12:55:22Z</time>
      </trkpt>
      <trkpt lat="44.87577" lon="0.2312">
        <ele>112</ele>
        <time>2015-02-10T12:55:23Z</time>
      </trkpt>
      <trkpt lat="44.87577" lon="0.23119">
        <ele>111</ele>
        <time>2015-02-10T12:55:24Z</time>
      </trkpt>
      <trkpt lat="44.87578" lon="0.23118">
        <ele>111</ele>
        <time>2015-02-10T12:55:25Z</time>
      </trkpt>
      <trkpt lat="44.87579" lon="0.23117">
        <ele>113</ele>
        <time>2015-02-10T12:55:26Z</time>
      </trkpt>
      <trkpt lat="44.87579" lon="0.23117">
        <ele>112</ele>
        <time>2015-02-10T12:55:27Z</time>
      </trkpt>
      <trkpt lat="44.87579" lon="0.23117">
        <ele>112</ele>
        <time>2015-02-10T12:55:28Z</time>
      </trkpt>
      <trkpt lat="44.8758" lon="0.23117">
        <ele>108</ele>
        <time>2015-02-10T12:55:29Z</time>
      </trkpt>
      <trkpt lat="44.87581" lon="0.23116">
        <ele>109</ele>
        <time>2015-02-10T12:55:30Z</time>
      </trkpt>
      <trkpt lat="44.87581" lon="0.23116">
        <ele>115</ele>
        <time>2015-02-10T12:55:31Z</time>
      </trkpt>
      <trkpt lat="44.87582" lon="0.23115">
        <ele>116</ele>
        <time>2015-02-10T12:55:32Z</time>
      </trkpt>
      <trkpt lat="44.87583" lon="0.23115">
        <ele>118</ele>
        <time>2015-02-10T12:55:33Z</time>
      </trkpt>
      <trkpt lat="44.87583" lon="0.23114">
        <ele>121</ele>
        <time>2015-02-10T12:55:34Z</time>
      </trkpt>
      <trkpt lat="44.87584" lon="0.23113">
        <ele>122</ele>
        <time>2015-02-10T12:55:35Z</time>
      </trkpt>
      <trkpt lat="44.87584" lon="0.23113">
        <ele>126</ele>
        <time>2015-02-10T12:55:36Z</time>
      </trkpt>
      <trkpt lat="44.87584" lon="0.23113">
        <ele>119</ele>
        <time>2015-02-10T12:55:37Z</time>
      </trkpt>
      <trkpt lat="44.87584" lon="0.23113">
        <ele>117</ele>
        <time>2015-02-10T12:55:38Z</time>
      </trkpt>
      <trkpt lat="44.87584" lon="0.23113">
        <ele>115</ele>
        <time>2015-02-10T12:55:39Z</time>
      </trkpt>
      <trkpt lat="44.87583" lon="0.23113">
        <ele>114</ele>
        <time>2015-02-10T12:55:40Z</time>
      </trkpt>
      <trkpt lat="44.87583" lon="0.23114">
        <ele>114</ele>
        <time>2015-02-10T12:55:41Z</time>
      </trkpt>
      <trkpt lat="44.87583" lon="0.23114">
        <ele>112</ele>
        <time>2015-02-10T12:55:42Z</time>
      </trkpt>
      <trkpt lat="44.87582" lon="0.23114">
        <ele>113</ele>
        <time>2015-02-10T12:55:43Z</time>
      </trkpt>
      <trkpt lat="44.87582" lon="0.23114">
        <ele>115</ele>
        <time>2015-02-10T12:55:44Z</time>
      </trkpt>
      <trkpt lat="44.87581" lon="0.23114">
        <ele>117</ele>
        <time>2015-02-10T12:55:45Z</time>
      </trkpt>
      <trkpt lat="44.8758" lon="0.23115">
        <ele>118</ele>
        <time>2015-02-10T12:55:46Z</time>
      </trkpt>
      <trkpt lat="44.87579" lon="0.23115">
        <ele>118</ele>
        <time>2015-02-10T12:55:47Z</time>
      </trkpt>
      <trkpt lat="44.87578" lon="0.23116">
        <ele>118</ele>
        <time>2015-02-10T12:55:48Z</time>
      </trkpt>
      <trkpt lat="44.87577" lon="0.23116">
        <ele>117</ele>
        <time>2015-02-10T12:55:49Z</time>
      </trkpt>
      <trkpt lat="44.87577" lon="0.23117">
        <ele>114</ele>
        <time>2015-02-10T12:55:50Z</time>
      </trkpt>
      <trkpt lat="44.87577" lon="0.23117">
        <ele>114</ele>
        <time>2015-02-10T12:55:51Z</time>
      </trkpt>
      <trkpt lat="44.87576" lon="0.23117">
        <ele>118</ele>
        <time>2015-02-10T12:55:52Z</time>
      </trkpt>
      <trkpt lat="44.87575" lon="0.23118">
        <ele>116</ele>
        <time>2015-02-10T12:55:53Z</time>
      </trkpt>
      <trkpt lat="44.87575" lon="0.23119">
        <ele>116</ele>
        <time>2015-02-10T12:55:54Z</time>
      </trkpt>
      <trkpt lat="44.87575" lon="0.2312">
        <ele>115</ele>
        <time>2015-02-10T12:55:55Z</time>
      </trkpt>
      <trkpt lat="44.87574" lon="0.2312">
        <ele>113</ele>
        <time>2015-02-10T12:55:56Z</time>
      </trkpt>
      <trkpt lat="44.87574" lon="0.2312">
        <ele>115</ele>
        <time>2015-02-10T12:55:57Z</time>
      </trkpt>
      <trkpt lat="44.87573" lon="0.2312">
        <ele>117</ele>
        <time>2015-02-10T12:55:58Z</time>
      </trkpt>
      <trkpt lat="44.87573" lon="0.23119">
        <ele>112</ele>
        <time>2015-02-10T12:55:59Z</time>
      </trkpt>
      <trkpt lat="44.87573" lon="0.23118">
        <ele>114</ele>
        <time>2015-02-10T12:56:00Z</time>
      </trkpt>
      <trkpt lat="44.87573" lon="0.23118">
        <ele>112</ele>
        <time>2015-02-10T12:56:01Z</time>
      </trkpt>
      <trkpt lat="44.87573" lon="0.23117">
        <ele>113</ele>
        <time>2015-02-10T12:56:02Z</time>
      </trkpt>
      <trkpt lat="44.87573" lon="0.23117">
        <ele>114</ele>
        <time>2015-02-10T12:56:03Z</time>
      </trkpt>
      <trkpt lat="44.87573" lon="0.23116">
        <ele>113</ele>
        <time>2015-02-10T12:56:04Z</time>
      </trkpt>
      <trkpt lat="44.87573" lon="0.23116">
        <ele>113</ele>
        <time>2015-02-10T12:56:05Z</time>
      </trkpt>
      <trkpt lat="44.87572" lon="0.23116">
        <ele>116</ele>
        <time>2015-02-10T12:56:06Z</time>
      </trkpt>
      <trkpt lat="44.87572" lon="0.23115">
        <ele>117</ele>
        <time>2015-02-10T12:56:07Z</time>
      </trkpt>
      <trkpt lat="44.87572" lon="0.23114">
        <ele>118</ele>
        <time>2015-02-10T12:56:08Z</time>
      </trkpt>
      <trkpt lat="44.87572" lon="0.23113">
        <ele>119</ele>
        <time>2015-02-10T12:56:09Z</time>
      </trkpt>
      <trkpt lat="44.87571" lon="0.23112">
        <ele>117</ele>
        <time>2015-02-10T12:56:10Z</time>
      </trkpt>
      <trkpt lat="44.87571" lon="0.23111">
        <ele>120</ele>
        <time>2015-02-10T12:56:11Z</time>
      </trkpt>
      <trkpt lat="44.87571" lon="0.2311">
        <ele>121</ele>
        <time>2015-02-10T12:56:12Z</time>
      </trkpt>
      <trkpt lat="44.8757" lon="0.23109">
        <ele>120</ele>
        <time>2015-02-10T12:56:13Z</time>
      </trkpt>
      <trkpt lat="44.87569" lon="0.23108">
        <ele>119</ele>
        <time>2015-02-10T12:56:14Z</time>
      </trkpt>
      <trkpt lat="44.87569" lon="0.23107">
        <ele>119</ele>
        <time>2015-02-10T12:56:15Z</time>
      </trkpt>
      <trkpt lat="44.87569" lon="0.23106">
        <ele>116</ele>
        <time>2015-02-10T12:56:16Z</time>
      </trkpt>
      <trkpt lat="44.87568" lon="0.23105">
        <ele>114</ele>
        <time>2015-02-10T12:56:17Z</time>
      </trkpt>
      <trkpt lat="44.87568" lon="0.23104">
        <ele>116</ele>
        <time>2015-02-10T12:56:18Z</time>
      </trkpt>
      <trkpt lat="44.87567" lon="0.23103">
        <ele>120</ele>
        <time>2015-02-10T12:56:19Z</time>
      </trkpt>
      <trkpt lat="44.87567" lon="0.23103">
        <ele>119</ele>
        <time>2015-02-10T12:56:20Z</time>
      </trkpt>
      <trkpt lat="44.87567" lon="0.23101">
        <ele>119</ele>
        <time>2015-02-10T12:56:21Z</time>
      </trkpt>
      <trkpt lat="44.87566" lon="0.231">
        <ele>120</ele>
        <time>2015-02-10T12:56:22Z</time>
      </trkpt>
      <trkpt lat="44.87566" lon="0.23099">
        <ele>120</ele>
        <time>2015-02-10T12:56:23Z</time>
      </trkpt>
      <trkpt lat="44.87566" lon="0.23098">
        <ele>118</ele>
        <time>2015-02-10T12:56:24Z</time>
      </trkpt>
      <trkpt lat="44.87566" lon="0.23098">
        <ele>116</ele>
        <time>2015-02-10T12:56:25Z</time>
      </trkpt>
      <trkpt lat="44.87566" lon="0.23097">
        <ele>115</ele>
        <time>2015-02-10T12:56:26Z</time>
      </trkpt>
      <trkpt lat="44.87566" lon="0.23097">
        <ele>112</ele>
        <time>2015-02-10T12:56:27Z</time>
      </trkpt>
      <trkpt lat="44.87565" lon="0.23096">
        <ele>110</ele>
        <time>2015-02-10T12:56:28Z</time>
      </trkpt>
      <trkpt lat="44.87566" lon="0.23095">
        <ele>112</ele>
        <time>2015-02-10T12:56:29Z</time>
      </trkpt>
      <trkpt lat="44.87565" lon="0.23094">
        <ele>109</ele>
        <time>2015-02-10T12:56:30Z</time>
      </trkpt>
      <trkpt lat="44.87565" lon="0.23093">
        <ele>102</ele>
        <time>2015-02-10T12:56:31Z</time>
      </trkpt>
      <trkpt lat="44.87564" lon="0.23092">
        <ele>105</ele>
        <time>2015-02-10T12:56:32Z</time>
      </trkpt>
      <trkpt lat="44.87564" lon="0.23091">
        <ele>105</ele>
        <time>2015-02-10T12:56:33Z</time>
      </trkpt>
      <trkpt lat="44.87563" lon="0.2309">
        <ele>109</ele>
        <time>2015-02-10T12:56:34Z</time>
      </trkpt>
      <trkpt lat="44.87562" lon="0.23089">
        <ele>107</ele>
        <time>2015-02-10T12:56:35Z</time>
      </trkpt>
      <trkpt lat="44.87562" lon="0.23088">
        <ele>112</ele>
        <time>2015-02-10T12:56:36Z</time>
      </trkpt>
      <trkpt lat="44.87561" lon="0.23087">
        <ele>108</ele>
        <time>2015-02-10T12:56:37Z</time>
      </trkpt>
      <trkpt lat="44.8756" lon="0.23086">
        <ele>106</ele>
        <time>2015-02-10T12:56:38Z</time>
      </trkpt>
      <trkpt lat="44.8756" lon="0.23084">
        <ele>102</ele>
        <time>2015-02-10T12:56:39Z</time>
      </trkpt>
      <trkpt lat="44.87559" lon="0.23083">
        <ele>101</ele>
        <time>2015-02-10T12:56:40Z</time>
      </trkpt>
      <trkpt lat="44.87559" lon="0.23082">
        <ele>100</ele>
        <time>2015-02-10T12:56:41Z</time>
      </trkpt>
      <trkpt lat="44.87558" lon="0.23081">
        <ele>100</ele>
        <time>2015-02-10T12:56:42Z</time>
      </trkpt>
      <trkpt lat="44.87557" lon="0.23079">
        <ele>100</ele>
        <time>2015-02-10T12:56:43Z</time>
      </trkpt>
      <trkpt lat="44.87557" lon="0.23078">
        <ele>99</ele>
        <time>2015-02-10T12:56:44Z</time>
      </trkpt>
      <trkpt lat="44.87557" lon="0.23076">
        <ele>100</ele>
        <time>2015-02-10T12:56:45Z</time>
      </trkpt>
      <trkpt lat="44.87556" lon="0.23075">
        <ele>100</ele>
        <time>2015-02-10T12:56:46Z</time>
      </trkpt>
      <trkpt lat="44.87556" lon="0.23073">
        <ele>102</ele>
        <time>2015-02-10T12:56:47Z</time>
      </trkpt>
      <trkpt lat="44.87555" lon="0.23071">
        <ele>109</ele>
        <time>2015-02-10T12:56:48Z</time>
      </trkpt>
      <trkpt lat="44.87554" lon="0.2307">
        <ele>106</ele>
        <time>2015-02-10T12:56:49Z</time>
      </trkpt>
      <trkpt lat="44.87554" lon="0.23069">
        <ele>104</ele>
        <time>2015-02-10T12:56:50Z</time>
      </trkpt>
      <trkpt lat="44.87554" lon="0.23068">
        <ele>101</ele>
        <time>2015-02-10T12:56:51Z</time>
      </trkpt>
      <trkpt lat="44.87553" lon="0.23066">
        <ele>98</ele>
        <time>2015-02-10T12:56:52Z</time>
      </trkpt>
      <trkpt lat="44.87553" lon="0.23065">
        <ele>100</ele>
        <time>2015-02-10T12:56:53Z</time>
      </trkpt>
      <trkpt lat="44.87552" lon="0.23063">
        <ele>104</ele>
        <time>2015-02-10T12:56:54Z</time>
      </trkpt>
      <trkpt lat="44.87551" lon="0.23062">
        <ele>101</ele>
        <time>2015-02-10T12:56:55Z</time>
      </trkpt>
      <trkpt lat="44.87551" lon="0.2306">
        <ele>101</ele>
        <time>2015-02-10T12:56:56Z</time>
      </trkpt>
      <trkpt lat="44.8755" lon="0.23059">
        <ele>102</ele>
        <time>2015-02-10T12:56:57Z</time>
      </trkpt>
      <trkpt lat="44.8755" lon="0.23058">
        <ele>101</ele>
        <time>2015-02-10T12:56:58Z</time>
      </trkpt>
      <trkpt lat="44.87549" lon="0.23056">
        <ele>104</ele>
        <time>2015-02-10T12:56:59Z</time>
      </trkpt>
      <trkpt lat="44.87549" lon="0.23055">
        <ele>102</ele>
        <time>2015-02-10T12:57:00Z</time>
      </trkpt>
      <trkpt lat="44.87548" lon="0.23054">
        <ele>101</ele>
        <time>2015-02-10T12:57:01Z</time>
      </trkpt>
      <trkpt lat="44.87548" lon="0.23053">
        <ele>102</ele>
        <time>2015-02-10T12:57:02Z</time>
      </trkpt>
      <trkpt lat="44.87548" lon="0.23051">
        <ele>103</ele>
        <time>2015-02-10T12:57:03Z</time>
      </trkpt>
      <trkpt lat="44.87548" lon="0.2305">
        <ele>104</ele>
        <time>2015-02-10T12:57:04Z</time>
      </trkpt>
      <trkpt lat="44.87548" lon="0.23048">
        <ele>106</ele>
        <time>2015-02-10T12:57:05Z</time>
      </trkpt>
      <trkpt lat="44.87547" lon="0.23047">
        <ele>111</ele>
        <time>2015-02-10T12:57:06Z</time>
      </trkpt>
      <trkpt lat="44.87547" lon="0.23046">
        <ele>111</ele>
        <time>2015-02-10T12:57:07Z</time>
      </trkpt>
      <trkpt lat="44.87547" lon="0.23045">
        <ele>108</ele>
        <time>2015-02-10T12:57:08Z</time>
      </trkpt>
      <trkpt lat="44.87546" lon="0.23044">
        <ele>107</ele>
        <time>2015-02-10T12:57:09Z</time>
      </trkpt>
      <trkpt lat="44.87546" lon="0.23043">
        <ele>106</ele>
        <time>2015-02-10T12:57:10Z</time>
      </trkpt>
      <trkpt lat="44.87546" lon="0.23042">
        <ele>103</ele>
        <time>2015-02-10T12:57:11Z</time>
      </trkpt>
      <trkpt lat="44.87545" lon="0.23042">
        <ele>105</ele>
        <time>2015-02-10T12:57:12Z</time>
      </trkpt>
      <trkpt lat="44.87545" lon="0.23042">
        <ele>105</ele>
        <time>2015-02-10T12:57:13Z</time>
      </trkpt>
      <trkpt lat="44.87544" lon="0.23041">
        <ele>105</ele>
        <time>2015-02-10T12:57:14Z</time>
      </trkpt>
      <trkpt lat="44.87544" lon="0.23041">
        <ele>106</ele>
        <time>2015-02-10T12:57:15Z</time>
      </trkpt>
      <trkpt lat="44.87543" lon="0.2304">
        <ele>108</ele>
        <time>2015-02-10T12:57:16Z</time>
      </trkpt>
      <trkpt lat="44.87543" lon="0.23039">
        <ele>108</ele>
        <time>2015-02-10T12:57:17Z</time>
      </trkpt>
      <trkpt lat="44.87543" lon="0.23038">
        <ele>105</ele>
        <time>2015-02-10T12:57:18Z</time>
      </trkpt>
      <trkpt lat="44.87543" lon="0.23037">
        <ele>105</ele>
        <time>2015-02-10T12:57:19Z</time>
      </trkpt>
      <trkpt lat="44.87543" lon="0.23036">
        <ele>112</ele>
        <time>2015-02-10T12:57:20Z</time>
      </trkpt>
      <trkpt lat="44.87542" lon="0.23035">
        <ele>117</ele>
        <time>2015-02-10T12:57:21Z</time>
      </trkpt>
      <trkpt lat="44.87542" lon="0.23034">
        <ele>109</ele>
        <time>2015-02-10T12:57:22Z</time>
      </trkpt>
      <trkpt lat="44.87541" lon="0.23034">
        <ele>112</ele>
        <time>2015-02-10T12:57:23Z</time>
      </trkpt>
      <trkpt lat="44.87541" lon="0.23033">
        <ele>107</ele>
        <time>2015-02-10T12:57:24Z</time>
      </trkpt>
      <trkpt lat="44.8754" lon="0.23033">
        <ele>109</ele>
        <time>2015-02-10T12:57:25Z</time>
      </trkpt>
      <trkpt lat="44.87539" lon="0.23032">
        <ele>110</ele>
        <time>2015-02-10T12:57:26Z</time>
      </trkpt>
      <trkpt lat="44.87539" lon="0.23031">
        <ele>109</ele>
        <time>2015-02-10T12:57:27Z</time>
      </trkpt>
      <trkpt lat="44.87538" lon="0.2303">
        <ele>110</ele>
        <time>2015-02-10T12:57:28Z</time>
      </trkpt>
      <trkpt lat="44.87537" lon="0.23029">
        <ele>111</ele>
        <time>2015-02-10T12:57:29Z</time>
      </trkpt>
      <trkpt lat="44.87537" lon="0.23028">
        <ele>107</ele>
        <time>2015-02-10T12:57:30Z</time>
      </trkpt>
      <trkpt lat="44.87536" lon="0.23027">
        <ele>104</ele>
        <time>2015-02-10T12:57:31Z</time>
      </trkpt>
      <trkpt lat="44.87536" lon="0.23026">
        <ele>103</ele>
        <time>2015-02-10T12:57:32Z</time>
      </trkpt>
      <trkpt lat="44.87535" lon="0.23025">
        <ele>106</ele>
        <time>2015-02-10T12:57:33Z</time>
      </trkpt>
      <trkpt lat="44.87535" lon="0.23024">
        <ele>105</ele>
        <time>2015-02-10T12:57:34Z</time>
      </trkpt>
      <trkpt lat="44.87534" lon="0.23023">
        <ele>102</ele>
        <time>2015-02-10T12:57:35Z</time>
      </trkpt>
      <trkpt lat="44.87534" lon="0.23022">
        <ele>109</ele>
        <time>2015-02-10T12:57:36Z</time>
      </trkpt>
      <trkpt lat="44.87534" lon="0.23022">
        <ele>107</ele>
        <time>2015-02-10T12:57:37Z</time>
      </trkpt>
      <trkpt lat="44.87534" lon="0.23022">
        <ele>104</ele>
        <time>2015-02-10T12:57:38Z</time>
      </trkpt>
      <trkpt lat="44.87534" lon="0.23022">
        <ele>103</ele>
        <time>2015-02-10T12:57:39Z</time>
      </trkpt>
      <trkpt lat="44.87534" lon="0.23022">
        <ele>106</ele>
        <time>2015-02-10T12:57:40Z</time>
      </trkpt>
      <trkpt lat="44.87534" lon="0.23022">
        <ele>104</ele>
        <time>2015-02-10T12:57:41Z</time>
      </trkpt>
      <trkpt lat="44.87534" lon="0.23022">
        <ele>103</ele>
        <time>2015-02-10T12:57:42Z</time>
      </trkpt>
      <trkpt lat="44.87534" lon="0.23022">
        <ele>97</ele>
        <time>2015-02-10T12:57:43Z</time>
      </trkpt>
      <trkpt lat="44.87534" lon="0.23022">
        <ele>91</ele>
        <time>2015-02-10T12:57:44Z</time>
      </trkpt>
      <trkpt lat="44.87534" lon="0.23021">
        <ele>92</ele>
        <time>2015-02-10T12:57:45Z</time>
      </trkpt>
      <trkpt lat="44.87534" lon="0.23021">
        <ele>96</ele>
        <time>2015-02-10T12:57:46Z</time>
      </trkpt>
      <trkpt lat="44.87533" lon="0.23021">
        <ele>93</ele>
        <time>2015-02-10T12:57:47Z</time>
      </trkpt>
      <trkpt lat="44.87533" lon="0.23021">
        <ele>93</ele>
        <time>2015-02-10T12:57:48Z</time>
      </trkpt>
      <trkpt lat="44.87533" lon="0.2302">
        <ele>92</ele>
        <time>2015-02-10T12:57:49Z</time>
      </trkpt>
      <trkpt lat="44.87532" lon="0.2302">
        <ele>93</ele>
        <time>2015-02-10T12:57:50Z</time>
      </trkpt>
      <trkpt lat="44.87532" lon="0.23019">
        <ele>94</ele>
        <time>2015-02-10T12:57:51Z</time>
      </trkpt>
      <trkpt lat="44.87532" lon="0.23018">
        <ele>91</ele>
        <time>2015-02-10T12:57:52Z</time>
      </trkpt>
      <trkpt lat="44.87531" lon="0.23017">
        <ele>96</ele>
        <time>2015-02-10T12:57:53Z</time>
      </trkpt>
      <trkpt lat="44.87531" lon="0.23015">
        <ele>96</ele>
        <time>2015-02-10T12:57:54Z</time>
      </trkpt>
      <trkpt lat="44.8753" lon="0.23014">
        <ele>99</ele>
        <time>2015-02-10T12:57:55Z</time>
      </trkpt>
      <trkpt lat="44.8753" lon="0.23013">
        <ele>95</ele>
        <time>2015-02-10T12:57:56Z</time>
      </trkpt>
      <trkpt lat="44.87529" lon="0.23012">
        <ele>93</ele>
        <time>2015-02-10T12:57:57Z</time>
      </trkpt>
      <trkpt lat="44.87527" lon="0.23011">
        <ele>94</ele>
        <time>2015-02-10T12:57:58Z</time>
      </trkpt>
      <trkpt lat="44.87526" lon="0.2301">
        <ele>97</ele>
        <time>2015-02-10T12:57:59Z</time>
      </trkpt>
      <trkpt lat="44.87525" lon="0.23009">
        <ele>99</ele>
        <time>2015-02-10T12:58:00Z</time>
      </trkpt>
      <trkpt lat="44.87525" lon="0.23007">
        <ele>103</ele>
        <time>2015-02-10T12:58:01Z</time>
      </trkpt>
      <trkpt lat="44.87524" lon="0.23006">
        <ele>104</ele>
        <time>2015-02-10T12:58:02Z</time>
      </trkpt>
      <trkpt lat="44.87524" lon="0.23005">
        <ele>105</ele>
        <time>2015-02-10T12:58:03Z</time>
      </trkpt>
      <trkpt lat="44.87524" lon="0.23004">
        <ele>107</ele>
        <time>2015-02-10T12:58:04Z</time>
      </trkpt>
      <trkpt lat="44.87523" lon="0.23003">
        <ele>112</ele>
        <time>2015-02-10T12:58:05Z</time>
      </trkpt>
      <trkpt lat="44.87523" lon="0.23002">
        <ele>110</ele>
        <time>2015-02-10T12:58:06Z</time>
      </trkpt>
      <trkpt lat="44.87522" lon="0.23001">
        <ele>112</ele>
        <time>2015-02-10T12:58:07Z</time>
      </trkpt>
      <trkpt lat="44.87522" lon="0.23">
        <ele>114</ele>
        <time>2015-02-10T12:58:08Z</time>
      </trkpt>
      <trkpt lat="44.87521" lon="0.22999">
        <ele>112</ele>
        <time>2015-02-10T12:58:09Z</time>
      </trkpt>
      <trkpt lat="44.87521" lon="0.22997">
        <ele>112</ele>
        <time>2015-02-10T12:58:10Z</time>
      </trkpt>
      <trkpt lat="44.87521" lon="0.22997">
        <ele>109</ele>
        <time>2015-02-10T12:58:11Z</time>
      </trkpt>
      <trkpt lat="44.87521" lon="0.22997">
        <ele>108</ele>
        <time>2015-02-10T12:58:12Z</time>
      </trkpt>
      <trkpt lat="44.87521" lon="0.22996">
        <ele>107</ele>
        <time>2015-02-10T12:58:13Z</time>
      </trkpt>
      <trkpt lat="44.87521" lon="0.22995">
        <ele>107</ele>
        <time>2015-02-10T12:58:14Z</time>
      </trkpt>
      <trkpt lat="44.87521" lon="0.22994">
        <ele>114</ele>
        <time>2015-02-10T12:58:15Z</time>
      </trkpt>
      <trkpt lat="44.87521" lon="0.22993">
        <ele>113</ele>
        <time>2015-02-10T12:58:16Z</time>
      </trkpt>
      <trkpt lat="44.87521" lon="0.22992">
        <ele>111</ele>
        <time>2015-02-10T12:58:17Z</time>
      </trkpt>
      <trkpt lat="44.87521" lon="0.22991">
        <ele>112</ele>
        <time>2015-02-10T12:58:18Z</time>
      </trkpt>
      <trkpt lat="44.87521" lon="0.2299">
        <ele>110</ele>
        <time>2015-02-10T12:58:19Z</time>
      </trkpt>
      <trkpt lat="44.8752" lon="0.22989">
        <ele>109</ele>
        <time>2015-02-10T12:58:20Z</time>
      </trkpt>
      <trkpt lat="44.87519" lon="0.22987">
        <ele>106</ele>
        <time>2015-02-10T12:58:21Z</time>
      </trkpt>
      <trkpt lat="44.87519" lon="0.22986">
        <ele>107</ele>
        <time>2015-02-10T12:58:22Z</time>
      </trkpt>
      <trkpt lat="44.87518" lon="0.22984">
        <ele>106</ele>
        <time>2015-02-10T12:58:23Z</time>
      </trkpt>
      <trkpt lat="44.87518" lon="0.22983">
        <ele>107</ele>
        <time>2015-02-10T12:58:24Z</time>
      </trkpt>
      <trkpt lat="44.87517" lon="0.22981">
        <ele>106</ele>
        <time>2015-02-10T12:58:25Z</time>
      </trkpt>
      <trkpt lat="44.87516" lon="0.22979">
        <ele>111</ele>
        <time>2015-02-10T12:58:26Z</time>
      </trkpt>
      <trkpt lat="44.87516" lon="0.22978">
        <ele>113</ele>
        <time>2015-02-10T12:58:27Z</time>
      </trkpt>
      <trkpt lat="44.87515" lon="0.22977">
        <ele>113</ele>
        <time>2015-02-10T12:58:28Z</time>
      </trkpt>
      <trkpt lat="44.87515" lon="0.22975">
        <ele>110</ele>
        <time>2015-02-10T12:58:29Z</time>
      </trkpt>
      <trkpt lat="44.87515" lon="0.22974">
        <ele>111</ele>
        <time>2015-02-10T12:58:30Z</time>
      </trkpt>
      <trkpt lat="44.87515" lon="0.22973">
        <ele>109</ele>
        <time>2015-02-10T12:58:31Z</time>
      </trkpt>
      <trkpt lat="44.87515" lon="0.22972">
        <ele>109</ele>
        <time>2015-02-10T12:58:32Z</time>
      </trkpt>
      <trkpt lat="44.87515" lon="0.22972">
        <ele>109</ele>
        <time>2015-02-10T12:58:33Z</time>
      </trkpt>
      <trkpt lat="44.87514" lon="0.22971">
        <ele>112</ele>
        <time>2015-02-10T12:58:34Z</time>
      </trkpt>
      <trkpt lat="44.87514" lon="0.2297">
        <ele>112</ele>
        <time>2015-02-10T12:58:35Z</time>
      </trkpt>
      <trkpt lat="44.87514" lon="0.22969">
        <ele>112</ele>
        <time>2015-02-10T12:58:36Z</time>
      </trkpt>
      <trkpt lat="44.87514" lon="0.22968">
        <ele>111</ele>
        <time>2015-02-10T12:58:37Z</time>
      </trkpt>
      <trkpt lat="44.87514" lon="0.22966">
        <ele>115</ele>
        <time>2015-02-10T12:58:38Z</time>
      </trkpt>
      <trkpt lat="44.87514" lon="0.22966">
        <ele>115</ele>
        <time>2015-02-10T12:58:39Z</time>
      </trkpt>
      <trkpt lat="44.87514" lon="0.22966">
        <ele>115</ele>
        <time>2015-02-10T12:58:40Z</time>
      </trkpt>
      <trkpt lat="44.87515" lon="0.22965">
        <ele>120</ele>
        <time>2015-02-10T12:58:41Z</time>
      </trkpt>
      <trkpt lat="44.87515" lon="0.22965">
        <ele>119</ele>
        <time>2015-02-10T12:58:42Z</time>
      </trkpt>
      <trkpt lat="44.87515" lon="0.22964">
        <ele>118</ele>
        <time>2015-02-10T12:58:43Z</time>
      </trkpt>
      <trkpt lat="44.87515" lon="0.22964">
        <ele>119</ele>
        <time>2015-02-10T12:58:44Z</time>
      </trkpt>
      <trkpt lat="44.87515" lon="0.22963">
        <ele>118</ele>
        <time>2015-02-10T12:58:45Z</time>
      </trkpt>
      <trkpt lat="44.87515" lon="0.22963">
        <ele>121</ele>
        <time>2015-02-10T12:58:46Z</time>
      </trkpt>
      <trkpt lat="44.87515" lon="0.22963">
        <ele>122</ele>
        <time>2015-02-10T12:58:47Z</time>
      </trkpt>
      <trkpt lat="44.87515" lon="0.22963">
        <ele>123</ele>
        <time>2015-02-10T12:58:48Z</time>
      </trkpt>
      <trkpt lat="44.87515" lon="0.22962">
        <ele>119</ele>
        <time>2015-02-10T12:58:49Z</time>
      </trkpt>
      <trkpt lat="44.87513" lon="0.2296">
        <ele>120</ele>
        <time>2015-02-10T12:58:50Z</time>
      </trkpt>
      <trkpt lat="44.87513" lon="0.22959">
        <ele>117</ele>
        <time>2015-02-10T12:58:51Z</time>
      </trkpt>
      <trkpt lat="44.87513" lon="0.22958">
        <ele>118</ele>
        <time>2015-02-10T12:58:52Z</time>
      </trkpt>
      <trkpt lat="44.87513" lon="0.22956">
        <ele>119</ele>
        <time>2015-02-10T12:58:53Z</time>
      </trkpt>
      <trkpt lat="44.87513" lon="0.22954">
        <ele>120</ele>
        <time>2015-02-10T12:58:54Z</time>
      </trkpt>
      <trkpt lat="44.87513" lon="0.22954">
        <ele>122</ele>
        <time>2015-02-10T12:58:55Z</time>
      </trkpt>
      <trkpt lat="44.87513" lon="0.22954">
        <ele>122</ele>
        <time>2015-02-10T12:58:56Z</time>
      </trkpt>
      <trkpt lat="44.87513" lon="0.22954">
        <ele>124</ele>
        <time>2015-02-10T12:58:57Z</time>
      </trkpt>
      <trkpt lat="44.87513" lon="0.22952">
        <ele>123</ele>
        <time>2015-02-10T12:58:58Z</time>
      </trkpt>
      <trkpt lat="44.87513" lon="0.22952">
        <ele>123</ele>
        <time>2015-02-10T12:58:59Z</time>
      </trkpt>
      <trkpt lat="44.87513" lon="0.22951">
        <ele>124</ele>
        <time>2015-02-10T12:59:00Z</time>
      </trkpt>
      <trkpt lat="44.87512" lon="0.22949">
        <ele>119</ele>
        <time>2015-02-10T12:59:01Z</time>
      </trkpt>
      <trkpt lat="44.87512" lon="0.22949">
        <ele>112</ele>
        <time>2015-02-10T12:59:02Z</time>
      </trkpt>
      <trkpt lat="44.87512" lon="0.22949">
        <ele>115</ele>
        <time>2015-02-10T12:59:03Z</time>
      </trkpt>
      <trkpt lat="44.87512" lon="0.22948">
        <ele>120</ele>
        <time>2015-02-10T12:59:04Z</time>
      </trkpt>
      <trkpt lat="44.87512" lon="0.22948">
        <ele>119</ele>
        <time>2015-02-10T12:59:05Z</time>
      </trkpt>
      <trkpt lat="44.87512" lon="0.22948">
        <ele>117</ele>
        <time>2015-02-10T12:59:06Z</time>
      </trkpt>
      <trkpt lat="44.87512" lon="0.22947">
        <ele>118</ele>
        <time>2015-02-10T12:59:07Z</time>
      </trkpt>
      <trkpt lat="44.87512" lon="0.22947">
        <ele>120</ele>
        <time>2015-02-10T12:59:08Z</time>
      </trkpt>
      <trkpt lat="44.87512" lon="0.22947">
        <ele>119</ele>
        <time>2015-02-10T12:59:09Z</time>
      </trkpt>
      <trkpt lat="44.87512" lon="0.22947">
        <ele>119</ele>
        <time>2015-02-10T12:59:10Z</time>
      </trkpt>
      <trkpt lat="44.87512" lon="0.22947">
        <ele>118</ele>
        <time>2015-02-10T12:59:11Z</time>
      </trkpt>
      <trkpt lat="44.87512" lon="0.22947">
        <ele>115</ele>
        <time>2015-02-10T12:59:12Z</time>
      </trkpt>
      <trkpt lat="44.87512" lon="0.22947">
        <ele>116</ele>
        <time>2015-02-10T12:59:13Z</time>
      </trkpt>
      <trkpt lat="44.87512" lon="0.22947">
        <ele>116</ele>
        <time>2015-02-10T12:59:14Z</time>
      </trkpt>
      <trkpt lat="44.87512" lon="0.22947">
        <ele>117</ele>
        <time>2015-02-10T12:59:15Z</time>
      </trkpt>
      <trkpt lat="44.87512" lon="0.22947">
        <ele>118</ele>
        <time>2015-02-10T12:59:16Z</time>
      </trkpt>
      <trkpt lat="44.87512" lon="0.22947">
        <ele>115</ele>
        <time>2015-02-10T12:59:17Z</time>
      </trkpt>
      <trkpt lat="44.87512" lon="0.22944">
        <ele>116</ele>
        <time>2015-02-10T12:59:18Z</time>
      </trkpt>
      <trkpt lat="44.87512" lon="0.22944">
        <ele>116</ele>
        <time>2015-02-10T12:59:19Z</time>
      </trkpt>
      <trkpt lat="44.87512" lon="0.22944">
        <ele>116</ele>
        <time>2015-02-10T12:59:20Z</time>
      </trkpt>
      <trkpt lat="44.87514" lon="0.22945">
        <ele>118</ele>
        <time>2015-02-10T12:59:21Z</time>
      </trkpt>
      <trkpt lat="44.87514" lon="0.22944">
        <ele>120</ele>
        <time>2015-02-10T12:59:22Z</time>
      </trkpt>
      <trkpt lat="44.87514" lon="0.22944">
        <ele>121</ele>
        <time>2015-02-10T12:59:23Z</time>
      </trkpt>
      <trkpt lat="44.87514" lon="0.22943">
        <ele>122</ele>
        <time>2015-02-10T12:59:24Z</time>
      </trkpt>
      <trkpt lat="44.87514" lon="0.22942">
        <ele>122</ele>
        <time>2015-02-10T12:59:25Z</time>
      </trkpt>
      <trkpt lat="44.87514" lon="0.22942">
        <ele>122</ele>
        <time>2015-02-10T12:59:26Z</time>
      </trkpt>
      <trkpt lat="44.87514" lon="0.22942">
        <ele>121</ele>
        <time>2015-02-10T12:59:27Z</time>
      </trkpt>
      <trkpt lat="44.87514" lon="0.22941">
        <ele>124</ele>
        <time>2015-02-10T12:59:28Z</time>
      </trkpt>
      <trkpt lat="44.87513" lon="0.2294">
        <ele>122</ele>
        <time>2015-02-10T12:59:29Z</time>
      </trkpt>
      <trkpt lat="44.87513" lon="0.22939">
        <ele>125</ele>
        <time>2015-02-10T12:59:30Z</time>
      </trkpt>
      <trkpt lat="44.87513" lon="0.22937">
        <ele>122</ele>
        <time>2015-02-10T12:59:31Z</time>
      </trkpt>
      <trkpt lat="44.87513" lon="0.22936">
        <ele>124</ele>
        <time>2015-02-10T12:59:32Z</time>
      </trkpt>
      <trkpt lat="44.87513" lon="0.22936">
        <ele>126</ele>
        <time>2015-02-10T12:59:33Z</time>
      </trkpt>
      <trkpt lat="44.87513" lon="0.22936">
        <ele>131</ele>
        <time>2015-02-10T12:59:34Z</time>
      </trkpt>
      <trkpt lat="44.87513" lon="0.22935">
        <ele>128</ele>
        <time>2015-02-10T12:59:35Z</time>
      </trkpt>
      <trkpt lat="44.87513" lon="0.22935">
        <ele>125</ele>
        <time>2015-02-10T12:59:36Z</time>
      </trkpt>
      <trkpt lat="44.87513" lon="0.22935">
        <ele>124</ele>
        <time>2015-02-10T12:59:37Z</time>
      </trkpt>
      <trkpt lat="44.87513" lon="0.22935">
        <ele>122</ele>
        <time>2015-02-10T12:59:38Z</time>
      </trkpt>
      <trkpt lat="44.87512" lon="0.22934">
        <ele>124</ele>
        <time>2015-02-10T12:59:39Z</time>
      </trkpt>
      <trkpt lat="44.87512" lon="0.22933">
        <ele>124</ele>
        <time>2015-02-10T12:59:40Z</time>
      </trkpt>
      <trkpt lat="44.87511" lon="0.22932">
        <ele>124</ele>
        <time>2015-02-10T12:59:41Z</time>
      </trkpt>
      <trkpt lat="44.87511" lon="0.22931">
        <ele>123</ele>
        <time>2015-02-10T12:59:42Z</time>
      </trkpt>
      <trkpt lat="44.87511" lon="0.2293">
        <ele>122</ele>
        <time>2015-02-10T12:59:43Z</time>
      </trkpt>
      <trkpt lat="44.8751" lon="0.22928">
        <ele>121</ele>
        <time>2015-02-10T12:59:44Z</time>
      </trkpt>
      <trkpt lat="44.87509" lon="0.22927">
        <ele>120</ele>
        <time>2015-02-10T12:59:45Z</time>
      </trkpt>
      <trkpt lat="44.87509" lon="0.22925">
        <ele>122</ele>
        <time>2015-02-10T12:59:46Z</time>
      </trkpt>
      <trkpt lat="44.87509" lon="0.22923">
        <ele>120</ele>
        <time>2015-02-10T12:59:47Z</time>
      </trkpt>
      <trkpt lat="44.87508" lon="0.22922">
        <ele>120</ele>
        <time>2015-02-10T12:59:48Z</time>
      </trkpt>
      <trkpt lat="44.87507" lon="0.2292">
        <ele>123</ele>
        <time>2015-02-10T12:59:49Z</time>
      </trkpt>
      <trkpt lat="44.87507" lon="0.2292">
        <ele>126</ele>
        <time>2015-02-10T12:59:50Z</time>
      </trkpt>
      <trkpt lat="44.87507" lon="0.22919">
        <ele>121</ele>
        <time>2015-02-10T12:59:51Z</time>
      </trkpt>
      <trkpt lat="44.87507" lon="0.22919">
        <ele>127</ele>
        <time>2015-02-10T12:59:52Z</time>
      </trkpt>
      <trkpt lat="44.87507" lon="0.22919">
        <ele>127</ele>
        <time>2015-02-10T12:59:53Z</time>
      </trkpt>
      <trkpt lat="44.87507" lon="0.22918">
        <ele>125</ele>
        <time>2015-02-10T12:59:54Z</time>
      </trkpt>
      <trkpt lat="44.87504" lon="0.22914">
        <ele>125</ele>
        <time>2015-02-10T12:59:55Z</time>
      </trkpt>
      <trkpt lat="44.87503" lon="0.22913">
        <ele>123</ele>
        <time>2015-02-10T12:59:56Z</time>
      </trkpt>
      <trkpt lat="44.87503" lon="0.22911">
        <ele>130</ele>
        <time>2015-02-10T12:59:57Z</time>
      </trkpt>
      <trkpt lat="44.87502" lon="0.22909">
        <ele>126</ele>
        <time>2015-02-10T12:59:58Z</time>
      </trkpt>
      <trkpt lat="44.87502" lon="0.22909">
        <ele>128</ele>
        <time>2015-02-10T12:59:59Z</time>
      </trkpt>
      <trkpt lat="44.87502" lon="0.22908">
        <ele>130</ele>
        <time>2015-02-10T13:00:00Z</time>
      </trkpt>
      <trkpt lat="44.87501" lon="0.22908">
        <ele>130</ele>
        <time>2015-02-10T13:00:01Z</time>
      </trkpt>
      <trkpt lat="44.875" lon="0.22907">
        <ele>130</ele>
        <time>2015-02-10T13:00:02Z</time>
      </trkpt>
      <trkpt lat="44.875" lon="0.22905">
        <ele>128</ele>
        <time>2015-02-10T13:00:03Z</time>
      </trkpt>
      <trkpt lat="44.875" lon="0.22904">
        <ele>128</ele>
        <time>2015-02-10T13:00:04Z</time>
      </trkpt>
      <trkpt lat="44.875" lon="0.22902">
        <ele>130</ele>
        <time>2015-02-10T13:00:05Z</time>
      </trkpt>
      <trkpt lat="44.87499" lon="0.229">
        <ele>130</ele>
        <time>2015-02-10T13:00:06Z</time>
      </trkpt>
      <trkpt lat="44.87499" lon="0.22898">
        <ele>127</ele>
        <time>2015-02-10T13:00:07Z</time>
      </trkpt>
      <trkpt lat="44.87499" lon="0.22897">
        <ele>128</ele>
        <time>2015-02-10T13:00:08Z</time>
      </trkpt>
      <trkpt lat="44.87499" lon="0.22895">
        <ele>130</ele>
        <time>2015-02-10T13:00:09Z</time>
      </trkpt>
      <trkpt lat="44.87498" lon="0.22894">
        <ele>130</ele>
        <time>2015-02-10T13:00:10Z</time>
      </trkpt>
      <trkpt lat="44.87499" lon="0.22893">
        <ele>128</ele>
        <time>2015-02-10T13:00:11Z</time>
      </trkpt>
      <trkpt lat="44.87498" lon="0.22891">
        <ele>128</ele>
        <time>2015-02-10T13:00:12Z</time>
      </trkpt>
      <trkpt lat="44.87498" lon="0.2289">
        <ele>127</ele>
        <time>2015-02-10T13:00:13Z</time>
      </trkpt>
      <trkpt lat="44.87498" lon="0.22889">
        <ele>124</ele>
        <time>2015-02-10T13:00:14Z</time>
      </trkpt>
      <trkpt lat="44.87498" lon="0.22888">
        <ele>122</ele>
        <time>2015-02-10T13:00:15Z</time>
      </trkpt>
      <trkpt lat="44.87498" lon="0.22887">
        <ele>124</ele>
        <time>2015-02-10T13:00:16Z</time>
      </trkpt>
      <trkpt lat="44.87497" lon="0.22885">
        <ele>122</ele>
        <time>2015-02-10T13:00:17Z</time>
      </trkpt>
      <trkpt lat="44.87497" lon="0.22885">
        <ele>123</ele>
        <time>2015-02-10T13:00:18Z</time>
      </trkpt>
      <trkpt lat="44.87496" lon="0.22884">
        <ele>125</ele>
        <time>2015-02-10T13:00:19Z</time>
      </trkpt>
      <trkpt lat="44.87496" lon="0.22883">
        <ele>124</ele>
        <time>2015-02-10T13:00:20Z</time>
      </trkpt>
      <trkpt lat="44.87496" lon="0.22882">
        <ele>128</ele>
        <time>2015-02-10T13:00:21Z</time>
      </trkpt>
      <trkpt lat="44.87495" lon="0.22881">
        <ele>127</ele>
        <time>2015-02-10T13:00:22Z</time>
      </trkpt>
      <trkpt lat="44.87495" lon="0.2288">
        <ele>126</ele>
        <time>2015-02-10T13:00:23Z</time>
      </trkpt>
      <trkpt lat="44.87495" lon="0.22878">
        <ele>124</ele>
        <time>2015-02-10T13:00:24Z</time>
      </trkpt>
      <trkpt lat="44.87495" lon="0.22877">
        <ele>121</ele>
        <time>2015-02-10T13:00:25Z</time>
      </trkpt>
      <trkpt lat="44.87494" lon="0.22876">
        <ele>124</ele>
        <time>2015-02-10T13:00:26Z</time>
      </trkpt>
      <trkpt lat="44.87494" lon="0.22875">
        <ele>122</ele>
        <time>2015-02-10T13:00:27Z</time>
      </trkpt>
      <trkpt lat="44.87494" lon="0.22874">
        <ele>121</ele>
        <time>2015-02-10T13:00:28Z</time>
      </trkpt>
      <trkpt lat="44.87493" lon="0.22873">
        <ele>119</ele>
        <time>2015-02-10T13:00:29Z</time>
      </trkpt>
      <trkpt lat="44.87493" lon="0.22872">
        <ele>118</ele>
        <time>2015-02-10T13:00:30Z</time>
      </trkpt>
      <trkpt lat="44.87493" lon="0.22871">
        <ele>119</ele>
        <time>2015-02-10T13:00:31Z</time>
      </trkpt>
      <trkpt lat="44.87493" lon="0.2287">
        <ele>119</ele>
        <time>2015-02-10T13:00:32Z</time>
      </trkpt>
      <trkpt lat="44.87492" lon="0.2287">
        <ele>121</ele>
        <time>2015-02-10T13:00:33Z</time>
      </trkpt>
      <trkpt lat="44.87492" lon="0.22869">
        <ele>120</ele>
        <time>2015-02-10T13:00:34Z</time>
      </trkpt>
      <trkpt lat="44.87491" lon="0.22868">
        <ele>120</ele>
        <time>2015-02-10T13:00:35Z</time>
      </trkpt>
      <trkpt lat="44.87491" lon="0.22866">
        <ele>121</ele>
        <time>2015-02-10T13:00:36Z</time>
      </trkpt>
      <trkpt lat="44.8749" lon="0.22865">
        <ele>123</ele>
        <time>2015-02-10T13:00:37Z</time>
      </trkpt>
      <trkpt lat="44.8749" lon="0.22864">
        <ele>125</ele>
        <time>2015-02-10T13:00:38Z</time>
      </trkpt>
      <trkpt lat="44.87489" lon="0.22863">
        <ele>122</ele>
        <time>2015-02-10T13:00:39Z</time>
      </trkpt>
      <trkpt lat="44.87489" lon="0.22861">
        <ele>125</ele>
        <time>2015-02-10T13:00:40Z</time>
      </trkpt>
      <trkpt lat="44.87489" lon="0.22859">
        <ele>126</ele>
        <time>2015-02-10T13:00:41Z</time>
      </trkpt>
      <trkpt lat="44.87489" lon="0.22858">
        <ele>127</ele>
        <time>2015-02-10T13:00:42Z</time>
      </trkpt>
      <trkpt lat="44.87489" lon="0.22857">
        <ele>127</ele>
        <time>2015-02-10T13:00:43Z</time>
      </trkpt>
      <trkpt lat="44.87488" lon="0.22855">
        <ele>128</ele>
        <time>2015-02-10T13:00:44Z</time>
      </trkpt>
      <trkpt lat="44.87488" lon="0.22854">
        <ele>127</ele>
        <time>2015-02-10T13:00:45Z</time>
      </trkpt>
      <trkpt lat="44.87488" lon="0.22853">
        <ele>128</ele>
        <time>2015-02-10T13:00:46Z</time>
      </trkpt>
      <trkpt lat="44.87488" lon="0.22851">
        <ele>126</ele>
        <time>2015-02-10T13:00:47Z</time>
      </trkpt>
      <trkpt lat="44.87488" lon="0.2285">
        <ele>124</ele>
        <time>2015-02-10T13:00:48Z</time>
      </trkpt>
      <trkpt lat="44.87488" lon="0.22849">
        <ele>124</ele>
        <time>2015-02-10T13:00:49Z</time>
      </trkpt>
      <trkpt lat="44.87488" lon="0.22848">
        <ele>125</ele>
        <time>2015-02-10T13:00:50Z</time>
      </trkpt>
      <trkpt lat="44.87488" lon="0.22847">
        <ele>127</ele>
        <time>2015-02-10T13:00:51Z</time>
      </trkpt>
      <trkpt lat="44.87488" lon="0.22846">
        <ele>129</ele>
        <time>2015-02-10T13:00:52Z</time>
      </trkpt>
      <trkpt lat="44.87488" lon="0.22845">
        <ele>126</ele>
        <time>2015-02-10T13:00:53Z</time>
      </trkpt>
      <trkpt lat="44.87488" lon="0.22844">
        <ele>127</ele>
        <time>2015-02-10T13:00:54Z</time>
      </trkpt>
      <trkpt lat="44.87488" lon="0.22842">
        <ele>125</ele>
        <time>2015-02-10T13:00:55Z</time>
      </trkpt>
      <trkpt lat="44.87488" lon="0.22841">
        <ele>125</ele>
        <time>2015-02-10T13:00:56Z</time>
      </trkpt>
      <trkpt lat="44.87487" lon="0.2284">
        <ele>129</ele>
        <time>2015-02-10T13:00:57Z</time>
      </trkpt>
      <trkpt lat="44.87487" lon="0.22839">
        <ele>129</ele>
        <time>2015-02-10T13:00:58Z</time>
      </trkpt>
      <trkpt lat="44.87487" lon="0.22838">
        <ele>130</ele>
        <time>2015-02-10T13:00:59Z</time>
      </trkpt>
      <trkpt lat="44.87487" lon="0.22837">
        <ele>130</ele>
        <time>2015-02-10T13:01:00Z</time>
      </trkpt>
      <trkpt lat="44.87487" lon="0.22836">
        <ele>125</ele>
        <time>2015-02-10T13:01:01Z</time>
      </trkpt>
      <trkpt lat="44.87487" lon="0.22835">
        <ele>127</ele>
        <time>2015-02-10T13:01:02Z</time>
      </trkpt>
      <trkpt lat="44.87488" lon="0.22833">
        <ele>129</ele>
        <time>2015-02-10T13:01:03Z</time>
      </trkpt>
      <trkpt lat="44.87488" lon="0.22832">
        <ele>129</ele>
        <time>2015-02-10T13:01:04Z</time>
      </trkpt>
      <trkpt lat="44.87488" lon="0.22831">
        <ele>131</ele>
        <time>2015-02-10T13:01:05Z</time>
      </trkpt>
      <trkpt lat="44.87489" lon="0.2283">
        <ele>133</ele>
        <time>2015-02-10T13:01:06Z</time>
      </trkpt>
      <trkpt lat="44.87489" lon="0.22829">
        <ele>132</ele>
        <time>2015-02-10T13:01:07Z</time>
      </trkpt>
      <trkpt lat="44.8749" lon="0.22827">
        <ele>130</ele>
        <time>2015-02-10T13:01:08Z</time>
      </trkpt>
      <trkpt lat="44.8749" lon="0.22825">
        <ele>132</ele>
        <time>2015-02-10T13:01:09Z</time>
      </trkpt>
      <trkpt lat="44.87491" lon="0.22824">
        <ele>131</ele>
        <time>2015-02-10T13:01:10Z</time>
      </trkpt>
      <trkpt lat="44.87491" lon="0.22823">
        <ele>130</ele>
        <time>2015-02-10T13:01:11Z</time>
      </trkpt>
      <trkpt lat="44.87491" lon="0.22822">
        <ele>129</ele>
        <time>2015-02-10T13:01:12Z</time>
      </trkpt>
      <trkpt lat="44.87492" lon="0.22821">
        <ele>128</ele>
        <time>2015-02-10T13:01:13Z</time>
      </trkpt>
      <trkpt lat="44.87492" lon="0.2282">
        <ele>124</ele>
        <time>2015-02-10T13:01:14Z</time>
      </trkpt>
      <trkpt lat="44.87492" lon="0.22819">
        <ele>123</ele>
        <time>2015-02-10T13:01:15Z</time>
      </trkpt>
      <trkpt lat="44.87493" lon="0.22818">
        <ele>120</ele>
        <time>2015-02-10T13:01:16Z</time>
      </trkpt>
      <trkpt lat="44.87493" lon="0.22817">
        <ele>122</ele>
        <time>2015-02-10T13:01:17Z</time>
      </trkpt>
      <trkpt lat="44.87493" lon="0.22816">
        <ele>120</ele>
        <time>2015-02-10T13:01:18Z</time>
      </trkpt>
      <trkpt lat="44.87493" lon="0.22815">
        <ele>121</ele>
        <time>2015-02-10T13:01:19Z</time>
      </trkpt>
      <trkpt lat="44.87494" lon="0.22814">
        <ele>118</ele>
        <time>2015-02-10T13:01:20Z</time>
      </trkpt>
      <trkpt lat="44.87494" lon="0.22813">
        <ele>117</ele>
        <time>2015-02-10T13:01:21Z</time>
      </trkpt>
      <trkpt lat="44.87494" lon="0.22812">
        <ele>118</ele>
        <time>2015-02-10T13:01:22Z</time>
      </trkpt>
      <trkpt lat="44.87494" lon="0.22811">
        <ele>119</ele>
        <time>2015-02-10T13:01:23Z</time>
      </trkpt>
      <trkpt lat="44.87494" lon="0.22809">
        <ele>120</ele>
        <time>2015-02-10T13:01:23Z</time>
      </trkpt>
      <trkpt lat="44.87494" lon="0.22808">
        <ele>117</ele>
        <time>2015-02-10T13:01:25Z</time>
      </trkpt>
      <trkpt lat="44.87494" lon="0.22807">
        <ele>115</ele>
        <time>2015-02-10T13:01:26Z</time>
      </trkpt>
      <trkpt lat="44.87494" lon="0.22806">
        <ele>120</ele>
        <time>2015-02-10T13:01:27Z</time>
      </trkpt>
      <trkpt lat="44.87495" lon="0.22805">
        <ele>120</ele>
        <time>2015-02-10T13:01:28Z</time>
      </trkpt>
      <trkpt lat="44.87495" lon="0.22804">
        <ele>120</ele>
        <time>2015-02-10T13:01:29Z</time>
      </trkpt>
      <trkpt lat="44.87495" lon="0.22803">
        <ele>121</ele>
        <time>2015-02-10T13:01:30Z</time>
      </trkpt>
      <trkpt lat="44.87495" lon="0.22802">
        <ele>124</ele>
        <time>2015-02-10T13:01:31Z</time>
      </trkpt>
      <trkpt lat="44.87495" lon="0.22801">
        <ele>125</ele>
        <time>2015-02-10T13:01:32Z</time>
      </trkpt>
      <trkpt lat="44.87495" lon="0.228">
        <ele>123</ele>
        <time>2015-02-10T13:01:33Z</time>
      </trkpt>
      <trkpt lat="44.87495" lon="0.22799">
        <ele>124</ele>
        <time>2015-02-10T13:01:34Z</time>
      </trkpt>
      <trkpt lat="44.87495" lon="0.22798">
        <ele>121</ele>
        <time>2015-02-10T13:01:35Z</time>
      </trkpt>
      <trkpt lat="44.87495" lon="0.22797">
        <ele>121</ele>
        <time>2015-02-10T13:01:36Z</time>
      </trkpt>
      <trkpt lat="44.87495" lon="0.22796">
        <ele>123</ele>
        <time>2015-02-10T13:01:37Z</time>
      </trkpt>
      <trkpt lat="44.87494" lon="0.22795">
        <ele>123</ele>
        <time>2015-02-10T13:01:38Z</time>
      </trkpt>
      <trkpt lat="44.87494" lon="0.22794">
        <ele>121</ele>
        <time>2015-02-10T13:01:39Z</time>
      </trkpt>
      <trkpt lat="44.87494" lon="0.22794">
        <ele>124</ele>
        <time>2015-02-10T13:01:40Z</time>
      </trkpt>
      <trkpt lat="44.87494" lon="0.22794">
        <ele>126</ele>
        <time>2015-02-10T13:01:41Z</time>
      </trkpt>
      <trkpt lat="44.87494" lon="0.22793">
        <ele>124</ele>
        <time>2015-02-10T13:01:42Z</time>
      </trkpt>
      <trkpt lat="44.87493" lon="0.22792">
        <ele>127</ele>
        <time>2015-02-10T13:01:43Z</time>
      </trkpt>
      <trkpt lat="44.87493" lon="0.22791">
        <ele>129</ele>
        <time>2015-02-10T13:01:44Z</time>
      </trkpt>
      <trkpt lat="44.87492" lon="0.2279">
        <ele>130</ele>
        <time>2015-02-10T13:01:45Z</time>
      </trkpt>
      <trkpt lat="44.87492" lon="0.22789">
        <ele>133</ele>
        <time>2015-02-10T13:01:46Z</time>
      </trkpt>
      <trkpt lat="44.87492" lon="0.22788">
        <ele>134</ele>
        <time>2015-02-10T13:01:47Z</time>
      </trkpt>
      <trkpt lat="44.87492" lon="0.22787">
        <ele>130</ele>
        <time>2015-02-10T13:01:48Z</time>
      </trkpt>
      <trkpt lat="44.87492" lon="0.22786">
        <ele>132</ele>
        <time>2015-02-10T13:01:49Z</time>
      </trkpt>
      <trkpt lat="44.87492" lon="0.22786">
        <ele>136</ele>
        <time>2015-02-10T13:01:50Z</time>
      </trkpt>
      <trkpt lat="44.87492" lon="0.22786">
        <ele>128</ele>
        <time>2015-02-10T13:01:51Z</time>
      </trkpt>
      <trkpt lat="44.87492" lon="0.22786">
        <ele>131</ele>
        <time>2015-02-10T13:01:52Z</time>
      </trkpt>
      <trkpt lat="44.87492" lon="0.22786">
        <ele>127</ele>
        <time>2015-02-10T13:01:53Z</time>
      </trkpt>
      <trkpt lat="44.87492" lon="0.22786">
        <ele>125</ele>
        <time>2015-02-10T13:01:54Z</time>
      </trkpt>
      <trkpt lat="44.87492" lon="0.22786">
        <ele>122</ele>
        <time>2015-02-10T13:01:55Z</time>
      </trkpt>
      <trkpt lat="44.87492" lon="0.22786">
        <ele>122</ele>
        <time>2015-02-10T13:01:56Z</time>
      </trkpt>
      <trkpt lat="44.87491" lon="0.22786">
        <ele>121</ele>
        <time>2015-02-10T13:01:57Z</time>
      </trkpt>
      <trkpt lat="44.87491" lon="0.22786">
        <ele>122</ele>
        <time>2015-02-10T13:01:58Z</time>
      </trkpt>
      <trkpt lat="44.8749" lon="0.22785">
        <ele>117</ele>
        <time>2015-02-10T13:01:59Z</time>
      </trkpt>
      <trkpt lat="44.8749" lon="0.22784">
        <ele>117</ele>
        <time>2015-02-10T13:02:00Z</time>
      </trkpt>
      <trkpt lat="44.8749" lon="0.22784">
        <ele>122</ele>
        <time>2015-02-10T13:02:01Z</time>
      </trkpt>
      <trkpt lat="44.8749" lon="0.22783">
        <ele>124</ele>
        <time>2015-02-10T13:02:02Z</time>
      </trkpt>
      <trkpt lat="44.8749" lon="0.22782">
        <ele>127</ele>
        <time>2015-02-10T13:02:03Z</time>
      </trkpt>
      <trkpt lat="44.8749" lon="0.22782">
        <ele>127</ele>
        <time>2015-02-10T13:02:04Z</time>
      </trkpt>
      <trkpt lat="44.8749" lon="0.22781">
        <ele>124</ele>
        <time>2015-02-10T13:02:05Z</time>
      </trkpt>
      <trkpt lat="44.8749" lon="0.22781">
        <ele>124</ele>
        <time>2015-02-10T13:02:06Z</time>
      </trkpt>
      <trkpt lat="44.87489" lon="0.2278">
        <ele>125</ele>
        <time>2015-02-10T13:02:07Z</time>
      </trkpt>
      <trkpt lat="44.87489" lon="0.22779">
        <ele>121</ele>
        <time>2015-02-10T13:02:08Z</time>
      </trkpt>
      <trkpt lat="44.87489" lon="0.22778">
        <ele>128</ele>
        <time>2015-02-10T13:02:09Z</time>
      </trkpt>
      <trkpt lat="44.87488" lon="0.22776">
        <ele>127</ele>
        <time>2015-02-10T13:02:10Z</time>
      </trkpt>
      <trkpt lat="44.87488" lon="0.22775">
        <ele>132</ele>
        <time>2015-02-10T13:02:11Z</time>
      </trkpt>
      <trkpt lat="44.87487" lon="0.22774">
        <ele>132</ele>
        <time>2015-02-10T13:02:12Z</time>
      </trkpt>
      <trkpt lat="44.87487" lon="0.22772">
        <ele>133</ele>
        <time>2015-02-10T13:02:13Z</time>
      </trkpt>
      <trkpt lat="44.87486" lon="0.22771">
        <ele>133</ele>
        <time>2015-02-10T13:02:14Z</time>
      </trkpt>
      <trkpt lat="44.87486" lon="0.22769">
        <ele>129</ele>
        <time>2015-02-10T13:02:15Z</time>
      </trkpt>
      <trkpt lat="44.87486" lon="0.22768">
        <ele>131</ele>
        <time>2015-02-10T13:02:16Z</time>
      </trkpt>
      <trkpt lat="44.87485" lon="0.22767">
        <ele>131</ele>
        <time>2015-02-10T13:02:17Z</time>
      </trkpt>
      <trkpt lat="44.87485" lon="0.22766">
        <ele>128</ele>
        <time>2015-02-10T13:02:18Z</time>
      </trkpt>
      <trkpt lat="44.87484" lon="0.22764">
        <ele>127</ele>
        <time>2015-02-10T13:02:19Z</time>
      </trkpt>
      <trkpt lat="44.87484" lon="0.22763">
        <ele>130</ele>
        <time>2015-02-10T13:02:20Z</time>
      </trkpt>
      <trkpt lat="44.87483" lon="0.22762">
        <ele>130</ele>
        <time>2015-02-10T13:02:21Z</time>
      </trkpt>
      <trkpt lat="44.87483" lon="0.2276">
        <ele>125</ele>
        <time>2015-02-10T13:02:22Z</time>
      </trkpt>
      <trkpt lat="44.87482" lon="0.22759">
        <ele>123</ele>
        <time>2015-02-10T13:02:23Z</time>
      </trkpt>
      <trkpt lat="44.87482" lon="0.22758">
        <ele>124</ele>
        <time>2015-02-10T13:02:24Z</time>
      </trkpt>
      <trkpt lat="44.87481" lon="0.22757">
        <ele>125</ele>
        <time>2015-02-10T13:02:25Z</time>
      </trkpt>
      <trkpt lat="44.87481" lon="0.22757">
        <ele>129</ele>
        <time>2015-02-10T13:02:26Z</time>
      </trkpt>
      <trkpt lat="44.8748" lon="0.22756">
        <ele>129</ele>
        <time>2015-02-10T13:02:27Z</time>
      </trkpt>
      <trkpt lat="44.8748" lon="0.22756">
        <ele>127</ele>
        <time>2015-02-10T13:02:28Z</time>
      </trkpt>
      <trkpt lat="44.8748" lon="0.22755">
        <ele>126</ele>
        <time>2015-02-10T13:02:29Z</time>
      </trkpt>
      <trkpt lat="44.8748" lon="0.22755">
        <ele>125</ele>
        <time>2015-02-10T13:02:30Z</time>
      </trkpt>
      <trkpt lat="44.8748" lon="0.22754">
        <ele>128</ele>
        <time>2015-02-10T13:02:31Z</time>
      </trkpt>
      <trkpt lat="44.87479" lon="0.22753">
        <ele>128</ele>
        <time>2015-02-10T13:02:32Z</time>
      </trkpt>
      <trkpt lat="44.87479" lon="0.22753">
        <ele>128</ele>
        <time>2015-02-10T13:02:33Z</time>
      </trkpt>
      <trkpt lat="44.87479" lon="0.22752">
        <ele>131</ele>
        <time>2015-02-10T13:02:34Z</time>
      </trkpt>
      <trkpt lat="44.87479" lon="0.22751">
        <ele>126</ele>
        <time>2015-02-10T13:02:35Z</time>
      </trkpt>
      <trkpt lat="44.87479" lon="0.2275">
        <ele>127</ele>
        <time>2015-02-10T13:02:36Z</time>
      </trkpt>
      <trkpt lat="44.87479" lon="0.22749">
        <ele>128</ele>
        <time>2015-02-10T13:02:37Z</time>
      </trkpt>
      <trkpt lat="44.87479" lon="0.22749">
        <ele>130</ele>
        <time>2015-02-10T13:02:38Z</time>
      </trkpt>
      <trkpt lat="44.87479" lon="0.22748">
        <ele>132</ele>
        <time>2015-02-10T13:02:39Z</time>
      </trkpt>
      <trkpt lat="44.87479" lon="0.22747">
        <ele>128</ele>
        <time>2015-02-10T13:02:40Z</time>
      </trkpt>
      <trkpt lat="44.87479" lon="0.22747">
        <ele>130</ele>
        <time>2015-02-10T13:02:41Z</time>
      </trkpt>
      <trkpt lat="44.87479" lon="0.22746">
        <ele>133</ele>
        <time>2015-02-10T13:02:42Z</time>
      </trkpt>
      <trkpt lat="44.87478" lon="0.22745">
        <ele>131</ele>
        <time>2015-02-10T13:02:43Z</time>
      </trkpt>
      <trkpt lat="44.87478" lon="0.22744">
        <ele>130</ele>
        <time>2015-02-10T13:02:44Z</time>
      </trkpt>
      <trkpt lat="44.87478" lon="0.22744">
        <ele>131</ele>
        <time>2015-02-10T13:02:45Z</time>
      </trkpt>
      <trkpt lat="44.87478" lon="0.22744">
        <ele>128</ele>
        <time>2015-02-10T13:02:46Z</time>
      </trkpt>
      <trkpt lat="44.87478" lon="0.22744">
        <ele>127</ele>
        <time>2015-02-10T13:02:47Z</time>
      </trkpt>
      <trkpt lat="44.87477" lon="0.22743">
        <ele>129</ele>
        <time>2015-02-10T13:02:48Z</time>
      </trkpt>
      <trkpt lat="44.87475" lon="0.22743">
        <ele>132</ele>
        <time>2015-02-10T13:02:49Z</time>
      </trkpt>
      <trkpt lat="44.87474" lon="0.22742">
        <ele>131</ele>
        <time>2015-02-10T13:02:50Z</time>
      </trkpt>
      <trkpt lat="44.87473" lon="0.22741">
        <ele>131</ele>
        <time>2015-02-10T13:02:51Z</time>
      </trkpt>
      <trkpt lat="44.87473" lon="0.2274">
        <ele>133</ele>
        <time>2015-02-10T13:02:52Z</time>
      </trkpt>
      <trkpt lat="44.87472" lon="0.22739">
        <ele>133</ele>
        <time>2015-02-10T13:02:53Z</time>
      </trkpt>
      <trkpt lat="44.87472" lon="0.22739">
        <ele>132</ele>
        <time>2015-02-10T13:02:54Z</time>
      </trkpt>
      <trkpt lat="44.87471" lon="0.22738">
        <ele>131</ele>
        <time>2015-02-10T13:02:55Z</time>
      </trkpt>
      <trkpt lat="44.8747" lon="0.22737">
        <ele>131</ele>
        <time>2015-02-10T13:02:56Z</time>
      </trkpt>
      <trkpt lat="44.8747" lon="0.22736">
        <ele>129</ele>
        <time>2015-02-10T13:02:57Z</time>
      </trkpt>
      <trkpt lat="44.8747" lon="0.22735">
        <ele>130</ele>
        <time>2015-02-10T13:02:58Z</time>
      </trkpt>
      <trkpt lat="44.87469" lon="0.22734">
        <ele>131</ele>
        <time>2015-02-10T13:02:59Z</time>
      </trkpt>
      <trkpt lat="44.87469" lon="0.22733">
        <ele>133</ele>
        <time>2015-02-10T13:03:00Z</time>
      </trkpt>
      <trkpt lat="44.8747" lon="0.22732">
        <ele>132</ele>
        <time>2015-02-10T13:03:01Z</time>
      </trkpt>
      <trkpt lat="44.87469" lon="0.22732">
        <ele>131</ele>
        <time>2015-02-10T13:03:02Z</time>
      </trkpt>
      <trkpt lat="44.87469" lon="0.22731">
        <ele>131</ele>
        <time>2015-02-10T13:03:03Z</time>
      </trkpt>
      <trkpt lat="44.87469" lon="0.22731">
        <ele>132</ele>
        <time>2015-02-10T13:03:04Z</time>
      </trkpt>
      <trkpt lat="44.87469" lon="0.2273">
        <ele>131</ele>
        <time>2015-02-10T13:03:05Z</time>
      </trkpt>
      <trkpt lat="44.87468" lon="0.22729">
        <ele>126</ele>
        <time>2015-02-10T13:03:06Z</time>
      </trkpt>
      <trkpt lat="44.87468" lon="0.22727">
        <ele>129</ele>
        <time>2015-02-10T13:03:07Z</time>
      </trkpt>
      <trkpt lat="44.87467" lon="0.22726">
        <ele>132</ele>
        <time>2015-02-10T13:03:08Z</time>
      </trkpt>
      <trkpt lat="44.87467" lon="0.22725">
        <ele>130</ele>
        <time>2015-02-10T13:03:09Z</time>
      </trkpt>
      <trkpt lat="44.87467" lon="0.22724">
        <ele>128</ele>
        <time>2015-02-10T13:03:10Z</time>
      </trkpt>
      <trkpt lat="44.87467" lon="0.22723">
        <ele>130</ele>
        <time>2015-02-10T13:03:11Z</time>
      </trkpt>
      <trkpt lat="44.87466" lon="0.22723">
        <ele>134</ele>
        <time>2015-02-10T13:03:12Z</time>
      </trkpt>
      <trkpt lat="44.87466" lon="0.22722">
        <ele>136</ele>
        <time>2015-02-10T13:03:13Z</time>
      </trkpt>
      <trkpt lat="44.87466" lon="0.22721">
        <ele>133</ele>
        <time>2015-02-10T13:03:14Z</time>
      </trkpt>
      <trkpt lat="44.87466" lon="0.2272">
        <ele>135</ele>
        <time>2015-02-10T13:03:15Z</time>
      </trkpt>
      <trkpt lat="44.87466" lon="0.22719">
        <ele>131</ele>
        <time>2015-02-10T13:03:16Z</time>
      </trkpt>
      <trkpt lat="44.87466" lon="0.22718">
        <ele>130</ele>
        <time>2015-02-10T13:03:17Z</time>
      </trkpt>
      <trkpt lat="44.87466" lon="0.22717">
        <ele>129</ele>
        <time>2015-02-10T13:03:18Z</time>
      </trkpt>
      <trkpt lat="44.87465" lon="0.22716">
        <ele>126</ele>
        <time>2015-02-10T13:03:19Z</time>
      </trkpt>
      <trkpt lat="44.87465" lon="0.22715">
        <ele>127</ele>
        <time>2015-02-10T13:03:20Z</time>
      </trkpt>
      <trkpt lat="44.87465" lon="0.22714">
        <ele>130</ele>
        <time>2015-02-10T13:03:21Z</time>
      </trkpt>
      <trkpt lat="44.87465" lon="0.22714">
        <ele>133</ele>
        <time>2015-02-10T13:03:22Z</time>
      </trkpt>
      <trkpt lat="44.87465" lon="0.22714">
        <ele>132</ele>
        <time>2015-02-10T13:03:23Z</time>
      </trkpt>
      <trkpt lat="44.87464" lon="0.22713">
        <ele>127</ele>
        <time>2015-02-10T13:03:24Z</time>
      </trkpt>
      <trkpt lat="44.87463" lon="0.22711">
        <ele>131</ele>
        <time>2015-02-10T13:03:25Z</time>
      </trkpt>
      <trkpt lat="44.87463" lon="0.2271">
        <ele>130</ele>
        <time>2015-02-10T13:03:26Z</time>
      </trkpt>
      <trkpt lat="44.87462" lon="0.22709">
        <ele>131</ele>
        <time>2015-02-10T13:03:27Z</time>
      </trkpt>
      <trkpt lat="44.87461" lon="0.22709">
        <ele>135</ele>
        <time>2015-02-10T13:03:28Z</time>
      </trkpt>
      <trkpt lat="44.87461" lon="0.22708">
        <ele>137</ele>
        <time>2015-02-10T13:03:29Z</time>
      </trkpt>
      <trkpt lat="44.8746" lon="0.22707">
        <ele>139</ele>
        <time>2015-02-10T13:03:30Z</time>
      </trkpt>
      <trkpt lat="44.8746" lon="0.22706">
        <ele>140</ele>
        <time>2015-02-10T13:03:31Z</time>
      </trkpt>
      <trkpt lat="44.87459" lon="0.22706">
        <ele>141</ele>
        <time>2015-02-10T13:03:32Z</time>
      </trkpt>
      <trkpt lat="44.87459" lon="0.22706">
        <ele>138</ele>
        <time>2015-02-10T13:03:33Z</time>
      </trkpt>
      <trkpt lat="44.87459" lon="0.22705">
        <ele>141</ele>
        <time>2015-02-10T13:03:34Z</time>
      </trkpt>
      <trkpt lat="44.87458" lon="0.22705">
        <ele>138</ele>
        <time>2015-02-10T13:03:35Z</time>
      </trkpt>
      <trkpt lat="44.87458" lon="0.22704">
        <ele>141</ele>
        <time>2015-02-10T13:03:36Z</time>
      </trkpt>
      <trkpt lat="44.87458" lon="0.22703">
        <ele>136</ele>
        <time>2015-02-10T13:03:37Z</time>
      </trkpt>
      <trkpt lat="44.87458" lon="0.22702">
        <ele>134</ele>
        <time>2015-02-10T13:03:38Z</time>
      </trkpt>
      <trkpt lat="44.87458" lon="0.22702">
        <ele>134</ele>
        <time>2015-02-10T13:03:39Z</time>
      </trkpt>
      <trkpt lat="44.87458" lon="0.22702">
        <ele>134</ele>
        <time>2015-02-10T13:03:40Z</time>
      </trkpt>
      <trkpt lat="44.87457" lon="0.22702">
        <ele>128</ele>
        <time>2015-02-10T13:03:41Z</time>
      </trkpt>
      <trkpt lat="44.87457" lon="0.22702">
        <ele>129</ele>
        <time>2015-02-10T13:03:42Z</time>
      </trkpt>
      <trkpt lat="44.87457" lon="0.22701">
        <ele>133</ele>
        <time>2015-02-10T13:03:43Z</time>
      </trkpt>
      <trkpt lat="44.87457" lon="0.22701">
        <ele>135</ele>
        <time>2015-02-10T13:03:44Z</time>
      </trkpt>
      <trkpt lat="44.87457" lon="0.227">
        <ele>134</ele>
        <time>2015-02-10T13:03:45Z</time>
      </trkpt>
      <trkpt lat="44.87456" lon="0.22699">
        <ele>135</ele>
        <time>2015-02-10T13:03:46Z</time>
      </trkpt>
      <trkpt lat="44.87455" lon="0.22697">
        <ele>137</ele>
        <time>2015-02-10T13:03:47Z</time>
      </trkpt>
      <trkpt lat="44.87455" lon="0.22697">
        <ele>137</ele>
        <time>2015-02-10T13:03:48Z</time>
      </trkpt>
      <trkpt lat="44.87455" lon="0.22697">
        <ele>138</ele>
        <time>2015-02-10T13:03:49Z</time>
      </trkpt>
      <trkpt lat="44.87455" lon="0.22697">
        <ele>134</ele>
        <time>2015-02-10T13:03:50Z</time>
      </trkpt>
      <trkpt lat="44.87455" lon="0.22697">
        <ele>131</ele>
        <time>2015-02-10T13:03:51Z</time>
      </trkpt>
      <trkpt lat="44.87455" lon="0.22697">
        <ele>125</ele>
        <time>2015-02-10T13:03:52Z</time>
      </trkpt>
      <trkpt lat="44.87455" lon="0.22696">
        <ele>124</ele>
        <time>2015-02-10T13:03:53Z</time>
      </trkpt>
      <trkpt lat="44.87454" lon="0.22696">
        <ele>121</ele>
        <time>2015-02-10T13:03:54Z</time>
      </trkpt>
      <trkpt lat="44.87454" lon="0.22695">
        <ele>120</ele>
        <time>2015-02-10T13:03:55Z</time>
      </trkpt>
      <trkpt lat="44.87454" lon="0.22695">
        <ele>120</ele>
        <time>2015-02-10T13:03:56Z</time>
      </trkpt>
      <trkpt lat="44.87454" lon="0.22695">
        <ele>120</ele>
        <time>2015-02-10T13:03:57Z</time>
      </trkpt>
      <trkpt lat="44.87453" lon="0.22695">
        <ele>117</ele>
        <time>2015-02-10T13:03:58Z</time>
      </trkpt>
      <trkpt lat="44.87453" lon="0.22694">
        <ele>123</ele>
        <time>2015-02-10T13:03:59Z</time>
      </trkpt>
      <trkpt lat="44.87453" lon="0.22693">
        <ele>125</ele>
        <time>2015-02-10T13:04:00Z</time>
      </trkpt>
      <trkpt lat="44.87451" lon="0.22691">
        <ele>126</ele>
        <time>2015-02-10T13:04:01Z</time>
      </trkpt>
      <trkpt lat="44.87451" lon="0.22691">
        <ele>129</ele>
        <time>2015-02-10T13:04:02Z</time>
      </trkpt>
      <trkpt lat="44.87451" lon="0.2269">
        <ele>130</ele>
        <time>2015-02-10T13:04:03Z</time>
      </trkpt>
      <trkpt lat="44.87451" lon="0.2269">
        <ele>133</ele>
        <time>2015-02-10T13:04:04Z</time>
      </trkpt>
      <trkpt lat="44.8745" lon="0.22689">
        <ele>134</ele>
        <time>2015-02-10T13:04:05Z</time>
      </trkpt>
      <trkpt lat="44.8745" lon="0.22688">
        <ele>136</ele>
        <time>2015-02-10T13:04:06Z</time>
      </trkpt>
      <trkpt lat="44.8745" lon="0.22687">
        <ele>137</ele>
        <time>2015-02-10T13:04:07Z</time>
      </trkpt>
      <trkpt lat="44.8745" lon="0.22686">
        <ele>134</ele>
        <time>2015-02-10T13:04:08Z</time>
      </trkpt>
      <trkpt lat="44.8745" lon="0.22685">
        <ele>135</ele>
        <time>2015-02-10T13:04:09Z</time>
      </trkpt>
      <trkpt lat="44.87451" lon="0.22684">
        <ele>134</ele>
        <time>2015-02-10T13:04:10Z</time>
      </trkpt>
      <trkpt lat="44.87451" lon="0.22684">
        <ele>137</ele>
        <time>2015-02-10T13:04:11Z</time>
      </trkpt>
      <trkpt lat="44.87451" lon="0.22684">
        <ele>135</ele>
        <time>2015-02-10T13:04:12Z</time>
      </trkpt>
      <trkpt lat="44.87451" lon="0.22683">
        <ele>135</ele>
        <time>2015-02-10T13:04:13Z</time>
      </trkpt>
      <trkpt lat="44.87451" lon="0.22683">
        <ele>138</ele>
        <time>2015-02-10T13:04:14Z</time>
      </trkpt>
      <trkpt lat="44.87451" lon="0.22682">
        <ele>137</ele>
        <time>2015-02-10T13:04:15Z</time>
      </trkpt>
      <trkpt lat="44.8745" lon="0.2268">
        <ele>137</ele>
        <time>2015-02-10T13:04:16Z</time>
      </trkpt>
      <trkpt lat="44.8745" lon="0.22678">
        <ele>137</ele>
        <time>2015-02-10T13:04:17Z</time>
      </trkpt>
      <trkpt lat="44.8745" lon="0.22677">
        <ele>136</ele>
        <time>2015-02-10T13:04:18Z</time>
      </trkpt>
      <trkpt lat="44.87449" lon="0.22676">
        <ele>133</ele>
        <time>2015-02-10T13:04:19Z</time>
      </trkpt>
      <trkpt lat="44.87449" lon="0.22675">
        <ele>134</ele>
        <time>2015-02-10T13:04:20Z</time>
      </trkpt>
      <trkpt lat="44.87449" lon="0.22674">
        <ele>136</ele>
        <time>2015-02-10T13:04:21Z</time>
      </trkpt>
      <trkpt lat="44.87449" lon="0.22673">
        <ele>135</ele>
        <time>2015-02-10T13:04:22Z</time>
      </trkpt>
      <trkpt lat="44.87449" lon="0.22671">
        <ele>136</ele>
        <time>2015-02-10T13:04:23Z</time>
      </trkpt>
      <trkpt lat="44.8745" lon="0.22669">
        <ele>136</ele>
        <time>2015-02-10T13:04:24Z</time>
      </trkpt>
      <trkpt lat="44.8745" lon="0.22669">
        <ele>135</ele>
        <time>2015-02-10T13:04:25Z</time>
      </trkpt>
      <trkpt lat="44.8745" lon="0.22669">
        <ele>133</ele>
        <time>2015-02-10T13:04:26Z</time>
      </trkpt>
      <trkpt lat="44.87449" lon="0.22668">
        <ele>131</ele>
        <time>2015-02-10T13:04:27Z</time>
      </trkpt>
      <trkpt lat="44.87449" lon="0.22667">
        <ele>128</ele>
        <time>2015-02-10T13:04:28Z</time>
      </trkpt>
      <trkpt lat="44.87449" lon="0.22666">
        <ele>131</ele>
        <time>2015-02-10T13:04:29Z</time>
      </trkpt>
      <trkpt lat="44.87449" lon="0.22665">
        <ele>134</ele>
        <time>2015-02-10T13:04:30Z</time>
      </trkpt>
      <trkpt lat="44.87448" lon="0.22664">
        <ele>136</ele>
        <time>2015-02-10T13:04:31Z</time>
      </trkpt>
      <trkpt lat="44.87448" lon="0.22664">
        <ele>134</ele>
        <time>2015-02-10T13:04:32Z</time>
      </trkpt>
      <trkpt lat="44.87448" lon="0.22663">
        <ele>134</ele>
        <time>2015-02-10T13:04:33Z</time>
      </trkpt>
      <trkpt lat="44.87447" lon="0.22662">
        <ele>133</ele>
        <time>2015-02-10T13:04:34Z</time>
      </trkpt>
      <trkpt lat="44.87446" lon="0.22661">
        <ele>133</ele>
        <time>2015-02-10T13:04:35Z</time>
      </trkpt>
      <trkpt lat="44.87446" lon="0.2266">
        <ele>138</ele>
        <time>2015-02-10T13:04:36Z</time>
      </trkpt>
      <trkpt lat="44.87445" lon="0.22659">
        <ele>139</ele>
        <time>2015-02-10T13:04:37Z</time>
      </trkpt>
      <trkpt lat="44.87445" lon="0.22658">
        <ele>138</ele>
        <time>2015-02-10T13:04:38Z</time>
      </trkpt>
      <trkpt lat="44.87445" lon="0.22658">
        <ele>139</ele>
        <time>2015-02-10T13:04:39Z</time>
      </trkpt>
      <trkpt lat="44.87445" lon="0.22658">
        <ele>139</ele>
        <time>2015-02-10T13:04:40Z</time>
      </trkpt>
      <trkpt lat="44.87445" lon="0.22658">
        <ele>140</ele>
        <time>2015-02-10T13:04:41Z</time>
      </trkpt>
      <trkpt lat="44.87444" lon="0.22657">
        <ele>139</ele>
        <time>2015-02-10T13:04:42Z</time>
      </trkpt>
      <trkpt lat="44.87444" lon="0.22656">
        <ele>143</ele>
        <time>2015-02-10T13:04:43Z</time>
      </trkpt>
      <trkpt lat="44.87444" lon="0.22655">
        <ele>142</ele>
        <time>2015-02-10T13:04:44Z</time>
      </trkpt>
      <trkpt lat="44.87443" lon="0.22654">
        <ele>142</ele>
        <time>2015-02-10T13:04:45Z</time>
      </trkpt>
      <trkpt lat="44.87442" lon="0.22654">
        <ele>144</ele>
        <time>2015-02-10T13:04:46Z</time>
      </trkpt>
      <trkpt lat="44.87442" lon="0.22653">
        <ele>142</ele>
        <time>2015-02-10T13:04:47Z</time>
      </trkpt>
      <trkpt lat="44.8744" lon="0.22651">
        <ele>140</ele>
        <time>2015-02-10T13:04:48Z</time>
      </trkpt>
      <trkpt lat="44.87439" lon="0.22651">
        <ele>137</ele>
        <time>2015-02-10T13:04:49Z</time>
      </trkpt>
      <trkpt lat="44.87439" lon="0.22651">
        <ele>140</ele>
        <time>2015-02-10T13:04:50Z</time>
      </trkpt>
      <trkpt lat="44.87438" lon="0.2265">
        <ele>142</ele>
        <time>2015-02-10T13:04:51Z</time>
      </trkpt>
      <trkpt lat="44.87438" lon="0.22649">
        <ele>143</ele>
        <time>2015-02-10T13:04:52Z</time>
      </trkpt>
      <trkpt lat="44.87438" lon="0.22649">
        <ele>139</ele>
        <time>2015-02-10T13:04:53Z</time>
      </trkpt>
      <trkpt lat="44.87437" lon="0.22649">
        <ele>142</ele>
        <time>2015-02-10T13:04:54Z</time>
      </trkpt>
      <trkpt lat="44.87437" lon="0.22648">
        <ele>142</ele>
        <time>2015-02-10T13:04:55Z</time>
      </trkpt>
      <trkpt lat="44.87437" lon="0.22648">
        <ele>142</ele>
        <time>2015-02-10T13:04:56Z</time>
      </trkpt>
      <trkpt lat="44.87436" lon="0.22648">
        <ele>139</ele>
        <time>2015-02-10T13:04:57Z</time>
      </trkpt>
      <trkpt lat="44.87435" lon="0.22647">
        <ele>147</ele>
        <time>2015-02-10T13:04:58Z</time>
      </trkpt>
      <trkpt lat="44.87435" lon="0.22647">
        <ele>144</ele>
        <time>2015-02-10T13:04:59Z</time>
      </trkpt>
      <trkpt lat="44.87434" lon="0.22646">
        <ele>145</ele>
        <time>2015-02-10T13:05:00Z</time>
      </trkpt>
      <trkpt lat="44.87433" lon="0.22646">
        <ele>146</ele>
        <time>2015-02-10T13:05:01Z</time>
      </trkpt>
      <trkpt lat="44.87432" lon="0.22645">
        <ele>139</ele>
        <time>2015-02-10T13:05:02Z</time>
      </trkpt>
      <trkpt lat="44.87432" lon="0.22645">
        <ele>144</ele>
        <time>2015-02-10T13:05:03Z</time>
      </trkpt>
      <trkpt lat="44.87432" lon="0.22645">
        <ele>142</ele>
        <time>2015-02-10T13:05:04Z</time>
      </trkpt>
      <trkpt lat="44.87431" lon="0.22644">
        <ele>147</ele>
        <time>2015-02-10T13:05:05Z</time>
      </trkpt>
      <trkpt lat="44.87431" lon="0.22644">
        <ele>144</ele>
        <time>2015-02-10T13:05:06Z</time>
      </trkpt>
      <trkpt lat="44.8743" lon="0.22643">
        <ele>145</ele>
        <time>2015-02-10T13:05:07Z</time>
      </trkpt>
      <trkpt lat="44.87429" lon="0.22643">
        <ele>145</ele>
        <time>2015-02-10T13:05:08Z</time>
      </trkpt>
      <trkpt lat="44.87429" lon="0.22643">
        <ele>143</ele>
        <time>2015-02-10T13:05:09Z</time>
      </trkpt>
      <trkpt lat="44.87429" lon="0.22643">
        <ele>146</ele>
        <time>2015-02-10T13:05:10Z</time>
      </trkpt>
      <trkpt lat="44.87428" lon="0.22642">
        <ele>141</ele>
        <time>2015-02-10T13:05:11Z</time>
      </trkpt>
      <trkpt lat="44.87427" lon="0.22642">
        <ele>145</ele>
        <time>2015-02-10T13:05:12Z</time>
      </trkpt>
      <trkpt lat="44.87427" lon="0.22642">
        <ele>145</ele>
        <time>2015-02-10T13:05:13Z</time>
      </trkpt>
      <trkpt lat="44.87427" lon="0.22642">
        <ele>145</ele>
        <time>2015-02-10T13:05:14Z</time>
      </trkpt>
      <trkpt lat="44.87426" lon="0.22642">
        <ele>141</ele>
        <time>2015-02-10T13:05:15Z</time>
      </trkpt>
      <trkpt lat="44.87426" lon="0.22641">
        <ele>141</ele>
        <time>2015-02-10T13:05:16Z</time>
      </trkpt>
      <trkpt lat="44.87425" lon="0.2264">
        <ele>145</ele>
        <time>2015-02-10T13:05:17Z</time>
      </trkpt>
      <trkpt lat="44.87425" lon="0.2264">
        <ele>141</ele>
        <time>2015-02-10T13:05:18Z</time>
      </trkpt>
      <trkpt lat="44.87425" lon="0.2264">
        <ele>141</ele>
        <time>2015-02-10T13:05:19Z</time>
      </trkpt>
      <trkpt lat="44.87425" lon="0.2264">
        <ele>140</ele>
        <time>2015-02-10T13:05:20Z</time>
      </trkpt>
      <trkpt lat="44.87424" lon="0.22639">
        <ele>137</ele>
        <time>2015-02-10T13:05:21Z</time>
      </trkpt>
      <trkpt lat="44.87423" lon="0.22639">
        <ele>141</ele>
        <time>2015-02-10T13:05:22Z</time>
      </trkpt>
      <trkpt lat="44.87423" lon="0.22638">
        <ele>138</ele>
        <time>2015-02-10T13:05:23Z</time>
      </trkpt>
      <trkpt lat="44.87422" lon="0.22637">
        <ele>143</ele>
        <time>2015-02-10T13:05:24Z</time>
      </trkpt>
      <trkpt lat="44.87421" lon="0.22635">
        <ele>145</ele>
        <time>2015-02-10T13:05:25Z</time>
      </trkpt>
      <trkpt lat="44.8742" lon="0.22634">
        <ele>144</ele>
        <time>2015-02-10T13:05:26Z</time>
      </trkpt>
      <trkpt lat="44.87419" lon="0.22633">
        <ele>145</ele>
        <time>2015-02-10T13:05:27Z</time>
      </trkpt>
      <trkpt lat="44.87418" lon="0.22632">
        <ele>145</ele>
        <time>2015-02-10T13:05:28Z</time>
      </trkpt>
      <trkpt lat="44.87417" lon="0.22631">
        <ele>141</ele>
        <time>2015-02-10T13:05:29Z</time>
      </trkpt>
      <trkpt lat="44.87417" lon="0.2263">
        <ele>141</ele>
        <time>2015-02-10T13:05:30Z</time>
      </trkpt>
      <trkpt lat="44.87416" lon="0.22629">
        <ele>144</ele>
        <time>2015-02-10T13:05:31Z</time>
      </trkpt>
      <trkpt lat="44.87416" lon="0.22629">
        <ele>145</ele>
        <time>2015-02-10T13:05:32Z</time>
      </trkpt>
      <trkpt lat="44.87416" lon="0.22628">
        <ele>143</ele>
        <time>2015-02-10T13:05:33Z</time>
      </trkpt>
      <trkpt lat="44.87415" lon="0.22628">
        <ele>144</ele>
        <time>2015-02-10T13:05:34Z</time>
      </trkpt>
      <trkpt lat="44.87415" lon="0.22627">
        <ele>148</ele>
        <time>2015-02-10T13:05:35Z</time>
      </trkpt>
      <trkpt lat="44.87414" lon="0.22626">
        <ele>146</ele>
        <time>2015-02-10T13:05:36Z</time>
      </trkpt>
      <trkpt lat="44.87414" lon="0.22625">
        <ele>146</ele>
        <time>2015-02-10T13:05:37Z</time>
      </trkpt>
      <trkpt lat="44.87413" lon="0.22625">
        <ele>144</ele>
        <time>2015-02-10T13:05:38Z</time>
      </trkpt>
      <trkpt lat="44.87412" lon="0.22624">
        <ele>144</ele>
        <time>2015-02-10T13:05:39Z</time>
      </trkpt>
      <trkpt lat="44.87412" lon="0.22623">
        <ele>146</ele>
        <time>2015-02-10T13:05:40Z</time>
      </trkpt>
      <trkpt lat="44.87411" lon="0.22622">
        <ele>147</ele>
        <time>2015-02-10T13:05:41Z</time>
      </trkpt>
      <trkpt lat="44.87411" lon="0.22621">
        <ele>144</ele>
        <time>2015-02-10T13:05:42Z</time>
      </trkpt>
      <trkpt lat="44.8741" lon="0.2262">
        <ele>145</ele>
        <time>2015-02-10T13:05:43Z</time>
      </trkpt>
      <trkpt lat="44.8741" lon="0.2262">
        <ele>143</ele>
        <time>2015-02-10T13:05:44Z</time>
      </trkpt>
      <trkpt lat="44.8741" lon="0.2262">
        <ele>145</ele>
        <time>2015-02-10T13:05:45Z</time>
      </trkpt>
      <trkpt lat="44.87409" lon="0.22619">
        <ele>148</ele>
        <time>2015-02-10T13:05:46Z</time>
      </trkpt>
      <trkpt lat="44.87409" lon="0.22618">
        <ele>146</ele>
        <time>2015-02-10T13:05:47Z</time>
      </trkpt>
      <trkpt lat="44.87408" lon="0.22617">
        <ele>148</ele>
        <time>2015-02-10T13:05:48Z</time>
      </trkpt>
      <trkpt lat="44.87408" lon="0.22616">
        <ele>146</ele>
        <time>2015-02-10T13:05:49Z</time>
      </trkpt>
      <trkpt lat="44.87408" lon="0.22616">
        <ele>144</ele>
        <time>2015-02-10T13:05:50Z</time>
      </trkpt>
      <trkpt lat="44.87407" lon="0.22616">
        <ele>147</ele>
        <time>2015-02-10T13:05:51Z</time>
      </trkpt>
      <trkpt lat="44.87406" lon="0.22615">
        <ele>150</ele>
        <time>2015-02-10T13:05:52Z</time>
      </trkpt>
      <trkpt lat="44.87406" lon="0.22615">
        <ele>147</ele>
        <time>2015-02-10T13:05:53Z</time>
      </trkpt>
      <trkpt lat="44.87406" lon="0.22614">
        <ele>149</ele>
        <time>2015-02-10T13:05:54Z</time>
      </trkpt>
      <trkpt lat="44.87406" lon="0.22613">
        <ele>151</ele>
        <time>2015-02-10T13:05:55Z</time>
      </trkpt>
      <trkpt lat="44.87405" lon="0.22612">
        <ele>152</ele>
        <time>2015-02-10T13:05:56Z</time>
      </trkpt>
      <trkpt lat="44.87405" lon="0.22611">
        <ele>145</ele>
        <time>2015-02-10T13:05:57Z</time>
      </trkpt>
      <trkpt lat="44.87405" lon="0.22611">
        <ele>146</ele>
        <time>2015-02-10T13:05:58Z</time>
      </trkpt>
      <trkpt lat="44.87405" lon="0.22611">
        <ele>149</ele>
        <time>2015-02-10T13:05:59Z</time>
      </trkpt>
      <trkpt lat="44.87405" lon="0.22611">
        <ele>147</ele>
        <time>2015-02-10T13:06:00Z</time>
      </trkpt>
      <trkpt lat="44.87405" lon="0.2261">
        <ele>148</ele>
        <time>2015-02-10T13:06:01Z</time>
      </trkpt>
      <trkpt lat="44.87404" lon="0.2261">
        <ele>145</ele>
        <time>2015-02-10T13:06:02Z</time>
      </trkpt>
      <trkpt lat="44.87403" lon="0.22609">
        <ele>141</ele>
        <time>2015-02-10T13:06:03Z</time>
      </trkpt>
      <trkpt lat="44.87402" lon="0.22608">
        <ele>146</ele>
        <time>2015-02-10T13:06:04Z</time>
      </trkpt>
      <trkpt lat="44.87402" lon="0.22608">
        <ele>146</ele>
        <time>2015-02-10T13:06:05Z</time>
      </trkpt>
      <trkpt lat="44.87402" lon="0.22607">
        <ele>146</ele>
        <time>2015-02-10T13:06:06Z</time>
      </trkpt>
      <trkpt lat="44.87402" lon="0.22606">
        <ele>145</ele>
        <time>2015-02-10T13:06:07Z</time>
      </trkpt>
      <trkpt lat="44.87401" lon="0.22606">
        <ele>147</ele>
        <time>2015-02-10T13:06:08Z</time>
      </trkpt>
      <trkpt lat="44.87401" lon="0.22605">
        <ele>144</ele>
        <time>2015-02-10T13:06:09Z</time>
      </trkpt>
      <trkpt lat="44.874" lon="0.22604">
        <ele>144</ele>
        <time>2015-02-10T13:06:10Z</time>
      </trkpt>
      <trkpt lat="44.874" lon="0.22604">
        <ele>145</ele>
        <time>2015-02-10T13:06:11Z</time>
      </trkpt>
      <trkpt lat="44.87399" lon="0.22604">
        <ele>142</ele>
        <time>2015-02-10T13:06:12Z</time>
      </trkpt>
      <trkpt lat="44.87399" lon="0.22603">
        <ele>139</ele>
        <time>2015-02-10T13:06:13Z</time>
      </trkpt>
      <trkpt lat="44.87399" lon="0.22602">
        <ele>144</ele>
        <time>2015-02-10T13:06:14Z</time>
      </trkpt>
      <trkpt lat="44.87398" lon="0.22601">
        <ele>144</ele>
        <time>2015-02-10T13:06:15Z</time>
      </trkpt>
      <trkpt lat="44.87398" lon="0.22601">
        <ele>144</ele>
        <time>2015-02-10T13:06:16Z</time>
      </trkpt>
      <trkpt lat="44.87398" lon="0.226">
        <ele>148</ele>
        <time>2015-02-10T13:06:17Z</time>
      </trkpt>
      <trkpt lat="44.87398" lon="0.22599">
        <ele>145</ele>
        <time>2015-02-10T13:06:18Z</time>
      </trkpt>
      <trkpt lat="44.87398" lon="0.22598">
        <ele>145</ele>
        <time>2015-02-10T13:06:19Z</time>
      </trkpt>
      <trkpt lat="44.87397" lon="0.22597">
        <ele>144</ele>
        <time>2015-02-10T13:06:20Z</time>
      </trkpt>
      <trkpt lat="44.87397" lon="0.22596">
        <ele>141</ele>
        <time>2015-02-10T13:06:21Z</time>
      </trkpt>
      <trkpt lat="44.87397" lon="0.22596">
        <ele>144</ele>
        <time>2015-02-10T13:06:22Z</time>
      </trkpt>
      <trkpt lat="44.87396" lon="0.22595">
        <ele>146</ele>
        <time>2015-02-10T13:06:23Z</time>
      </trkpt>
      <trkpt lat="44.87396" lon="0.22595">
        <ele>148</ele>
        <time>2015-02-10T13:06:24Z</time>
      </trkpt>
      <trkpt lat="44.87396" lon="0.22594">
        <ele>149</ele>
        <time>2015-02-10T13:06:25Z</time>
      </trkpt>
      <trkpt lat="44.87396" lon="0.22594">
        <ele>149</ele>
        <time>2015-02-10T13:06:26Z</time>
      </trkpt>
      <trkpt lat="44.87395" lon="0.22593">
        <ele>150</ele>
        <time>2015-02-10T13:06:27Z</time>
      </trkpt>
      <trkpt lat="44.87394" lon="0.22592">
        <ele>149</ele>
        <time>2015-02-10T13:06:28Z</time>
      </trkpt>
      <trkpt lat="44.87394" lon="0.22592">
        <ele>148</ele>
        <time>2015-02-10T13:06:29Z</time>
      </trkpt>
      <trkpt lat="44.87394" lon="0.22591">
        <ele>150</ele>
        <time>2015-02-10T13:06:30Z</time>
      </trkpt>
      <trkpt lat="44.87394" lon="0.22591">
        <ele>153</ele>
        <time>2015-02-10T13:06:31Z</time>
      </trkpt>
      <trkpt lat="44.87393" lon="0.22591">
        <ele>151</ele>
        <time>2015-02-10T13:06:32Z</time>
      </trkpt>
      <trkpt lat="44.87393" lon="0.2259">
        <ele>150</ele>
        <time>2015-02-10T13:06:33Z</time>
      </trkpt>
      <trkpt lat="44.87392" lon="0.22589">
        <ele>149</ele>
        <time>2015-02-10T13:06:34Z</time>
      </trkpt>
      <trkpt lat="44.87392" lon="0.22588">
        <ele>146</ele>
        <time>2015-02-10T13:06:35Z</time>
      </trkpt>
      <trkpt lat="44.87391" lon="0.22587">
        <ele>150</ele>
        <time>2015-02-10T13:06:36Z</time>
      </trkpt>
      <trkpt lat="44.87391" lon="0.22586">
        <ele>147</ele>
        <time>2015-02-10T13:06:37Z</time>
      </trkpt>
      <trkpt lat="44.87391" lon="0.22585">
        <ele>149</ele>
        <time>2015-02-10T13:06:38Z</time>
      </trkpt>
      <trkpt lat="44.8739" lon="0.22583">
        <ele>149</ele>
        <time>2015-02-10T13:06:39Z</time>
      </trkpt>
      <trkpt lat="44.8739" lon="0.22583">
        <ele>148</ele>
        <time>2015-02-10T13:06:40Z</time>
      </trkpt>
      <trkpt lat="44.8739" lon="0.22583">
        <ele>149</ele>
        <time>2015-02-10T13:06:41Z</time>
      </trkpt>
      <trkpt lat="44.8739" lon="0.22582">
        <ele>149</ele>
        <time>2015-02-10T13:06:42Z</time>
      </trkpt>
      <trkpt lat="44.8739" lon="0.22581">
        <ele>147</ele>
        <time>2015-02-10T13:06:43Z</time>
      </trkpt>
      <trkpt lat="44.8739" lon="0.2258">
        <ele>150</ele>
        <time>2015-02-10T13:06:44Z</time>
      </trkpt>
      <trkpt lat="44.8739" lon="0.22579">
        <ele>149</ele>
        <time>2015-02-10T13:06:45Z</time>
      </trkpt>
      <trkpt lat="44.8739" lon="0.22578">
        <ele>147</ele>
        <time>2015-02-10T13:06:46Z</time>
      </trkpt>
      <trkpt lat="44.8739" lon="0.22577">
        <ele>148</ele>
        <time>2015-02-10T13:06:47Z</time>
      </trkpt>
      <trkpt lat="44.8739" lon="0.22576">
        <ele>149</ele>
        <time>2015-02-10T13:06:48Z</time>
      </trkpt>
      <trkpt lat="44.87389" lon="0.22574">
        <ele>149</ele>
        <time>2015-02-10T13:06:49Z</time>
      </trkpt>
      <trkpt lat="44.87389" lon="0.22573">
        <ele>147</ele>
        <time>2015-02-10T13:06:50Z</time>
      </trkpt>
      <trkpt lat="44.87389" lon="0.22572">
        <ele>152</ele>
        <time>2015-02-10T13:06:51Z</time>
      </trkpt>
      <trkpt lat="44.87388" lon="0.2257">
        <ele>150</ele>
        <time>2015-02-10T13:06:52Z</time>
      </trkpt>
      <trkpt lat="44.87388" lon="0.22569">
        <ele>147</ele>
        <time>2015-02-10T13:06:53Z</time>
      </trkpt>
      <trkpt lat="44.87388" lon="0.22568">
        <ele>148</ele>
        <time>2015-02-10T13:06:54Z</time>
      </trkpt>
      <trkpt lat="44.87388" lon="0.22566">
        <ele>147</ele>
        <time>2015-02-10T13:06:55Z</time>
      </trkpt>
      <trkpt lat="44.87387" lon="0.22565">
        <ele>146</ele>
        <time>2015-02-10T13:06:56Z</time>
      </trkpt>
      <trkpt lat="44.87387" lon="0.22564">
        <ele>143</ele>
        <time>2015-02-10T13:06:57Z</time>
      </trkpt>
      <trkpt lat="44.87387" lon="0.22563">
        <ele>144</ele>
        <time>2015-02-10T13:06:58Z</time>
      </trkpt>
      <trkpt lat="44.87386" lon="0.22563">
        <ele>146</ele>
        <time>2015-02-10T13:06:59Z</time>
      </trkpt>
      <trkpt lat="44.87386" lon="0.22562">
        <ele>145</ele>
        <time>2015-02-10T13:07:00Z</time>
      </trkpt>
      <trkpt lat="44.87386" lon="0.22561">
        <ele>145</ele>
        <time>2015-02-10T13:07:01Z</time>
      </trkpt>
      <trkpt lat="44.87386" lon="0.2256">
        <ele>140</ele>
        <time>2015-02-10T13:07:02Z</time>
      </trkpt>
      <trkpt lat="44.87385" lon="0.2256">
        <ele>145</ele>
        <time>2015-02-10T13:07:03Z</time>
      </trkpt>
      <trkpt lat="44.87385" lon="0.22559">
        <ele>141</ele>
        <time>2015-02-10T13:07:04Z</time>
      </trkpt>
      <trkpt lat="44.87385" lon="0.22558">
        <ele>145</ele>
        <time>2015-02-10T13:07:05Z</time>
      </trkpt>
      <trkpt lat="44.87384" lon="0.22557">
        <ele>148</ele>
        <time>2015-02-10T13:07:06Z</time>
      </trkpt>
      <trkpt lat="44.87384" lon="0.22556">
        <ele>149</ele>
        <time>2015-02-10T13:07:07Z</time>
      </trkpt>
      <trkpt lat="44.87384" lon="0.22555">
        <ele>149</ele>
        <time>2015-02-10T13:07:08Z</time>
      </trkpt>
      <trkpt lat="44.87383" lon="0.22554">
        <ele>149</ele>
        <time>2015-02-10T13:07:09Z</time>
      </trkpt>
      <trkpt lat="44.87383" lon="0.22553">
        <ele>151</ele>
        <time>2015-02-10T13:07:10Z</time>
      </trkpt>
      <trkpt lat="44.87383" lon="0.22553">
        <ele>149</ele>
        <time>2015-02-10T13:07:11Z</time>
      </trkpt>
      <trkpt lat="44.87382" lon="0.22552">
        <ele>152</ele>
        <time>2015-02-10T13:07:12Z</time>
      </trkpt>
      <trkpt lat="44.87382" lon="0.22551">
        <ele>151</ele>
        <time>2015-02-10T13:07:13Z</time>
      </trkpt>
      <trkpt lat="44.87382" lon="0.22551">
        <ele>152</ele>
        <time>2015-02-10T13:07:14Z</time>
      </trkpt>
      <trkpt lat="44.87382" lon="0.2255">
        <ele>157</ele>
        <time>2015-02-10T13:07:15Z</time>
      </trkpt>
      <trkpt lat="44.87381" lon="0.22549">
        <ele>152</ele>
        <time>2015-02-10T13:07:16Z</time>
      </trkpt>
      <trkpt lat="44.87381" lon="0.22548">
        <ele>153</ele>
        <time>2015-02-10T13:07:17Z</time>
      </trkpt>
      <trkpt lat="44.87381" lon="0.22547">
        <ele>151</ele>
        <time>2015-02-10T13:07:18Z</time>
      </trkpt>
      <trkpt lat="44.87381" lon="0.22547">
        <ele>149</ele>
        <time>2015-02-10T13:07:19Z</time>
      </trkpt>
      <trkpt lat="44.87381" lon="0.22546">
        <ele>147</ele>
        <time>2015-02-10T13:07:20Z</time>
      </trkpt>
      <trkpt lat="44.8738" lon="0.22545">
        <ele>152</ele>
        <time>2015-02-10T13:07:21Z</time>
      </trkpt>
      <trkpt lat="44.8738" lon="0.22544">
        <ele>151</ele>
        <time>2015-02-10T13:07:22Z</time>
      </trkpt>
      <trkpt lat="44.87379" lon="0.22543">
        <ele>148</ele>
        <time>2015-02-10T13:07:23Z</time>
      </trkpt>
      <trkpt lat="44.87379" lon="0.22543">
        <ele>141</ele>
        <time>2015-02-10T13:07:24Z</time>
      </trkpt>
      <trkpt lat="44.87379" lon="0.22542">
        <ele>148</ele>
        <time>2015-02-10T13:07:25Z</time>
      </trkpt>
      <trkpt lat="44.87379" lon="0.22542">
        <ele>148</ele>
        <time>2015-02-10T13:07:26Z</time>
      </trkpt>
      <trkpt lat="44.87379" lon="0.22542">
        <ele>149</ele>
        <time>2015-02-10T13:07:27Z</time>
      </trkpt>
      <trkpt lat="44.87378" lon="0.22541">
        <ele>153</ele>
        <time>2015-02-10T13:07:28Z</time>
      </trkpt>
      <trkpt lat="44.87378" lon="0.2254">
        <ele>147</ele>
        <time>2015-02-10T13:07:29Z</time>
      </trkpt>
      <trkpt lat="44.87378" lon="0.22539">
        <ele>150</ele>
        <time>2015-02-10T13:07:30Z</time>
      </trkpt>
      <trkpt lat="44.87378" lon="0.22539">
        <ele>153</ele>
        <time>2015-02-10T13:07:31Z</time>
      </trkpt>
      <trkpt lat="44.87377" lon="0.22538">
        <ele>153</ele>
        <time>2015-02-10T13:07:32Z</time>
      </trkpt>
      <trkpt lat="44.87377" lon="0.22537">
        <ele>148</ele>
        <time>2015-02-10T13:07:33Z</time>
      </trkpt>
      <trkpt lat="44.87377" lon="0.22536">
        <ele>150</ele>
        <time>2015-02-10T13:07:34Z</time>
      </trkpt>
      <trkpt lat="44.87377" lon="0.22535">
        <ele>147</ele>
        <time>2015-02-10T13:07:35Z</time>
      </trkpt>
      <trkpt lat="44.87376" lon="0.22534">
        <ele>150</ele>
        <time>2015-02-10T13:07:36Z</time>
      </trkpt>
      <trkpt lat="44.87376" lon="0.22533">
        <ele>150</ele>
        <time>2015-02-10T13:07:37Z</time>
      </trkpt>
      <trkpt lat="44.87376" lon="0.22532">
        <ele>149</ele>
        <time>2015-02-10T13:07:38Z</time>
      </trkpt>
      <trkpt lat="44.87376" lon="0.22531">
        <ele>151</ele>
        <time>2015-02-10T13:07:39Z</time>
      </trkpt>
      <trkpt lat="44.87376" lon="0.2253">
        <ele>151</ele>
        <time>2015-02-10T13:07:40Z</time>
      </trkpt>
      <trkpt lat="44.87376" lon="0.22528">
        <ele>156</ele>
        <time>2015-02-10T13:07:41Z</time>
      </trkpt>
      <trkpt lat="44.87376" lon="0.22527">
        <ele>156</ele>
        <time>2015-02-10T13:07:42Z</time>
      </trkpt>
      <trkpt lat="44.87376" lon="0.22526">
        <ele>157</ele>
        <time>2015-02-10T13:07:43Z</time>
      </trkpt>
      <trkpt lat="44.87376" lon="0.22524">
        <ele>156</ele>
        <time>2015-02-10T13:07:44Z</time>
      </trkpt>
      <trkpt lat="44.87375" lon="0.22523">
        <ele>158</ele>
        <time>2015-02-10T13:07:45Z</time>
      </trkpt>
      <trkpt lat="44.87375" lon="0.22522">
        <ele>156</ele>
        <time>2015-02-10T13:07:46Z</time>
      </trkpt>
      <trkpt lat="44.87374" lon="0.2252">
        <ele>155</ele>
        <time>2015-02-10T13:07:47Z</time>
      </trkpt>
      <trkpt lat="44.87374" lon="0.22519">
        <ele>157</ele>
        <time>2015-02-10T13:07:48Z</time>
      </trkpt>
      <trkpt lat="44.87373" lon="0.22519">
        <ele>157</ele>
        <time>2015-02-10T13:07:49Z</time>
      </trkpt>
      <trkpt lat="44.87373" lon="0.22518">
        <ele>158</ele>
        <time>2015-02-10T13:07:50Z</time>
      </trkpt>
      <trkpt lat="44.87373" lon="0.22517">
        <ele>156</ele>
        <time>2015-02-10T13:07:51Z</time>
      </trkpt>
      <trkpt lat="44.87373" lon="0.22516">
        <ele>158</ele>
        <time>2015-02-10T13:07:52Z</time>
      </trkpt>
      <trkpt lat="44.87373" lon="0.22515">
        <ele>158</ele>
        <time>2015-02-10T13:07:53Z</time>
      </trkpt>
      <trkpt lat="44.87372" lon="0.22513">
        <ele>156</ele>
        <time>2015-02-10T13:07:54Z</time>
      </trkpt>
      <trkpt lat="44.87372" lon="0.22512">
        <ele>157</ele>
        <time>2015-02-10T13:07:55Z</time>
      </trkpt>
      <trkpt lat="44.87372" lon="0.22512">
        <ele>154</ele>
        <time>2015-02-10T13:07:56Z</time>
      </trkpt>
      <trkpt lat="44.87372" lon="0.22511">
        <ele>159</ele>
        <time>2015-02-10T13:07:57Z</time>
      </trkpt>
      <trkpt lat="44.87372" lon="0.2251">
        <ele>159</ele>
        <time>2015-02-10T13:07:58Z</time>
      </trkpt>
      <trkpt lat="44.87372" lon="0.22509">
        <ele>160</ele>
        <time>2015-02-10T13:07:59Z</time>
      </trkpt>
      <trkpt lat="44.87372" lon="0.22508">
        <ele>155</ele>
        <time>2015-02-10T13:08:00Z</time>
      </trkpt>
      <trkpt lat="44.87371" lon="0.22506">
        <ele>157</ele>
        <time>2015-02-10T13:08:01Z</time>
      </trkpt>
      <trkpt lat="44.87371" lon="0.22505">
        <ele>156</ele>
        <time>2015-02-10T13:08:02Z</time>
      </trkpt>
      <trkpt lat="44.87371" lon="0.22504">
        <ele>158</ele>
        <time>2015-02-10T13:08:03Z</time>
      </trkpt>
      <trkpt lat="44.87371" lon="0.22502">
        <ele>161</ele>
        <time>2015-02-10T13:08:04Z</time>
      </trkpt>
      <trkpt lat="44.8737" lon="0.22501">
        <ele>161</ele>
        <time>2015-02-10T13:08:05Z</time>
      </trkpt>
      <trkpt lat="44.8737" lon="0.225">
        <ele>160</ele>
        <time>2015-02-10T13:08:06Z</time>
      </trkpt>
      <trkpt lat="44.8737" lon="0.225">
        <ele>157</ele>
        <time>2015-02-10T13:08:07Z</time>
      </trkpt>
      <trkpt lat="44.8737" lon="0.22499">
        <ele>154</ele>
        <time>2015-02-10T13:08:08Z</time>
      </trkpt>
      <trkpt lat="44.8737" lon="0.22498">
        <ele>153</ele>
        <time>2015-02-10T13:08:09Z</time>
      </trkpt>
      <trkpt lat="44.8737" lon="0.22498">
        <ele>157</ele>
        <time>2015-02-10T13:08:10Z</time>
      </trkpt>
      <trkpt lat="44.8737" lon="0.22498">
        <ele>159</ele>
        <time>2015-02-10T13:08:11Z</time>
      </trkpt>
      <trkpt lat="44.87369" lon="0.22497">
        <ele>158</ele>
        <time>2015-02-10T13:08:12Z</time>
      </trkpt>
      <trkpt lat="44.87369" lon="0.22495">
        <ele>158</ele>
        <time>2015-02-10T13:08:13Z</time>
      </trkpt>
      <trkpt lat="44.87369" lon="0.22494">
        <ele>152</ele>
        <time>2015-02-10T13:08:14Z</time>
      </trkpt>
      <trkpt lat="44.87368" lon="0.22493">
        <ele>153</ele>
        <time>2015-02-10T13:08:15Z</time>
      </trkpt>
      <trkpt lat="44.87368" lon="0.22491">
        <ele>155</ele>
        <time>2015-02-10T13:08:16Z</time>
      </trkpt>
      <trkpt lat="44.87368" lon="0.2249">
        <ele>158</ele>
        <time>2015-02-10T13:08:17Z</time>
      </trkpt>
      <trkpt lat="44.87367" lon="0.22488">
        <ele>160</ele>
        <time>2015-02-10T13:08:18Z</time>
      </trkpt>
      <trkpt lat="44.87367" lon="0.22487">
        <ele>159</ele>
        <time>2015-02-10T13:08:19Z</time>
      </trkpt>
      <trkpt lat="44.87366" lon="0.22485">
        <ele>155</ele>
        <time>2015-02-10T13:08:20Z</time>
      </trkpt>
      <trkpt lat="44.87366" lon="0.22484">
        <ele>154</ele>
        <time>2015-02-10T13:08:21Z</time>
      </trkpt>
      <trkpt lat="44.87365" lon="0.22483">
        <ele>156</ele>
        <time>2015-02-10T13:08:22Z</time>
      </trkpt>
      <trkpt lat="44.87365" lon="0.22482">
        <ele>155</ele>
        <time>2015-02-10T13:08:23Z</time>
      </trkpt>
      <trkpt lat="44.87365" lon="0.22481">
        <ele>150</ele>
        <time>2015-02-10T13:08:24Z</time>
      </trkpt>
      <trkpt lat="44.87365" lon="0.2248">
        <ele>149</ele>
        <time>2015-02-10T13:08:25Z</time>
      </trkpt>
      <trkpt lat="44.87365" lon="0.22479">
        <ele>152</ele>
        <time>2015-02-10T13:08:26Z</time>
      </trkpt>
      <trkpt lat="44.87365" lon="0.22478">
        <ele>151</ele>
        <time>2015-02-10T13:08:27Z</time>
      </trkpt>
      <trkpt lat="44.87364" lon="0.22478">
        <ele>150</ele>
        <time>2015-02-10T13:08:28Z</time>
      </trkpt>
      <trkpt lat="44.87364" lon="0.22478">
        <ele>150</ele>
        <time>2015-02-10T13:08:29Z</time>
      </trkpt>
      <trkpt lat="44.87364" lon="0.22478">
        <ele>150</ele>
        <time>2015-02-10T13:08:30Z</time>
      </trkpt>
      <trkpt lat="44.87364" lon="0.22478">
        <ele>151</ele>
        <time>2015-02-10T13:08:31Z</time>
      </trkpt>
      <trkpt lat="44.87364" lon="0.22478">
        <ele>153</ele>
        <time>2015-02-10T13:08:32Z</time>
      </trkpt>
      <trkpt lat="44.87364" lon="0.22477">
        <ele>152</ele>
        <time>2015-02-10T13:08:33Z</time>
      </trkpt>
      <trkpt lat="44.87364" lon="0.22476">
        <ele>151</ele>
        <time>2015-02-10T13:08:34Z</time>
      </trkpt>
      <trkpt lat="44.87364" lon="0.22475">
        <ele>154</ele>
        <time>2015-02-10T13:08:35Z</time>
      </trkpt>
      <trkpt lat="44.87365" lon="0.22474">
        <ele>151</ele>
        <time>2015-02-10T13:08:36Z</time>
      </trkpt>
      <trkpt lat="44.87364" lon="0.22473">
        <ele>153</ele>
        <time>2015-02-10T13:08:37Z</time>
      </trkpt>
      <trkpt lat="44.87365" lon="0.22472">
        <ele>155</ele>
        <time>2015-02-10T13:08:38Z</time>
      </trkpt>
      <trkpt lat="44.87364" lon="0.22472">
        <ele>153</ele>
        <time>2015-02-10T13:08:39Z</time>
      </trkpt>
      <trkpt lat="44.87364" lon="0.22471">
        <ele>152</ele>
        <time>2015-02-10T13:08:40Z</time>
      </trkpt>
      <trkpt lat="44.87364" lon="0.2247">
        <ele>152</ele>
        <time>2015-02-10T13:08:41Z</time>
      </trkpt>
      <trkpt lat="44.87363" lon="0.22469">
        <ele>149</ele>
        <time>2015-02-10T13:08:42Z</time>
      </trkpt>
      <trkpt lat="44.87363" lon="0.22468">
        <ele>148</ele>
        <time>2015-02-10T13:08:43Z</time>
      </trkpt>
      <trkpt lat="44.87363" lon="0.22468">
        <ele>152</ele>
        <time>2015-02-10T13:08:44Z</time>
      </trkpt>
      <trkpt lat="44.87363" lon="0.22467">
        <ele>152</ele>
        <time>2015-02-10T13:08:45Z</time>
      </trkpt>
      <trkpt lat="44.87363" lon="0.22466">
        <ele>154</ele>
        <time>2015-02-10T13:08:46Z</time>
      </trkpt>
      <trkpt lat="44.87362" lon="0.22465">
        <ele>160</ele>
        <time>2015-02-10T13:08:47Z</time>
      </trkpt>
      <trkpt lat="44.87362" lon="0.22465">
        <ele>162</ele>
        <time>2015-02-10T13:08:48Z</time>
      </trkpt>
      <trkpt lat="44.87362" lon="0.22464">
        <ele>164</ele>
        <time>2015-02-10T13:08:49Z</time>
      </trkpt>
      <trkpt lat="44.87361" lon="0.22463">
        <ele>164</ele>
        <time>2015-02-10T13:08:50Z</time>
      </trkpt>
      <trkpt lat="44.87361" lon="0.22462">
        <ele>163</ele>
        <time>2015-02-10T13:08:51Z</time>
      </trkpt>
      <trkpt lat="44.87361" lon="0.22462">
        <ele>166</ele>
        <time>2015-02-10T13:08:52Z</time>
      </trkpt>
      <trkpt lat="44.87361" lon="0.22461">
        <ele>163</ele>
        <time>2015-02-10T13:08:53Z</time>
      </trkpt>
      <trkpt lat="44.87361" lon="0.22461">
        <ele>162</ele>
        <time>2015-02-10T13:08:54Z</time>
      </trkpt>
      <trkpt lat="44.87362" lon="0.2246">
        <ele>160</ele>
        <time>2015-02-10T13:08:55Z</time>
      </trkpt>
      <trkpt lat="44.87362" lon="0.2246">
        <ele>161</ele>
        <time>2015-02-10T13:08:56Z</time>
      </trkpt>
      <trkpt lat="44.87363" lon="0.2246">
        <ele>163</ele>
        <time>2015-02-10T13:08:57Z</time>
      </trkpt>
      <trkpt lat="44.87363" lon="0.22459">
        <ele>162</ele>
        <time>2015-02-10T13:08:58Z</time>
      </trkpt>
      <trkpt lat="44.87364" lon="0.22459">
        <ele>165</ele>
        <time>2015-02-10T13:08:59Z</time>
      </trkpt>
      <trkpt lat="44.87365" lon="0.22458">
        <ele>164</ele>
        <time>2015-02-10T13:09:00Z</time>
      </trkpt>
      <trkpt lat="44.87366" lon="0.22458">
        <ele>166</ele>
        <time>2015-02-10T13:09:01Z</time>
      </trkpt>
      <trkpt lat="44.87367" lon="0.22458">
        <ele>164</ele>
        <time>2015-02-10T13:09:02Z</time>
      </trkpt>
      <trkpt lat="44.87367" lon="0.22458">
        <ele>167</ele>
        <time>2015-02-10T13:09:03Z</time>
      </trkpt>
      <trkpt lat="44.87368" lon="0.22457">
        <ele>168</ele>
        <time>2015-02-10T13:09:04Z</time>
      </trkpt>
      <trkpt lat="44.87369" lon="0.22457">
        <ele>169</ele>
        <time>2015-02-10T13:09:05Z</time>
      </trkpt>
      <trkpt lat="44.87369" lon="0.22457">
        <ele>168</ele>
        <time>2015-02-10T13:09:06Z</time>
      </trkpt>
      <trkpt lat="44.8737" lon="0.22456">
        <ele>167</ele>
        <time>2015-02-10T13:09:07Z</time>
      </trkpt>
      <trkpt lat="44.87371" lon="0.22456">
        <ele>163</ele>
        <time>2015-02-10T13:09:08Z</time>
      </trkpt>
      <trkpt lat="44.87372" lon="0.22456">
        <ele>164</ele>
        <time>2015-02-10T13:09:09Z</time>
      </trkpt>
      <trkpt lat="44.87373" lon="0.22454">
        <ele>160</ele>
        <time>2015-02-10T13:09:10Z</time>
      </trkpt>
      <trkpt lat="44.87373" lon="0.22454">
        <ele>166</ele>
        <time>2015-02-10T13:09:11Z</time>
      </trkpt>
      <trkpt lat="44.87374" lon="0.22453">
        <ele>166</ele>
        <time>2015-02-10T13:09:12Z</time>
      </trkpt>
      <trkpt lat="44.87375" lon="0.22453">
        <ele>163</ele>
        <time>2015-02-10T13:09:13Z</time>
      </trkpt>
      <trkpt lat="44.87376" lon="0.22452">
        <ele>160</ele>
        <time>2015-02-10T13:09:14Z</time>
      </trkpt>
      <trkpt lat="44.87377" lon="0.22451">
        <ele>160</ele>
        <time>2015-02-10T13:09:15Z</time>
      </trkpt>
      <trkpt lat="44.87378" lon="0.22451">
        <ele>162</ele>
        <time>2015-02-10T13:09:16Z</time>
      </trkpt>
      <trkpt lat="44.87379" lon="0.2245">
        <ele>162</ele>
        <time>2015-02-10T13:09:17Z</time>
      </trkpt>
      <trkpt lat="44.87379" lon="0.2245">
        <ele>164</ele>
        <time>2015-02-10T13:09:18Z</time>
      </trkpt>
      <trkpt lat="44.87379" lon="0.2245">
        <ele>160</ele>
        <time>2015-02-10T13:09:19Z</time>
      </trkpt>
      <trkpt lat="44.87378" lon="0.22451">
        <ele>160</ele>
        <time>2015-02-10T13:09:20Z</time>
      </trkpt>
      <trkpt lat="44.87377" lon="0.22453">
        <ele>156</ele>
        <time>2015-02-10T13:09:21Z</time>
      </trkpt>
      <trkpt lat="44.87377" lon="0.22453">
        <ele>155</ele>
        <time>2015-02-10T13:09:22Z</time>
      </trkpt>
      <trkpt lat="44.87376" lon="0.22454">
        <ele>156</ele>
        <time>2015-02-10T13:09:23Z</time>
      </trkpt>
      <trkpt lat="44.87375" lon="0.22455">
        <ele>158</ele>
        <time>2015-02-10T13:09:24Z</time>
      </trkpt>
      <trkpt lat="44.87374" lon="0.22456">
        <ele>161</ele>
        <time>2015-02-10T13:09:25Z</time>
      </trkpt>
      <trkpt lat="44.87374" lon="0.22456">
        <ele>155</ele>
        <time>2015-02-10T13:09:26Z</time>
      </trkpt>
      <trkpt lat="44.87373" lon="0.22456">
        <ele>154</ele>
        <time>2015-02-10T13:09:27Z</time>
      </trkpt>
      <trkpt lat="44.87372" lon="0.22456">
        <ele>157</ele>
        <time>2015-02-10T13:09:28Z</time>
      </trkpt>
      <trkpt lat="44.87372" lon="0.22457">
        <ele>154</ele>
        <time>2015-02-10T13:09:29Z</time>
      </trkpt>
      <trkpt lat="44.87371" lon="0.22458">
        <ele>159</ele>
        <time>2015-02-10T13:09:30Z</time>
      </trkpt>
      <trkpt lat="44.87369" lon="0.2246">
        <ele>163</ele>
        <time>2015-02-10T13:09:31Z</time>
      </trkpt>
      <trkpt lat="44.87368" lon="0.2246">
        <ele>160</ele>
        <time>2015-02-10T13:09:32Z</time>
      </trkpt>
      <trkpt lat="44.87368" lon="0.2246">
        <ele>157</ele>
        <time>2015-02-10T13:09:33Z</time>
      </trkpt>
      <trkpt lat="44.87368" lon="0.22461">
        <ele>160</ele>
        <time>2015-02-10T13:09:34Z</time>
      </trkpt>
      <trkpt lat="44.87367" lon="0.22462">
        <ele>162</ele>
        <time>2015-02-10T13:09:35Z</time>
      </trkpt>
      <trkpt lat="44.87366" lon="0.22462">
        <ele>160</ele>
        <time>2015-02-10T13:09:36Z</time>
      </trkpt>
      <trkpt lat="44.87366" lon="0.22463">
        <ele>161</ele>
        <time>2015-02-10T13:09:37Z</time>
      </trkpt>
      <trkpt lat="44.87365" lon="0.22463">
        <ele>156</ele>
        <time>2015-02-10T13:09:38Z</time>
      </trkpt>
      <trkpt lat="44.87365" lon="0.22462">
        <ele>159</ele>
        <time>2015-02-10T13:09:39Z</time>
      </trkpt>
      <trkpt lat="44.87364" lon="0.22461">
        <ele>161</ele>
        <time>2015-02-10T13:09:40Z</time>
      </trkpt>
      <trkpt lat="44.87364" lon="0.2246">
        <ele>163</ele>
        <time>2015-02-10T13:09:41Z</time>
      </trkpt>
      <trkpt lat="44.87363" lon="0.22458">
        <ele>164</ele>
        <time>2015-02-10T13:09:42Z</time>
      </trkpt>
      <trkpt lat="44.87361" lon="0.22457">
        <ele>163</ele>
        <time>2015-02-10T13:09:43Z</time>
      </trkpt>
      <trkpt lat="44.87361" lon="0.22456">
        <ele>163</ele>
        <time>2015-02-10T13:09:44Z</time>
      </trkpt>
      <trkpt lat="44.8736" lon="0.22455">
        <ele>163</ele>
        <time>2015-02-10T13:09:45Z</time>
      </trkpt>
      <trkpt lat="44.87359" lon="0.22453">
        <ele>161</ele>
        <time>2015-02-10T13:09:46Z</time>
      </trkpt>
      <trkpt lat="44.87359" lon="0.22452">
        <ele>161</ele>
        <time>2015-02-10T13:09:47Z</time>
      </trkpt>
      <trkpt lat="44.87358" lon="0.22451">
        <ele>162</ele>
        <time>2015-02-10T13:09:48Z</time>
      </trkpt>
      <trkpt lat="44.87357" lon="0.22449">
        <ele>165</ele>
        <time>2015-02-10T13:09:49Z</time>
      </trkpt>
      <trkpt lat="44.87356" lon="0.22447">
        <ele>165</ele>
        <time>2015-02-10T13:09:50Z</time>
      </trkpt>
      <trkpt lat="44.87355" lon="0.22446">
        <ele>161</ele>
        <time>2015-02-10T13:09:51Z</time>
      </trkpt>
      <trkpt lat="44.87354" lon="0.22444">
        <ele>163</ele>
        <time>2015-02-10T13:09:52Z</time>
      </trkpt>
      <trkpt lat="44.87353" lon="0.22443">
        <ele>164</ele>
        <time>2015-02-10T13:09:53Z</time>
      </trkpt>
      <trkpt lat="44.87352" lon="0.22441">
        <ele>164</ele>
        <time>2015-02-10T13:09:54Z</time>
      </trkpt>
      <trkpt lat="44.87352" lon="0.2244">
        <ele>162</ele>
        <time>2015-02-10T13:09:55Z</time>
      </trkpt>
      <trkpt lat="44.87351" lon="0.22438">
        <ele>160</ele>
        <time>2015-02-10T13:09:56Z</time>
      </trkpt>
      <trkpt lat="44.87351" lon="0.22437">
        <ele>159</ele>
        <time>2015-02-10T13:09:57Z</time>
      </trkpt>
      <trkpt lat="44.87351" lon="0.22438">
        <ele>158</ele>
        <time>2015-02-10T13:09:58Z</time>
      </trkpt>
      <trkpt lat="44.87351" lon="0.22438">
        <ele>160</ele>
        <time>2015-02-10T13:09:59Z</time>
      </trkpt>
      <trkpt lat="44.8735" lon="0.22439">
        <ele>154</ele>
        <time>2015-02-10T13:10:00Z</time>
      </trkpt>
      <trkpt lat="44.8735" lon="0.22439">
        <ele>158</ele>
        <time>2015-02-10T13:10:01Z</time>
      </trkpt>
      <trkpt lat="44.8735" lon="0.2244">
        <ele>157</ele>
        <time>2015-02-10T13:10:02Z</time>
      </trkpt>
      <trkpt lat="44.8735" lon="0.2244">
        <ele>158</ele>
        <time>2015-02-10T13:10:03Z</time>
      </trkpt>
      <trkpt lat="44.8735" lon="0.22441">
        <ele>158</ele>
        <time>2015-02-10T13:10:04Z</time>
      </trkpt>
      <trkpt lat="44.8735" lon="0.22441">
        <ele>159</ele>
        <time>2015-02-10T13:10:05Z</time>
      </trkpt>
      <trkpt lat="44.8735" lon="0.22441">
        <ele>162</ele>
        <time>2015-02-10T13:10:06Z</time>
      </trkpt>
      <trkpt lat="44.8735" lon="0.22441">
        <ele>159</ele>
        <time>2015-02-10T13:10:07Z</time>
      </trkpt>
      <trkpt lat="44.87351" lon="0.22442">
        <ele>158</ele>
        <time>2015-02-10T13:10:08Z</time>
      </trkpt>
      <trkpt lat="44.87352" lon="0.22442">
        <ele>164</ele>
        <time>2015-02-10T13:10:09Z</time>
      </trkpt>
      <trkpt lat="44.87352" lon="0.22442">
        <ele>162</ele>
        <time>2015-02-10T13:10:10Z</time>
      </trkpt>
      <trkpt lat="44.87353" lon="0.22443">
        <ele>161</ele>
        <time>2015-02-10T13:10:11Z</time>
      </trkpt>
      <trkpt lat="44.87353" lon="0.22445">
        <ele>159</ele>
        <time>2015-02-10T13:10:12Z</time>
      </trkpt>
      <trkpt lat="44.87354" lon="0.22446">
        <ele>161</ele>
        <time>2015-02-10T13:10:13Z</time>
      </trkpt>
      <trkpt lat="44.87355" lon="0.22447">
        <ele>159</ele>
        <time>2015-02-10T13:10:14Z</time>
      </trkpt>
      <trkpt lat="44.87355" lon="0.22448">
        <ele>159</ele>
        <time>2015-02-10T13:10:15Z</time>
      </trkpt>
      <trkpt lat="44.87356" lon="0.22449">
        <ele>156</ele>
        <time>2015-02-10T13:10:16Z</time>
      </trkpt>
      <trkpt lat="44.87357" lon="0.2245">
        <ele>156</ele>
        <time>2015-02-10T13:10:17Z</time>
      </trkpt>
      <trkpt lat="44.87357" lon="0.22452">
        <ele>159</ele>
        <time>2015-02-10T13:10:18Z</time>
      </trkpt>
      <trkpt lat="44.87357" lon="0.22453">
        <ele>157</ele>
        <time>2015-02-10T13:10:19Z</time>
      </trkpt>
      <trkpt lat="44.87358" lon="0.22455">
        <ele>158</ele>
        <time>2015-02-10T13:10:20Z</time>
      </trkpt>
      <trkpt lat="44.87358" lon="0.22456">
        <ele>160</ele>
        <time>2015-02-10T13:10:21Z</time>
      </trkpt>
      <trkpt lat="44.87359" lon="0.22458">
        <ele>160</ele>
        <time>2015-02-10T13:10:22Z</time>
      </trkpt>
      <trkpt lat="44.87359" lon="0.22459">
        <ele>158</ele>
        <time>2015-02-10T13:10:23Z</time>
      </trkpt>
      <trkpt lat="44.8736" lon="0.2246">
        <ele>159</ele>
        <time>2015-02-10T13:10:24Z</time>
      </trkpt>
      <trkpt lat="44.8736" lon="0.22461">
        <ele>157</ele>
        <time>2015-02-10T13:10:25Z</time>
      </trkpt>
      <trkpt lat="44.87361" lon="0.22463">
        <ele>157</ele>
        <time>2015-02-10T13:10:26Z</time>
      </trkpt>
      <trkpt lat="44.87361" lon="0.22464">
        <ele>159</ele>
        <time>2015-02-10T13:10:27Z</time>
      </trkpt>
      <trkpt lat="44.87361" lon="0.22465">
        <ele>160</ele>
        <time>2015-02-10T13:10:28Z</time>
      </trkpt>
      <trkpt lat="44.87362" lon="0.22467">
        <ele>159</ele>
        <time>2015-02-10T13:10:29Z</time>
      </trkpt>
      <trkpt lat="44.87363" lon="0.22469">
        <ele>158</ele>
        <time>2015-02-10T13:10:30Z</time>
      </trkpt>
      <trkpt lat="44.87364" lon="0.2247">
        <ele>160</ele>
        <time>2015-02-10T13:10:31Z</time>
      </trkpt>
      <trkpt lat="44.87365" lon="0.22471">
        <ele>161</ele>
        <time>2015-02-10T13:10:32Z</time>
      </trkpt>
      <trkpt lat="44.87366" lon="0.22472">
        <ele>164</ele>
        <time>2015-02-10T13:10:33Z</time>
      </trkpt>
      <trkpt lat="44.87367" lon="0.22473">
        <ele>164</ele>
        <time>2015-02-10T13:10:34Z</time>
      </trkpt>
      <trkpt lat="44.87368" lon="0.22474">
        <ele>163</ele>
        <time>2015-02-10T13:10:35Z</time>
      </trkpt>
      <trkpt lat="44.87369" lon="0.22475">
        <ele>165</ele>
        <time>2015-02-10T13:10:36Z</time>
      </trkpt>
      <trkpt lat="44.8737" lon="0.22478">
        <ele>160</ele>
        <time>2015-02-10T13:10:37Z</time>
      </trkpt>
      <trkpt lat="44.87371" lon="0.2248">
        <ele>160</ele>
        <time>2015-02-10T13:10:38Z</time>
      </trkpt>
      <trkpt lat="44.87372" lon="0.22482">
        <ele>161</ele>
        <time>2015-02-10T13:10:39Z</time>
      </trkpt>
      <trkpt lat="44.87373" lon="0.22483">
        <ele>167</ele>
        <time>2015-02-10T13:10:40Z</time>
      </trkpt>
      <trkpt lat="44.87373" lon="0.22483">
        <ele>168</ele>
        <time>2015-02-10T13:10:41Z</time>
      </trkpt>
      <trkpt lat="44.87373" lon="0.22482">
        <ele>164</ele>
        <time>2015-02-10T13:10:42Z</time>
      </trkpt>
      <trkpt lat="44.87372" lon="0.2248">
        <ele>161</ele>
        <time>2015-02-10T13:10:43Z</time>
      </trkpt>
      <trkpt lat="44.87371" lon="0.22478">
        <ele>162</ele>
        <time>2015-02-10T13:10:44Z</time>
      </trkpt>
      <trkpt lat="44.87371" lon="0.22477">
        <ele>165</ele>
        <time>2015-02-10T13:10:45Z</time>
      </trkpt>
      <trkpt lat="44.8737" lon="0.22476">
        <ele>165</ele>
        <time>2015-02-10T13:10:46Z</time>
      </trkpt>
      <trkpt lat="44.8737" lon="0.22474">
        <ele>165</ele>
        <time>2015-02-10T13:10:47Z</time>
      </trkpt>
      <trkpt lat="44.87368" lon="0.22472">
        <ele>165</ele>
        <time>2015-02-10T13:10:48Z</time>
      </trkpt>
      <trkpt lat="44.87368" lon="0.22471">
        <ele>167</ele>
        <time>2015-02-10T13:10:49Z</time>
      </trkpt>
      <trkpt lat="44.87367" lon="0.22469">
        <ele>168</ele>
        <time>2015-02-10T13:10:50Z</time>
      </trkpt>
      <trkpt lat="44.87367" lon="0.22468">
        <ele>169</ele>
        <time>2015-02-10T13:10:51Z</time>
      </trkpt>
      <trkpt lat="44.87366" lon="0.22467">
        <ele>166</ele>
        <time>2015-02-10T13:10:52Z</time>
      </trkpt>
      <trkpt lat="44.87366" lon="0.22466">
        <ele>167</ele>
        <time>2015-02-10T13:10:53Z</time>
      </trkpt>
      <trkpt lat="44.87365" lon="0.22465">
        <ele>165</ele>
        <time>2015-02-10T13:10:54Z</time>
      </trkpt>
      <trkpt lat="44.87364" lon="0.22463">
        <ele>164</ele>
        <time>2015-02-10T13:10:55Z</time>
      </trkpt>
      <trkpt lat="44.87364" lon="0.22462">
        <ele>166</ele>
        <time>2015-02-10T13:10:56Z</time>
      </trkpt>
      <trkpt lat="44.87363" lon="0.22461">
        <ele>165</ele>
        <time>2015-02-10T13:10:57Z</time>
      </trkpt>
      <trkpt lat="44.87362" lon="0.2246">
        <ele>163</ele>
        <time>2015-02-10T13:10:58Z</time>
      </trkpt>
      <trkpt lat="44.87362" lon="0.22459">
        <ele>164</ele>
        <time>2015-02-10T13:10:59Z</time>
      </trkpt>
      <trkpt lat="44.87361" lon="0.22458">
        <ele>166</ele>
        <time>2015-02-10T13:11:00Z</time>
      </trkpt>
      <trkpt lat="44.87361" lon="0.22458">
        <ele>165</ele>
        <time>2015-02-10T13:11:01Z</time>
      </trkpt>
      <trkpt lat="44.8736" lon="0.22458">
        <ele>166</ele>
        <time>2015-02-10T13:11:02Z</time>
      </trkpt>
      <trkpt lat="44.87359" lon="0.22458">
        <ele>167</ele>
        <time>2015-02-10T13:11:03Z</time>
      </trkpt>
      <trkpt lat="44.87359" lon="0.22458">
        <ele>159</ele>
        <time>2015-02-10T13:11:04Z</time>
      </trkpt>
      <trkpt lat="44.87358" lon="0.22459">
        <ele>159</ele>
        <time>2015-02-10T13:11:05Z</time>
      </trkpt>
      <trkpt lat="44.87358" lon="0.22459">
        <ele>162</ele>
        <time>2015-02-10T13:11:06Z</time>
      </trkpt>
      <trkpt lat="44.87358" lon="0.22459">
        <ele>164</ele>
        <time>2015-02-10T13:11:07Z</time>
      </trkpt>
      <trkpt lat="44.87358" lon="0.2246">
        <ele>167</ele>
        <time>2015-02-10T13:11:08Z</time>
      </trkpt>
      <trkpt lat="44.87358" lon="0.22461">
        <ele>168</ele>
        <time>2015-02-10T13:11:09Z</time>
      </trkpt>
      <trkpt lat="44.87358" lon="0.22462">
        <ele>168</ele>
        <time>2015-02-10T13:11:10Z</time>
      </trkpt>
      <trkpt lat="44.87359" lon="0.22463">
        <ele>167</ele>
        <time>2015-02-10T13:11:11Z</time>
      </trkpt>
      <trkpt lat="44.87359" lon="0.22464">
        <ele>165</ele>
        <time>2015-02-10T13:11:12Z</time>
      </trkpt>
      <trkpt lat="44.87359" lon="0.22465">
        <ele>161</ele>
        <time>2015-02-10T13:11:13Z</time>
      </trkpt>
      <trkpt lat="44.87359" lon="0.22466">
        <ele>160</ele>
        <time>2015-02-10T13:11:14Z</time>
      </trkpt>
      <trkpt lat="44.87358" lon="0.22467">
        <ele>161</ele>
        <time>2015-02-10T13:11:15Z</time>
      </trkpt>
      <trkpt lat="44.87358" lon="0.22467">
        <ele>162</ele>
        <time>2015-02-10T13:11:16Z</time>
      </trkpt>
      <trkpt lat="44.87359" lon="0.22467">
        <ele>160</ele>
        <time>2015-02-10T13:11:17Z</time>
      </trkpt>
      <trkpt lat="44.87359" lon="0.22468">
        <ele>159</ele>
        <time>2015-02-10T13:11:18Z</time>
      </trkpt>
      <trkpt lat="44.87359" lon="0.22468">
        <ele>159</ele>
        <time>2015-02-10T13:11:19Z</time>
      </trkpt>
      <trkpt lat="44.87359" lon="0.22468">
        <ele>159</ele>
        <time>2015-02-10T13:11:20Z</time>
      </trkpt>
      <trkpt lat="44.87359" lon="0.22468">
        <ele>161</ele>
        <time>2015-02-10T13:11:21Z</time>
      </trkpt>
      <trkpt lat="44.87359" lon="0.22468">
        <ele>162</ele>
        <time>2015-02-10T13:11:22Z</time>
      </trkpt>
      <trkpt lat="44.87359" lon="0.22468">
        <ele>167</ele>
        <time>2015-02-10T13:11:23Z</time>
      </trkpt>
      <trkpt lat="44.87359" lon="0.22469">
        <ele>170</ele>
        <time>2015-02-10T13:11:24Z</time>
      </trkpt>
      <trkpt lat="44.87359" lon="0.22469">
        <ele>173</ele>
        <time>2015-02-10T13:11:25Z</time>
      </trkpt>
      <trkpt lat="44.87359" lon="0.22469">
        <ele>170</ele>
        <time>2015-02-10T13:11:26Z</time>
      </trkpt>
      <trkpt lat="44.87359" lon="0.2247">
        <ele>164</ele>
        <time>2015-02-10T13:11:27Z</time>
      </trkpt>
      <trkpt lat="44.87359" lon="0.2247">
        <ele>166</ele>
        <time>2015-02-10T13:11:28Z</time>
      </trkpt>
      <trkpt lat="44.87359" lon="0.22472">
        <ele>167</ele>
        <time>2015-02-10T13:11:29Z</time>
      </trkpt>
      <trkpt lat="44.87359" lon="0.22473">
        <ele>163</ele>
        <time>2015-02-10T13:11:30Z</time>
      </trkpt>
      <trkpt lat="44.87359" lon="0.22474">
        <ele>164</ele>
        <time>2015-02-10T13:11:31Z</time>
      </trkpt>
      <trkpt lat="44.87359" lon="0.22475">
        <ele>164</ele>
        <time>2015-02-10T13:11:32Z</time>
      </trkpt>
      <trkpt lat="44.87359" lon="0.22475">
        <ele>161</ele>
        <time>2015-02-10T13:11:33Z</time>
      </trkpt>
      <trkpt lat="44.87359" lon="0.22477">
        <ele>161</ele>
        <time>2015-02-10T13:11:34Z</time>
      </trkpt>
      <trkpt lat="44.87359" lon="0.22478">
        <ele>158</ele>
        <time>2015-02-10T13:11:35Z</time>
      </trkpt>
      <trkpt lat="44.8736" lon="0.22478">
        <ele>160</ele>
        <time>2015-02-10T13:11:36Z</time>
      </trkpt>
      <trkpt lat="44.87361" lon="0.22479">
        <ele>160</ele>
        <time>2015-02-10T13:11:37Z</time>
      </trkpt>
      <trkpt lat="44.87362" lon="0.22481">
        <ele>158</ele>
        <time>2015-02-10T13:11:38Z</time>
      </trkpt>
      <trkpt lat="44.87363" lon="0.22482">
        <ele>160</ele>
        <time>2015-02-10T13:11:39Z</time>
      </trkpt>
      <trkpt lat="44.87363" lon="0.22483">
        <ele>161</ele>
        <time>2015-02-10T13:11:40Z</time>
      </trkpt>
      <trkpt lat="44.87364" lon="0.22484">
        <ele>161</ele>
        <time>2015-02-10T13:11:41Z</time>
      </trkpt>
      <trkpt lat="44.87365" lon="0.22485">
        <ele>161</ele>
        <time>2015-02-10T13:11:42Z</time>
      </trkpt>
      <trkpt lat="44.87366" lon="0.22486">
        <ele>161</ele>
        <time>2015-02-10T13:11:43Z</time>
      </trkpt>
      <trkpt lat="44.87366" lon="0.22487">
        <ele>162</ele>
        <time>2015-02-10T13:11:44Z</time>
      </trkpt>
      <trkpt lat="44.87367" lon="0.22487">
        <ele>168</ele>
        <time>2015-02-10T13:11:45Z</time>
      </trkpt>
      <trkpt lat="44.87367" lon="0.22488">
        <ele>164</ele>
        <time>2015-02-10T13:11:46Z</time>
      </trkpt>
      <trkpt lat="44.87368" lon="0.22488">
        <ele>165</ele>
        <time>2015-02-10T13:11:47Z</time>
      </trkpt>
      <trkpt lat="44.87368" lon="0.22489">
        <ele>165</ele>
        <time>2015-02-10T13:11:48Z</time>
      </trkpt>
      <trkpt lat="44.87369" lon="0.2249">
        <ele>166</ele>
        <time>2015-02-10T13:11:49Z</time>
      </trkpt>
      <trkpt lat="44.87369" lon="0.22491">
        <ele>167</ele>
        <time>2015-02-10T13:11:50Z</time>
      </trkpt>
      <trkpt lat="44.87369" lon="0.22491">
        <ele>169</ele>
        <time>2015-02-10T13:11:51Z</time>
      </trkpt>
      <trkpt lat="44.8737" lon="0.22492">
        <ele>167</ele>
        <time>2015-02-10T13:11:52Z</time>
      </trkpt>
      <trkpt lat="44.8737" lon="0.22493">
        <ele>164</ele>
        <time>2015-02-10T13:11:53Z</time>
      </trkpt>
      <trkpt lat="44.8737" lon="0.22493">
        <ele>159</ele>
        <time>2015-02-10T13:11:54Z</time>
      </trkpt>
      <trkpt lat="44.87371" lon="0.22493">
        <ele>162</ele>
        <time>2015-02-10T13:11:55Z</time>
      </trkpt>
      <trkpt lat="44.87371" lon="0.22495">
        <ele>163</ele>
        <time>2015-02-10T13:11:56Z</time>
      </trkpt>
      <trkpt lat="44.87372" lon="0.22496">
        <ele>163</ele>
        <time>2015-02-10T13:11:57Z</time>
      </trkpt>
      <trkpt lat="44.87372" lon="0.22498">
        <ele>162</ele>
        <time>2015-02-10T13:11:58Z</time>
      </trkpt>
      <trkpt lat="44.87373" lon="0.22499">
        <ele>160</ele>
        <time>2015-02-10T13:11:59Z</time>
      </trkpt>
      <trkpt lat="44.87374" lon="0.22502">
        <ele>161</ele>
        <time>2015-02-10T13:12:00Z</time>
      </trkpt>
      <trkpt lat="44.87374" lon="0.22503">
        <ele>160</ele>
        <time>2015-02-10T13:12:01Z</time>
      </trkpt>
      <trkpt lat="44.87375" lon="0.22504">
        <ele>160</ele>
        <time>2015-02-10T13:12:02Z</time>
      </trkpt>
      <trkpt lat="44.87375" lon="0.22505">
        <ele>161</ele>
        <time>2015-02-10T13:12:03Z</time>
      </trkpt>
      <trkpt lat="44.87376" lon="0.22507">
        <ele>161</ele>
        <time>2015-02-10T13:12:04Z</time>
      </trkpt>
      <trkpt lat="44.87376" lon="0.22507">
        <ele>155</ele>
        <time>2015-02-10T13:12:05Z</time>
      </trkpt>
      <trkpt lat="44.87376" lon="0.22508">
        <ele>155</ele>
        <time>2015-02-10T13:12:06Z</time>
      </trkpt>
      <trkpt lat="44.87376" lon="0.2251">
        <ele>152</ele>
        <time>2015-02-10T13:12:07Z</time>
      </trkpt>
      <trkpt lat="44.87377" lon="0.22512">
        <ele>150</ele>
        <time>2015-02-10T13:12:08Z</time>
      </trkpt>
      <trkpt lat="44.87377" lon="0.22514">
        <ele>151</ele>
        <time>2015-02-10T13:12:09Z</time>
      </trkpt>
      <trkpt lat="44.87377" lon="0.22516">
        <ele>150</ele>
        <time>2015-02-10T13:12:10Z</time>
      </trkpt>
      <trkpt lat="44.87378" lon="0.22517">
        <ele>149</ele>
        <time>2015-02-10T13:12:11Z</time>
      </trkpt>
      <trkpt lat="44.87378" lon="0.22519">
        <ele>152</ele>
        <time>2015-02-10T13:12:12Z</time>
      </trkpt>
      <trkpt lat="44.87379" lon="0.22521">
        <ele>150</ele>
        <time>2015-02-10T13:12:13Z</time>
      </trkpt>
      <trkpt lat="44.87379" lon="0.22522">
        <ele>153</ele>
        <time>2015-02-10T13:12:14Z</time>
      </trkpt>
      <trkpt lat="44.87378" lon="0.22523">
        <ele>155</ele>
        <time>2015-02-10T13:12:15Z</time>
      </trkpt>
      <trkpt lat="44.87378" lon="0.22524">
        <ele>156</ele>
        <time>2015-02-10T13:12:16Z</time>
      </trkpt>
      <trkpt lat="44.87378" lon="0.22525">
        <ele>155</ele>
        <time>2015-02-10T13:12:17Z</time>
      </trkpt>
      <trkpt lat="44.87379" lon="0.22526">
        <ele>152</ele>
        <time>2015-02-10T13:12:18Z</time>
      </trkpt>
      <trkpt lat="44.87379" lon="0.22527">
        <ele>152</ele>
        <time>2015-02-10T13:12:19Z</time>
      </trkpt>
      <trkpt lat="44.87379" lon="0.22529">
        <ele>150</ele>
        <time>2015-02-10T13:12:20Z</time>
      </trkpt>
      <trkpt lat="44.87379" lon="0.2253">
        <ele>146</ele>
        <time>2015-02-10T13:12:21Z</time>
      </trkpt>
      <trkpt lat="44.8738" lon="0.22531">
        <ele>147</ele>
        <time>2015-02-10T13:12:22Z</time>
      </trkpt>
      <trkpt lat="44.8738" lon="0.22532">
        <ele>149</ele>
        <time>2015-02-10T13:12:23Z</time>
      </trkpt>
      <trkpt lat="44.87381" lon="0.22533">
        <ele>147</ele>
        <time>2015-02-10T13:12:24Z</time>
      </trkpt>
      <trkpt lat="44.87381" lon="0.22535">
        <ele>144</ele>
        <time>2015-02-10T13:12:25Z</time>
      </trkpt>
      <trkpt lat="44.87381" lon="0.22537">
        <ele>141</ele>
        <time>2015-02-10T13:12:26Z</time>
      </trkpt>
      <trkpt lat="44.8738" lon="0.22539">
        <ele>143</ele>
        <time>2015-02-10T13:12:27Z</time>
      </trkpt>
      <trkpt lat="44.8738" lon="0.2254">
        <ele>144</ele>
        <time>2015-02-10T13:12:28Z</time>
      </trkpt>
      <trkpt lat="44.8738" lon="0.22541">
        <ele>140</ele>
        <time>2015-02-10T13:12:29Z</time>
      </trkpt>
      <trkpt lat="44.8738" lon="0.22542">
        <ele>142</ele>
        <time>2015-02-10T13:12:30Z</time>
      </trkpt>
      <trkpt lat="44.87381" lon="0.22543">
        <ele>146</ele>
        <time>2015-02-10T13:12:31Z</time>
      </trkpt>
      <trkpt lat="44.87381" lon="0.22544">
        <ele>148</ele>
        <time>2015-02-10T13:12:32Z</time>
      </trkpt>
      <trkpt lat="44.87381" lon="0.22545">
        <ele>147</ele>
        <time>2015-02-10T13:12:33Z</time>
      </trkpt>
      <trkpt lat="44.87382" lon="0.22546">
        <ele>147</ele>
        <time>2015-02-10T13:12:34Z</time>
      </trkpt>
      <trkpt lat="44.87383" lon="0.22546">
        <ele>146</ele>
        <time>2015-02-10T13:12:35Z</time>
      </trkpt>
      <trkpt lat="44.87383" lon="0.22547">
        <ele>149</ele>
        <time>2015-02-10T13:12:36Z</time>
      </trkpt>
      <trkpt lat="44.87383" lon="0.22547">
        <ele>148</ele>
        <time>2015-02-10T13:12:37Z</time>
      </trkpt>
      <trkpt lat="44.87384" lon="0.22547">
        <ele>148</ele>
        <time>2015-02-10T13:12:38Z</time>
      </trkpt>
      <trkpt lat="44.87384" lon="0.22548">
        <ele>145</ele>
        <time>2015-02-10T13:12:39Z</time>
      </trkpt>
      <trkpt lat="44.87385" lon="0.22549">
        <ele>145</ele>
        <time>2015-02-10T13:12:40Z</time>
      </trkpt>
      <trkpt lat="44.87386" lon="0.22551">
        <ele>145</ele>
        <time>2015-02-10T13:12:41Z</time>
      </trkpt>
      <trkpt lat="44.87387" lon="0.22552">
        <ele>141</ele>
        <time>2015-02-10T13:12:42Z</time>
      </trkpt>
      <trkpt lat="44.87387" lon="0.22554">
        <ele>138</ele>
        <time>2015-02-10T13:12:43Z</time>
      </trkpt>
      <trkpt lat="44.87388" lon="0.22555">
        <ele>142</ele>
        <time>2015-02-10T13:12:44Z</time>
      </trkpt>
      <trkpt lat="44.87388" lon="0.22557">
        <ele>142</ele>
        <time>2015-02-10T13:12:45Z</time>
      </trkpt>
      <trkpt lat="44.87389" lon="0.22558">
        <ele>142</ele>
        <time>2015-02-10T13:12:46Z</time>
      </trkpt>
      <trkpt lat="44.87389" lon="0.22559">
        <ele>144</ele>
        <time>2015-02-10T13:12:47Z</time>
      </trkpt>
      <trkpt lat="44.87389" lon="0.2256">
        <ele>142</ele>
        <time>2015-02-10T13:12:48Z</time>
      </trkpt>
      <trkpt lat="44.87389" lon="0.22561">
        <ele>139</ele>
        <time>2015-02-10T13:12:49Z</time>
      </trkpt>
      <trkpt lat="44.87389" lon="0.22562">
        <ele>139</ele>
        <time>2015-02-10T13:12:50Z</time>
      </trkpt>
      <trkpt lat="44.87389" lon="0.22565">
        <ele>140</ele>
        <time>2015-02-10T13:12:51Z</time>
      </trkpt>
      <trkpt lat="44.87388" lon="0.22566">
        <ele>140</ele>
        <time>2015-02-10T13:12:52Z</time>
      </trkpt>
      <trkpt lat="44.87389" lon="0.22567">
        <ele>140</ele>
        <time>2015-02-10T13:12:53Z</time>
      </trkpt>
      <trkpt lat="44.8739" lon="0.22567">
        <ele>147</ele>
        <time>2015-02-10T13:12:54Z</time>
      </trkpt>
      <trkpt lat="44.8739" lon="0.22568">
        <ele>144</ele>
        <time>2015-02-10T13:12:55Z</time>
      </trkpt>
      <trkpt lat="44.87391" lon="0.22568">
        <ele>141</ele>
        <time>2015-02-10T13:12:56Z</time>
      </trkpt>
      <trkpt lat="44.87391" lon="0.22569">
        <ele>142</ele>
        <time>2015-02-10T13:12:57Z</time>
      </trkpt>
      <trkpt lat="44.87392" lon="0.2257">
        <ele>145</ele>
        <time>2015-02-10T13:12:58Z</time>
      </trkpt>
      <trkpt lat="44.87393" lon="0.22571">
        <ele>149</ele>
        <time>2015-02-10T13:12:59Z</time>
      </trkpt>
      <trkpt lat="44.87393" lon="0.22571">
        <ele>150</ele>
        <time>2015-02-10T13:13:00Z</time>
      </trkpt>
      <trkpt lat="44.87393" lon="0.22572">
        <ele>148</ele>
        <time>2015-02-10T13:13:01Z</time>
      </trkpt>
      <trkpt lat="44.87394" lon="0.22573">
        <ele>144</ele>
        <time>2015-02-10T13:13:02Z</time>
      </trkpt>
      <trkpt lat="44.87394" lon="0.22574">
        <ele>145</ele>
        <time>2015-02-10T13:13:03Z</time>
      </trkpt>
      <trkpt lat="44.87394" lon="0.22575">
        <ele>143</ele>
        <time>2015-02-10T13:13:04Z</time>
      </trkpt>
      <trkpt lat="44.87396" lon="0.22575">
        <ele>140</ele>
        <time>2015-02-10T13:13:05Z</time>
      </trkpt>
      <trkpt lat="44.87396" lon="0.22577">
        <ele>144</ele>
        <time>2015-02-10T13:13:06Z</time>
      </trkpt>
      <trkpt lat="44.87396" lon="0.22577">
        <ele>146</ele>
        <time>2015-02-10T13:13:07Z</time>
      </trkpt>
      <trkpt lat="44.87396" lon="0.22577">
        <ele>139</ele>
        <time>2015-02-10T13:13:08Z</time>
      </trkpt>
      <trkpt lat="44.87396" lon="0.22577">
        <ele>140</ele>
        <time>2015-02-10T13:13:09Z</time>
      </trkpt>
      <trkpt lat="44.87396" lon="0.22577">
        <ele>136</ele>
        <time>2015-02-10T13:13:10Z</time>
      </trkpt>
      <trkpt lat="44.87396" lon="0.22577">
        <ele>137</ele>
        <time>2015-02-10T13:13:11Z</time>
      </trkpt>
      <trkpt lat="44.87396" lon="0.22577">
        <ele>137</ele>
        <time>2015-02-10T13:13:12Z</time>
      </trkpt>
      <trkpt lat="44.87396" lon="0.22577">
        <ele>141</ele>
        <time>2015-02-10T13:13:13Z</time>
      </trkpt>
      <trkpt lat="44.87396" lon="0.22577">
        <ele>142</ele>
        <time>2015-02-10T13:13:14Z</time>
      </trkpt>
      <trkpt lat="44.87396" lon="0.22577">
        <ele>142</ele>
        <time>2015-02-10T13:13:15Z</time>
      </trkpt>
      <trkpt lat="44.87396" lon="0.22578">
        <ele>139</ele>
        <time>2015-02-10T13:13:16Z</time>
      </trkpt>
      <trkpt lat="44.87396" lon="0.22578">
        <ele>135</ele>
        <time>2015-02-10T13:13:17Z</time>
      </trkpt>
      <trkpt lat="44.87396" lon="0.22578">
        <ele>130</ele>
        <time>2015-02-10T13:13:18Z</time>
      </trkpt>
      <trkpt lat="44.87396" lon="0.22578">
        <ele>131</ele>
        <time>2015-02-10T13:13:19Z</time>
      </trkpt>
      <trkpt lat="44.87396" lon="0.22578">
        <ele>133</ele>
        <time>2015-02-10T13:13:20Z</time>
      </trkpt>
      <trkpt lat="44.87396" lon="0.22579">
        <ele>137</ele>
        <time>2015-02-10T13:13:21Z</time>
      </trkpt>
      <trkpt lat="44.87396" lon="0.2258">
        <ele>136</ele>
        <time>2015-02-10T13:13:22Z</time>
      </trkpt>
      <trkpt lat="44.87396" lon="0.22581">
        <ele>135</ele>
        <time>2015-02-10T13:13:23Z</time>
      </trkpt>
      <trkpt lat="44.87396" lon="0.22582">
        <ele>135</ele>
        <time>2015-02-10T13:13:24Z</time>
      </trkpt>
      <trkpt lat="44.87396" lon="0.22583">
        <ele>140</ele>
        <time>2015-02-10T13:13:25Z</time>
      </trkpt>
      <trkpt lat="44.87396" lon="0.22584">
        <ele>140</ele>
        <time>2015-02-10T13:13:26Z</time>
      </trkpt>
      <trkpt lat="44.87396" lon="0.22586">
        <ele>142</ele>
        <time>2015-02-10T13:13:27Z</time>
      </trkpt>
      <trkpt lat="44.87397" lon="0.22587">
        <ele>141</ele>
        <time>2015-02-10T13:13:28Z</time>
      </trkpt>
      <trkpt lat="44.87397" lon="0.22588">
        <ele>140</ele>
        <time>2015-02-10T13:13:29Z</time>
      </trkpt>
      <trkpt lat="44.87397" lon="0.22589">
        <ele>139</ele>
        <time>2015-02-10T13:13:30Z</time>
      </trkpt>
      <trkpt lat="44.87397" lon="0.2259">
        <ele>139</ele>
        <time>2015-02-10T13:13:31Z</time>
      </trkpt>
      <trkpt lat="44.87397" lon="0.22591">
        <ele>137</ele>
        <time>2015-02-10T13:13:32Z</time>
      </trkpt>
      <trkpt lat="44.87397" lon="0.22592">
        <ele>137</ele>
        <time>2015-02-10T13:13:33Z</time>
      </trkpt>
      <trkpt lat="44.87397" lon="0.22593">
        <ele>139</ele>
        <time>2015-02-10T13:13:34Z</time>
      </trkpt>
      <trkpt lat="44.87397" lon="0.22593">
        <ele>140</ele>
        <time>2015-02-10T13:13:35Z</time>
      </trkpt>
      <trkpt lat="44.87397" lon="0.22594">
        <ele>138</ele>
        <time>2015-02-10T13:13:36Z</time>
      </trkpt>
      <trkpt lat="44.87398" lon="0.22594">
        <ele>143</ele>
        <time>2015-02-10T13:13:37Z</time>
      </trkpt>
      <trkpt lat="44.87399" lon="0.22595">
        <ele>144</ele>
        <time>2015-02-10T13:13:38Z</time>
      </trkpt>
      <trkpt lat="44.87399" lon="0.22596">
        <ele>142</ele>
        <time>2015-02-10T13:13:39Z</time>
      </trkpt>
      <trkpt lat="44.87399" lon="0.22596">
        <ele>147</ele>
        <time>2015-02-10T13:13:40Z</time>
      </trkpt>
      <trkpt lat="44.874" lon="0.22597">
        <ele>147</ele>
        <time>2015-02-10T13:13:41Z</time>
      </trkpt>
      <trkpt lat="44.874" lon="0.22598">
        <ele>146</ele>
        <time>2015-02-10T13:13:42Z</time>
      </trkpt>
      <trkpt lat="44.874" lon="0.22598">
        <ele>146</ele>
        <time>2015-02-10T13:13:43Z</time>
      </trkpt>
      <trkpt lat="44.874" lon="0.22599">
        <ele>146</ele>
        <time>2015-02-10T13:13:44Z</time>
      </trkpt>
      <trkpt lat="44.874" lon="0.22599">
        <ele>148</ele>
        <time>2015-02-10T13:13:45Z</time>
      </trkpt>
      <trkpt lat="44.874" lon="0.22599">
        <ele>145</ele>
        <time>2015-02-10T13:13:46Z</time>
      </trkpt>
      <trkpt lat="44.87401" lon="0.226">
        <ele>144</ele>
        <time>2015-02-10T13:13:47Z</time>
      </trkpt>
      <trkpt lat="44.87401" lon="0.22601">
        <ele>144</ele>
        <time>2015-02-10T13:13:48Z</time>
      </trkpt>
      <trkpt lat="44.87401" lon="0.22601">
        <ele>145</ele>
        <time>2015-02-10T13:13:49Z</time>
      </trkpt>
      <trkpt lat="44.87401" lon="0.22601">
        <ele>147</ele>
        <time>2015-02-10T13:13:50Z</time>
      </trkpt>
      <trkpt lat="44.87402" lon="0.22602">
        <ele>142</ele>
        <time>2015-02-10T13:13:51Z</time>
      </trkpt>
      <trkpt lat="44.87402" lon="0.22603">
        <ele>142</ele>
        <time>2015-02-10T13:13:52Z</time>
      </trkpt>
      <trkpt lat="44.87403" lon="0.22603">
        <ele>141</ele>
        <time>2015-02-10T13:13:53Z</time>
      </trkpt>
      <trkpt lat="44.87404" lon="0.22604">
        <ele>139</ele>
        <time>2015-02-10T13:13:54Z</time>
      </trkpt>
      <trkpt lat="44.87404" lon="0.22605">
        <ele>140</ele>
        <time>2015-02-10T13:13:55Z</time>
      </trkpt>
      <trkpt lat="44.87404" lon="0.22607">
        <ele>139</ele>
        <time>2015-02-10T13:13:56Z</time>
      </trkpt>
      <trkpt lat="44.87405" lon="0.22608">
        <ele>138</ele>
        <time>2015-02-10T13:13:57Z</time>
      </trkpt>
      <trkpt lat="44.87406" lon="0.22608">
        <ele>140</ele>
        <time>2015-02-10T13:13:58Z</time>
      </trkpt>
      <trkpt lat="44.87406" lon="0.22609">
        <ele>143</ele>
        <time>2015-02-10T13:13:59Z</time>
      </trkpt>
      <trkpt lat="44.87407" lon="0.22609">
        <ele>144</ele>
        <time>2015-02-10T13:14:00Z</time>
      </trkpt>
      <trkpt lat="44.87407" lon="0.2261">
        <ele>143</ele>
        <time>2015-02-10T13:14:01Z</time>
      </trkpt>
      <trkpt lat="44.87408" lon="0.22612">
        <ele>141</ele>
        <time>2015-02-10T13:14:02Z</time>
      </trkpt>
      <trkpt lat="44.87408" lon="0.22612">
        <ele>141</ele>
        <time>2015-02-10T13:14:03Z</time>
      </trkpt>
      <trkpt lat="44.87408" lon="0.22612">
        <ele>143</ele>
        <time>2015-02-10T13:14:04Z</time>
      </trkpt>
      <trkpt lat="44.87408" lon="0.22612">
        <ele>146</ele>
        <time>2015-02-10T13:14:05Z</time>
      </trkpt>
      <trkpt lat="44.87408" lon="0.22613">
        <ele>152</ele>
        <time>2015-02-10T13:14:06Z</time>
      </trkpt>
      <trkpt lat="44.87408" lon="0.22613">
        <ele>152</ele>
        <time>2015-02-10T13:14:07Z</time>
      </trkpt>
      <trkpt lat="44.87409" lon="0.22614">
        <ele>150</ele>
        <time>2015-02-10T13:14:08Z</time>
      </trkpt>
      <trkpt lat="44.87409" lon="0.22615">
        <ele>149</ele>
        <time>2015-02-10T13:14:09Z</time>
      </trkpt>
      <trkpt lat="44.87408" lon="0.22618">
        <ele>148</ele>
        <time>2015-02-10T13:14:10Z</time>
      </trkpt>
      <trkpt lat="44.87408" lon="0.22619">
        <ele>147</ele>
        <time>2015-02-10T13:14:11Z</time>
      </trkpt>
      <trkpt lat="44.87409" lon="0.2262">
        <ele>146</ele>
        <time>2015-02-10T13:14:12Z</time>
      </trkpt>
      <trkpt lat="44.8741" lon="0.22621">
        <ele>145</ele>
        <time>2015-02-10T13:14:13Z</time>
      </trkpt>
      <trkpt lat="44.87411" lon="0.22622">
        <ele>144</ele>
        <time>2015-02-10T13:14:14Z</time>
      </trkpt>
      <trkpt lat="44.87412" lon="0.22623">
        <ele>143</ele>
        <time>2015-02-10T13:14:15Z</time>
      </trkpt>
      <trkpt lat="44.87413" lon="0.22623">
        <ele>140</ele>
        <time>2015-02-10T13:14:16Z</time>
      </trkpt>
      <trkpt lat="44.87413" lon="0.22623">
        <ele>138</ele>
        <time>2015-02-10T13:14:17Z</time>
      </trkpt>
      <trkpt lat="44.87415" lon="0.22623">
        <ele>143</ele>
        <time>2015-02-10T13:14:18Z</time>
      </trkpt>
      <trkpt lat="44.87416" lon="0.22624">
        <ele>146</ele>
        <time>2015-02-10T13:14:19Z</time>
      </trkpt>
      <trkpt lat="44.87417" lon="0.22624">
        <ele>144</ele>
        <time>2015-02-10T13:14:20Z</time>
      </trkpt>
      <trkpt lat="44.87417" lon="0.22625">
        <ele>139</ele>
        <time>2015-02-10T13:14:21Z</time>
      </trkpt>
      <trkpt lat="44.87418" lon="0.22625">
        <ele>142</ele>
        <time>2015-02-10T13:14:22Z</time>
      </trkpt>
      <trkpt lat="44.87419" lon="0.22626">
        <ele>144</ele>
        <time>2015-02-10T13:14:23Z</time>
      </trkpt>
      <trkpt lat="44.8742" lon="0.22626">
        <ele>145</ele>
        <time>2015-02-10T13:14:24Z</time>
      </trkpt>
      <trkpt lat="44.87421" lon="0.22626">
        <ele>146</ele>
        <time>2015-02-10T13:14:25Z</time>
      </trkpt>
      <trkpt lat="44.87421" lon="0.22627">
        <ele>143</ele>
        <time>2015-02-10T13:14:26Z</time>
      </trkpt>
      <trkpt lat="44.87422" lon="0.22627">
        <ele>143</ele>
        <time>2015-02-10T13:14:27Z</time>
      </trkpt>
      <trkpt lat="44.87423" lon="0.22627">
        <ele>144</ele>
        <time>2015-02-10T13:14:28Z</time>
      </trkpt>
      <trkpt lat="44.87423" lon="0.22627">
        <ele>142</ele>
        <time>2015-02-10T13:14:29Z</time>
      </trkpt>
      <trkpt lat="44.87423" lon="0.22628">
        <ele>145</ele>
        <time>2015-02-10T13:14:30Z</time>
      </trkpt>
      <trkpt lat="44.87424" lon="0.22628">
        <ele>140</ele>
        <time>2015-02-10T13:14:31Z</time>
      </trkpt>
      <trkpt lat="44.87425" lon="0.22627">
        <ele>137</ele>
        <time>2015-02-10T13:14:32Z</time>
      </trkpt>
      <trkpt lat="44.87426" lon="0.22628">
        <ele>138</ele>
        <time>2015-02-10T13:14:33Z</time>
      </trkpt>
      <trkpt lat="44.87426" lon="0.22628">
        <ele>138</ele>
        <time>2015-02-10T13:14:34Z</time>
      </trkpt>
      <trkpt lat="44.87426" lon="0.22628">
        <ele>142</ele>
        <time>2015-02-10T13:14:35Z</time>
      </trkpt>
      <trkpt lat="44.87426" lon="0.22628">
        <ele>142</ele>
        <time>2015-02-10T13:14:36Z</time>
      </trkpt>
      <trkpt lat="44.87426" lon="0.22628">
        <ele>143</ele>
        <time>2015-02-10T13:14:37Z</time>
      </trkpt>
      <trkpt lat="44.87427" lon="0.22628">
        <ele>145</ele>
        <time>2015-02-10T13:14:38Z</time>
      </trkpt>
      <trkpt lat="44.87427" lon="0.22629">
        <ele>144</ele>
        <time>2015-02-10T13:14:39Z</time>
      </trkpt>
      <trkpt lat="44.87428" lon="0.2263">
        <ele>144</ele>
        <time>2015-02-10T13:14:40Z</time>
      </trkpt>
      <trkpt lat="44.87428" lon="0.22631">
        <ele>145</ele>
        <time>2015-02-10T13:14:41Z</time>
      </trkpt>
      <trkpt lat="44.87429" lon="0.22631">
        <ele>140</ele>
        <time>2015-02-10T13:14:42Z</time>
      </trkpt>
      <trkpt lat="44.87429" lon="0.22631">
        <ele>139</ele>
        <time>2015-02-10T13:14:43Z</time>
      </trkpt>
      <trkpt lat="44.8743" lon="0.22632">
        <ele>142</ele>
        <time>2015-02-10T13:14:44Z</time>
      </trkpt>
      <trkpt lat="44.8743" lon="0.22632">
        <ele>135</ele>
        <time>2015-02-10T13:14:45Z</time>
      </trkpt>
      <trkpt lat="44.87431" lon="0.22633">
        <ele>138</ele>
        <time>2015-02-10T13:14:46Z</time>
      </trkpt>
      <trkpt lat="44.87431" lon="0.22634">
        <ele>137</ele>
        <time>2015-02-10T13:14:47Z</time>
      </trkpt>
      <trkpt lat="44.87432" lon="0.22635">
        <ele>142</ele>
        <time>2015-02-10T13:14:48Z</time>
      </trkpt>
      <trkpt lat="44.87432" lon="0.22635">
        <ele>139</ele>
        <time>2015-02-10T13:14:49Z</time>
      </trkpt>
      <trkpt lat="44.87433" lon="0.22635">
        <ele>138</ele>
        <time>2015-02-10T13:14:50Z</time>
      </trkpt>
      <trkpt lat="44.87434" lon="0.22637">
        <ele>138</ele>
        <time>2015-02-10T13:14:51Z</time>
      </trkpt>
      <trkpt lat="44.87434" lon="0.22638">
        <ele>140</ele>
        <time>2015-02-10T13:14:52Z</time>
      </trkpt>
      <trkpt lat="44.87434" lon="0.22638">
        <ele>144</ele>
        <time>2015-02-10T13:14:53Z</time>
      </trkpt>
      <trkpt lat="44.87435" lon="0.22639">
        <ele>140</ele>
        <time>2015-02-10T13:14:54Z</time>
      </trkpt>
      <trkpt lat="44.87435" lon="0.22639">
        <ele>144</ele>
        <time>2015-02-10T13:14:55Z</time>
      </trkpt>
      <trkpt lat="44.87435" lon="0.2264">
        <ele>142</ele>
        <time>2015-02-10T13:14:56Z</time>
      </trkpt>
      <trkpt lat="44.87435" lon="0.2264">
        <ele>141</ele>
        <time>2015-02-10T13:14:57Z</time>
      </trkpt>
      <trkpt lat="44.87435" lon="0.22641">
        <ele>140</ele>
        <time>2015-02-10T13:14:58Z</time>
      </trkpt>
      <trkpt lat="44.87435" lon="0.22641">
        <ele>143</ele>
        <time>2015-02-10T13:14:59Z</time>
      </trkpt>
      <trkpt lat="44.87435" lon="0.22641">
        <ele>142</ele>
        <time>2015-02-10T13:15:00Z</time>
      </trkpt>
      <trkpt lat="44.87436" lon="0.22641">
        <ele>143</ele>
        <time>2015-02-10T13:15:01Z</time>
      </trkpt>
      <trkpt lat="44.87436" lon="0.22641">
        <ele>144</ele>
        <time>2015-02-10T13:15:02Z</time>
      </trkpt>
      <trkpt lat="44.87437" lon="0.22641">
        <ele>144</ele>
        <time>2015-02-10T13:15:03Z</time>
      </trkpt>
      <trkpt lat="44.87438" lon="0.22642">
        <ele>144</ele>
        <time>2015-02-10T13:15:04Z</time>
      </trkpt>
      <trkpt lat="44.87438" lon="0.22643">
        <ele>146</ele>
        <time>2015-02-10T13:15:05Z</time>
      </trkpt>
      <trkpt lat="44.87439" lon="0.22644">
        <ele>148</ele>
        <time>2015-02-10T13:15:06Z</time>
      </trkpt>
      <trkpt lat="44.87439" lon="0.22644">
        <ele>147</ele>
        <time>2015-02-10T13:15:07Z</time>
      </trkpt>
      <trkpt lat="44.8744" lon="0.22644">
        <ele>144</ele>
        <time>2015-02-10T13:15:08Z</time>
      </trkpt>
      <trkpt lat="44.87441" lon="0.22645">
        <ele>143</ele>
        <time>2015-02-10T13:15:09Z</time>
      </trkpt>
      <trkpt lat="44.87441" lon="0.22646">
        <ele>143</ele>
        <time>2015-02-10T13:15:10Z</time>
      </trkpt>
      <trkpt lat="44.87441" lon="0.22648">
        <ele>139</ele>
        <time>2015-02-10T13:15:11Z</time>
      </trkpt>
      <trkpt lat="44.87442" lon="0.22649">
        <ele>142</ele>
        <time>2015-02-10T13:15:12Z</time>
      </trkpt>
      <trkpt lat="44.87442" lon="0.22649">
        <ele>142</ele>
        <time>2015-02-10T13:15:13Z</time>
      </trkpt>
      <trkpt lat="44.87442" lon="0.22649">
        <ele>143</ele>
        <time>2015-02-10T13:15:14Z</time>
      </trkpt>
      <trkpt lat="44.87442" lon="0.2265">
        <ele>139</ele>
        <time>2015-02-10T13:15:15Z</time>
      </trkpt>
      <trkpt lat="44.87443" lon="0.2265">
        <ele>137</ele>
        <time>2015-02-10T13:15:16Z</time>
      </trkpt>
      <trkpt lat="44.87444" lon="0.22651">
        <ele>137</ele>
        <time>2015-02-10T13:15:17Z</time>
      </trkpt>
      <trkpt lat="44.87444" lon="0.22652">
        <ele>132</ele>
        <time>2015-02-10T13:15:18Z</time>
      </trkpt>
      <trkpt lat="44.87445" lon="0.22654">
        <ele>128</ele>
        <time>2015-02-10T13:15:19Z</time>
      </trkpt>
      <trkpt lat="44.87445" lon="0.22659">
        <ele>130</ele>
        <time>2015-02-10T13:15:20Z</time>
      </trkpt>
      <trkpt lat="44.87446" lon="0.22661">
        <ele>132</ele>
        <time>2015-02-10T13:15:21Z</time>
      </trkpt>
      <trkpt lat="44.87446" lon="0.22662">
        <ele>135</ele>
        <time>2015-02-10T13:15:22Z</time>
      </trkpt>
      <trkpt lat="44.87447" lon="0.22664">
        <ele>133</ele>
        <time>2015-02-10T13:15:23Z</time>
      </trkpt>
      <trkpt lat="44.87447" lon="0.22664">
        <ele>134</ele>
        <time>2015-02-10T13:15:24Z</time>
      </trkpt>
      <trkpt lat="44.87447" lon="0.22664">
        <ele>134</ele>
        <time>2015-02-10T13:15:25Z</time>
      </trkpt>
      <trkpt lat="44.87447" lon="0.22663">
        <ele>133</ele>
        <time>2015-02-10T13:15:26Z</time>
      </trkpt>
      <trkpt lat="44.87447" lon="0.22663">
        <ele>140</ele>
        <time>2015-02-10T13:15:27Z</time>
      </trkpt>
      <trkpt lat="44.87447" lon="0.22663">
        <ele>143</ele>
        <time>2015-02-10T13:15:28Z</time>
      </trkpt>
      <trkpt lat="44.87447" lon="0.22663">
        <ele>146</ele>
        <time>2015-02-10T13:15:29Z</time>
      </trkpt>
      <trkpt lat="44.87447" lon="0.22663">
        <ele>149</ele>
        <time>2015-02-10T13:15:30Z</time>
      </trkpt>
      <trkpt lat="44.87447" lon="0.22663">
        <ele>150</ele>
        <time>2015-02-10T13:15:31Z</time>
      </trkpt>
      <trkpt lat="44.87447" lon="0.22663">
        <ele>153</ele>
        <time>2015-02-10T13:15:32Z</time>
      </trkpt>
      <trkpt lat="44.87447" lon="0.22664">
        <ele>152</ele>
        <time>2015-02-10T13:15:33Z</time>
      </trkpt>
      <trkpt lat="44.87447" lon="0.22664">
        <ele>145</ele>
        <time>2015-02-10T13:15:34Z</time>
      </trkpt>
      <trkpt lat="44.87447" lon="0.22664">
        <ele>139</ele>
        <time>2015-02-10T13:15:35Z</time>
      </trkpt>
      <trkpt lat="44.87448" lon="0.22665">
        <ele>139</ele>
        <time>2015-02-10T13:15:36Z</time>
      </trkpt>
      <trkpt lat="44.87448" lon="0.22665">
        <ele>133</ele>
        <time>2015-02-10T13:15:37Z</time>
      </trkpt>
      <trkpt lat="44.87449" lon="0.22666">
        <ele>133</ele>
        <time>2015-02-10T13:15:38Z</time>
      </trkpt>
      <trkpt lat="44.8745" lon="0.22667">
        <ele>132</ele>
        <time>2015-02-10T13:15:39Z</time>
      </trkpt>
      <trkpt lat="44.8745" lon="0.22667">
        <ele>132</ele>
        <time>2015-02-10T13:15:40Z</time>
      </trkpt>
      <trkpt lat="44.8745" lon="0.22668">
        <ele>131</ele>
        <time>2015-02-10T13:15:41Z</time>
      </trkpt>
      <trkpt lat="44.87451" lon="0.22669">
        <ele>132</ele>
        <time>2015-02-10T13:15:42Z</time>
      </trkpt>
      <trkpt lat="44.87451" lon="0.2267">
        <ele>134</ele>
        <time>2015-02-10T13:15:43Z</time>
      </trkpt>
      <trkpt lat="44.87452" lon="0.22671">
        <ele>133</ele>
        <time>2015-02-10T13:15:44Z</time>
      </trkpt>
      <trkpt lat="44.87453" lon="0.22672">
        <ele>130</ele>
        <time>2015-02-10T13:15:45Z</time>
      </trkpt>
      <trkpt lat="44.87454" lon="0.22673">
        <ele>131</ele>
        <time>2015-02-10T13:15:46Z</time>
      </trkpt>
      <trkpt lat="44.87453" lon="0.22673">
        <ele>132</ele>
        <time>2015-02-10T13:15:47Z</time>
      </trkpt>
      <trkpt lat="44.87453" lon="0.22675">
        <ele>133</ele>
        <time>2015-02-10T13:15:48Z</time>
      </trkpt>
      <trkpt lat="44.87454" lon="0.22676">
        <ele>136</ele>
        <time>2015-02-10T13:15:49Z</time>
      </trkpt>
      <trkpt lat="44.87454" lon="0.22676">
        <ele>133</ele>
        <time>2015-02-10T13:15:50Z</time>
      </trkpt>
      <trkpt lat="44.87455" lon="0.22678">
        <ele>128</ele>
        <time>2015-02-10T13:15:51Z</time>
      </trkpt>
      <trkpt lat="44.87455" lon="0.22679">
        <ele>128</ele>
        <time>2015-02-10T13:15:52Z</time>
      </trkpt>
      <trkpt lat="44.87455" lon="0.2268">
        <ele>121</ele>
        <time>2015-02-10T13:15:53Z</time>
      </trkpt>
      <trkpt lat="44.87455" lon="0.22681">
        <ele>124</ele>
        <time>2015-02-10T13:15:54Z</time>
      </trkpt>
      <trkpt lat="44.87455" lon="0.22683">
        <ele>126</ele>
        <time>2015-02-10T13:15:55Z</time>
      </trkpt>
      <trkpt lat="44.87456" lon="0.22684">
        <ele>131</ele>
        <time>2015-02-10T13:15:56Z</time>
      </trkpt>
      <trkpt lat="44.87457" lon="0.22685">
        <ele>130</ele>
        <time>2015-02-10T13:15:57Z</time>
      </trkpt>
      <trkpt lat="44.87457" lon="0.22686">
        <ele>129</ele>
        <time>2015-02-10T13:15:58Z</time>
      </trkpt>
      <trkpt lat="44.87457" lon="0.22687">
        <ele>126</ele>
        <time>2015-02-10T13:15:59Z</time>
      </trkpt>
      <trkpt lat="44.87457" lon="0.22687">
        <ele>129</ele>
        <time>2015-02-10T13:16:00Z</time>
      </trkpt>
      <trkpt lat="44.87458" lon="0.22688">
        <ele>128</ele>
        <time>2015-02-10T13:16:01Z</time>
      </trkpt>
      <trkpt lat="44.87458" lon="0.22688">
        <ele>135</ele>
        <time>2015-02-10T13:16:02Z</time>
      </trkpt>
      <trkpt lat="44.87458" lon="0.22688">
        <ele>136</ele>
        <time>2015-02-10T13:16:03Z</time>
      </trkpt>
      <trkpt lat="44.87459" lon="0.2269">
        <ele>136</ele>
        <time>2015-02-10T13:16:04Z</time>
      </trkpt>
      <trkpt lat="44.87459" lon="0.22691">
        <ele>132</ele>
        <time>2015-02-10T13:16:05Z</time>
      </trkpt>
      <trkpt lat="44.87459" lon="0.22691">
        <ele>133</ele>
        <time>2015-02-10T13:16:06Z</time>
      </trkpt>
      <trkpt lat="44.87462" lon="0.22695">
        <ele>130</ele>
        <time>2015-02-10T13:16:07Z</time>
      </trkpt>
      <trkpt lat="44.87463" lon="0.22697">
        <ele>135</ele>
        <time>2015-02-10T13:16:08Z</time>
      </trkpt>
      <trkpt lat="44.87463" lon="0.22697">
        <ele>139</ele>
        <time>2015-02-10T13:16:09Z</time>
      </trkpt>
      <trkpt lat="44.87463" lon="0.22697">
        <ele>142</ele>
        <time>2015-02-10T13:16:10Z</time>
      </trkpt>
      <trkpt lat="44.87463" lon="0.22698">
        <ele>139</ele>
        <time>2015-02-10T13:16:11Z</time>
      </trkpt>
      <trkpt lat="44.87464" lon="0.22699">
        <ele>137</ele>
        <time>2015-02-10T13:16:12Z</time>
      </trkpt>
      <trkpt lat="44.87464" lon="0.22701">
        <ele>137</ele>
        <time>2015-02-10T13:16:13Z</time>
      </trkpt>
      <trkpt lat="44.87464" lon="0.22702">
        <ele>137</ele>
        <time>2015-02-10T13:16:14Z</time>
      </trkpt>
      <trkpt lat="44.87464" lon="0.22704">
        <ele>138</ele>
        <time>2015-02-10T13:16:15Z</time>
      </trkpt>
      <trkpt lat="44.87464" lon="0.22705">
        <ele>137</ele>
        <time>2015-02-10T13:16:16Z</time>
      </trkpt>
      <trkpt lat="44.87465" lon="0.22706">
        <ele>137</ele>
        <time>2015-02-10T13:16:17Z</time>
      </trkpt>
      <trkpt lat="44.87465" lon="0.22708">
        <ele>134</ele>
        <time>2015-02-10T13:16:18Z</time>
      </trkpt>
      <trkpt lat="44.87465" lon="0.2271">
        <ele>137</ele>
        <time>2015-02-10T13:16:19Z</time>
      </trkpt>
      <trkpt lat="44.87466" lon="0.22711">
        <ele>137</ele>
        <time>2015-02-10T13:16:20Z</time>
      </trkpt>
      <trkpt lat="44.87467" lon="0.22712">
        <ele>137</ele>
        <time>2015-02-10T13:16:21Z</time>
      </trkpt>
      <trkpt lat="44.87467" lon="0.22714">
        <ele>136</ele>
        <time>2015-02-10T13:16:22Z</time>
      </trkpt>
      <trkpt lat="44.87467" lon="0.22715">
        <ele>136</ele>
        <time>2015-02-10T13:16:23Z</time>
      </trkpt>
      <trkpt lat="44.87468" lon="0.22716">
        <ele>136</ele>
        <time>2015-02-10T13:16:24Z</time>
      </trkpt>
      <trkpt lat="44.87468" lon="0.22717">
        <ele>135</ele>
        <time>2015-02-10T13:16:25Z</time>
      </trkpt>
      <trkpt lat="44.87469" lon="0.22718">
        <ele>134</ele>
        <time>2015-02-10T13:16:26Z</time>
      </trkpt>
      <trkpt lat="44.8747" lon="0.22718">
        <ele>136</ele>
        <time>2015-02-10T13:16:27Z</time>
      </trkpt>
      <trkpt lat="44.8747" lon="0.22719">
        <ele>134</ele>
        <time>2015-02-10T13:16:28Z</time>
      </trkpt>
      <trkpt lat="44.87471" lon="0.22719">
        <ele>132</ele>
        <time>2015-02-10T13:16:29Z</time>
      </trkpt>
      <trkpt lat="44.87471" lon="0.2272">
        <ele>135</ele>
        <time>2015-02-10T13:16:30Z</time>
      </trkpt>
      <trkpt lat="44.87472" lon="0.22721">
        <ele>130</ele>
        <time>2015-02-10T13:16:31Z</time>
      </trkpt>
      <trkpt lat="44.87472" lon="0.22722">
        <ele>125</ele>
        <time>2015-02-10T13:16:32Z</time>
      </trkpt>
      <trkpt lat="44.87472" lon="0.22723">
        <ele>124</ele>
        <time>2015-02-10T13:16:33Z</time>
      </trkpt>
      <trkpt lat="44.87473" lon="0.22725">
        <ele>127</ele>
        <time>2015-02-10T13:16:34Z</time>
      </trkpt>
      <trkpt lat="44.87473" lon="0.22726">
        <ele>127</ele>
        <time>2015-02-10T13:16:35Z</time>
      </trkpt>
      <trkpt lat="44.87473" lon="0.22727">
        <ele>127</ele>
        <time>2015-02-10T13:16:36Z</time>
      </trkpt>
      <trkpt lat="44.87474" lon="0.22729">
        <ele>127</ele>
        <time>2015-02-10T13:16:37Z</time>
      </trkpt>
      <trkpt lat="44.87473" lon="0.2273">
        <ele>128</ele>
        <time>2015-02-10T13:16:38Z</time>
      </trkpt>
      <trkpt lat="44.87473" lon="0.22731">
        <ele>128</ele>
        <time>2015-02-10T13:16:39Z</time>
      </trkpt>
      <trkpt lat="44.87474" lon="0.22731">
        <ele>129</ele>
        <time>2015-02-10T13:16:40Z</time>
      </trkpt>
      <trkpt lat="44.87474" lon="0.22732">
        <ele>128</ele>
        <time>2015-02-10T13:16:41Z</time>
      </trkpt>
      <trkpt lat="44.87475" lon="0.22732">
        <ele>125</ele>
        <time>2015-02-10T13:16:42Z</time>
      </trkpt>
      <trkpt lat="44.87475" lon="0.22733">
        <ele>127</ele>
        <time>2015-02-10T13:16:43Z</time>
      </trkpt>
      <trkpt lat="44.87476" lon="0.22733">
        <ele>130</ele>
        <time>2015-02-10T13:16:44Z</time>
      </trkpt>
      <trkpt lat="44.87477" lon="0.22733">
        <ele>126</ele>
        <time>2015-02-10T13:16:45Z</time>
      </trkpt>
      <trkpt lat="44.87477" lon="0.22734">
        <ele>130</ele>
        <time>2015-02-10T13:16:46Z</time>
      </trkpt>
      <trkpt lat="44.87477" lon="0.22734">
        <ele>131</ele>
        <time>2015-02-10T13:16:47Z</time>
      </trkpt>
      <trkpt lat="44.87478" lon="0.22735">
        <ele>129</ele>
        <time>2015-02-10T13:16:48Z</time>
      </trkpt>
      <trkpt lat="44.87478" lon="0.22736">
        <ele>126</ele>
        <time>2015-02-10T13:16:49Z</time>
      </trkpt>
      <trkpt lat="44.87479" lon="0.22737">
        <ele>121</ele>
        <time>2015-02-10T13:16:50Z</time>
      </trkpt>
      <trkpt lat="44.87479" lon="0.22738">
        <ele>119</ele>
        <time>2015-02-10T13:16:51Z</time>
      </trkpt>
      <trkpt lat="44.8748" lon="0.22739">
        <ele>119</ele>
        <time>2015-02-10T13:16:52Z</time>
      </trkpt>
      <trkpt lat="44.8748" lon="0.2274">
        <ele>121</ele>
        <time>2015-02-10T13:16:53Z</time>
      </trkpt>
      <trkpt lat="44.8748" lon="0.22741">
        <ele>122</ele>
        <time>2015-02-10T13:16:54Z</time>
      </trkpt>
      <trkpt lat="44.87481" lon="0.2274">
        <ele>122</ele>
        <time>2015-02-10T13:16:55Z</time>
      </trkpt>
      <trkpt lat="44.87481" lon="0.2274">
        <ele>124</ele>
        <time>2015-02-10T13:16:56Z</time>
      </trkpt>
      <trkpt lat="44.87481" lon="0.22741">
        <ele>123</ele>
        <time>2015-02-10T13:16:57Z</time>
      </trkpt>
      <trkpt lat="44.87482" lon="0.22742">
        <ele>125</ele>
        <time>2015-02-10T13:16:58Z</time>
      </trkpt>
      <trkpt lat="44.87482" lon="0.22743">
        <ele>128</ele>
        <time>2015-02-10T13:16:59Z</time>
      </trkpt>
      <trkpt lat="44.87482" lon="0.22744">
        <ele>124</ele>
        <time>2015-02-10T13:17:00Z</time>
      </trkpt>
      <trkpt lat="44.87483" lon="0.22744">
        <ele>119</ele>
        <time>2015-02-10T13:17:01Z</time>
      </trkpt>
      <trkpt lat="44.87482" lon="0.22745">
        <ele>121</ele>
        <time>2015-02-10T13:17:02Z</time>
      </trkpt>
      <trkpt lat="44.87482" lon="0.22747">
        <ele>119</ele>
        <time>2015-02-10T13:17:03Z</time>
      </trkpt>
      <trkpt lat="44.87482" lon="0.22748">
        <ele>119</ele>
        <time>2015-02-10T13:17:04Z</time>
      </trkpt>
      <trkpt lat="44.87482" lon="0.22749">
        <ele>126</ele>
        <time>2015-02-10T13:17:05Z</time>
      </trkpt>
      <trkpt lat="44.87482" lon="0.2275">
        <ele>126</ele>
        <time>2015-02-10T13:17:06Z</time>
      </trkpt>
      <trkpt lat="44.87482" lon="0.2275">
        <ele>125</ele>
        <time>2015-02-10T13:17:07Z</time>
      </trkpt>
      <trkpt lat="44.87482" lon="0.22751">
        <ele>123</ele>
        <time>2015-02-10T13:17:08Z</time>
      </trkpt>
      <trkpt lat="44.87483" lon="0.22753">
        <ele>124</ele>
        <time>2015-02-10T13:17:09Z</time>
      </trkpt>
      <trkpt lat="44.87484" lon="0.22754">
        <ele>124</ele>
        <time>2015-02-10T13:17:10Z</time>
      </trkpt>
      <trkpt lat="44.87484" lon="0.22755">
        <ele>128</ele>
        <time>2015-02-10T13:17:11Z</time>
      </trkpt>
      <trkpt lat="44.87484" lon="0.22756">
        <ele>128</ele>
        <time>2015-02-10T13:17:12Z</time>
      </trkpt>
      <trkpt lat="44.87484" lon="0.22757">
        <ele>130</ele>
        <time>2015-02-10T13:17:13Z</time>
      </trkpt>
      <trkpt lat="44.87484" lon="0.22757">
        <ele>128</ele>
        <time>2015-02-10T13:17:14Z</time>
      </trkpt>
      <trkpt lat="44.87484" lon="0.22757">
        <ele>130</ele>
        <time>2015-02-10T13:17:15Z</time>
      </trkpt>
      <trkpt lat="44.87484" lon="0.22757">
        <ele>128</ele>
        <time>2015-02-10T13:17:16Z</time>
      </trkpt>
      <trkpt lat="44.87484" lon="0.22757">
        <ele>124</ele>
        <time>2015-02-10T13:17:17Z</time>
      </trkpt>
      <trkpt lat="44.87484" lon="0.22757">
        <ele>122</ele>
        <time>2015-02-10T13:17:18Z</time>
      </trkpt>
      <trkpt lat="44.87484" lon="0.22757">
        <ele>124</ele>
        <time>2015-02-10T13:17:19Z</time>
      </trkpt>
      <trkpt lat="44.87484" lon="0.22757">
        <ele>125</ele>
        <time>2015-02-10T13:17:20Z</time>
      </trkpt>
      <trkpt lat="44.87484" lon="0.22758">
        <ele>124</ele>
        <time>2015-02-10T13:17:21Z</time>
      </trkpt>
      <trkpt lat="44.87484" lon="0.22759">
        <ele>124</ele>
        <time>2015-02-10T13:17:22Z</time>
      </trkpt>
      <trkpt lat="44.87484" lon="0.2276">
        <ele>123</ele>
        <time>2015-02-10T13:17:23Z</time>
      </trkpt>
      <trkpt lat="44.87485" lon="0.22761">
        <ele>122</ele>
        <time>2015-02-10T13:17:24Z</time>
      </trkpt>
      <trkpt lat="44.87485" lon="0.22763">
        <ele>122</ele>
        <time>2015-02-10T13:17:25Z</time>
      </trkpt>
      <trkpt lat="44.87485" lon="0.22764">
        <ele>124</ele>
        <time>2015-02-10T13:17:26Z</time>
      </trkpt>
      <trkpt lat="44.87486" lon="0.22765">
        <ele>127</ele>
        <time>2015-02-10T13:17:27Z</time>
      </trkpt>
      <trkpt lat="44.87486" lon="0.22769">
        <ele>126</ele>
        <time>2015-02-10T13:17:28Z</time>
      </trkpt>
      <trkpt lat="44.87486" lon="0.2277">
        <ele>122</ele>
        <time>2015-02-10T13:17:29Z</time>
      </trkpt>
      <trkpt lat="44.87487" lon="0.22771">
        <ele>120</ele>
        <time>2015-02-10T13:17:30Z</time>
      </trkpt>
      <trkpt lat="44.87488" lon="0.22772">
        <ele>117</ele>
        <time>2015-02-10T13:17:31Z</time>
      </trkpt>
      <trkpt lat="44.87488" lon="0.22773">
        <ele>117</ele>
        <time>2015-02-10T13:17:32Z</time>
      </trkpt>
      <trkpt lat="44.87489" lon="0.22773">
        <ele>115</ele>
        <time>2015-02-10T13:17:33Z</time>
      </trkpt>
      <trkpt lat="44.8749" lon="0.22774">
        <ele>116</ele>
        <time>2015-02-10T13:17:34Z</time>
      </trkpt>
      <trkpt lat="44.8749" lon="0.22775">
        <ele>116</ele>
        <time>2015-02-10T13:17:35Z</time>
      </trkpt>
      <trkpt lat="44.8749" lon="0.22776">
        <ele>114</ele>
        <time>2015-02-10T13:17:36Z</time>
      </trkpt>
      <trkpt lat="44.8749" lon="0.22778">
        <ele>115</ele>
        <time>2015-02-10T13:17:37Z</time>
      </trkpt>
      <trkpt lat="44.8749" lon="0.22779">
        <ele>118</ele>
        <time>2015-02-10T13:17:38Z</time>
      </trkpt>
      <trkpt lat="44.8749" lon="0.22779">
        <ele>121</ele>
        <time>2015-02-10T13:17:39Z</time>
      </trkpt>
      <trkpt lat="44.8749" lon="0.22779">
        <ele>124</ele>
        <time>2015-02-10T13:17:40Z</time>
      </trkpt>
      <trkpt lat="44.8749" lon="0.22779">
        <ele>118</ele>
        <time>2015-02-10T13:17:41Z</time>
      </trkpt>
      <trkpt lat="44.8749" lon="0.2278">
        <ele>123</ele>
        <time>2015-02-10T13:17:42Z</time>
      </trkpt>
      <trkpt lat="44.8749" lon="0.22781">
        <ele>122</ele>
        <time>2015-02-10T13:17:43Z</time>
      </trkpt>
      <trkpt lat="44.8749" lon="0.22782">
        <ele>123</ele>
        <time>2015-02-10T13:17:44Z</time>
      </trkpt>
      <trkpt lat="44.8749" lon="0.22782">
        <ele>124</ele>
        <time>2015-02-10T13:17:45Z</time>
      </trkpt>
      <trkpt lat="44.8749" lon="0.22782">
        <ele>122</ele>
        <time>2015-02-10T13:17:46Z</time>
      </trkpt>
      <trkpt lat="44.87491" lon="0.22783">
        <ele>125</ele>
        <time>2015-02-10T13:17:47Z</time>
      </trkpt>
      <trkpt lat="44.87491" lon="0.22783">
        <ele>121</ele>
        <time>2015-02-10T13:17:48Z</time>
      </trkpt>
      <trkpt lat="44.87491" lon="0.22783">
        <ele>123</ele>
        <time>2015-02-10T13:17:49Z</time>
      </trkpt>
      <trkpt lat="44.87491" lon="0.22783">
        <ele>118</ele>
        <time>2015-02-10T13:17:50Z</time>
      </trkpt>
      <trkpt lat="44.87491" lon="0.22783">
        <ele>119</ele>
        <time>2015-02-10T13:17:51Z</time>
      </trkpt>
      <trkpt lat="44.87491" lon="0.22784">
        <ele>123</ele>
        <time>2015-02-10T13:17:52Z</time>
      </trkpt>
      <trkpt lat="44.87491" lon="0.22784">
        <ele>127</ele>
        <time>2015-02-10T13:17:53Z</time>
      </trkpt>
      <trkpt lat="44.87491" lon="0.22785">
        <ele>134</ele>
        <time>2015-02-10T13:17:54Z</time>
      </trkpt>
      <trkpt lat="44.87491" lon="0.22786">
        <ele>135</ele>
        <time>2015-02-10T13:17:55Z</time>
      </trkpt>
      <trkpt lat="44.87491" lon="0.22786">
        <ele>137</ele>
        <time>2015-02-10T13:17:56Z</time>
      </trkpt>
      <trkpt lat="44.87491" lon="0.22787">
        <ele>136</ele>
        <time>2015-02-10T13:17:57Z</time>
      </trkpt>
      <trkpt lat="44.87492" lon="0.22789">
        <ele>134</ele>
        <time>2015-02-10T13:17:58Z</time>
      </trkpt>
      <trkpt lat="44.87492" lon="0.2279">
        <ele>130</ele>
        <time>2015-02-10T13:17:59Z</time>
      </trkpt>
      <trkpt lat="44.87492" lon="0.22792">
        <ele>129</ele>
        <time>2015-02-10T13:18:00Z</time>
      </trkpt>
      <trkpt lat="44.87492" lon="0.22792">
        <ele>129</ele>
        <time>2015-02-10T13:18:01Z</time>
      </trkpt>
      <trkpt lat="44.87492" lon="0.22792">
        <ele>126</ele>
        <time>2015-02-10T13:18:02Z</time>
      </trkpt>
      <trkpt lat="44.87492" lon="0.22792">
        <ele>131</ele>
        <time>2015-02-10T13:18:03Z</time>
      </trkpt>
      <trkpt lat="44.87492" lon="0.22792">
        <ele>133</ele>
        <time>2015-02-10T13:18:04Z</time>
      </trkpt>
      <trkpt lat="44.87491" lon="0.22793">
        <ele>132</ele>
        <time>2015-02-10T13:18:05Z</time>
      </trkpt>
      <trkpt lat="44.87491" lon="0.22794">
        <ele>129</ele>
        <time>2015-02-10T13:18:06Z</time>
      </trkpt>
      <trkpt lat="44.8749" lon="0.22795">
        <ele>128</ele>
        <time>2015-02-10T13:18:07Z</time>
      </trkpt>
      <trkpt lat="44.8749" lon="0.22795">
        <ele>130</ele>
        <time>2015-02-10T13:18:08Z</time>
      </trkpt>
      <trkpt lat="44.8749" lon="0.22796">
        <ele>129</ele>
        <time>2015-02-10T13:18:09Z</time>
      </trkpt>
      <trkpt lat="44.8749" lon="0.22796">
        <ele>131</ele>
        <time>2015-02-10T13:18:10Z</time>
      </trkpt>
      <trkpt lat="44.87489" lon="0.22797">
        <ele>135</ele>
        <time>2015-02-10T13:18:11Z</time>
      </trkpt>
      <trkpt lat="44.87489" lon="0.22798">
        <ele>138</ele>
        <time>2015-02-10T13:18:12Z</time>
      </trkpt>
      <trkpt lat="44.87488" lon="0.22799">
        <ele>142</ele>
        <time>2015-02-10T13:18:13Z</time>
      </trkpt>
      <trkpt lat="44.87487" lon="0.22801">
        <ele>140</ele>
        <time>2015-02-10T13:18:14Z</time>
      </trkpt>
      <trkpt lat="44.87487" lon="0.22803">
        <ele>142</ele>
        <time>2015-02-10T13:18:15Z</time>
      </trkpt>
      <trkpt lat="44.87486" lon="0.22804">
        <ele>137</ele>
        <time>2015-02-10T13:18:16Z</time>
      </trkpt>
      <trkpt lat="44.87486" lon="0.22806">
        <ele>134</ele>
        <time>2015-02-10T13:18:17Z</time>
      </trkpt>
      <trkpt lat="44.87486" lon="0.22808">
        <ele>131</ele>
        <time>2015-02-10T13:18:18Z</time>
      </trkpt>
      <trkpt lat="44.87486" lon="0.22809">
        <ele>134</ele>
        <time>2015-02-10T13:18:19Z</time>
      </trkpt>
      <trkpt lat="44.87486" lon="0.2281">
        <ele>131</ele>
        <time>2015-02-10T13:18:20Z</time>
      </trkpt>
      <trkpt lat="44.87485" lon="0.22812">
        <ele>131</ele>
        <time>2015-02-10T13:18:21Z</time>
      </trkpt>
      <trkpt lat="44.87485" lon="0.22813">
        <ele>129</ele>
        <time>2015-02-10T13:18:22Z</time>
      </trkpt>
      <trkpt lat="44.87485" lon="0.22814">
        <ele>131</ele>
        <time>2015-02-10T13:18:23Z</time>
      </trkpt>
      <trkpt lat="44.87484" lon="0.22815">
        <ele>131</ele>
        <time>2015-02-10T13:18:24Z</time>
      </trkpt>
      <trkpt lat="44.87484" lon="0.22817">
        <ele>129</ele>
        <time>2015-02-10T13:18:25Z</time>
      </trkpt>
      <trkpt lat="44.87484" lon="0.22818">
        <ele>129</ele>
        <time>2015-02-10T13:18:26Z</time>
      </trkpt>
      <trkpt lat="44.87483" lon="0.22818">
        <ele>132</ele>
        <time>2015-02-10T13:18:27Z</time>
      </trkpt>
      <trkpt lat="44.87483" lon="0.22818">
        <ele>128</ele>
        <time>2015-02-10T13:18:28Z</time>
      </trkpt>
      <trkpt lat="44.87483" lon="0.22818">
        <ele>131</ele>
        <time>2015-02-10T13:18:29Z</time>
      </trkpt>
      <trkpt lat="44.87483" lon="0.22819">
        <ele>133</ele>
        <time>2015-02-10T13:18:30Z</time>
      </trkpt>
      <trkpt lat="44.87483" lon="0.2282">
        <ele>131</ele>
        <time>2015-02-10T13:18:31Z</time>
      </trkpt>
      <trkpt lat="44.87482" lon="0.22822">
        <ele>129</ele>
        <time>2015-02-10T13:18:32Z</time>
      </trkpt>
      <trkpt lat="44.87482" lon="0.22824">
        <ele>128</ele>
        <time>2015-02-10T13:18:33Z</time>
      </trkpt>
      <trkpt lat="44.87482" lon="0.22825">
        <ele>128</ele>
        <time>2015-02-10T13:18:34Z</time>
      </trkpt>
      <trkpt lat="44.87482" lon="0.22826">
        <ele>127</ele>
        <time>2015-02-10T13:18:35Z</time>
      </trkpt>
      <trkpt lat="44.87482" lon="0.22827">
        <ele>133</ele>
        <time>2015-02-10T13:18:36Z</time>
      </trkpt>
      <trkpt lat="44.87481" lon="0.22831">
        <ele>134</ele>
        <time>2015-02-10T13:18:37Z</time>
      </trkpt>
      <trkpt lat="44.8748" lon="0.22833">
        <ele>134</ele>
        <time>2015-02-10T13:18:38Z</time>
      </trkpt>
      <trkpt lat="44.8748" lon="0.22835">
        <ele>133</ele>
        <time>2015-02-10T13:18:39Z</time>
      </trkpt>
      <trkpt lat="44.8748" lon="0.22835">
        <ele>135</ele>
        <time>2015-02-10T13:18:40Z</time>
      </trkpt>
      <trkpt lat="44.8748" lon="0.22835">
        <ele>134</ele>
        <time>2015-02-10T13:18:41Z</time>
      </trkpt>
      <trkpt lat="44.87481" lon="0.22837">
        <ele>133</ele>
        <time>2015-02-10T13:18:42Z</time>
      </trkpt>
      <trkpt lat="44.87482" lon="0.2284">
        <ele>131</ele>
        <time>2015-02-10T13:18:43Z</time>
      </trkpt>
      <trkpt lat="44.87482" lon="0.22843">
        <ele>129</ele>
        <time>2015-02-10T13:18:44Z</time>
      </trkpt>
      <trkpt lat="44.87482" lon="0.22844">
        <ele>131</ele>
        <time>2015-02-10T13:18:45Z</time>
      </trkpt>
      <trkpt lat="44.87483" lon="0.22846">
        <ele>129</ele>
        <time>2015-02-10T13:18:46Z</time>
      </trkpt>
      <trkpt lat="44.87483" lon="0.22847">
        <ele>129</ele>
        <time>2015-02-10T13:18:47Z</time>
      </trkpt>
      <trkpt lat="44.87483" lon="0.22848">
        <ele>125</ele>
        <time>2015-02-10T13:18:48Z</time>
      </trkpt>
      <trkpt lat="44.87483" lon="0.22849">
        <ele>126</ele>
        <time>2015-02-10T13:18:49Z</time>
      </trkpt>
      <trkpt lat="44.87484" lon="0.2285">
        <ele>127</ele>
        <time>2015-02-10T13:18:50Z</time>
      </trkpt>
      <trkpt lat="44.87484" lon="0.2285">
        <ele>127</ele>
        <time>2015-02-10T13:18:51Z</time>
      </trkpt>
      <trkpt lat="44.87484" lon="0.22851">
        <ele>126</ele>
        <time>2015-02-10T13:18:52Z</time>
      </trkpt>
      <trkpt lat="44.87484" lon="0.22852">
        <ele>126</ele>
        <time>2015-02-10T13:18:53Z</time>
      </trkpt>
      <trkpt lat="44.87485" lon="0.22852">
        <ele>125</ele>
        <time>2015-02-10T13:18:54Z</time>
      </trkpt>
      <trkpt lat="44.87485" lon="0.22853">
        <ele>129</ele>
        <time>2015-02-10T13:18:55Z</time>
      </trkpt>
      <trkpt lat="44.87484" lon="0.22855">
        <ele>129</ele>
        <time>2015-02-10T13:18:56Z</time>
      </trkpt>
      <trkpt lat="44.87484" lon="0.22855">
        <ele>127</ele>
        <time>2015-02-10T13:18:57Z</time>
      </trkpt>
      <trkpt lat="44.87485" lon="0.22856">
        <ele>129</ele>
        <time>2015-02-10T13:18:58Z</time>
      </trkpt>
      <trkpt lat="44.87485" lon="0.22857">
        <ele>130</ele>
        <time>2015-02-10T13:18:59Z</time>
      </trkpt>
      <trkpt lat="44.87486" lon="0.22858">
        <ele>131</ele>
        <time>2015-02-10T13:19:00Z</time>
      </trkpt>
      <trkpt lat="44.87486" lon="0.2286">
        <ele>129</ele>
        <time>2015-02-10T13:19:01Z</time>
      </trkpt>
      <trkpt lat="44.87486" lon="0.22861">
        <ele>133</ele>
        <time>2015-02-10T13:19:02Z</time>
      </trkpt>
      <trkpt lat="44.87486" lon="0.22863">
        <ele>130</ele>
        <time>2015-02-10T13:19:03Z</time>
      </trkpt>
      <trkpt lat="44.87487" lon="0.22864">
        <ele>132</ele>
        <time>2015-02-10T13:19:04Z</time>
      </trkpt>
      <trkpt lat="44.87488" lon="0.22866">
        <ele>128</ele>
        <time>2015-02-10T13:19:05Z</time>
      </trkpt>
      <trkpt lat="44.87488" lon="0.22867">
        <ele>129</ele>
        <time>2015-02-10T13:19:06Z</time>
      </trkpt>
      <trkpt lat="44.87489" lon="0.22868">
        <ele>125</ele>
        <time>2015-02-10T13:19:07Z</time>
      </trkpt>
      <trkpt lat="44.87489" lon="0.22869">
        <ele>126</ele>
        <time>2015-02-10T13:19:08Z</time>
      </trkpt>
      <trkpt lat="44.8749" lon="0.2287">
        <ele>128</ele>
        <time>2015-02-10T13:19:09Z</time>
      </trkpt>
      <trkpt lat="44.8749" lon="0.22871">
        <ele>126</ele>
        <time>2015-02-10T13:19:10Z</time>
      </trkpt>
      <trkpt lat="44.87491" lon="0.22872">
        <ele>129</ele>
        <time>2015-02-10T13:19:11Z</time>
      </trkpt>
      <trkpt lat="44.87491" lon="0.22873">
        <ele>130</ele>
        <time>2015-02-10T13:19:12Z</time>
      </trkpt>
      <trkpt lat="44.87491" lon="0.22874">
        <ele>129</ele>
        <time>2015-02-10T13:19:13Z</time>
      </trkpt>
      <trkpt lat="44.87492" lon="0.22875">
        <ele>128</ele>
        <time>2015-02-10T13:19:14Z</time>
      </trkpt>
      <trkpt lat="44.87493" lon="0.22876">
        <ele>128</ele>
        <time>2015-02-10T13:19:15Z</time>
      </trkpt>
      <trkpt lat="44.87494" lon="0.22878">
        <ele>126</ele>
        <time>2015-02-10T13:19:16Z</time>
      </trkpt>
      <trkpt lat="44.87494" lon="0.22879">
        <ele>126</ele>
        <time>2015-02-10T13:19:17Z</time>
      </trkpt>
      <trkpt lat="44.87495" lon="0.22883">
        <ele>131</ele>
        <time>2015-02-10T13:19:18Z</time>
      </trkpt>
      <trkpt lat="44.87496" lon="0.22886">
        <ele>128</ele>
        <time>2015-02-10T13:19:19Z</time>
      </trkpt>
      <trkpt lat="44.87496" lon="0.22887">
        <ele>127</ele>
        <time>2015-02-10T13:19:20Z</time>
      </trkpt>
      <trkpt lat="44.87496" lon="0.22888">
        <ele>126</ele>
        <time>2015-02-10T13:19:21Z</time>
      </trkpt>
      <trkpt lat="44.87497" lon="0.22889">
        <ele>126</ele>
        <time>2015-02-10T13:19:22Z</time>
      </trkpt>
      <trkpt lat="44.87497" lon="0.2289">
        <ele>128</ele>
        <time>2015-02-10T13:19:23Z</time>
      </trkpt>
      <trkpt lat="44.87497" lon="0.2289">
        <ele>126</ele>
        <time>2015-02-10T13:19:24Z</time>
      </trkpt>
      <trkpt lat="44.87497" lon="0.22892">
        <ele>129</ele>
        <time>2015-02-10T13:19:25Z</time>
      </trkpt>
      <trkpt lat="44.87497" lon="0.22892">
        <ele>131</ele>
        <time>2015-02-10T13:19:26Z</time>
      </trkpt>
      <trkpt lat="44.87498" lon="0.22894">
        <ele>129</ele>
        <time>2015-02-10T13:19:27Z</time>
      </trkpt>
      <trkpt lat="44.87498" lon="0.22895">
        <ele>130</ele>
        <time>2015-02-10T13:19:28Z</time>
      </trkpt>
      <trkpt lat="44.87499" lon="0.22896">
        <ele>129</ele>
        <time>2015-02-10T13:19:29Z</time>
      </trkpt>
      <trkpt lat="44.87499" lon="0.22896">
        <ele>132</ele>
        <time>2015-02-10T13:19:30Z</time>
      </trkpt>
      <trkpt lat="44.87499" lon="0.22897">
        <ele>129</ele>
        <time>2015-02-10T13:19:31Z</time>
      </trkpt>
      <trkpt lat="44.875" lon="0.22898">
        <ele>128</ele>
        <time>2015-02-10T13:19:32Z</time>
      </trkpt>
      <trkpt lat="44.87501" lon="0.22899">
        <ele>129</ele>
        <time>2015-02-10T13:19:33Z</time>
      </trkpt>
      <trkpt lat="44.87501" lon="0.229">
        <ele>131</ele>
        <time>2015-02-10T13:19:34Z</time>
      </trkpt>
      <trkpt lat="44.87502" lon="0.22902">
        <ele>129</ele>
        <time>2015-02-10T13:19:35Z</time>
      </trkpt>
      <trkpt lat="44.87503" lon="0.22903">
        <ele>128</ele>
        <time>2015-02-10T13:19:36Z</time>
      </trkpt>
      <trkpt lat="44.87504" lon="0.22904">
        <ele>123</ele>
        <time>2015-02-10T13:19:37Z</time>
      </trkpt>
      <trkpt lat="44.87505" lon="0.22904">
        <ele>129</ele>
        <time>2015-02-10T13:19:38Z</time>
      </trkpt>
      <trkpt lat="44.87505" lon="0.22905">
        <ele>131</ele>
        <time>2015-02-10T13:19:39Z</time>
      </trkpt>
      <trkpt lat="44.87506" lon="0.22906">
        <ele>129</ele>
        <time>2015-02-10T13:19:40Z</time>
      </trkpt>
      <trkpt lat="44.87506" lon="0.22906">
        <ele>125</ele>
        <time>2015-02-10T13:19:41Z</time>
      </trkpt>
      <trkpt lat="44.87507" lon="0.22906">
        <ele>128</ele>
        <time>2015-02-10T13:19:42Z</time>
      </trkpt>
      <trkpt lat="44.87507" lon="0.22907">
        <ele>127</ele>
        <time>2015-02-10T13:19:43Z</time>
      </trkpt>
      <trkpt lat="44.87508" lon="0.22907">
        <ele>130</ele>
        <time>2015-02-10T13:19:44Z</time>
      </trkpt>
      <trkpt lat="44.87509" lon="0.22908">
        <ele>126</ele>
        <time>2015-02-10T13:19:45Z</time>
      </trkpt>
      <trkpt lat="44.87511" lon="0.2291">
        <ele>122</ele>
        <time>2015-02-10T13:19:46Z</time>
      </trkpt>
      <trkpt lat="44.87511" lon="0.22911">
        <ele>126</ele>
        <time>2015-02-10T13:19:47Z</time>
      </trkpt>
      <trkpt lat="44.87512" lon="0.22912">
        <ele>125</ele>
        <time>2015-02-10T13:19:48Z</time>
      </trkpt>
      <trkpt lat="44.87512" lon="0.22913">
        <ele>122</ele>
        <time>2015-02-10T13:19:49Z</time>
      </trkpt>
      <trkpt lat="44.87513" lon="0.22914">
        <ele>124</ele>
        <time>2015-02-10T13:19:50Z</time>
      </trkpt>
      <trkpt lat="44.87514" lon="0.22915">
        <ele>121</ele>
        <time>2015-02-10T13:19:51Z</time>
      </trkpt>
      <trkpt lat="44.87515" lon="0.22916">
        <ele>122</ele>
        <time>2015-02-10T13:19:52Z</time>
      </trkpt>
      <trkpt lat="44.87515" lon="0.22918">
        <ele>122</ele>
        <time>2015-02-10T13:19:53Z</time>
      </trkpt>
      <trkpt lat="44.87515" lon="0.22918">
        <ele>125</ele>
        <time>2015-02-10T13:19:54Z</time>
      </trkpt>
      <trkpt lat="44.87515" lon="0.22919">
        <ele>123</ele>
        <time>2015-02-10T13:19:55Z</time>
      </trkpt>
      <trkpt lat="44.87516" lon="0.2292">
        <ele>126</ele>
        <time>2015-02-10T13:19:56Z</time>
      </trkpt>
      <trkpt lat="44.87516" lon="0.22921">
        <ele>125</ele>
        <time>2015-02-10T13:19:57Z</time>
      </trkpt>
      <trkpt lat="44.87516" lon="0.22922">
        <ele>121</ele>
        <time>2015-02-10T13:19:58Z</time>
      </trkpt>
      <trkpt lat="44.87517" lon="0.22923">
        <ele>119</ele>
        <time>2015-02-10T13:19:59Z</time>
      </trkpt>
      <trkpt lat="44.87518" lon="0.22925">
        <ele>112</ele>
        <time>2015-02-10T13:20:00Z</time>
      </trkpt>
      <trkpt lat="44.87518" lon="0.22926">
        <ele>114</ele>
        <time>2015-02-10T13:20:01Z</time>
      </trkpt>
      <trkpt lat="44.87519" lon="0.22927">
        <ele>112</ele>
        <time>2015-02-10T13:20:02Z</time>
      </trkpt>
      <trkpt lat="44.87519" lon="0.22927">
        <ele>114</ele>
        <time>2015-02-10T13:20:03Z</time>
      </trkpt>
      <trkpt lat="44.87519" lon="0.22928">
        <ele>112</ele>
        <time>2015-02-10T13:20:04Z</time>
      </trkpt>
      <trkpt lat="44.87519" lon="0.22929">
        <ele>113</ele>
        <time>2015-02-10T13:20:05Z</time>
      </trkpt>
      <trkpt lat="44.8752" lon="0.2293">
        <ele>115</ele>
        <time>2015-02-10T13:20:06Z</time>
      </trkpt>
      <trkpt lat="44.8752" lon="0.22931">
        <ele>115</ele>
        <time>2015-02-10T13:20:07Z</time>
      </trkpt>
      <trkpt lat="44.8752" lon="0.22932">
        <ele>116</ele>
        <time>2015-02-10T13:20:08Z</time>
      </trkpt>
      <trkpt lat="44.87521" lon="0.22933">
        <ele>117</ele>
        <time>2015-02-10T13:20:09Z</time>
      </trkpt>
      <trkpt lat="44.87521" lon="0.22934">
        <ele>117</ele>
        <time>2015-02-10T13:20:10Z</time>
      </trkpt>
      <trkpt lat="44.8752" lon="0.22936">
        <ele>116</ele>
        <time>2015-02-10T13:20:11Z</time>
      </trkpt>
      <trkpt lat="44.8752" lon="0.22936">
        <ele>121</ele>
        <time>2015-02-10T13:20:12Z</time>
      </trkpt>
      <trkpt lat="44.8752" lon="0.22937">
        <ele>122</ele>
        <time>2015-02-10T13:20:13Z</time>
      </trkpt>
      <trkpt lat="44.8752" lon="0.22938">
        <ele>120</ele>
        <time>2015-02-10T13:20:14Z</time>
      </trkpt>
      <trkpt lat="44.8752" lon="0.22939">
        <ele>120</ele>
        <time>2015-02-10T13:20:15Z</time>
      </trkpt>
      <trkpt lat="44.8752" lon="0.2294">
        <ele>117</ele>
        <time>2015-02-10T13:20:16Z</time>
      </trkpt>
      <trkpt lat="44.8752" lon="0.22941">
        <ele>117</ele>
        <time>2015-02-10T13:20:17Z</time>
      </trkpt>
      <trkpt lat="44.87519" lon="0.22943">
        <ele>118</ele>
        <time>2015-02-10T13:20:18Z</time>
      </trkpt>
      <trkpt lat="44.87519" lon="0.22944">
        <ele>117</ele>
        <time>2015-02-10T13:20:19Z</time>
      </trkpt>
      <trkpt lat="44.8752" lon="0.22944">
        <ele>114</ele>
        <time>2015-02-10T13:20:20Z</time>
      </trkpt>
      <trkpt lat="44.87519" lon="0.22946">
        <ele>119</ele>
        <time>2015-02-10T13:20:21Z</time>
      </trkpt>
      <trkpt lat="44.87519" lon="0.22946">
        <ele>118</ele>
        <time>2015-02-10T13:20:22Z</time>
      </trkpt>
      <trkpt lat="44.87519" lon="0.22948">
        <ele>116</ele>
        <time>2015-02-10T13:20:23Z</time>
      </trkpt>
      <trkpt lat="44.8752" lon="0.22948">
        <ele>117</ele>
        <time>2015-02-10T13:20:24Z</time>
      </trkpt>
      <trkpt lat="44.8752" lon="0.22949">
        <ele>118</ele>
        <time>2015-02-10T13:20:25Z</time>
      </trkpt>
      <trkpt lat="44.87519" lon="0.2295">
        <ele>118</ele>
        <time>2015-02-10T13:20:26Z</time>
      </trkpt>
      <trkpt lat="44.8752" lon="0.22951">
        <ele>119</ele>
        <time>2015-02-10T13:20:27Z</time>
      </trkpt>
      <trkpt lat="44.8752" lon="0.22952">
        <ele>116</ele>
        <time>2015-02-10T13:20:28Z</time>
      </trkpt>
      <trkpt lat="44.8752" lon="0.22953">
        <ele>114</ele>
        <time>2015-02-10T13:20:29Z</time>
      </trkpt>
      <trkpt lat="44.8752" lon="0.22953">
        <ele>114</ele>
        <time>2015-02-10T13:20:30Z</time>
      </trkpt>
      <trkpt lat="44.8752" lon="0.22954">
        <ele>114</ele>
        <time>2015-02-10T13:20:31Z</time>
      </trkpt>
      <trkpt lat="44.8752" lon="0.22955">
        <ele>116</ele>
        <time>2015-02-10T13:20:32Z</time>
      </trkpt>
      <trkpt lat="44.87519" lon="0.22956">
        <ele>116</ele>
        <time>2015-02-10T13:20:33Z</time>
      </trkpt>
      <trkpt lat="44.87519" lon="0.22956">
        <ele>116</ele>
        <time>2015-02-10T13:20:34Z</time>
      </trkpt>
      <trkpt lat="44.87519" lon="0.22957">
        <ele>116</ele>
        <time>2015-02-10T13:20:35Z</time>
      </trkpt>
      <trkpt lat="44.87519" lon="0.22957">
        <ele>113</ele>
        <time>2015-02-10T13:20:36Z</time>
      </trkpt>
      <trkpt lat="44.87519" lon="0.22958">
        <ele>111</ele>
        <time>2015-02-10T13:20:37Z</time>
      </trkpt>
      <trkpt lat="44.87519" lon="0.22959">
        <ele>108</ele>
        <time>2015-02-10T13:20:38Z</time>
      </trkpt>
      <trkpt lat="44.87519" lon="0.22959">
        <ele>112</ele>
        <time>2015-02-10T13:20:39Z</time>
      </trkpt>
      <trkpt lat="44.8752" lon="0.2296">
        <ele>109</ele>
        <time>2015-02-10T13:20:40Z</time>
      </trkpt>
      <trkpt lat="44.8752" lon="0.2296">
        <ele>111</ele>
        <time>2015-02-10T13:20:41Z</time>
      </trkpt>
      <trkpt lat="44.8752" lon="0.22961">
        <ele>113</ele>
        <time>2015-02-10T13:20:42Z</time>
      </trkpt>
      <trkpt lat="44.8752" lon="0.22961">
        <ele>116</ele>
        <time>2015-02-10T13:20:43Z</time>
      </trkpt>
      <trkpt lat="44.8752" lon="0.22963">
        <ele>111</ele>
        <time>2015-02-10T13:20:44Z</time>
      </trkpt>
      <trkpt lat="44.8752" lon="0.22963">
        <ele>114</ele>
        <time>2015-02-10T13:20:45Z</time>
      </trkpt>
      <trkpt lat="44.8752" lon="0.22964">
        <ele>111</ele>
        <time>2015-02-10T13:20:46Z</time>
      </trkpt>
      <trkpt lat="44.8752" lon="0.22965">
        <ele>108</ele>
        <time>2015-02-10T13:20:47Z</time>
      </trkpt>
      <trkpt lat="44.8752" lon="0.22966">
        <ele>110</ele>
        <time>2015-02-10T13:20:48Z</time>
      </trkpt>
      <trkpt lat="44.8752" lon="0.22966">
        <ele>108</ele>
        <time>2015-02-10T13:20:49Z</time>
      </trkpt>
      <trkpt lat="44.8752" lon="0.22967">
        <ele>108</ele>
        <time>2015-02-10T13:20:50Z</time>
      </trkpt>
      <trkpt lat="44.8752" lon="0.22967">
        <ele>110</ele>
        <time>2015-02-10T13:20:51Z</time>
      </trkpt>
      <trkpt lat="44.87522" lon="0.22968">
        <ele>111</ele>
        <time>2015-02-10T13:20:52Z</time>
      </trkpt>
      <trkpt lat="44.87522" lon="0.22969">
        <ele>107</ele>
        <time>2015-02-10T13:20:53Z</time>
      </trkpt>
      <trkpt lat="44.87523" lon="0.2297">
        <ele>107</ele>
        <time>2015-02-10T13:20:54Z</time>
      </trkpt>
      <trkpt lat="44.87523" lon="0.22971">
        <ele>107</ele>
        <time>2015-02-10T13:20:55Z</time>
      </trkpt>
      <trkpt lat="44.87523" lon="0.22972">
        <ele>106</ele>
        <time>2015-02-10T13:20:56Z</time>
      </trkpt>
      <trkpt lat="44.87523" lon="0.22973">
        <ele>106</ele>
        <time>2015-02-10T13:20:57Z</time>
      </trkpt>
      <trkpt lat="44.87524" lon="0.22974">
        <ele>106</ele>
        <time>2015-02-10T13:20:58Z</time>
      </trkpt>
      <trkpt lat="44.87524" lon="0.22975">
        <ele>109</ele>
        <time>2015-02-10T13:20:59Z</time>
      </trkpt>
      <trkpt lat="44.87524" lon="0.22976">
        <ele>107</ele>
        <time>2015-02-10T13:21:00Z</time>
      </trkpt>
      <trkpt lat="44.87524" lon="0.22978">
        <ele>107</ele>
        <time>2015-02-10T13:21:01Z</time>
      </trkpt>
      <trkpt lat="44.87524" lon="0.22979">
        <ele>108</ele>
        <time>2015-02-10T13:21:02Z</time>
      </trkpt>
      <trkpt lat="44.87525" lon="0.2298">
        <ele>108</ele>
        <time>2015-02-10T13:21:03Z</time>
      </trkpt>
      <trkpt lat="44.87526" lon="0.22981">
        <ele>107</ele>
        <time>2015-02-10T13:21:04Z</time>
      </trkpt>
      <trkpt lat="44.87527" lon="0.22982">
        <ele>109</ele>
        <time>2015-02-10T13:21:05Z</time>
      </trkpt>
      <trkpt lat="44.87527" lon="0.22983">
        <ele>107</ele>
        <time>2015-02-10T13:21:06Z</time>
      </trkpt>
      <trkpt lat="44.87527" lon="0.22983">
        <ele>110</ele>
        <time>2015-02-10T13:21:07Z</time>
      </trkpt>
      <trkpt lat="44.87528" lon="0.22984">
        <ele>109</ele>
        <time>2015-02-10T13:21:08Z</time>
      </trkpt>
      <trkpt lat="44.87528" lon="0.22985">
        <ele>107</ele>
        <time>2015-02-10T13:21:09Z</time>
      </trkpt>
      <trkpt lat="44.87527" lon="0.22986">
        <ele>106</ele>
        <time>2015-02-10T13:21:10Z</time>
      </trkpt>
      <trkpt lat="44.87528" lon="0.22986">
        <ele>102</ele>
        <time>2015-02-10T13:21:11Z</time>
      </trkpt>
      <trkpt lat="44.87528" lon="0.22987">
        <ele>100</ele>
        <time>2015-02-10T13:21:12Z</time>
      </trkpt>
      <trkpt lat="44.87528" lon="0.22988">
        <ele>99</ele>
        <time>2015-02-10T13:21:13Z</time>
      </trkpt>
      <trkpt lat="44.87529" lon="0.22989">
        <ele>98</ele>
        <time>2015-02-10T13:21:14Z</time>
      </trkpt>
      <trkpt lat="44.87529" lon="0.2299">
        <ele>101</ele>
        <time>2015-02-10T13:21:15Z</time>
      </trkpt>
      <trkpt lat="44.87529" lon="0.22992">
        <ele>102</ele>
        <time>2015-02-10T13:21:16Z</time>
      </trkpt>
      <trkpt lat="44.87529" lon="0.22993">
        <ele>106</ele>
        <time>2015-02-10T13:21:17Z</time>
      </trkpt>
      <trkpt lat="44.87528" lon="0.22995">
        <ele>103</ele>
        <time>2015-02-10T13:21:18Z</time>
      </trkpt>
      <trkpt lat="44.87528" lon="0.22998">
        <ele>102</ele>
        <time>2015-02-10T13:21:19Z</time>
      </trkpt>
      <trkpt lat="44.87528" lon="0.22999">
        <ele>103</ele>
        <time>2015-02-10T13:21:20Z</time>
      </trkpt>
      <trkpt lat="44.87528" lon="0.23001">
        <ele>102</ele>
        <time>2015-02-10T13:21:21Z</time>
      </trkpt>
      <trkpt lat="44.8753" lon="0.23002">
        <ele>102</ele>
        <time>2015-02-10T13:21:22Z</time>
      </trkpt>
      <trkpt lat="44.87531" lon="0.23003">
        <ele>104</ele>
        <time>2015-02-10T13:21:23Z</time>
      </trkpt>
      <trkpt lat="44.87531" lon="0.23004">
        <ele>106</ele>
        <time>2015-02-10T13:21:24Z</time>
      </trkpt>
      <trkpt lat="44.87533" lon="0.23005">
        <ele>104</ele>
        <time>2015-02-10T13:21:25Z</time>
      </trkpt>
      <trkpt lat="44.87534" lon="0.23005">
        <ele>99</ele>
        <time>2015-02-10T13:21:26Z</time>
      </trkpt>
      <trkpt lat="44.87535" lon="0.23005">
        <ele>101</ele>
        <time>2015-02-10T13:21:27Z</time>
      </trkpt>
      <trkpt lat="44.87536" lon="0.23005">
        <ele>100</ele>
        <time>2015-02-10T13:21:28Z</time>
      </trkpt>
      <trkpt lat="44.87537" lon="0.23006">
        <ele>100</ele>
        <time>2015-02-10T13:21:29Z</time>
      </trkpt>
      <trkpt lat="44.87538" lon="0.23006">
        <ele>98</ele>
        <time>2015-02-10T13:21:30Z</time>
      </trkpt>
      <trkpt lat="44.87538" lon="0.23007">
        <ele>105</ele>
        <time>2015-02-10T13:21:31Z</time>
      </trkpt>
      <trkpt lat="44.87538" lon="0.23007">
        <ele>104</ele>
        <time>2015-02-10T13:21:32Z</time>
      </trkpt>
      <trkpt lat="44.87538" lon="0.23007">
        <ele>103</ele>
        <time>2015-02-10T13:21:33Z</time>
      </trkpt>
      <trkpt lat="44.87539" lon="0.23008">
        <ele>101</ele>
        <time>2015-02-10T13:21:34Z</time>
      </trkpt>
      <trkpt lat="44.87539" lon="0.23009">
        <ele>100</ele>
        <time>2015-02-10T13:21:35Z</time>
      </trkpt>
      <trkpt lat="44.8754" lon="0.2301">
        <ele>98</ele>
        <time>2015-02-10T13:21:36Z</time>
      </trkpt>
      <trkpt lat="44.87541" lon="0.23011">
        <ele>98</ele>
        <time>2015-02-10T13:21:37Z</time>
      </trkpt>
      <trkpt lat="44.87542" lon="0.23013">
        <ele>97</ele>
        <time>2015-02-10T13:21:38Z</time>
      </trkpt>
      <trkpt lat="44.87544" lon="0.23013">
        <ele>97</ele>
        <time>2015-02-10T13:21:39Z</time>
      </trkpt>
      <trkpt lat="44.87544" lon="0.23014">
        <ele>98</ele>
        <time>2015-02-10T13:21:40Z</time>
      </trkpt>
      <trkpt lat="44.87545" lon="0.23015">
        <ele>98</ele>
        <time>2015-02-10T13:21:41Z</time>
      </trkpt>
      <trkpt lat="44.87545" lon="0.23016">
        <ele>101</ele>
        <time>2015-02-10T13:21:42Z</time>
      </trkpt>
      <trkpt lat="44.87546" lon="0.23017">
        <ele>101</ele>
        <time>2015-02-10T13:21:43Z</time>
      </trkpt>
      <trkpt lat="44.87546" lon="0.23018">
        <ele>100</ele>
        <time>2015-02-10T13:21:44Z</time>
      </trkpt>
      <trkpt lat="44.87546" lon="0.23019">
        <ele>102</ele>
        <time>2015-02-10T13:21:45Z</time>
      </trkpt>
      <trkpt lat="44.87546" lon="0.23019">
        <ele>98</ele>
        <time>2015-02-10T13:21:46Z</time>
      </trkpt>
      <trkpt lat="44.87546" lon="0.2302">
        <ele>97</ele>
        <time>2015-02-10T13:21:47Z</time>
      </trkpt>
      <trkpt lat="44.87547" lon="0.23021">
        <ele>103</ele>
        <time>2015-02-10T13:21:48Z</time>
      </trkpt>
      <trkpt lat="44.87546" lon="0.23021">
        <ele>107</ele>
        <time>2015-02-10T13:21:49Z</time>
      </trkpt>
      <trkpt lat="44.87546" lon="0.23021">
        <ele>103</ele>
        <time>2015-02-10T13:21:50Z</time>
      </trkpt>
      <trkpt lat="44.87545" lon="0.23022">
        <ele>102</ele>
        <time>2015-02-10T13:21:51Z</time>
      </trkpt>
      <trkpt lat="44.87545" lon="0.23022">
        <ele>102</ele>
        <time>2015-02-10T13:21:52Z</time>
      </trkpt>
      <trkpt lat="44.87545" lon="0.23023">
        <ele>103</ele>
        <time>2015-02-10T13:21:53Z</time>
      </trkpt>
      <trkpt lat="44.87544" lon="0.23025">
        <ele>101</ele>
        <time>2015-02-10T13:21:54Z</time>
      </trkpt>
      <trkpt lat="44.87544" lon="0.23027">
        <ele>101</ele>
        <time>2015-02-10T13:21:55Z</time>
      </trkpt>
      <trkpt lat="44.87544" lon="0.23027">
        <ele>100</ele>
        <time>2015-02-10T13:21:56Z</time>
      </trkpt>
      <trkpt lat="44.87544" lon="0.23027">
        <ele>101</ele>
        <time>2015-02-10T13:21:57Z</time>
      </trkpt>
      <trkpt lat="44.87544" lon="0.23027">
        <ele>104</ele>
        <time>2015-02-10T13:21:58Z</time>
      </trkpt>
      <trkpt lat="44.87544" lon="0.23027">
        <ele>106</ele>
        <time>2015-02-10T13:21:59Z</time>
      </trkpt>
      <trkpt lat="44.87544" lon="0.23027">
        <ele>110</ele>
        <time>2015-02-10T13:22:00Z</time>
      </trkpt>
      <trkpt lat="44.87544" lon="0.23027">
        <ele>110</ele>
        <time>2015-02-10T13:22:01Z</time>
      </trkpt>
      <trkpt lat="44.87543" lon="0.23027">
        <ele>112</ele>
        <time>2015-02-10T13:22:02Z</time>
      </trkpt>
      <trkpt lat="44.87543" lon="0.23027">
        <ele>113</ele>
        <time>2015-02-10T13:22:03Z</time>
      </trkpt>
      <trkpt lat="44.87543" lon="0.23027">
        <ele>110</ele>
        <time>2015-02-10T13:22:04Z</time>
      </trkpt>
      <trkpt lat="44.87543" lon="0.23027">
        <ele>109</ele>
        <time>2015-02-10T13:22:05Z</time>
      </trkpt>
      <trkpt lat="44.87543" lon="0.23027">
        <ele>107</ele>
        <time>2015-02-10T13:22:06Z</time>
      </trkpt>
      <trkpt lat="44.87543" lon="0.23027">
        <ele>105</ele>
        <time>2015-02-10T13:22:07Z</time>
      </trkpt>
      <trkpt lat="44.87543" lon="0.23027">
        <ele>103</ele>
        <time>2015-02-10T13:22:08Z</time>
      </trkpt>
      <trkpt lat="44.87543" lon="0.23027">
        <ele>102</ele>
        <time>2015-02-10T13:22:09Z</time>
      </trkpt>
      <trkpt lat="44.87543" lon="0.23027">
        <ele>101</ele>
        <time>2015-02-10T13:22:10Z</time>
      </trkpt>
      <trkpt lat="44.87543" lon="0.23027">
        <ele>98</ele>
        <time>2015-02-10T13:22:11Z</time>
      </trkpt>
      <trkpt lat="44.87543" lon="0.23027">
        <ele>96</ele>
        <time>2015-02-10T13:22:12Z</time>
      </trkpt>
      <trkpt lat="44.87543" lon="0.23027">
        <ele>95</ele>
        <time>2015-02-10T13:22:13Z</time>
      </trkpt>
      <trkpt lat="44.87543" lon="0.23027">
        <ele>96</ele>
        <time>2015-02-10T13:22:14Z</time>
      </trkpt>
      <trkpt lat="44.87543" lon="0.23027">
        <ele>98</ele>
        <time>2015-02-10T13:22:15Z</time>
      </trkpt>
      <trkpt lat="44.87543" lon="0.23027">
        <ele>99</ele>
        <time>2015-02-10T13:22:16Z</time>
      </trkpt>
      <trkpt lat="44.87543" lon="0.23027">
        <ele>101</ele>
        <time>2015-02-10T13:22:17Z</time>
      </trkpt>
      <trkpt lat="44.87543" lon="0.23027">
        <ele>99</ele>
        <time>2015-02-10T13:22:18Z</time>
      </trkpt>
      <trkpt lat="44.87543" lon="0.23028">
        <ele>104</ele>
        <time>2015-02-10T13:22:19Z</time>
      </trkpt>
      <trkpt lat="44.87544" lon="0.23028">
        <ele>107</ele>
        <time>2015-02-10T13:22:20Z</time>
      </trkpt>
      <trkpt lat="44.87544" lon="0.23028">
        <ele>110</ele>
        <time>2015-02-10T13:22:21Z</time>
      </trkpt>
      <trkpt lat="44.87544" lon="0.23028">
        <ele>109</ele>
        <time>2015-02-10T13:22:22Z</time>
      </trkpt>
      <trkpt lat="44.87545" lon="0.23029">
        <ele>111</ele>
        <time>2015-02-10T13:22:23Z</time>
      </trkpt>
      <trkpt lat="44.87545" lon="0.2303">
        <ele>110</ele>
        <time>2015-02-10T13:22:24Z</time>
      </trkpt>
      <trkpt lat="44.87545" lon="0.23032">
        <ele>112</ele>
        <time>2015-02-10T13:22:25Z</time>
      </trkpt>
      <trkpt lat="44.87546" lon="0.23033">
        <ele>115</ele>
        <time>2015-02-10T13:22:26Z</time>
      </trkpt>
      <trkpt lat="44.87546" lon="0.23033">
        <ele>112</ele>
        <time>2015-02-10T13:22:27Z</time>
      </trkpt>
      <trkpt lat="44.87547" lon="0.23034">
        <ele>110</ele>
        <time>2015-02-10T13:22:28Z</time>
      </trkpt>
      <trkpt lat="44.87547" lon="0.23034">
        <ele>112</ele>
        <time>2015-02-10T13:22:29Z</time>
      </trkpt>
      <trkpt lat="44.87547" lon="0.23035">
        <ele>108</ele>
        <time>2015-02-10T13:22:30Z</time>
      </trkpt>
      <trkpt lat="44.87547" lon="0.23035">
        <ele>109</ele>
        <time>2015-02-10T13:22:31Z</time>
      </trkpt>
      <trkpt lat="44.87547" lon="0.23035">
        <ele>107</ele>
        <time>2015-02-10T13:22:32Z</time>
      </trkpt>
      <trkpt lat="44.87547" lon="0.23035">
        <ele>109</ele>
        <time>2015-02-10T13:22:33Z</time>
      </trkpt>
      <trkpt lat="44.87547" lon="0.23036">
        <ele>112</ele>
        <time>2015-02-10T13:22:34Z</time>
      </trkpt>
      <trkpt lat="44.87547" lon="0.23036">
        <ele>113</ele>
        <time>2015-02-10T13:22:35Z</time>
      </trkpt>
      <trkpt lat="44.87547" lon="0.23036">
        <ele>115</ele>
        <time>2015-02-10T13:22:36Z</time>
      </trkpt>
      <trkpt lat="44.87548" lon="0.23036">
        <ele>116</ele>
        <time>2015-02-10T13:22:37Z</time>
      </trkpt>
      <trkpt lat="44.87548" lon="0.23036">
        <ele>114</ele>
        <time>2015-02-10T13:22:38Z</time>
      </trkpt>
      <trkpt lat="44.87548" lon="0.23036">
        <ele>110</ele>
        <time>2015-02-10T13:22:39Z</time>
      </trkpt>
      <trkpt lat="44.87548" lon="0.23037">
        <ele>112</ele>
        <time>2015-02-10T13:22:40Z</time>
      </trkpt>
      <trkpt lat="44.87548" lon="0.23037">
        <ele>114</ele>
        <time>2015-02-10T13:22:41Z</time>
      </trkpt>
      <trkpt lat="44.87548" lon="0.23038">
        <ele>113</ele>
        <time>2015-02-10T13:22:42Z</time>
      </trkpt>
      <trkpt lat="44.87548" lon="0.23038">
        <ele>112</ele>
        <time>2015-02-10T13:22:43Z</time>
      </trkpt>
      <trkpt lat="44.87547" lon="0.23039">
        <ele>113</ele>
        <time>2015-02-10T13:22:44Z</time>
      </trkpt>
      <trkpt lat="44.87547" lon="0.2304">
        <ele>111</ele>
        <time>2015-02-10T13:22:45Z</time>
      </trkpt>
      <trkpt lat="44.87547" lon="0.23041">
        <ele>113</ele>
        <time>2015-02-10T13:22:46Z</time>
      </trkpt>
      <trkpt lat="44.87547" lon="0.23042">
        <ele>112</ele>
        <time>2015-02-10T13:22:47Z</time>
      </trkpt>
      <trkpt lat="44.87547" lon="0.23043">
        <ele>108</ele>
        <time>2015-02-10T13:22:48Z</time>
      </trkpt>
      <trkpt lat="44.87547" lon="0.23044">
        <ele>110</ele>
        <time>2015-02-10T13:22:49Z</time>
      </trkpt>
      <trkpt lat="44.87548" lon="0.23045">
        <ele>112</ele>
        <time>2015-02-10T13:22:50Z</time>
      </trkpt>
      <trkpt lat="44.87548" lon="0.23045">
        <ele>112</ele>
        <time>2015-02-10T13:22:51Z</time>
      </trkpt>
      <trkpt lat="44.87548" lon="0.23046">
        <ele>108</ele>
        <time>2015-02-10T13:22:52Z</time>
      </trkpt>
      <trkpt lat="44.87548" lon="0.23046">
        <ele>110</ele>
        <time>2015-02-10T13:22:53Z</time>
      </trkpt>
      <trkpt lat="44.87549" lon="0.23048">
        <ele>111</ele>
        <time>2015-02-10T13:22:54Z</time>
      </trkpt>
      <trkpt lat="44.87549" lon="0.23049">
        <ele>113</ele>
        <time>2015-02-10T13:22:55Z</time>
      </trkpt>
      <trkpt lat="44.87549" lon="0.23049">
        <ele>112</ele>
        <time>2015-02-10T13:22:56Z</time>
      </trkpt>
      <trkpt lat="44.8755" lon="0.23051">
        <ele>113</ele>
        <time>2015-02-10T13:22:57Z</time>
      </trkpt>
      <trkpt lat="44.8755" lon="0.23051">
        <ele>112</ele>
        <time>2015-02-10T13:22:58Z</time>
      </trkpt>
      <trkpt lat="44.8755" lon="0.23051">
        <ele>108</ele>
        <time>2015-02-10T13:22:59Z</time>
      </trkpt>
      <trkpt lat="44.87551" lon="0.23052">
        <ele>110</ele>
        <time>2015-02-10T13:23:00Z</time>
      </trkpt>
      <trkpt lat="44.87551" lon="0.23052">
        <ele>110</ele>
        <time>2015-02-10T13:23:01Z</time>
      </trkpt>
      <trkpt lat="44.87551" lon="0.23052">
        <ele>110</ele>
        <time>2015-02-10T13:23:02Z</time>
      </trkpt>
      <trkpt lat="44.87551" lon="0.23054">
        <ele>115</ele>
        <time>2015-02-10T13:23:03Z</time>
      </trkpt>
      <trkpt lat="44.87552" lon="0.23055">
        <ele>112</ele>
        <time>2015-02-10T13:23:04Z</time>
      </trkpt>
      <trkpt lat="44.87552" lon="0.23055">
        <ele>108</ele>
        <time>2015-02-10T13:23:05Z</time>
      </trkpt>
      <trkpt lat="44.87552" lon="0.23055">
        <ele>109</ele>
        <time>2015-02-10T13:23:06Z</time>
      </trkpt>
      <trkpt lat="44.87555" lon="0.23062">
        <ele>113</ele>
        <time>2015-02-10T13:23:07Z</time>
      </trkpt>
      <trkpt lat="44.87555" lon="0.23062">
        <ele>108</ele>
        <time>2015-02-10T13:23:08Z</time>
      </trkpt>
      <trkpt lat="44.87555" lon="0.23063">
        <ele>107</ele>
        <time>2015-02-10T13:23:09Z</time>
      </trkpt>
      <trkpt lat="44.87555" lon="0.23065">
        <ele>111</ele>
        <time>2015-02-10T13:23:10Z</time>
      </trkpt>
      <trkpt lat="44.87555" lon="0.23066">
        <ele>109</ele>
        <time>2015-02-10T13:23:11Z</time>
      </trkpt>
      <trkpt lat="44.87555" lon="0.23067">
        <ele>107</ele>
        <time>2015-02-10T13:23:12Z</time>
      </trkpt>
      <trkpt lat="44.87554" lon="0.23069">
        <ele>108</ele>
        <time>2015-02-10T13:23:13Z</time>
      </trkpt>
      <trkpt lat="44.87555" lon="0.2307">
        <ele>109</ele>
        <time>2015-02-10T13:23:14Z</time>
      </trkpt>
      <trkpt lat="44.87555" lon="0.2307">
        <ele>103</ele>
        <time>2015-02-10T13:23:15Z</time>
      </trkpt>
      <trkpt lat="44.87555" lon="0.23071">
        <ele>104</ele>
        <time>2015-02-10T13:23:16Z</time>
      </trkpt>
      <trkpt lat="44.87556" lon="0.23072">
        <ele>103</ele>
        <time>2015-02-10T13:23:17Z</time>
      </trkpt>
      <trkpt lat="44.87556" lon="0.23073">
        <ele>104</ele>
        <time>2015-02-10T13:23:18Z</time>
      </trkpt>
      <trkpt lat="44.87557" lon="0.23074">
        <ele>104</ele>
        <time>2015-02-10T13:23:19Z</time>
      </trkpt>
      <trkpt lat="44.87557" lon="0.23075">
        <ele>100</ele>
        <time>2015-02-10T13:23:20Z</time>
      </trkpt>
      <trkpt lat="44.87557" lon="0.23075">
        <ele>102</ele>
        <time>2015-02-10T13:23:21Z</time>
      </trkpt>
      <trkpt lat="44.87558" lon="0.23075">
        <ele>100</ele>
        <time>2015-02-10T13:23:22Z</time>
      </trkpt>
      <trkpt lat="44.87558" lon="0.23075">
        <ele>102</ele>
        <time>2015-02-10T13:23:23Z</time>
      </trkpt>
      <trkpt lat="44.87558" lon="0.23075">
        <ele>103</ele>
        <time>2015-02-10T13:23:24Z</time>
      </trkpt>
      <trkpt lat="44.87558" lon="0.23075">
        <ele>102</ele>
        <time>2015-02-10T13:23:25Z</time>
      </trkpt>
      <trkpt lat="44.87558" lon="0.23075">
        <ele>107</ele>
        <time>2015-02-10T13:23:26Z</time>
      </trkpt>
      <trkpt lat="44.87558" lon="0.23075">
        <ele>106</ele>
        <time>2015-02-10T13:23:27Z</time>
      </trkpt>
      <trkpt lat="44.87557" lon="0.23075">
        <ele>106</ele>
        <time>2015-02-10T13:23:28Z</time>
      </trkpt>
      <trkpt lat="44.87557" lon="0.23076">
        <ele>106</ele>
        <time>2015-02-10T13:23:29Z</time>
      </trkpt>
      <trkpt lat="44.87558" lon="0.23077">
        <ele>105</ele>
        <time>2015-02-10T13:23:30Z</time>
      </trkpt>
      <trkpt lat="44.87558" lon="0.23077">
        <ele>106</ele>
        <time>2015-02-10T13:23:31Z</time>
      </trkpt>
      <trkpt lat="44.87558" lon="0.23077">
        <ele>110</ele>
        <time>2015-02-10T13:23:32Z</time>
      </trkpt>
      <trkpt lat="44.87558" lon="0.23077">
        <ele>110</ele>
        <time>2015-02-10T13:23:33Z</time>
      </trkpt>
      <trkpt lat="44.87557" lon="0.23078">
        <ele>105</ele>
        <time>2015-02-10T13:23:34Z</time>
      </trkpt>
      <trkpt lat="44.87557" lon="0.23079">
        <ele>100</ele>
        <time>2015-02-10T13:23:35Z</time>
      </trkpt>
      <trkpt lat="44.87558" lon="0.2308">
        <ele>103</ele>
        <time>2015-02-10T13:23:36Z</time>
      </trkpt>
      <trkpt lat="44.87558" lon="0.2308">
        <ele>105</ele>
        <time>2015-02-10T13:23:37Z</time>
      </trkpt>
      <trkpt lat="44.87558" lon="0.2308">
        <ele>104</ele>
        <time>2015-02-10T13:23:38Z</time>
      </trkpt>
      <trkpt lat="44.87558" lon="0.23081">
        <ele>104</ele>
        <time>2015-02-10T13:23:39Z</time>
      </trkpt>
      <trkpt lat="44.87558" lon="0.23082">
        <ele>104</ele>
        <time>2015-02-10T13:23:40Z</time>
      </trkpt>
      <trkpt lat="44.87559" lon="0.23083">
        <ele>108</ele>
        <time>2015-02-10T13:23:41Z</time>
      </trkpt>
      <trkpt lat="44.87559" lon="0.23084">
        <ele>107</ele>
        <time>2015-02-10T13:23:42Z</time>
      </trkpt>
      <trkpt lat="44.8756" lon="0.23085">
        <ele>105</ele>
        <time>2015-02-10T13:23:43Z</time>
      </trkpt>
      <trkpt lat="44.8756" lon="0.23085">
        <ele>107</ele>
        <time>2015-02-10T13:23:44Z</time>
      </trkpt>
      <trkpt lat="44.8756" lon="0.23086">
        <ele>106</ele>
        <time>2015-02-10T13:23:45Z</time>
      </trkpt>
      <trkpt lat="44.8756" lon="0.23086">
        <ele>110</ele>
        <time>2015-02-10T13:23:46Z</time>
      </trkpt>
      <trkpt lat="44.8756" lon="0.23086">
        <ele>111</ele>
        <time>2015-02-10T13:23:47Z</time>
      </trkpt>
      <trkpt lat="44.8756" lon="0.23087">
        <ele>110</ele>
        <time>2015-02-10T13:23:48Z</time>
      </trkpt>
      <trkpt lat="44.8756" lon="0.23088">
        <ele>113</ele>
        <time>2015-02-10T13:23:49Z</time>
      </trkpt>
      <trkpt lat="44.87561" lon="0.23089">
        <ele>113</ele>
        <time>2015-02-10T13:23:50Z</time>
      </trkpt>
      <trkpt lat="44.87561" lon="0.2309">
        <ele>110</ele>
        <time>2015-02-10T13:23:51Z</time>
      </trkpt>
      <trkpt lat="44.87562" lon="0.23091">
        <ele>112</ele>
        <time>2015-02-10T13:23:52Z</time>
      </trkpt>
      <trkpt lat="44.87562" lon="0.23091">
        <ele>114</ele>
        <time>2015-02-10T13:23:53Z</time>
      </trkpt>
      <trkpt lat="44.87562" lon="0.23092">
        <ele>117</ele>
        <time>2015-02-10T13:23:54Z</time>
      </trkpt>
      <trkpt lat="44.87562" lon="0.23093">
        <ele>117</ele>
        <time>2015-02-10T13:23:55Z</time>
      </trkpt>
      <trkpt lat="44.87563" lon="0.23093">
        <ele>115</ele>
        <time>2015-02-10T13:23:56Z</time>
      </trkpt>
      <trkpt lat="44.87563" lon="0.23093">
        <ele>119</ele>
        <time>2015-02-10T13:23:57Z</time>
      </trkpt>
      <trkpt lat="44.87563" lon="0.23094">
        <ele>121</ele>
        <time>2015-02-10T13:23:58Z</time>
      </trkpt>
      <trkpt lat="44.87563" lon="0.23095">
        <ele>123</ele>
        <time>2015-02-10T13:23:59Z</time>
      </trkpt>
      <trkpt lat="44.87564" lon="0.23095">
        <ele>122</ele>
        <time>2015-02-10T13:24:00Z</time>
      </trkpt>
      <trkpt lat="44.87564" lon="0.23095">
        <ele>119</ele>
        <time>2015-02-10T13:24:01Z</time>
      </trkpt>
      <trkpt lat="44.87564" lon="0.23095">
        <ele>116</ele>
        <time>2015-02-10T13:24:02Z</time>
      </trkpt>
      <trkpt lat="44.87564" lon="0.23095">
        <ele>119</ele>
        <time>2015-02-10T13:24:03Z</time>
      </trkpt>
      <trkpt lat="44.87564" lon="0.23096">
        <ele>117</ele>
        <time>2015-02-10T13:24:04Z</time>
      </trkpt>
      <trkpt lat="44.87564" lon="0.23097">
        <ele>119</ele>
        <time>2015-02-10T13:24:05Z</time>
      </trkpt>
      <trkpt lat="44.87564" lon="0.23098">
        <ele>117</ele>
        <time>2015-02-10T13:24:06Z</time>
      </trkpt>
      <trkpt lat="44.87565" lon="0.231">
        <ele>118</ele>
        <time>2015-02-10T13:24:07Z</time>
      </trkpt>
      <trkpt lat="44.87565" lon="0.23101">
        <ele>122</ele>
        <time>2015-02-10T13:24:08Z</time>
      </trkpt>
      <trkpt lat="44.87566" lon="0.23102">
        <ele>116</ele>
        <time>2015-02-10T13:24:09Z</time>
      </trkpt>
      <trkpt lat="44.87566" lon="0.23103">
        <ele>114</ele>
        <time>2015-02-10T13:24:10Z</time>
      </trkpt>
      <trkpt lat="44.87566" lon="0.23104">
        <ele>112</ele>
        <time>2015-02-10T13:24:11Z</time>
      </trkpt>
      <trkpt lat="44.87567" lon="0.23106">
        <ele>115</ele>
        <time>2015-02-10T13:24:12Z</time>
      </trkpt>
      <trkpt lat="44.87567" lon="0.23107">
        <ele>110</ele>
        <time>2015-02-10T13:24:13Z</time>
      </trkpt>
      <trkpt lat="44.87568" lon="0.23108">
        <ele>110</ele>
        <time>2015-02-10T13:24:14Z</time>
      </trkpt>
      <trkpt lat="44.87569" lon="0.23109">
        <ele>111</ele>
        <time>2015-02-10T13:24:15Z</time>
      </trkpt>
      <trkpt lat="44.87569" lon="0.23111">
        <ele>114</ele>
        <time>2015-02-10T13:24:16Z</time>
      </trkpt>
      <trkpt lat="44.8757" lon="0.23112">
        <ele>115</ele>
        <time>2015-02-10T13:24:17Z</time>
      </trkpt>
      <trkpt lat="44.8757" lon="0.23113">
        <ele>114</ele>
        <time>2015-02-10T13:24:18Z</time>
      </trkpt>
      <trkpt lat="44.87571" lon="0.23114">
        <ele>114</ele>
        <time>2015-02-10T13:24:19Z</time>
      </trkpt>
      <trkpt lat="44.87572" lon="0.23115">
        <ele>112</ele>
        <time>2015-02-10T13:24:20Z</time>
      </trkpt>
      <trkpt lat="44.87573" lon="0.23118">
        <ele>108</ele>
        <time>2015-02-10T13:24:21Z</time>
      </trkpt>
      <trkpt lat="44.87573" lon="0.23118">
        <ele>105</ele>
        <time>2015-02-10T13:24:22Z</time>
      </trkpt>
      <trkpt lat="44.87572" lon="0.23119">
        <ele>112</ele>
        <time>2015-02-10T13:24:23Z</time>
      </trkpt>
      <trkpt lat="44.87572" lon="0.2312">
        <ele>110</ele>
        <time>2015-02-10T13:24:24Z</time>
      </trkpt>
      <trkpt lat="44.87572" lon="0.2312">
        <ele>116</ele>
        <time>2015-02-10T13:24:25Z</time>
      </trkpt>
      <trkpt lat="44.87571" lon="0.23121">
        <ele>112</ele>
        <time>2015-02-10T13:24:26Z</time>
      </trkpt>
      <trkpt lat="44.87571" lon="0.23122">
        <ele>112</ele>
        <time>2015-02-10T13:24:27Z</time>
      </trkpt>
      <trkpt lat="44.87571" lon="0.23123">
        <ele>112</ele>
        <time>2015-02-10T13:24:28Z</time>
      </trkpt>
      <trkpt lat="44.87571" lon="0.23123">
        <ele>119</ele>
        <time>2015-02-10T13:24:29Z</time>
      </trkpt>
      <trkpt lat="44.87571" lon="0.23123">
        <ele>118</ele>
        <time>2015-02-10T13:24:30Z</time>
      </trkpt>
      <trkpt lat="44.87571" lon="0.23122">
        <ele>116</ele>
        <time>2015-02-10T13:24:31Z</time>
      </trkpt>
      <trkpt lat="44.87572" lon="0.23122">
        <ele>114</ele>
        <time>2015-02-10T13:24:32Z</time>
      </trkpt>
      <trkpt lat="44.87572" lon="0.23122">
        <ele>115</ele>
        <time>2015-02-10T13:24:33Z</time>
      </trkpt>
      <trkpt lat="44.87572" lon="0.23122">
        <ele>115</ele>
        <time>2015-02-10T13:24:34Z</time>
      </trkpt>
      <trkpt lat="44.87572" lon="0.23122">
        <ele>116</ele>
        <time>2015-02-10T13:24:35Z</time>
      </trkpt>
      <trkpt lat="44.87572" lon="0.23121">
        <ele>119</ele>
        <time>2015-02-10T13:24:36Z</time>
      </trkpt>
      <trkpt lat="44.87573" lon="0.23121">
        <ele>118</ele>
        <time>2015-02-10T13:24:37Z</time>
      </trkpt>
      <trkpt lat="44.87573" lon="0.2312">
        <ele>120</ele>
        <time>2015-02-10T13:24:38Z</time>
      </trkpt>
      <trkpt lat="44.87573" lon="0.2312">
        <ele>121</ele>
        <time>2015-02-10T13:24:39Z</time>
      </trkpt>
      <trkpt lat="44.87574" lon="0.2312">
        <ele>123</ele>
        <time>2015-02-10T13:24:40Z</time>
      </trkpt>
      <trkpt lat="44.87574" lon="0.2312">
        <ele>126</ele>
        <time>2015-02-10T13:24:41Z</time>
      </trkpt>
      <trkpt lat="44.87575" lon="0.23119">
        <ele>125</ele>
        <time>2015-02-10T13:24:42Z</time>
      </trkpt>
      <trkpt lat="44.87575" lon="0.23119">
        <ele>128</ele>
        <time>2015-02-10T13:24:43Z</time>
      </trkpt>
      <trkpt lat="44.87575" lon="0.23118">
        <ele>124</ele>
        <time>2015-02-10T13:24:44Z</time>
      </trkpt>
      <trkpt lat="44.87576" lon="0.23117">
        <ele>125</ele>
        <time>2015-02-10T13:24:45Z</time>
      </trkpt>
      <trkpt lat="44.87576" lon="0.23117">
        <ele>124</ele>
        <time>2015-02-10T13:24:46Z</time>
      </trkpt>
      <trkpt lat="44.87577" lon="0.23116">
        <ele>122</ele>
        <time>2015-02-10T13:24:47Z</time>
      </trkpt>
      <trkpt lat="44.87578" lon="0.23115">
        <ele>122</ele>
        <time>2015-02-10T13:24:48Z</time>
      </trkpt>
      <trkpt lat="44.87579" lon="0.23114">
        <ele>118</ele>
        <time>2015-02-10T13:24:49Z</time>
      </trkpt>
      <trkpt lat="44.87579" lon="0.23112">
        <ele>120</ele>
        <time>2015-02-10T13:24:50Z</time>
      </trkpt>
      <trkpt lat="44.8758" lon="0.23111">
        <ele>121</ele>
        <time>2015-02-10T13:24:51Z</time>
      </trkpt>
      <trkpt lat="44.8758" lon="0.23111">
        <ele>118</ele>
        <time>2015-02-10T13:24:52Z</time>
      </trkpt>
      <trkpt lat="44.87581" lon="0.2311">
        <ele>120</ele>
        <time>2015-02-10T13:24:53Z</time>
      </trkpt>
      <trkpt lat="44.87581" lon="0.23109">
        <ele>120</ele>
        <time>2015-02-10T13:24:54Z</time>
      </trkpt>
      <trkpt lat="44.87582" lon="0.23108">
        <ele>120</ele>
        <time>2015-02-10T13:24:55Z</time>
      </trkpt>
      <trkpt lat="44.87582" lon="0.23107">
        <ele>124</ele>
        <time>2015-02-10T13:24:56Z</time>
      </trkpt>
      <trkpt lat="44.87582" lon="0.23107">
        <ele>120</ele>
        <time>2015-02-10T13:24:57Z</time>
      </trkpt>
      <trkpt lat="44.87582" lon="0.23107">
        <ele>123</ele>
        <time>2015-02-10T13:24:58Z</time>
      </trkpt>
      <trkpt lat="44.87582" lon="0.23107">
        <ele>123</ele>
        <time>2015-02-10T13:24:59Z</time>
      </trkpt>
      <trkpt lat="44.87582" lon="0.23108">
        <ele>122</ele>
        <time>2015-02-10T13:25:00Z</time>
      </trkpt>
      <trkpt lat="44.87581" lon="0.23109">
        <ele>118</ele>
        <time>2015-02-10T13:25:01Z</time>
      </trkpt>
      <trkpt lat="44.87581" lon="0.23109">
        <ele>117</ele>
        <time>2015-02-10T13:25:02Z</time>
      </trkpt>
      <trkpt lat="44.87581" lon="0.2311">
        <ele>114</ele>
        <time>2015-02-10T13:25:03Z</time>
      </trkpt>
      <trkpt lat="44.8758" lon="0.23111">
        <ele>111</ele>
        <time>2015-02-10T13:25:04Z</time>
      </trkpt>
      <trkpt lat="44.8758" lon="0.23111">
        <ele>113</ele>
        <time>2015-02-10T13:25:05Z</time>
      </trkpt>
      <trkpt lat="44.87579" lon="0.23112">
        <ele>114</ele>
        <time>2015-02-10T13:25:06Z</time>
      </trkpt>
      <trkpt lat="44.87578" lon="0.23112">
        <ele>113</ele>
        <time>2015-02-10T13:25:07Z</time>
      </trkpt>
      <trkpt lat="44.87578" lon="0.23113">
        <ele>115</ele>
        <time>2015-02-10T13:25:08Z</time>
      </trkpt>
      <trkpt lat="44.87577" lon="0.23114">
        <ele>112</ele>
        <time>2015-02-10T13:25:09Z</time>
      </trkpt>
      <trkpt lat="44.87577" lon="0.23115">
        <ele>111</ele>
        <time>2015-02-10T13:25:10Z</time>
      </trkpt>
      <trkpt lat="44.87576" lon="0.23115">
        <ele>111</ele>
        <time>2015-02-10T13:25:11Z</time>
      </trkpt>
      <trkpt lat="44.87576" lon="0.23115">
        <ele>110</ele>
        <time>2015-02-10T13:25:12Z</time>
      </trkpt>
      <trkpt lat="44.87576" lon="0.23115">
        <ele>108</ele>
        <time>2015-02-10T13:25:13Z</time>
      </trkpt>
      <trkpt lat="44.87576" lon="0.23115">
        <ele>113</ele>
        <time>2015-02-10T13:25:14Z</time>
      </trkpt>
      <trkpt lat="44.87576" lon="0.23115">
        <ele>115</ele>
        <time>2015-02-10T13:25:15Z</time>
      </trkpt>
      <trkpt lat="44.87576" lon="0.23115">
        <ele>116</ele>
        <time>2015-02-10T13:25:16Z</time>
      </trkpt>
      <trkpt lat="44.87576" lon="0.23115">
        <ele>116</ele>
        <time>2015-02-10T13:25:17Z</time>
      </trkpt>
      <trkpt lat="44.87576" lon="0.23115">
        <ele>117</ele>
        <time>2015-02-10T13:25:18Z</time>
      </trkpt>
      <trkpt lat="44.87576" lon="0.23115">
        <ele>118</ele>
        <time>2015-02-10T13:25:19Z</time>
      </trkpt>
      <trkpt lat="44.87576" lon="0.23115">
        <ele>119</ele>
        <time>2015-02-10T13:25:20Z</time>
      </trkpt>
      <trkpt lat="44.87576" lon="0.23115">
        <ele>120</ele>
        <time>2015-02-10T13:25:21Z</time>
      </trkpt>
      <trkpt lat="44.87576" lon="0.23115">
        <ele>118</ele>
        <time>2015-02-10T13:25:22Z</time>
      </trkpt>
      <trkpt lat="44.87576" lon="0.23115">
        <ele>119</ele>
        <time>2015-02-10T13:25:23Z</time>
      </trkpt>
      <trkpt lat="44.87576" lon="0.23115">
        <ele>124</ele>
        <time>2015-02-10T13:25:24Z</time>
      </trkpt>
      <trkpt lat="44.87575" lon="0.23116">
        <ele>118</ele>
        <time>2015-02-10T13:25:25Z</time>
      </trkpt>
      <trkpt lat="44.87575" lon="0.23117">
        <ele>117</ele>
        <time>2015-02-10T13:25:26Z</time>
      </trkpt>
      <trkpt lat="44.87574" lon="0.23118">
        <ele>116</ele>
        <time>2015-02-10T13:25:27Z</time>
      </trkpt>
      <trkpt lat="44.87574" lon="0.23119">
        <ele>109</ele>
        <time>2015-02-10T13:25:28Z</time>
      </trkpt>
      <trkpt lat="44.87573" lon="0.2312">
        <ele>112</ele>
        <time>2015-02-10T13:25:29Z</time>
      </trkpt>
      <trkpt lat="44.87573" lon="0.23121">
        <ele>110</ele>
        <time>2015-02-10T13:25:30Z</time>
      </trkpt>
      <trkpt lat="44.87572" lon="0.23122">
        <ele>112</ele>
        <time>2015-02-10T13:25:31Z</time>
      </trkpt>
      <trkpt lat="44.87571" lon="0.23123">
        <ele>110</ele>
        <time>2015-02-10T13:25:32Z</time>
      </trkpt>
      <trkpt lat="44.87571" lon="0.23124">
        <ele>110</ele>
        <time>2015-02-10T13:25:33Z</time>
      </trkpt>
      <trkpt lat="44.87571" lon="0.23125">
        <ele>115</ele>
        <time>2015-02-10T13:25:34Z</time>
      </trkpt>
      <trkpt lat="44.8757" lon="0.23125">
        <ele>113</ele>
        <time>2015-02-10T13:25:35Z</time>
      </trkpt>
      <trkpt lat="44.87569" lon="0.23125">
        <ele>113</ele>
        <time>2015-02-10T13:25:36Z</time>
      </trkpt>
      <trkpt lat="44.87568" lon="0.23126">
        <ele>114</ele>
        <time>2015-02-10T13:25:37Z</time>
      </trkpt>
      <trkpt lat="44.87567" lon="0.23127">
        <ele>115</ele>
        <time>2015-02-10T13:25:38Z</time>
      </trkpt>
      <trkpt lat="44.87567" lon="0.23129">
        <ele>118</ele>
        <time>2015-02-10T13:25:39Z</time>
      </trkpt>
      <trkpt lat="44.87567" lon="0.2313">
        <ele>117</ele>
        <time>2015-02-10T13:25:40Z</time>
      </trkpt>
      <trkpt lat="44.87567" lon="0.2313">
        <ele>111</ele>
        <time>2015-02-10T13:25:41Z</time>
      </trkpt>
      <trkpt lat="44.87567" lon="0.23131">
        <ele>113</ele>
        <time>2015-02-10T13:25:42Z</time>
      </trkpt>
      <trkpt lat="44.87567" lon="0.23132">
        <ele>114</ele>
        <time>2015-02-10T13:25:43Z</time>
      </trkpt>
      <trkpt lat="44.87567" lon="0.23134">
        <ele>114</ele>
        <time>2015-02-10T13:25:44Z</time>
      </trkpt>
      <trkpt lat="44.87567" lon="0.23135">
        <ele>112</ele>
        <time>2015-02-10T13:25:45Z</time>
      </trkpt>
      <trkpt lat="44.87566" lon="0.23137">
        <ele>115</ele>
        <time>2015-02-10T13:25:46Z</time>
      </trkpt>
      <trkpt lat="44.87566" lon="0.23138">
        <ele>115</ele>
        <time>2015-02-10T13:25:47Z</time>
      </trkpt>
      <trkpt lat="44.87565" lon="0.23139">
        <ele>114</ele>
        <time>2015-02-10T13:25:48Z</time>
      </trkpt>
      <trkpt lat="44.87565" lon="0.2314">
        <ele>119</ele>
        <time>2015-02-10T13:25:49Z</time>
      </trkpt>
      <trkpt lat="44.87565" lon="0.23141">
        <ele>119</ele>
        <time>2015-02-10T13:25:50Z</time>
      </trkpt>
      <trkpt lat="44.87565" lon="0.23142">
        <ele>115</ele>
        <time>2015-02-10T13:25:51Z</time>
      </trkpt>
      <trkpt lat="44.87565" lon="0.23143">
        <ele>115</ele>
        <time>2015-02-10T13:25:52Z</time>
      </trkpt>
      <trkpt lat="44.87564" lon="0.23144">
        <ele>115</ele>
        <time>2015-02-10T13:25:53Z</time>
      </trkpt>
      <trkpt lat="44.87564" lon="0.23146">
        <ele>113</ele>
        <time>2015-02-10T13:25:54Z</time>
      </trkpt>
      <trkpt lat="44.87564" lon="0.23147">
        <ele>111</ele>
        <time>2015-02-10T13:25:55Z</time>
      </trkpt>
      <trkpt lat="44.87565" lon="0.23149">
        <ele>113</ele>
        <time>2015-02-10T13:25:56Z</time>
      </trkpt>
      <trkpt lat="44.87564" lon="0.23151">
        <ele>109</ele>
        <time>2015-02-10T13:25:57Z</time>
      </trkpt>
      <trkpt lat="44.87564" lon="0.23152">
        <ele>111</ele>
        <time>2015-02-10T13:25:58Z</time>
      </trkpt>
      <trkpt lat="44.87563" lon="0.23155">
        <ele>114</ele>
        <time>2015-02-10T13:25:59Z</time>
      </trkpt>
      <trkpt lat="44.87562" lon="0.23157">
        <ele>113</ele>
        <time>2015-02-10T13:26:00Z</time>
      </trkpt>
      <trkpt lat="44.87562" lon="0.2316">
        <ele>114</ele>
        <time>2015-02-10T13:26:01Z</time>
      </trkpt>
      <trkpt lat="44.87562" lon="0.23162">
        <ele>115</ele>
        <time>2015-02-10T13:26:02Z</time>
      </trkpt>
      <trkpt lat="44.87562" lon="0.23163">
        <ele>114</ele>
        <time>2015-02-10T13:26:03Z</time>
      </trkpt>
      <trkpt lat="44.87562" lon="0.23164">
        <ele>114</ele>
        <time>2015-02-10T13:26:04Z</time>
      </trkpt>
      <trkpt lat="44.87562" lon="0.23166">
        <ele>116</ele>
        <time>2015-02-10T13:26:05Z</time>
      </trkpt>
      <trkpt lat="44.87563" lon="0.23167">
        <ele>118</ele>
        <time>2015-02-10T13:26:06Z</time>
      </trkpt>
      <trkpt lat="44.87563" lon="0.23169">
        <ele>118</ele>
        <time>2015-02-10T13:26:07Z</time>
      </trkpt>
      <trkpt lat="44.87563" lon="0.23171">
        <ele>116</ele>
        <time>2015-02-10T13:26:08Z</time>
      </trkpt>
      <trkpt lat="44.87562" lon="0.23172">
        <ele>114</ele>
        <time>2015-02-10T13:26:09Z</time>
      </trkpt>
      <trkpt lat="44.87562" lon="0.23173">
        <ele>113</ele>
        <time>2015-02-10T13:26:10Z</time>
      </trkpt>
      <trkpt lat="44.87562" lon="0.23174">
        <ele>112</ele>
        <time>2015-02-10T13:26:11Z</time>
      </trkpt>
      <trkpt lat="44.87562" lon="0.23175">
        <ele>111</ele>
        <time>2015-02-10T13:26:12Z</time>
      </trkpt>
      <trkpt lat="44.87562" lon="0.23177">
        <ele>116</ele>
        <time>2015-02-10T13:26:13Z</time>
      </trkpt>
      <trkpt lat="44.87561" lon="0.23178">
        <ele>113</ele>
        <time>2015-02-10T13:26:14Z</time>
      </trkpt>
      <trkpt lat="44.87561" lon="0.2318">
        <ele>113</ele>
        <time>2015-02-10T13:26:15Z</time>
      </trkpt>
      <trkpt lat="44.87561" lon="0.23181">
        <ele>117</ele>
        <time>2015-02-10T13:26:16Z</time>
      </trkpt>
      <trkpt lat="44.87561" lon="0.23183">
        <ele>115</ele>
        <time>2015-02-10T13:26:17Z</time>
      </trkpt>
      <trkpt lat="44.87561" lon="0.23184">
        <ele>112</ele>
        <time>2015-02-10T13:26:18Z</time>
      </trkpt>
      <trkpt lat="44.87561" lon="0.23186">
        <ele>112</ele>
        <time>2015-02-10T13:26:19Z</time>
      </trkpt>
      <trkpt lat="44.8756" lon="0.2319">
        <ele>115</ele>
        <time>2015-02-10T13:26:20Z</time>
      </trkpt>
      <trkpt lat="44.87561" lon="0.23193">
        <ele>119</ele>
        <time>2015-02-10T13:26:21Z</time>
      </trkpt>
      <trkpt lat="44.87561" lon="0.23195">
        <ele>119</ele>
        <time>2015-02-10T13:26:22Z</time>
      </trkpt>
      <trkpt lat="44.87561" lon="0.23197">
        <ele>119</ele>
        <time>2015-02-10T13:26:23Z</time>
      </trkpt>
      <trkpt lat="44.87561" lon="0.23198">
        <ele>119</ele>
        <time>2015-02-10T13:26:24Z</time>
      </trkpt>
      <trkpt lat="44.87562" lon="0.232">
        <ele>116</ele>
        <time>2015-02-10T13:26:25Z</time>
      </trkpt>
      <trkpt lat="44.87562" lon="0.23201">
        <ele>116</ele>
        <time>2015-02-10T13:26:26Z</time>
      </trkpt>
      <trkpt lat="44.87562" lon="0.23202">
        <ele>114</ele>
        <time>2015-02-10T13:26:27Z</time>
      </trkpt>
      <trkpt lat="44.87562" lon="0.23204">
        <ele>115</ele>
        <time>2015-02-10T13:26:28Z</time>
      </trkpt>
      <trkpt lat="44.87562" lon="0.23205">
        <ele>113</ele>
        <time>2015-02-10T13:26:29Z</time>
      </trkpt>
      <trkpt lat="44.87562" lon="0.23205">
        <ele>115</ele>
        <time>2015-02-10T13:26:30Z</time>
      </trkpt>
      <trkpt lat="44.87562" lon="0.23208">
        <ele>120</ele>
        <time>2015-02-10T13:26:31Z</time>
      </trkpt>
      <trkpt lat="44.87562" lon="0.23209">
        <ele>120</ele>
        <time>2015-02-10T13:26:32Z</time>
      </trkpt>
      <trkpt lat="44.87562" lon="0.23211">
        <ele>118</ele>
        <time>2015-02-10T13:26:33Z</time>
      </trkpt>
      <trkpt lat="44.87562" lon="0.23211">
        <ele>113</ele>
        <time>2015-02-10T13:26:34Z</time>
      </trkpt>
      <trkpt lat="44.87562" lon="0.23212">
        <ele>109</ele>
        <time>2015-02-10T13:26:35Z</time>
      </trkpt>
      <trkpt lat="44.87562" lon="0.23213">
        <ele>108</ele>
        <time>2015-02-10T13:26:36Z</time>
      </trkpt>
      <trkpt lat="44.87561" lon="0.23214">
        <ele>111</ele>
        <time>2015-02-10T13:26:37Z</time>
      </trkpt>
      <trkpt lat="44.87561" lon="0.23216">
        <ele>113</ele>
        <time>2015-02-10T13:26:38Z</time>
      </trkpt>
      <trkpt lat="44.87561" lon="0.23217">
        <ele>115</ele>
        <time>2015-02-10T13:26:39Z</time>
      </trkpt>
      <trkpt lat="44.87561" lon="0.23218">
        <ele>112</ele>
        <time>2015-02-10T13:26:40Z</time>
      </trkpt>
      <trkpt lat="44.8756" lon="0.23219">
        <ele>109</ele>
        <time>2015-02-10T13:26:41Z</time>
      </trkpt>
      <trkpt lat="44.8756" lon="0.2322">
        <ele>113</ele>
        <time>2015-02-10T13:26:42Z</time>
      </trkpt>
      <trkpt lat="44.8756" lon="0.23221">
        <ele>113</ele>
        <time>2015-02-10T13:26:43Z</time>
      </trkpt>
      <trkpt lat="44.8756" lon="0.23222">
        <ele>112</ele>
        <time>2015-02-10T13:26:44Z</time>
      </trkpt>
      <trkpt lat="44.87559" lon="0.23222">
        <ele>112</ele>
        <time>2015-02-10T13:26:45Z</time>
      </trkpt>
      <trkpt lat="44.87559" lon="0.23223">
        <ele>112</ele>
        <time>2015-02-10T13:26:46Z</time>
      </trkpt>
      <trkpt lat="44.87559" lon="0.23224">
        <ele>113</ele>
        <time>2015-02-10T13:26:47Z</time>
      </trkpt>
      <trkpt lat="44.87559" lon="0.23225">
        <ele>113</ele>
        <time>2015-02-10T13:26:48Z</time>
      </trkpt>
      <trkpt lat="44.87559" lon="0.23226">
        <ele>114</ele>
        <time>2015-02-10T13:26:49Z</time>
      </trkpt>
      <trkpt lat="44.87559" lon="0.23226">
        <ele>114</ele>
        <time>2015-02-10T13:26:50Z</time>
      </trkpt>
      <trkpt lat="44.87559" lon="0.23226">
        <ele>113</ele>
        <time>2015-02-10T13:26:51Z</time>
      </trkpt>
      <trkpt lat="44.87559" lon="0.23226">
        <ele>111</ele>
        <time>2015-02-10T13:26:52Z</time>
      </trkpt>
      <trkpt lat="44.87559" lon="0.23226">
        <ele>111</ele>
        <time>2015-02-10T13:26:53Z</time>
      </trkpt>
      <trkpt lat="44.87559" lon="0.23226">
        <ele>111</ele>
        <time>2015-02-10T13:26:54Z</time>
      </trkpt>
      <trkpt lat="44.87559" lon="0.23226">
        <ele>115</ele>
        <time>2015-02-10T13:26:55Z</time>
      </trkpt>
      <trkpt lat="44.87559" lon="0.23226">
        <ele>118</ele>
        <time>2015-02-10T13:26:56Z</time>
      </trkpt>
      <trkpt lat="44.87559" lon="0.23226">
        <ele>118</ele>
        <time>2015-02-10T13:26:57Z</time>
      </trkpt>
      <trkpt lat="44.87559" lon="0.23226">
        <ele>118</ele>
        <time>2015-02-10T13:26:58Z</time>
      </trkpt>
      <trkpt lat="44.87559" lon="0.23226">
        <ele>110</ele>
        <time>2015-02-10T13:26:59Z</time>
      </trkpt>
      <trkpt lat="44.87559" lon="0.23226">
        <ele>108</ele>
        <time>2015-02-10T13:27:00Z</time>
      </trkpt>
      <trkpt lat="44.87559" lon="0.23226">
        <ele>109</ele>
        <time>2015-02-10T13:27:01Z</time>
      </trkpt>
      <trkpt lat="44.87559" lon="0.23226">
        <ele>109</ele>
        <time>2015-02-10T13:27:02Z</time>
      </trkpt>
      <trkpt lat="44.87559" lon="0.23226">
        <ele>110</ele>
        <time>2015-02-10T13:27:03Z</time>
      </trkpt>
      <trkpt lat="44.87559" lon="0.23226">
        <ele>111</ele>
        <time>2015-02-10T13:27:04Z</time>
      </trkpt>
      <trkpt lat="44.87559" lon="0.23226">
        <ele>112</ele>
        <time>2015-02-10T13:27:05Z</time>
      </trkpt>
      <trkpt lat="44.87559" lon="0.23226">
        <ele>113</ele>
        <time>2015-02-10T13:27:06Z</time>
      </trkpt>
      <trkpt lat="44.87559" lon="0.23226">
        <ele>114</ele>
        <time>2015-02-10T13:27:07Z</time>
      </trkpt>
      <trkpt lat="44.87559" lon="0.23226">
        <ele>116</ele>
        <time>2015-02-10T13:27:08Z</time>
      </trkpt>
      <trkpt lat="44.87559" lon="0.23226">
        <ele>118</ele>
        <time>2015-02-10T13:27:09Z</time>
      </trkpt>
      <trkpt lat="44.87559" lon="0.23227">
        <ele>120</ele>
        <time>2015-02-10T13:27:10Z</time>
      </trkpt>
      <trkpt lat="44.87558" lon="0.23228">
        <ele>124</ele>
        <time>2015-02-10T13:27:11Z</time>
      </trkpt>
      <trkpt lat="44.87557" lon="0.23228">
        <ele>126</ele>
        <time>2015-02-10T13:27:12Z</time>
      </trkpt>
      <trkpt lat="44.87557" lon="0.2323">
        <ele>124</ele>
        <time>2015-02-10T13:27:13Z</time>
      </trkpt>
      <trkpt lat="44.87556" lon="0.23231">
        <ele>121</ele>
        <time>2015-02-10T13:27:14Z</time>
      </trkpt>
      <trkpt lat="44.87556" lon="0.23232">
        <ele>123</ele>
        <time>2015-02-10T13:27:15Z</time>
      </trkpt>
      <trkpt lat="44.87555" lon="0.23232">
        <ele>122</ele>
        <time>2015-02-10T13:27:16Z</time>
      </trkpt>
      <trkpt lat="44.87554" lon="0.23235">
        <ele>120</ele>
        <time>2015-02-10T13:27:17Z</time>
      </trkpt>
      <trkpt lat="44.87554" lon="0.23237">
        <ele>119</ele>
        <time>2015-02-10T13:27:18Z</time>
      </trkpt>
      <trkpt lat="44.87553" lon="0.23239">
        <ele>119</ele>
        <time>2015-02-10T13:27:19Z</time>
      </trkpt>
      <trkpt lat="44.87553" lon="0.23239">
        <ele>120</ele>
        <time>2015-02-10T13:27:20Z</time>
      </trkpt>
      <trkpt lat="44.87553" lon="0.23239">
        <ele>122</ele>
        <time>2015-02-10T13:27:21Z</time>
      </trkpt>
      <trkpt lat="44.87553" lon="0.23239">
        <ele>123</ele>
        <time>2015-02-10T13:27:22Z</time>
      </trkpt>
      <trkpt lat="44.87553" lon="0.23238">
        <ele>119</ele>
        <time>2015-02-10T13:27:23Z</time>
      </trkpt>
      <trkpt lat="44.87553" lon="0.23238">
        <ele>119</ele>
        <time>2015-02-10T13:27:24Z</time>
      </trkpt>
      <trkpt lat="44.87553" lon="0.23238">
        <ele>117</ele>
        <time>2015-02-10T13:27:25Z</time>
      </trkpt>
      <trkpt lat="44.87553" lon="0.23238">
        <ele>116</ele>
        <time>2015-02-10T13:27:26Z</time>
      </trkpt>
      <trkpt lat="44.87553" lon="0.23238">
        <ele>116</ele>
        <time>2015-02-10T13:27:27Z</time>
      </trkpt>
      <trkpt lat="44.87553" lon="0.23238">
        <ele>115</ele>
        <time>2015-02-10T13:27:28Z</time>
      </trkpt>
      <trkpt lat="44.87553" lon="0.23238">
        <ele>115</ele>
        <time>2015-02-10T13:27:29Z</time>
      </trkpt>
      <trkpt lat="44.87553" lon="0.23238">
        <ele>117</ele>
        <time>2015-02-10T13:27:30Z</time>
      </trkpt>
      <trkpt lat="44.87553" lon="0.23238">
        <ele>119</ele>
        <time>2015-02-10T13:27:31Z</time>
      </trkpt>
      <trkpt lat="44.87553" lon="0.23238">
        <ele>120</ele>
        <time>2015-02-10T13:27:32Z</time>
      </trkpt>
      <trkpt lat="44.87553" lon="0.23238">
        <ele>119</ele>
        <time>2015-02-10T13:27:33Z</time>
      </trkpt>
      <trkpt lat="44.87553" lon="0.23238">
        <ele>118</ele>
        <time>2015-02-10T13:27:34Z</time>
      </trkpt>
      <trkpt lat="44.87553" lon="0.23238">
        <ele>117</ele>
        <time>2015-02-10T13:27:35Z</time>
      </trkpt>
      <trkpt lat="44.87553" lon="0.23238">
        <ele>119</ele>
        <time>2015-02-10T13:27:36Z</time>
      </trkpt>
      <trkpt lat="44.87553" lon="0.23239">
        <ele>117</ele>
        <time>2015-02-10T13:27:37Z</time>
      </trkpt>
      <trkpt lat="44.87552" lon="0.2324">
        <ele>115</ele>
        <time>2015-02-10T13:27:38Z</time>
      </trkpt>
      <trkpt lat="44.87552" lon="0.23242">
        <ele>118</ele>
        <time>2015-02-10T13:27:39Z</time>
      </trkpt>
      <trkpt lat="44.87551" lon="0.23243">
        <ele>115</ele>
        <time>2015-02-10T13:27:40Z</time>
      </trkpt>
      <trkpt lat="44.87551" lon="0.23244">
        <ele>120</ele>
        <time>2015-02-10T13:27:41Z</time>
      </trkpt>
      <trkpt lat="44.87551" lon="0.23245">
        <ele>119</ele>
        <time>2015-02-10T13:27:42Z</time>
      </trkpt>
      <trkpt lat="44.8755" lon="0.23246">
        <ele>117</ele>
        <time>2015-02-10T13:27:43Z</time>
      </trkpt>
      <trkpt lat="44.8755" lon="0.23247">
        <ele>117</ele>
        <time>2015-02-10T13:27:44Z</time>
      </trkpt>
      <trkpt lat="44.8755" lon="0.23248">
        <ele>117</ele>
        <time>2015-02-10T13:27:45Z</time>
      </trkpt>
      <trkpt lat="44.8755" lon="0.23248">
        <ele>118</ele>
        <time>2015-02-10T13:27:46Z</time>
      </trkpt>
      <trkpt lat="44.87549" lon="0.23249">
        <ele>113</ele>
        <time>2015-02-10T13:27:47Z</time>
      </trkpt>
      <trkpt lat="44.87549" lon="0.2325">
        <ele>111</ele>
        <time>2015-02-10T13:27:48Z</time>
      </trkpt>
      <trkpt lat="44.87549" lon="0.23251">
        <ele>109</ele>
        <time>2015-02-10T13:27:49Z</time>
      </trkpt>
      <trkpt lat="44.87549" lon="0.23252">
        <ele>111</ele>
        <time>2015-02-10T13:27:50Z</time>
      </trkpt>
      <trkpt lat="44.87549" lon="0.23253">
        <ele>109</ele>
        <time>2015-02-10T13:27:51Z</time>
      </trkpt>
      <trkpt lat="44.8755" lon="0.23255">
        <ele>112</ele>
        <time>2015-02-10T13:27:52Z</time>
      </trkpt>
      <trkpt lat="44.8755" lon="0.23257">
        <ele>111</ele>
        <time>2015-02-10T13:27:53Z</time>
      </trkpt>
      <trkpt lat="44.8755" lon="0.23259">
        <ele>113</ele>
        <time>2015-02-10T13:27:54Z</time>
      </trkpt>
      <trkpt lat="44.8755" lon="0.2326">
        <ele>112</ele>
        <time>2015-02-10T13:27:55Z</time>
      </trkpt>
      <trkpt lat="44.8755" lon="0.23261">
        <ele>111</ele>
        <time>2015-02-10T13:27:56Z</time>
      </trkpt>
      <trkpt lat="44.8755" lon="0.23263">
        <ele>111</ele>
        <time>2015-02-10T13:27:57Z</time>
      </trkpt>
      <trkpt lat="44.8755" lon="0.23264">
        <ele>110</ele>
        <time>2015-02-10T13:27:58Z</time>
      </trkpt>
      <trkpt lat="44.8755" lon="0.23265">
        <ele>111</ele>
        <time>2015-02-10T13:27:59Z</time>
      </trkpt>
      <trkpt lat="44.8755" lon="0.23266">
        <ele>111</ele>
        <time>2015-02-10T13:28:00Z</time>
      </trkpt>
      <trkpt lat="44.8755" lon="0.23268">
        <ele>114</ele>
        <time>2015-02-10T13:28:01Z</time>
      </trkpt>
      <trkpt lat="44.8755" lon="0.23269">
        <ele>116</ele>
        <time>2015-02-10T13:28:02Z</time>
      </trkpt>
      <trkpt lat="44.8755" lon="0.2327">
        <ele>114</ele>
        <time>2015-02-10T13:28:03Z</time>
      </trkpt>
      <trkpt lat="44.8755" lon="0.23272">
        <ele>111</ele>
        <time>2015-02-10T13:28:04Z</time>
      </trkpt>
      <trkpt lat="44.8755" lon="0.23273">
        <ele>111</ele>
        <time>2015-02-10T13:28:05Z</time>
      </trkpt>
      <trkpt lat="44.8755" lon="0.23274">
        <ele>111</ele>
        <time>2015-02-10T13:28:06Z</time>
      </trkpt>
      <trkpt lat="44.8755" lon="0.23275">
        <ele>115</ele>
        <time>2015-02-10T13:28:07Z</time>
      </trkpt>
      <trkpt lat="44.87551" lon="0.23278">
        <ele>117</ele>
        <time>2015-02-10T13:28:08Z</time>
      </trkpt>
      <trkpt lat="44.8755" lon="0.23279">
        <ele>116</ele>
        <time>2015-02-10T13:28:09Z</time>
      </trkpt>
      <trkpt lat="44.8755" lon="0.23281">
        <ele>110</ele>
        <time>2015-02-10T13:28:10Z</time>
      </trkpt>
      <trkpt lat="44.8755" lon="0.23282">
        <ele>111</ele>
        <time>2015-02-10T13:28:11Z</time>
      </trkpt>
      <trkpt lat="44.8755" lon="0.23282">
        <ele>113</ele>
        <time>2015-02-10T13:28:12Z</time>
      </trkpt>
      <trkpt lat="44.8755" lon="0.23282">
        <ele>107</ele>
        <time>2015-02-10T13:28:13Z</time>
      </trkpt>
      <trkpt lat="44.87551" lon="0.23282">
        <ele>109</ele>
        <time>2015-02-10T13:28:14Z</time>
      </trkpt>
      <trkpt lat="44.87551" lon="0.23283">
        <ele>111</ele>
        <time>2015-02-10T13:28:15Z</time>
      </trkpt>
      <trkpt lat="44.87551" lon="0.23283">
        <ele>111</ele>
        <time>2015-02-10T13:28:16Z</time>
      </trkpt>
      <trkpt lat="44.87551" lon="0.23283">
        <ele>113</ele>
        <time>2015-02-10T13:28:17Z</time>
      </trkpt>
      <trkpt lat="44.87551" lon="0.23283">
        <ele>112</ele>
        <time>2015-02-10T13:28:18Z</time>
      </trkpt>
      <trkpt lat="44.87551" lon="0.23283">
        <ele>111</ele>
        <time>2015-02-10T13:28:19Z</time>
      </trkpt>
      <trkpt lat="44.87551" lon="0.23283">
        <ele>111</ele>
        <time>2015-02-10T13:28:20Z</time>
      </trkpt>
      <trkpt lat="44.87551" lon="0.23283">
        <ele>111</ele>
        <time>2015-02-10T13:28:21Z</time>
      </trkpt>
      <trkpt lat="44.87551" lon="0.23283">
        <ele>111</ele>
        <time>2015-02-10T13:28:22Z</time>
      </trkpt>
      <trkpt lat="44.87551" lon="0.23283">
        <ele>111</ele>
        <time>2015-02-10T13:28:23Z</time>
      </trkpt>
      <trkpt lat="44.87551" lon="0.23283">
        <ele>112</ele>
        <time>2015-02-10T13:28:24Z</time>
      </trkpt>
      <trkpt lat="44.87551" lon="0.23283">
        <ele>112</ele>
        <time>2015-02-10T13:28:25Z</time>
      </trkpt>
      <trkpt lat="44.87551" lon="0.23283">
        <ele>113</ele>
        <time>2015-02-10T13:28:26Z</time>
      </trkpt>
      <trkpt lat="44.87551" lon="0.23283">
        <ele>113</ele>
        <time>2015-02-10T13:28:27Z</time>
      </trkpt>
      <trkpt lat="44.87551" lon="0.23283">
        <ele>113</ele>
        <time>2015-02-10T13:28:28Z</time>
      </trkpt>
      <trkpt lat="44.87551" lon="0.23283">
        <ele>113</ele>
        <time>2015-02-10T13:28:29Z</time>
      </trkpt>
      <trkpt lat="44.87551" lon="0.23283">
        <ele>112</ele>
        <time>2015-02-10T13:28:30Z</time>
      </trkpt>
      <trkpt lat="44.87553" lon="0.23288">
        <ele>111</ele>
        <time>2015-02-10T13:28:31Z</time>
      </trkpt>
      <trkpt lat="44.87553" lon="0.23288">
        <ele>111</ele>
        <time>2015-02-10T13:28:32Z</time>
      </trkpt>
      <trkpt lat="44.87553" lon="0.23289">
        <ele>110</ele>
        <time>2015-02-10T13:28:33Z</time>
      </trkpt>
      <trkpt lat="44.87553" lon="0.2329">
        <ele>109</ele>
        <time>2015-02-10T13:28:34Z</time>
      </trkpt>
      <trkpt lat="44.87553" lon="0.23291">
        <ele>109</ele>
        <time>2015-02-10T13:28:35Z</time>
      </trkpt>
      <trkpt lat="44.87552" lon="0.23292">
        <ele>106</ele>
        <time>2015-02-10T13:28:36Z</time>
      </trkpt>
      <trkpt lat="44.87551" lon="0.23293">
        <ele>110</ele>
        <time>2015-02-10T13:28:37Z</time>
      </trkpt>
      <trkpt lat="44.87551" lon="0.23294">
        <ele>110</ele>
        <time>2015-02-10T13:28:38Z</time>
      </trkpt>
      <trkpt lat="44.87551" lon="0.23295">
        <ele>111</ele>
        <time>2015-02-10T13:28:39Z</time>
      </trkpt>
      <trkpt lat="44.8755" lon="0.23296">
        <ele>108</ele>
        <time>2015-02-10T13:28:40Z</time>
      </trkpt>
      <trkpt lat="44.8755" lon="0.23297">
        <ele>111</ele>
        <time>2015-02-10T13:28:41Z</time>
      </trkpt>
      <trkpt lat="44.8755" lon="0.23299">
        <ele>110</ele>
        <time>2015-02-10T13:28:42Z</time>
      </trkpt>
      <trkpt lat="44.8755" lon="0.233">
        <ele>107</ele>
        <time>2015-02-10T13:28:43Z</time>
      </trkpt>
      <trkpt lat="44.8755" lon="0.23301">
        <ele>111</ele>
        <time>2015-02-10T13:28:44Z</time>
      </trkpt>
      <trkpt lat="44.8755" lon="0.23301">
        <ele>108</ele>
        <time>2015-02-10T13:28:45Z</time>
      </trkpt>
      <trkpt lat="44.8755" lon="0.23302">
        <ele>106</ele>
        <time>2015-02-10T13:28:46Z</time>
      </trkpt>
      <trkpt lat="44.8755" lon="0.23303">
        <ele>106</ele>
        <time>2015-02-10T13:28:47Z</time>
      </trkpt>
      <trkpt lat="44.87549" lon="0.23305">
        <ele>106</ele>
        <time>2015-02-10T13:28:48Z</time>
      </trkpt>
      <trkpt lat="44.87549" lon="0.23306">
        <ele>106</ele>
        <time>2015-02-10T13:28:49Z</time>
      </trkpt>
      <trkpt lat="44.87549" lon="0.23306">
        <ele>102</ele>
        <time>2015-02-10T13:28:50Z</time>
      </trkpt>
      <trkpt lat="44.87549" lon="0.23307">
        <ele>104</ele>
        <time>2015-02-10T13:28:51Z</time>
      </trkpt>
      <trkpt lat="44.87549" lon="0.23307">
        <ele>104</ele>
        <time>2015-02-10T13:28:52Z</time>
      </trkpt>
      <trkpt lat="44.87548" lon="0.23309">
        <ele>105</ele>
        <time>2015-02-10T13:28:53Z</time>
      </trkpt>
      <trkpt lat="44.87549" lon="0.2331">
        <ele>103</ele>
        <time>2015-02-10T13:28:54Z</time>
      </trkpt>
      <trkpt lat="44.87547" lon="0.23313">
        <ele>107</ele>
        <time>2015-02-10T13:28:55Z</time>
      </trkpt>
      <trkpt lat="44.87546" lon="0.23314">
        <ele>109</ele>
        <time>2015-02-10T13:28:56Z</time>
      </trkpt>
      <trkpt lat="44.87546" lon="0.23316">
        <ele>108</ele>
        <time>2015-02-10T13:28:57Z</time>
      </trkpt>
      <trkpt lat="44.87545" lon="0.23317">
        <ele>107</ele>
        <time>2015-02-10T13:28:58Z</time>
      </trkpt>
      <trkpt lat="44.87544" lon="0.23317">
        <ele>108</ele>
        <time>2015-02-10T13:28:59Z</time>
      </trkpt>
      <trkpt lat="44.87544" lon="0.23318">
        <ele>107</ele>
        <time>2015-02-10T13:29:00Z</time>
      </trkpt>
      <trkpt lat="44.87544" lon="0.23319">
        <ele>105</ele>
        <time>2015-02-10T13:29:01Z</time>
      </trkpt>
      <trkpt lat="44.87543" lon="0.2332">
        <ele>103</ele>
        <time>2015-02-10T13:29:02Z</time>
      </trkpt>
      <trkpt lat="44.87544" lon="0.23321">
        <ele>103</ele>
        <time>2015-02-10T13:29:03Z</time>
      </trkpt>
      <trkpt lat="44.87543" lon="0.23321">
        <ele>104</ele>
        <time>2015-02-10T13:29:04Z</time>
      </trkpt>
      <trkpt lat="44.87543" lon="0.23321">
        <ele>104</ele>
        <time>2015-02-10T13:29:05Z</time>
      </trkpt>
      <trkpt lat="44.87543" lon="0.23322">
        <ele>106</ele>
        <time>2015-02-10T13:29:06Z</time>
      </trkpt>
      <trkpt lat="44.87543" lon="0.23323">
        <ele>108</ele>
        <time>2015-02-10T13:29:07Z</time>
      </trkpt>
      <trkpt lat="44.87542" lon="0.23324">
        <ele>103</ele>
        <time>2015-02-10T13:29:08Z</time>
      </trkpt>
      <trkpt lat="44.87542" lon="0.23324">
        <ele>106</ele>
        <time>2015-02-10T13:29:09Z</time>
      </trkpt>
      <trkpt lat="44.87542" lon="0.23325">
        <ele>106</ele>
        <time>2015-02-10T13:29:10Z</time>
      </trkpt>
      <trkpt lat="44.87541" lon="0.23326">
        <ele>106</ele>
        <time>2015-02-10T13:29:11Z</time>
      </trkpt>
      <trkpt lat="44.87541" lon="0.23327">
        <ele>108</ele>
        <time>2015-02-10T13:29:12Z</time>
      </trkpt>
      <trkpt lat="44.87541" lon="0.23328">
        <ele>109</ele>
        <time>2015-02-10T13:29:13Z</time>
      </trkpt>
      <trkpt lat="44.87541" lon="0.23329">
        <ele>105</ele>
        <time>2015-02-10T13:29:14Z</time>
      </trkpt>
      <trkpt lat="44.87541" lon="0.23329">
        <ele>105</ele>
        <time>2015-02-10T13:29:15Z</time>
      </trkpt>
      <trkpt lat="44.87541" lon="0.23329">
        <ele>106</ele>
        <time>2015-02-10T13:29:16Z</time>
      </trkpt>
      <trkpt lat="44.87541" lon="0.2333">
        <ele>105</ele>
        <time>2015-02-10T13:29:17Z</time>
      </trkpt>
      <trkpt lat="44.87541" lon="0.23331">
        <ele>103</ele>
        <time>2015-02-10T13:29:18Z</time>
      </trkpt>
      <trkpt lat="44.8754" lon="0.23331">
        <ele>100</ele>
        <time>2015-02-10T13:29:19Z</time>
      </trkpt>
      <trkpt lat="44.8754" lon="0.23332">
        <ele>101</ele>
        <time>2015-02-10T13:29:20Z</time>
      </trkpt>
      <trkpt lat="44.87539" lon="0.23332">
        <ele>98</ele>
        <time>2015-02-10T13:29:21Z</time>
      </trkpt>
      <trkpt lat="44.87539" lon="0.23333">
        <ele>102</ele>
        <time>2015-02-10T13:29:22Z</time>
      </trkpt>
      <trkpt lat="44.87539" lon="0.23333">
        <ele>102</ele>
        <time>2015-02-10T13:29:23Z</time>
      </trkpt>
      <trkpt lat="44.87539" lon="0.23333">
        <ele>100</ele>
        <time>2015-02-10T13:29:24Z</time>
      </trkpt>
      <trkpt lat="44.87539" lon="0.23334">
        <ele>96</ele>
        <time>2015-02-10T13:29:25Z</time>
      </trkpt>
      <trkpt lat="44.87539" lon="0.23336">
        <ele>98</ele>
        <time>2015-02-10T13:29:26Z</time>
      </trkpt>
      <trkpt lat="44.87538" lon="0.23336">
        <ele>95</ele>
        <time>2015-02-10T13:29:27Z</time>
      </trkpt>
      <trkpt lat="44.87537" lon="0.23336">
        <ele>97</ele>
        <time>2015-02-10T13:29:28Z</time>
      </trkpt>
      <trkpt lat="44.87537" lon="0.23337">
        <ele>100</ele>
        <time>2015-02-10T13:29:29Z</time>
      </trkpt>
      <trkpt lat="44.87537" lon="0.23338">
        <ele>95</ele>
        <time>2015-02-10T13:29:30Z</time>
      </trkpt>
      <trkpt lat="44.87537" lon="0.23338">
        <ele>96</ele>
        <time>2015-02-10T13:29:31Z</time>
      </trkpt>
      <trkpt lat="44.87537" lon="0.23339">
        <ele>96</ele>
        <time>2015-02-10T13:29:32Z</time>
      </trkpt>
      <trkpt lat="44.87537" lon="0.23339">
        <ele>98</ele>
        <time>2015-02-10T13:29:33Z</time>
      </trkpt>
      <trkpt lat="44.87537" lon="0.23339">
        <ele>98</ele>
        <time>2015-02-10T13:29:34Z</time>
      </trkpt>
      <trkpt lat="44.87537" lon="0.2334">
        <ele>94</ele>
        <time>2015-02-10T13:29:35Z</time>
      </trkpt>
      <trkpt lat="44.87537" lon="0.2334">
        <ele>97</ele>
        <time>2015-02-10T13:29:36Z</time>
      </trkpt>
      <trkpt lat="44.87536" lon="0.23341">
        <ele>101</ele>
        <time>2015-02-10T13:29:37Z</time>
      </trkpt>
      <trkpt lat="44.87536" lon="0.23341">
        <ele>100</ele>
        <time>2015-02-10T13:29:38Z</time>
      </trkpt>
      <trkpt lat="44.87535" lon="0.23342">
        <ele>98</ele>
        <time>2015-02-10T13:29:39Z</time>
      </trkpt>
      <trkpt lat="44.87535" lon="0.23343">
        <ele>99</ele>
        <time>2015-02-10T13:29:40Z</time>
      </trkpt>
      <trkpt lat="44.87535" lon="0.23343">
        <ele>92</ele>
        <time>2015-02-10T13:29:41Z</time>
      </trkpt>
      <trkpt lat="44.87535" lon="0.23343">
        <ele>95</ele>
        <time>2015-02-10T13:29:42Z</time>
      </trkpt>
      <trkpt lat="44.87534" lon="0.23344">
        <ele>98</ele>
        <time>2015-02-10T13:29:43Z</time>
      </trkpt>
      <trkpt lat="44.87534" lon="0.23345">
        <ele>101</ele>
        <time>2015-02-10T13:29:44Z</time>
      </trkpt>
      <trkpt lat="44.87533" lon="0.23346">
        <ele>100</ele>
        <time>2015-02-10T13:29:45Z</time>
      </trkpt>
      <trkpt lat="44.87532" lon="0.23347">
        <ele>96</ele>
        <time>2015-02-10T13:29:46Z</time>
      </trkpt>
      <trkpt lat="44.87532" lon="0.23348">
        <ele>98</ele>
        <time>2015-02-10T13:29:47Z</time>
      </trkpt>
      <trkpt lat="44.87531" lon="0.23349">
        <ele>97</ele>
        <time>2015-02-10T13:29:48Z</time>
      </trkpt>
      <trkpt lat="44.87531" lon="0.23351">
        <ele>99</ele>
        <time>2015-02-10T13:29:49Z</time>
      </trkpt>
      <trkpt lat="44.87531" lon="0.23352">
        <ele>99</ele>
        <time>2015-02-10T13:29:50Z</time>
      </trkpt>
      <trkpt lat="44.87531" lon="0.23353">
        <ele>99</ele>
        <time>2015-02-10T13:29:51Z</time>
      </trkpt>
      <trkpt lat="44.87531" lon="0.23355">
        <ele>98</ele>
        <time>2015-02-10T13:29:52Z</time>
      </trkpt>
      <trkpt lat="44.8753" lon="0.23356">
        <ele>95</ele>
        <time>2015-02-10T13:29:53Z</time>
      </trkpt>
      <trkpt lat="44.8753" lon="0.23358">
        <ele>93</ele>
        <time>2015-02-10T13:29:54Z</time>
      </trkpt>
      <trkpt lat="44.8753" lon="0.23359">
        <ele>95</ele>
        <time>2015-02-10T13:29:55Z</time>
      </trkpt>
      <trkpt lat="44.8753" lon="0.2336">
        <ele>94</ele>
        <time>2015-02-10T13:29:56Z</time>
      </trkpt>
      <trkpt lat="44.87529" lon="0.23361">
        <ele>90</ele>
        <time>2015-02-10T13:29:57Z</time>
      </trkpt>
      <trkpt lat="44.87529" lon="0.23362">
        <ele>88</ele>
        <time>2015-02-10T13:29:58Z</time>
      </trkpt>
      <trkpt lat="44.87529" lon="0.23363">
        <ele>90</ele>
        <time>2015-02-10T13:29:59Z</time>
      </trkpt>
      <trkpt lat="44.87529" lon="0.23365">
        <ele>96</ele>
        <time>2015-02-10T13:30:00Z</time>
      </trkpt>
      <trkpt lat="44.87529" lon="0.23369">
        <ele>96</ele>
        <time>2015-02-10T13:30:01Z</time>
      </trkpt>
      <trkpt lat="44.87529" lon="0.23371">
        <ele>96</ele>
        <time>2015-02-10T13:30:02Z</time>
      </trkpt>
      <trkpt lat="44.87528" lon="0.23372">
        <ele>96</ele>
        <time>2015-02-10T13:30:03Z</time>
      </trkpt>
      <trkpt lat="44.87528" lon="0.23374">
        <ele>95</ele>
        <time>2015-02-10T13:30:04Z</time>
      </trkpt>
      <trkpt lat="44.87528" lon="0.23376">
        <ele>96</ele>
        <time>2015-02-10T13:30:05Z</time>
      </trkpt>
      <trkpt lat="44.87528" lon="0.23378">
        <ele>94</ele>
        <time>2015-02-10T13:30:06Z</time>
      </trkpt>
      <trkpt lat="44.87527" lon="0.23379">
        <ele>95</ele>
        <time>2015-02-10T13:30:07Z</time>
      </trkpt>
      <trkpt lat="44.87527" lon="0.23381">
        <ele>90</ele>
        <time>2015-02-10T13:30:08Z</time>
      </trkpt>
      <trkpt lat="44.87526" lon="0.23382">
        <ele>89</ele>
        <time>2015-02-10T13:30:09Z</time>
      </trkpt>
      <trkpt lat="44.87526" lon="0.23384">
        <ele>90</ele>
        <time>2015-02-10T13:30:10Z</time>
      </trkpt>
      <trkpt lat="44.87525" lon="0.23386">
        <ele>92</ele>
        <time>2015-02-10T13:30:11Z</time>
      </trkpt>
      <trkpt lat="44.87525" lon="0.23388">
        <ele>88</ele>
        <time>2015-02-10T13:30:12Z</time>
      </trkpt>
      <trkpt lat="44.87524" lon="0.23389">
        <ele>88</ele>
        <time>2015-02-10T13:30:13Z</time>
      </trkpt>
      <trkpt lat="44.87524" lon="0.2339">
        <ele>88</ele>
        <time>2015-02-10T13:30:14Z</time>
      </trkpt>
      <trkpt lat="44.87523" lon="0.23392">
        <ele>88</ele>
        <time>2015-02-10T13:30:15Z</time>
      </trkpt>
      <trkpt lat="44.87523" lon="0.23393">
        <ele>89</ele>
        <time>2015-02-10T13:30:16Z</time>
      </trkpt>
      <trkpt lat="44.87522" lon="0.23394">
        <ele>86</ele>
        <time>2015-02-10T13:30:17Z</time>
      </trkpt>
      <trkpt lat="44.87522" lon="0.23394">
        <ele>84</ele>
        <time>2015-02-10T13:30:18Z</time>
      </trkpt>
      <trkpt lat="44.87522" lon="0.23394">
        <ele>81</ele>
        <time>2015-02-10T13:30:19Z</time>
      </trkpt>
      <trkpt lat="44.87522" lon="0.23394">
        <ele>85</ele>
        <time>2015-02-10T13:30:20Z</time>
      </trkpt>
      <trkpt lat="44.87522" lon="0.23395">
        <ele>87</ele>
        <time>2015-02-10T13:30:21Z</time>
      </trkpt>
      <trkpt lat="44.87521" lon="0.23396">
        <ele>86</ele>
        <time>2015-02-10T13:30:22Z</time>
      </trkpt>
      <trkpt lat="44.87521" lon="0.23396">
        <ele>85</ele>
        <time>2015-02-10T13:30:23Z</time>
      </trkpt>
      <trkpt lat="44.8752" lon="0.23397">
        <ele>88</ele>
        <time>2015-02-10T13:30:24Z</time>
      </trkpt>
      <trkpt lat="44.8752" lon="0.23399">
        <ele>86</ele>
        <time>2015-02-10T13:30:25Z</time>
      </trkpt>
      <trkpt lat="44.8752" lon="0.23399">
        <ele>87</ele>
        <time>2015-02-10T13:30:26Z</time>
      </trkpt>
      <trkpt lat="44.8752" lon="0.234">
        <ele>86</ele>
        <time>2015-02-10T13:30:27Z</time>
      </trkpt>
      <trkpt lat="44.87519" lon="0.23402">
        <ele>87</ele>
        <time>2015-02-10T13:30:28Z</time>
      </trkpt>
      <trkpt lat="44.87519" lon="0.23403">
        <ele>88</ele>
        <time>2015-02-10T13:30:29Z</time>
      </trkpt>
      <trkpt lat="44.87519" lon="0.23404">
        <ele>90</ele>
        <time>2015-02-10T13:30:30Z</time>
      </trkpt>
      <trkpt lat="44.87519" lon="0.23406">
        <ele>92</ele>
        <time>2015-02-10T13:30:31Z</time>
      </trkpt>
      <trkpt lat="44.87519" lon="0.23407">
        <ele>92</ele>
        <time>2015-02-10T13:30:32Z</time>
      </trkpt>
      <trkpt lat="44.87519" lon="0.2341">
        <ele>92</ele>
        <time>2015-02-10T13:30:33Z</time>
      </trkpt>
      <trkpt lat="44.87518" lon="0.23412">
        <ele>89</ele>
        <time>2015-02-10T13:30:34Z</time>
      </trkpt>
      <trkpt lat="44.87518" lon="0.23413">
        <ele>86</ele>
        <time>2015-02-10T13:30:35Z</time>
      </trkpt>
      <trkpt lat="44.87518" lon="0.23414">
        <ele>85</ele>
        <time>2015-02-10T13:30:36Z</time>
      </trkpt>
      <trkpt lat="44.87517" lon="0.23415">
        <ele>82</ele>
        <time>2015-02-10T13:30:37Z</time>
      </trkpt>
      <trkpt lat="44.87517" lon="0.23416">
        <ele>85</ele>
        <time>2015-02-10T13:30:38Z</time>
      </trkpt>
      <trkpt lat="44.87516" lon="0.23417">
        <ele>89</ele>
        <time>2015-02-10T13:30:39Z</time>
      </trkpt>
      <trkpt lat="44.87516" lon="0.2342">
        <ele>83</ele>
        <time>2015-02-10T13:30:40Z</time>
      </trkpt>
      <trkpt lat="44.87516" lon="0.23423">
        <ele>82</ele>
        <time>2015-02-10T13:30:41Z</time>
      </trkpt>
      <trkpt lat="44.87515" lon="0.23425">
        <ele>82</ele>
        <time>2015-02-10T13:30:42Z</time>
      </trkpt>
      <trkpt lat="44.87515" lon="0.23426">
        <ele>81</ele>
        <time>2015-02-10T13:30:43Z</time>
      </trkpt>
      <trkpt lat="44.87515" lon="0.23427">
        <ele>81</ele>
        <time>2015-02-10T13:30:44Z</time>
      </trkpt>
      <trkpt lat="44.87514" lon="0.23428">
        <ele>82</ele>
        <time>2015-02-10T13:30:45Z</time>
      </trkpt>
      <trkpt lat="44.87513" lon="0.23429">
        <ele>84</ele>
        <time>2015-02-10T13:30:46Z</time>
      </trkpt>
      <trkpt lat="44.87513" lon="0.23429">
        <ele>85</ele>
        <time>2015-02-10T13:30:47Z</time>
      </trkpt>
      <trkpt lat="44.87513" lon="0.2343">
        <ele>84</ele>
        <time>2015-02-10T13:30:48Z</time>
      </trkpt>
      <trkpt lat="44.87512" lon="0.23434">
        <ele>86</ele>
        <time>2015-02-10T13:30:49Z</time>
      </trkpt>
      <trkpt lat="44.87512" lon="0.23435">
        <ele>84</ele>
        <time>2015-02-10T13:30:50Z</time>
      </trkpt>
      <trkpt lat="44.87512" lon="0.23438">
        <ele>86</ele>
        <time>2015-02-10T13:30:51Z</time>
      </trkpt>
      <trkpt lat="44.87512" lon="0.23441">
        <ele>89</ele>
        <time>2015-02-10T13:30:52Z</time>
      </trkpt>
      <trkpt lat="44.87512" lon="0.23444">
        <ele>90</ele>
        <time>2015-02-10T13:30:53Z</time>
      </trkpt>
      <trkpt lat="44.87512" lon="0.23446">
        <ele>85</ele>
        <time>2015-02-10T13:30:54Z</time>
      </trkpt>
      <trkpt lat="44.87512" lon="0.23448">
        <ele>87</ele>
        <time>2015-02-10T13:30:55Z</time>
      </trkpt>
      <trkpt lat="44.87512" lon="0.23449">
        <ele>86</ele>
        <time>2015-02-10T13:30:56Z</time>
      </trkpt>
      <trkpt lat="44.87512" lon="0.2345">
        <ele>90</ele>
        <time>2015-02-10T13:30:57Z</time>
      </trkpt>
      <trkpt lat="44.87512" lon="0.23451">
        <ele>88</ele>
        <time>2015-02-10T13:30:58Z</time>
      </trkpt>
      <trkpt lat="44.87512" lon="0.23452">
        <ele>88</ele>
        <time>2015-02-10T13:30:59Z</time>
      </trkpt>
      <trkpt lat="44.87511" lon="0.23453">
        <ele>80</ele>
        <time>2015-02-10T13:31:00Z</time>
      </trkpt>
      <trkpt lat="44.87511" lon="0.23455">
        <ele>83</ele>
        <time>2015-02-10T13:31:01Z</time>
      </trkpt>
      <trkpt lat="44.87511" lon="0.23457">
        <ele>80</ele>
        <time>2015-02-10T13:31:02Z</time>
      </trkpt>
      <trkpt lat="44.87511" lon="0.2346">
        <ele>74</ele>
        <time>2015-02-10T13:31:03Z</time>
      </trkpt>
      <trkpt lat="44.87511" lon="0.23462">
        <ele>75</ele>
        <time>2015-02-10T13:31:04Z</time>
      </trkpt>
      <trkpt lat="44.87511" lon="0.23464">
        <ele>75</ele>
        <time>2015-02-10T13:31:05Z</time>
      </trkpt>
      <trkpt lat="44.87511" lon="0.23467">
        <ele>74</ele>
        <time>2015-02-10T13:31:06Z</time>
      </trkpt>
      <trkpt lat="44.87511" lon="0.23468">
        <ele>72</ele>
        <time>2015-02-10T13:31:07Z</time>
      </trkpt>
      <trkpt lat="44.87511" lon="0.2347">
        <ele>73</ele>
        <time>2015-02-10T13:31:08Z</time>
      </trkpt>
      <trkpt lat="44.87512" lon="0.23472">
        <ele>75</ele>
        <time>2015-02-10T13:31:09Z</time>
      </trkpt>
      <trkpt lat="44.87512" lon="0.23473">
        <ele>77</ele>
        <time>2015-02-10T13:31:10Z</time>
      </trkpt>
      <trkpt lat="44.87512" lon="0.23475">
        <ele>73</ele>
        <time>2015-02-10T13:31:11Z</time>
      </trkpt>
      <trkpt lat="44.87512" lon="0.23478">
        <ele>73</ele>
        <time>2015-02-10T13:31:12Z</time>
      </trkpt>
      <trkpt lat="44.87512" lon="0.23481">
        <ele>71</ele>
        <time>2015-02-10T13:31:13Z</time>
      </trkpt>
      <trkpt lat="44.87512" lon="0.23482">
        <ele>74</ele>
        <time>2015-02-10T13:31:14Z</time>
      </trkpt>
      <trkpt lat="44.87512" lon="0.23483">
        <ele>73</ele>
        <time>2015-02-10T13:31:15Z</time>
      </trkpt>
      <trkpt lat="44.87512" lon="0.23484">
        <ele>76</ele>
        <time>2015-02-10T13:31:16Z</time>
      </trkpt>
      <trkpt lat="44.87512" lon="0.23486">
        <ele>75</ele>
        <time>2015-02-10T13:31:17Z</time>
      </trkpt>
      <trkpt lat="44.87512" lon="0.23488">
        <ele>77</ele>
        <time>2015-02-10T13:31:18Z</time>
      </trkpt>
      <trkpt lat="44.87512" lon="0.23489">
        <ele>78</ele>
        <time>2015-02-10T13:31:19Z</time>
      </trkpt>
      <trkpt lat="44.87511" lon="0.23491">
        <ele>78</ele>
        <time>2015-02-10T13:31:20Z</time>
      </trkpt>
      <trkpt lat="44.87512" lon="0.23493">
        <ele>84</ele>
        <time>2015-02-10T13:31:21Z</time>
      </trkpt>
      <trkpt lat="44.87512" lon="0.23494">
        <ele>84</ele>
        <time>2015-02-10T13:31:22Z</time>
      </trkpt>
      <trkpt lat="44.87512" lon="0.23495">
        <ele>83</ele>
        <time>2015-02-10T13:31:23Z</time>
      </trkpt>
      <trkpt lat="44.87512" lon="0.23497">
        <ele>84</ele>
        <time>2015-02-10T13:31:24Z</time>
      </trkpt>
      <trkpt lat="44.87512" lon="0.235">
        <ele>79</ele>
        <time>2015-02-10T13:31:25Z</time>
      </trkpt>
      <trkpt lat="44.87511" lon="0.23502">
        <ele>78</ele>
        <time>2015-02-10T13:31:26Z</time>
      </trkpt>
      <trkpt lat="44.87511" lon="0.23503">
        <ele>79</ele>
        <time>2015-02-10T13:31:27Z</time>
      </trkpt>
      <trkpt lat="44.8751" lon="0.23505">
        <ele>76</ele>
        <time>2015-02-10T13:31:28Z</time>
      </trkpt>
      <trkpt lat="44.8751" lon="0.23508">
        <ele>75</ele>
        <time>2015-02-10T13:31:29Z</time>
      </trkpt>
      <trkpt lat="44.87509" lon="0.2351">
        <ele>73</ele>
        <time>2015-02-10T13:31:30Z</time>
      </trkpt>
      <trkpt lat="44.87507" lon="0.23512">
        <ele>75</ele>
        <time>2015-02-10T13:31:31Z</time>
      </trkpt>
      <trkpt lat="44.87506" lon="0.23514">
        <ele>74</ele>
        <time>2015-02-10T13:31:32Z</time>
      </trkpt>
      <trkpt lat="44.87505" lon="0.23515">
        <ele>77</ele>
        <time>2015-02-10T13:31:33Z</time>
      </trkpt>
      <trkpt lat="44.87505" lon="0.23516">
        <ele>74</ele>
        <time>2015-02-10T13:31:34Z</time>
      </trkpt>
      <trkpt lat="44.87504" lon="0.23516">
        <ele>74</ele>
        <time>2015-02-10T13:31:35Z</time>
      </trkpt>
      <trkpt lat="44.87503" lon="0.23516">
        <ele>77</ele>
        <time>2015-02-10T13:31:36Z</time>
      </trkpt>
      <trkpt lat="44.87502" lon="0.23517">
        <ele>75</ele>
        <time>2015-02-10T13:31:37Z</time>
      </trkpt>
      <trkpt lat="44.87501" lon="0.23517">
        <ele>71</ele>
        <time>2015-02-10T13:31:38Z</time>
      </trkpt>
      <trkpt lat="44.87499" lon="0.23517">
        <ele>76</ele>
        <time>2015-02-10T13:31:39Z</time>
      </trkpt>
      <trkpt lat="44.87497" lon="0.23517">
        <ele>77</ele>
        <time>2015-02-10T13:31:40Z</time>
      </trkpt>
      <trkpt lat="44.87496" lon="0.23517">
        <ele>77</ele>
        <time>2015-02-10T13:31:41Z</time>
      </trkpt>
      <trkpt lat="44.87495" lon="0.23516">
        <ele>82</ele>
        <time>2015-02-10T13:31:42Z</time>
      </trkpt>
      <trkpt lat="44.87493" lon="0.23515">
        <ele>80</ele>
        <time>2015-02-10T13:31:43Z</time>
      </trkpt>
      <trkpt lat="44.87492" lon="0.23514">
        <ele>79</ele>
        <time>2015-02-10T13:31:44Z</time>
      </trkpt>
      <trkpt lat="44.8749" lon="0.23514">
        <ele>77</ele>
        <time>2015-02-10T13:31:45Z</time>
      </trkpt>
      <trkpt lat="44.87488" lon="0.23513">
        <ele>78</ele>
        <time>2015-02-10T13:31:46Z</time>
      </trkpt>
      <trkpt lat="44.87486" lon="0.23512">
        <ele>74</ele>
        <time>2015-02-10T13:31:47Z</time>
      </trkpt>
      <trkpt lat="44.87485" lon="0.23511">
        <ele>77</ele>
        <time>2015-02-10T13:31:48Z</time>
      </trkpt>
      <trkpt lat="44.87484" lon="0.23511">
        <ele>74</ele>
        <time>2015-02-10T13:31:49Z</time>
      </trkpt>
      <trkpt lat="44.87483" lon="0.2351">
        <ele>77</ele>
        <time>2015-02-10T13:31:50Z</time>
      </trkpt>
      <trkpt lat="44.87481" lon="0.23509">
        <ele>77</ele>
        <time>2015-02-10T13:31:51Z</time>
      </trkpt>
      <trkpt lat="44.8748" lon="0.23508">
        <ele>78</ele>
        <time>2015-02-10T13:31:52Z</time>
      </trkpt>
      <trkpt lat="44.87478" lon="0.23508">
        <ele>78</ele>
        <time>2015-02-10T13:31:53Z</time>
      </trkpt>
      <trkpt lat="44.87477" lon="0.23507">
        <ele>81</ele>
        <time>2015-02-10T13:31:54Z</time>
      </trkpt>
      <trkpt lat="44.87475" lon="0.23506">
        <ele>77</ele>
        <time>2015-02-10T13:31:55Z</time>
      </trkpt>
      <trkpt lat="44.87473" lon="0.23505">
        <ele>76</ele>
        <time>2015-02-10T13:31:56Z</time>
      </trkpt>
      <trkpt lat="44.87472" lon="0.23504">
        <ele>75</ele>
        <time>2015-02-10T13:31:57Z</time>
      </trkpt>
      <trkpt lat="44.8747" lon="0.23504">
        <ele>76</ele>
        <time>2015-02-10T13:31:58Z</time>
      </trkpt>
      <trkpt lat="44.87468" lon="0.23504">
        <ele>77</ele>
        <time>2015-02-10T13:31:59Z</time>
      </trkpt>
      <trkpt lat="44.87467" lon="0.23504">
        <ele>76</ele>
        <time>2015-02-10T13:32:00Z</time>
      </trkpt>
      <trkpt lat="44.87466" lon="0.23504">
        <ele>76</ele>
        <time>2015-02-10T13:32:01Z</time>
      </trkpt>
      <trkpt lat="44.87464" lon="0.23504">
        <ele>72</ele>
        <time>2015-02-10T13:32:02Z</time>
      </trkpt>
      <trkpt lat="44.87462" lon="0.23504">
        <ele>72</ele>
        <time>2015-02-10T13:32:03Z</time>
      </trkpt>
      <trkpt lat="44.8746" lon="0.23505">
        <ele>71</ele>
        <time>2015-02-10T13:32:04Z</time>
      </trkpt>
      <trkpt lat="44.87458" lon="0.23506">
        <ele>67</ele>
        <time>2015-02-10T13:32:05Z</time>
      </trkpt>
      <trkpt lat="44.87456" lon="0.23507">
        <ele>71</ele>
        <time>2015-02-10T13:32:06Z</time>
      </trkpt>
      <trkpt lat="44.87455" lon="0.23508">
        <ele>71</ele>
        <time>2015-02-10T13:32:07Z</time>
      </trkpt>
      <trkpt lat="44.87453" lon="0.23509">
        <ele>71</ele>
        <time>2015-02-10T13:32:08Z</time>
      </trkpt>
      <trkpt lat="44.87452" lon="0.2351">
        <ele>73</ele>
        <time>2015-02-10T13:32:09Z</time>
      </trkpt>
      <trkpt lat="44.87451" lon="0.23512">
        <ele>71</ele>
        <time>2015-02-10T13:32:10Z</time>
      </trkpt>
      <trkpt lat="44.87451" lon="0.23513">
        <ele>65</ele>
        <time>2015-02-10T13:32:11Z</time>
      </trkpt>
      <trkpt lat="44.87451" lon="0.23514">
        <ele>67</ele>
        <time>2015-02-10T13:32:12Z</time>
      </trkpt>
      <trkpt lat="44.8745" lon="0.23515">
        <ele>70</ele>
        <time>2015-02-10T13:32:13Z</time>
      </trkpt>
      <trkpt lat="44.8745" lon="0.23518">
        <ele>66</ele>
        <time>2015-02-10T13:32:14Z</time>
      </trkpt>
      <trkpt lat="44.8745" lon="0.2352">
        <ele>66</ele>
        <time>2015-02-10T13:32:15Z</time>
      </trkpt>
      <trkpt lat="44.8745" lon="0.23522">
        <ele>61</ele>
        <time>2015-02-10T13:32:16Z</time>
      </trkpt>
      <trkpt lat="44.87449" lon="0.23524">
        <ele>62</ele>
        <time>2015-02-10T13:32:17Z</time>
      </trkpt>
      <trkpt lat="44.87448" lon="0.23525">
        <ele>64</ele>
        <time>2015-02-10T13:32:18Z</time>
      </trkpt>
      <trkpt lat="44.87448" lon="0.23527">
        <ele>64</ele>
        <time>2015-02-10T13:32:19Z</time>
      </trkpt>
      <trkpt lat="44.87447" lon="0.23529">
        <ele>66</ele>
        <time>2015-02-10T13:32:20Z</time>
      </trkpt>
      <trkpt lat="44.87447" lon="0.2353">
        <ele>64</ele>
        <time>2015-02-10T13:32:21Z</time>
      </trkpt>
      <trkpt lat="44.87447" lon="0.23532">
        <ele>61</ele>
        <time>2015-02-10T13:32:22Z</time>
      </trkpt>
      <trkpt lat="44.87447" lon="0.23533">
        <ele>65</ele>
        <time>2015-02-10T13:32:23Z</time>
      </trkpt>
      <trkpt lat="44.87447" lon="0.23535">
        <ele>67</ele>
        <time>2015-02-10T13:32:24Z</time>
      </trkpt>
      <trkpt lat="44.87446" lon="0.23537">
        <ele>68</ele>
        <time>2015-02-10T13:32:25Z</time>
      </trkpt>
      <trkpt lat="44.87446" lon="0.23539">
        <ele>69</ele>
        <time>2015-02-10T13:32:26Z</time>
      </trkpt>
      <trkpt lat="44.87445" lon="0.23542">
        <ele>68</ele>
        <time>2015-02-10T13:32:27Z</time>
      </trkpt>
      <trkpt lat="44.87445" lon="0.23544">
        <ele>64</ele>
        <time>2015-02-10T13:32:28Z</time>
      </trkpt>
      <trkpt lat="44.87444" lon="0.23546">
        <ele>65</ele>
        <time>2015-02-10T13:32:29Z</time>
      </trkpt>
      <trkpt lat="44.87444" lon="0.23548">
        <ele>65</ele>
        <time>2015-02-10T13:32:30Z</time>
      </trkpt>
      <trkpt lat="44.87444" lon="0.2355">
        <ele>65</ele>
        <time>2015-02-10T13:32:31Z</time>
      </trkpt>
      <trkpt lat="44.87444" lon="0.23552">
        <ele>63</ele>
        <time>2015-02-10T13:32:32Z</time>
      </trkpt>
      <trkpt lat="44.87444" lon="0.23554">
        <ele>61</ele>
        <time>2015-02-10T13:32:33Z</time>
      </trkpt>
      <trkpt lat="44.87444" lon="0.23557">
        <ele>66</ele>
        <time>2015-02-10T13:32:34Z</time>
      </trkpt>
      <trkpt lat="44.87444" lon="0.23559">
        <ele>68</ele>
        <time>2015-02-10T13:32:35Z</time>
      </trkpt>
      <trkpt lat="44.87444" lon="0.2356">
        <ele>66</ele>
        <time>2015-02-10T13:32:36Z</time>
      </trkpt>
      <trkpt lat="44.87443" lon="0.23562">
        <ele>64</ele>
        <time>2015-02-10T13:32:37Z</time>
      </trkpt>
      <trkpt lat="44.87442" lon="0.23564">
        <ele>62</ele>
        <time>2015-02-10T13:32:38Z</time>
      </trkpt>
      <trkpt lat="44.87441" lon="0.23565">
        <ele>63</ele>
        <time>2015-02-10T13:32:39Z</time>
      </trkpt>
      <trkpt lat="44.87441" lon="0.23567">
        <ele>63</ele>
        <time>2015-02-10T13:32:40Z</time>
      </trkpt>
      <trkpt lat="44.8744" lon="0.23569">
        <ele>63</ele>
        <time>2015-02-10T13:32:41Z</time>
      </trkpt>
      <trkpt lat="44.87439" lon="0.23571">
        <ele>68</ele>
        <time>2015-02-10T13:32:42Z</time>
      </trkpt>
      <trkpt lat="44.87439" lon="0.23573">
        <ele>65</ele>
        <time>2015-02-10T13:32:43Z</time>
      </trkpt>
      <trkpt lat="44.87438" lon="0.23574">
        <ele>64</ele>
        <time>2015-02-10T13:32:44Z</time>
      </trkpt>
      <trkpt lat="44.87438" lon="0.23576">
        <ele>62</ele>
        <time>2015-02-10T13:32:45Z</time>
      </trkpt>
      <trkpt lat="44.87437" lon="0.23578">
        <ele>62</ele>
        <time>2015-02-10T13:32:46Z</time>
      </trkpt>
      <trkpt lat="44.87436" lon="0.2358">
        <ele>66</ele>
        <time>2015-02-10T13:32:47Z</time>
      </trkpt>
      <trkpt lat="44.87435" lon="0.23582">
        <ele>68</ele>
        <time>2015-02-10T13:32:48Z</time>
      </trkpt>
      <trkpt lat="44.87435" lon="0.23583">
        <ele>65</ele>
        <time>2015-02-10T13:32:49Z</time>
      </trkpt>
      <trkpt lat="44.87434" lon="0.23585">
        <ele>65</ele>
        <time>2015-02-10T13:32:50Z</time>
      </trkpt>
      <trkpt lat="44.87433" lon="0.23588">
        <ele>65</ele>
        <time>2015-02-10T13:32:51Z</time>
      </trkpt>
      <trkpt lat="44.87433" lon="0.2359">
        <ele>65</ele>
        <time>2015-02-10T13:32:52Z</time>
      </trkpt>
      <trkpt lat="44.87432" lon="0.23592">
        <ele>65</ele>
        <time>2015-02-10T13:32:53Z</time>
      </trkpt>
      <trkpt lat="44.87431" lon="0.23594">
        <ele>66</ele>
        <time>2015-02-10T13:32:54Z</time>
      </trkpt>
      <trkpt lat="44.87431" lon="0.23595">
        <ele>64</ele>
        <time>2015-02-10T13:32:55Z</time>
      </trkpt>
      <trkpt lat="44.87431" lon="0.23597">
        <ele>62</ele>
        <time>2015-02-10T13:32:56Z</time>
      </trkpt>
      <trkpt lat="44.8743" lon="0.23599">
        <ele>65</ele>
        <time>2015-02-10T13:32:57Z</time>
      </trkpt>
      <trkpt lat="44.8743" lon="0.236">
        <ele>64</ele>
        <time>2015-02-10T13:32:58Z</time>
      </trkpt>
      <trkpt lat="44.8743" lon="0.23601">
        <ele>65</ele>
        <time>2015-02-10T13:32:59Z</time>
      </trkpt>
      <trkpt lat="44.87429" lon="0.23603">
        <ele>62</ele>
        <time>2015-02-10T13:33:00Z</time>
      </trkpt>
      <trkpt lat="44.87429" lon="0.23604">
        <ele>65</ele>
        <time>2015-02-10T13:33:01Z</time>
      </trkpt>
      <trkpt lat="44.87428" lon="0.23606">
        <ele>68</ele>
        <time>2015-02-10T13:33:02Z</time>
      </trkpt>
      <trkpt lat="44.87427" lon="0.23608">
        <ele>67</ele>
        <time>2015-02-10T13:33:03Z</time>
      </trkpt>
      <trkpt lat="44.87426" lon="0.2361">
        <ele>66</ele>
        <time>2015-02-10T13:33:04Z</time>
      </trkpt>
      <trkpt lat="44.87426" lon="0.23611">
        <ele>67</ele>
        <time>2015-02-10T13:33:05Z</time>
      </trkpt>
      <trkpt lat="44.87425" lon="0.23613">
        <ele>65</ele>
        <time>2015-02-10T13:33:06Z</time>
      </trkpt>
      <trkpt lat="44.87424" lon="0.23614">
        <ele>67</ele>
        <time>2015-02-10T13:33:07Z</time>
      </trkpt>
      <trkpt lat="44.87424" lon="0.23615">
        <ele>70</ele>
        <time>2015-02-10T13:33:08Z</time>
      </trkpt>
      <trkpt lat="44.87423" lon="0.23616">
        <ele>68</ele>
        <time>2015-02-10T13:33:09Z</time>
      </trkpt>
      <trkpt lat="44.87423" lon="0.23618">
        <ele>66</ele>
        <time>2015-02-10T13:33:10Z</time>
      </trkpt>
      <trkpt lat="44.87422" lon="0.2362">
        <ele>63</ele>
        <time>2015-02-10T13:33:11Z</time>
      </trkpt>
      <trkpt lat="44.87422" lon="0.23622">
        <ele>66</ele>
        <time>2015-02-10T13:33:12Z</time>
      </trkpt>
      <trkpt lat="44.87421" lon="0.23623">
        <ele>70</ele>
        <time>2015-02-10T13:33:13Z</time>
      </trkpt>
      <trkpt lat="44.87421" lon="0.23624">
        <ele>67</ele>
        <time>2015-02-10T13:33:14Z</time>
      </trkpt>
      <trkpt lat="44.8742" lon="0.23625">
        <ele>69</ele>
        <time>2015-02-10T13:33:15Z</time>
      </trkpt>
      <trkpt lat="44.8742" lon="0.23626">
        <ele>66</ele>
        <time>2015-02-10T13:33:16Z</time>
      </trkpt>
      <trkpt lat="44.8742" lon="0.23627">
        <ele>66</ele>
        <time>2015-02-10T13:33:17Z</time>
      </trkpt>
      <trkpt lat="44.87419" lon="0.23629">
        <ele>66</ele>
        <time>2015-02-10T13:33:18Z</time>
      </trkpt>
      <trkpt lat="44.87419" lon="0.23631">
        <ele>69</ele>
        <time>2015-02-10T13:33:19Z</time>
      </trkpt>
      <trkpt lat="44.87419" lon="0.23633">
        <ele>68</ele>
        <time>2015-02-10T13:33:20Z</time>
      </trkpt>
      <trkpt lat="44.87418" lon="0.23634">
        <ele>67</ele>
        <time>2015-02-10T13:33:21Z</time>
      </trkpt>
      <trkpt lat="44.87418" lon="0.23635">
        <ele>67</ele>
        <time>2015-02-10T13:33:22Z</time>
      </trkpt>
      <trkpt lat="44.87417" lon="0.23636">
        <ele>67</ele>
        <time>2015-02-10T13:33:23Z</time>
      </trkpt>
      <trkpt lat="44.87417" lon="0.23638">
        <ele>69</ele>
        <time>2015-02-10T13:33:24Z</time>
      </trkpt>
      <trkpt lat="44.87416" lon="0.23639">
        <ele>65</ele>
        <time>2015-02-10T13:33:25Z</time>
      </trkpt>
      <trkpt lat="44.87415" lon="0.2364">
        <ele>64</ele>
        <time>2015-02-10T13:33:26Z</time>
      </trkpt>
      <trkpt lat="44.87414" lon="0.23641">
        <ele>66</ele>
        <time>2015-02-10T13:33:27Z</time>
      </trkpt>
      <trkpt lat="44.87414" lon="0.23643">
        <ele>66</ele>
        <time>2015-02-10T13:33:28Z</time>
      </trkpt>
      <trkpt lat="44.87412" lon="0.23644">
        <ele>70</ele>
        <time>2015-02-10T13:33:29Z</time>
      </trkpt>
      <trkpt lat="44.87411" lon="0.23646">
        <ele>74</ele>
        <time>2015-02-10T13:33:30Z</time>
      </trkpt>
      <trkpt lat="44.87411" lon="0.23647">
        <ele>77</ele>
        <time>2015-02-10T13:33:31Z</time>
      </trkpt>
      <trkpt lat="44.8741" lon="0.23648">
        <ele>75</ele>
        <time>2015-02-10T13:33:32Z</time>
      </trkpt>
      <trkpt lat="44.87409" lon="0.2365">
        <ele>76</ele>
        <time>2015-02-10T13:33:33Z</time>
      </trkpt>
      <trkpt lat="44.87409" lon="0.23651">
        <ele>77</ele>
        <time>2015-02-10T13:33:34Z</time>
      </trkpt>
      <trkpt lat="44.87408" lon="0.23652">
        <ele>74</ele>
        <time>2015-02-10T13:33:35Z</time>
      </trkpt>
      <trkpt lat="44.87407" lon="0.23653">
        <ele>75</ele>
        <time>2015-02-10T13:33:36Z</time>
      </trkpt>
      <trkpt lat="44.87407" lon="0.23654">
        <ele>72</ele>
        <time>2015-02-10T13:33:37Z</time>
      </trkpt>
      <trkpt lat="44.87406" lon="0.23656">
        <ele>70</ele>
        <time>2015-02-10T13:33:38Z</time>
      </trkpt>
      <trkpt lat="44.87406" lon="0.23658">
        <ele>71</ele>
        <time>2015-02-10T13:33:39Z</time>
      </trkpt>
      <trkpt lat="44.87405" lon="0.23659">
        <ele>66</ele>
        <time>2015-02-10T13:33:40Z</time>
      </trkpt>
      <trkpt lat="44.87405" lon="0.23661">
        <ele>66</ele>
        <time>2015-02-10T13:33:41Z</time>
      </trkpt>
      <trkpt lat="44.87404" lon="0.23662">
        <ele>67</ele>
        <time>2015-02-10T13:33:42Z</time>
      </trkpt>
      <trkpt lat="44.87404" lon="0.23664">
        <ele>68</ele>
        <time>2015-02-10T13:33:43Z</time>
      </trkpt>
      <trkpt lat="44.87404" lon="0.23666">
        <ele>69</ele>
        <time>2015-02-10T13:33:44Z</time>
      </trkpt>
      <trkpt lat="44.87403" lon="0.23667">
        <ele>67</ele>
        <time>2015-02-10T13:33:45Z</time>
      </trkpt>
      <trkpt lat="44.87403" lon="0.23669">
        <ele>62</ele>
        <time>2015-02-10T13:33:46Z</time>
      </trkpt>
      <trkpt lat="44.87402" lon="0.2367">
        <ele>65</ele>
        <time>2015-02-10T13:33:47Z</time>
      </trkpt>
      <trkpt lat="44.87402" lon="0.23671">
        <ele>68</ele>
        <time>2015-02-10T13:33:48Z</time>
      </trkpt>
      <trkpt lat="44.87401" lon="0.23672">
        <ele>67</ele>
        <time>2015-02-10T13:33:49Z</time>
      </trkpt>
      <trkpt lat="44.874" lon="0.23673">
        <ele>65</ele>
        <time>2015-02-10T13:33:50Z</time>
      </trkpt>
      <trkpt lat="44.87399" lon="0.23676">
        <ele>64</ele>
        <time>2015-02-10T13:33:51Z</time>
      </trkpt>
      <trkpt lat="44.87398" lon="0.23678">
        <ele>65</ele>
        <time>2015-02-10T13:33:52Z</time>
      </trkpt>
      <trkpt lat="44.87397" lon="0.23679">
        <ele>63</ele>
        <time>2015-02-10T13:33:53Z</time>
      </trkpt>
      <trkpt lat="44.87397" lon="0.23681">
        <ele>66</ele>
        <time>2015-02-10T13:33:54Z</time>
      </trkpt>
      <trkpt lat="44.87396" lon="0.23683">
        <ele>66</ele>
        <time>2015-02-10T13:33:55Z</time>
      </trkpt>
      <trkpt lat="44.87396" lon="0.23684">
        <ele>65</ele>
        <time>2015-02-10T13:33:56Z</time>
      </trkpt>
      <trkpt lat="44.87396" lon="0.23685">
        <ele>70</ele>
        <time>2015-02-10T13:33:57Z</time>
      </trkpt>
      <trkpt lat="44.87395" lon="0.23687">
        <ele>65</ele>
        <time>2015-02-10T13:33:58Z</time>
      </trkpt>
      <trkpt lat="44.87394" lon="0.23689">
        <ele>69</ele>
        <time>2015-02-10T13:33:59Z</time>
      </trkpt>
      <trkpt lat="44.87394" lon="0.2369">
        <ele>67</ele>
        <time>2015-02-10T13:34:00Z</time>
      </trkpt>
      <trkpt lat="44.87394" lon="0.23691">
        <ele>67</ele>
        <time>2015-02-10T13:34:01Z</time>
      </trkpt>
      <trkpt lat="44.87393" lon="0.23693">
        <ele>69</ele>
        <time>2015-02-10T13:34:02Z</time>
      </trkpt>
      <trkpt lat="44.87394" lon="0.23695">
        <ele>67</ele>
        <time>2015-02-10T13:34:03Z</time>
      </trkpt>
      <trkpt lat="44.87394" lon="0.23697">
        <ele>66</ele>
        <time>2015-02-10T13:34:04Z</time>
      </trkpt>
      <trkpt lat="44.87394" lon="0.23699">
        <ele>70</ele>
        <time>2015-02-10T13:34:05Z</time>
      </trkpt>
      <trkpt lat="44.87394" lon="0.237">
        <ele>63</ele>
        <time>2015-02-10T13:34:06Z</time>
      </trkpt>
      <trkpt lat="44.87395" lon="0.23702">
        <ele>67</ele>
        <time>2015-02-10T13:34:07Z</time>
      </trkpt>
      <trkpt lat="44.87395" lon="0.23703">
        <ele>65</ele>
        <time>2015-02-10T13:34:08Z</time>
      </trkpt>
      <trkpt lat="44.87395" lon="0.23705">
        <ele>63</ele>
        <time>2015-02-10T13:34:09Z</time>
      </trkpt>
      <trkpt lat="44.87395" lon="0.23706">
        <ele>65</ele>
        <time>2015-02-10T13:34:10Z</time>
      </trkpt>
      <trkpt lat="44.87394" lon="0.23708">
        <ele>64</ele>
        <time>2015-02-10T13:34:11Z</time>
      </trkpt>
      <trkpt lat="44.87394" lon="0.2371">
        <ele>64</ele>
        <time>2015-02-10T13:34:12Z</time>
      </trkpt>
      <trkpt lat="44.87395" lon="0.23712">
        <ele>65</ele>
        <time>2015-02-10T13:34:13Z</time>
      </trkpt>
      <trkpt lat="44.87395" lon="0.23714">
        <ele>64</ele>
        <time>2015-02-10T13:34:14Z</time>
      </trkpt>
      <trkpt lat="44.87394" lon="0.23716">
        <ele>63</ele>
        <time>2015-02-10T13:34:15Z</time>
      </trkpt>
      <trkpt lat="44.87393" lon="0.23718">
        <ele>66</ele>
        <time>2015-02-10T13:34:16Z</time>
      </trkpt>
      <trkpt lat="44.87394" lon="0.2372">
        <ele>70</ele>
        <time>2015-02-10T13:34:17Z</time>
      </trkpt>
      <trkpt lat="44.87393" lon="0.23721">
        <ele>71</ele>
        <time>2015-02-10T13:34:18Z</time>
      </trkpt>
      <trkpt lat="44.87393" lon="0.23723">
        <ele>65</ele>
        <time>2015-02-10T13:34:19Z</time>
      </trkpt>
      <trkpt lat="44.87393" lon="0.23724">
        <ele>65</ele>
        <time>2015-02-10T13:34:20Z</time>
      </trkpt>
      <trkpt lat="44.87392" lon="0.23726">
        <ele>63</ele>
        <time>2015-02-10T13:34:21Z</time>
      </trkpt>
      <trkpt lat="44.87392" lon="0.23727">
        <ele>62</ele>
        <time>2015-02-10T13:34:22Z</time>
      </trkpt>
      <trkpt lat="44.87392" lon="0.23728">
        <ele>63</ele>
        <time>2015-02-10T13:34:23Z</time>
      </trkpt>
      <trkpt lat="44.87391" lon="0.23729">
        <ele>63</ele>
        <time>2015-02-10T13:34:24Z</time>
      </trkpt>
      <trkpt lat="44.87391" lon="0.2373">
        <ele>63</ele>
        <time>2015-02-10T13:34:25Z</time>
      </trkpt>
      <trkpt lat="44.87391" lon="0.23731">
        <ele>64</ele>
        <time>2015-02-10T13:34:26Z</time>
      </trkpt>
      <trkpt lat="44.8739" lon="0.23732">
        <ele>59</ele>
        <time>2015-02-10T13:34:27Z</time>
      </trkpt>
      <trkpt lat="44.87389" lon="0.23733">
        <ele>60</ele>
        <time>2015-02-10T13:34:28Z</time>
      </trkpt>
      <trkpt lat="44.87388" lon="0.23734">
        <ele>59</ele>
        <time>2015-02-10T13:34:29Z</time>
      </trkpt>
      <trkpt lat="44.87387" lon="0.23735">
        <ele>62</ele>
        <time>2015-02-10T13:34:30Z</time>
      </trkpt>
      <trkpt lat="44.87387" lon="0.23736">
        <ele>63</ele>
        <time>2015-02-10T13:34:31Z</time>
      </trkpt>
      <trkpt lat="44.87386" lon="0.23737">
        <ele>64</ele>
        <time>2015-02-10T13:34:32Z</time>
      </trkpt>
      <trkpt lat="44.87386" lon="0.23738">
        <ele>62</ele>
        <time>2015-02-10T13:34:33Z</time>
      </trkpt>
      <trkpt lat="44.87386" lon="0.23739">
        <ele>60</ele>
        <time>2015-02-10T13:34:34Z</time>
      </trkpt>
      <trkpt lat="44.87385" lon="0.23741">
        <ele>60</ele>
        <time>2015-02-10T13:34:35Z</time>
      </trkpt>
      <trkpt lat="44.87385" lon="0.23743">
        <ele>60</ele>
        <time>2015-02-10T13:34:36Z</time>
      </trkpt>
      <trkpt lat="44.87384" lon="0.23744">
        <ele>57</ele>
        <time>2015-02-10T13:34:37Z</time>
      </trkpt>
      <trkpt lat="44.87384" lon="0.23746">
        <ele>60</ele>
        <time>2015-02-10T13:34:38Z</time>
      </trkpt>
      <trkpt lat="44.87384" lon="0.23748">
        <ele>63</ele>
        <time>2015-02-10T13:34:39Z</time>
      </trkpt>
      <trkpt lat="44.87384" lon="0.23749">
        <ele>64</ele>
        <time>2015-02-10T13:34:40Z</time>
      </trkpt>
      <trkpt lat="44.87383" lon="0.2375">
        <ele>64</ele>
        <time>2015-02-10T13:34:41Z</time>
      </trkpt>
      <trkpt lat="44.87383" lon="0.23751">
        <ele>63</ele>
        <time>2015-02-10T13:34:42Z</time>
      </trkpt>
      <trkpt lat="44.87383" lon="0.23751">
        <ele>64</ele>
        <time>2015-02-10T13:34:43Z</time>
      </trkpt>
      <trkpt lat="44.87383" lon="0.23751">
        <ele>64</ele>
        <time>2015-02-10T13:34:44Z</time>
      </trkpt>
      <trkpt lat="44.87383" lon="0.23751">
        <ele>66</ele>
        <time>2015-02-10T13:34:45Z</time>
      </trkpt>
      <trkpt lat="44.87383" lon="0.23751">
        <ele>69</ele>
        <time>2015-02-10T13:34:46Z</time>
      </trkpt>
      <trkpt lat="44.87383" lon="0.23751">
        <ele>71</ele>
        <time>2015-02-10T13:34:47Z</time>
      </trkpt>
      <trkpt lat="44.87383" lon="0.23751">
        <ele>70</ele>
        <time>2015-02-10T13:34:48Z</time>
      </trkpt>
      <trkpt lat="44.87383" lon="0.23751">
        <ele>67</ele>
        <time>2015-02-10T13:34:49Z</time>
      </trkpt>
      <trkpt lat="44.87383" lon="0.23751">
        <ele>65</ele>
        <time>2015-02-10T13:34:50Z</time>
      </trkpt>
      <trkpt lat="44.87384" lon="0.2375">
        <ele>66</ele>
        <time>2015-02-10T13:34:51Z</time>
      </trkpt>
      <trkpt lat="44.87384" lon="0.2375">
        <ele>65</ele>
        <time>2015-02-10T13:34:52Z</time>
      </trkpt>
      <trkpt lat="44.87384" lon="0.2375">
        <ele>61</ele>
        <time>2015-02-10T13:34:53Z</time>
      </trkpt>
      <trkpt lat="44.87384" lon="0.2375">
        <ele>61</ele>
        <time>2015-02-10T13:34:54Z</time>
      </trkpt>
      <trkpt lat="44.87384" lon="0.2375">
        <ele>60</ele>
        <time>2015-02-10T13:34:55Z</time>
      </trkpt>
      <trkpt lat="44.87384" lon="0.2375">
        <ele>59</ele>
        <time>2015-02-10T13:34:56Z</time>
      </trkpt>
      <trkpt lat="44.87384" lon="0.2375">
        <ele>59</ele>
        <time>2015-02-10T13:34:57Z</time>
      </trkpt>
      <trkpt lat="44.87385" lon="0.23749">
        <ele>60</ele>
        <time>2015-02-10T13:34:58Z</time>
      </trkpt>
      <trkpt lat="44.87385" lon="0.23749">
        <ele>63</ele>
        <time>2015-02-10T13:34:59Z</time>
      </trkpt>
      <trkpt lat="44.87386" lon="0.23748">
        <ele>64</ele>
        <time>2015-02-10T13:35:00Z</time>
      </trkpt>
      <trkpt lat="44.87386" lon="0.23748">
        <ele>63</ele>
        <time>2015-02-10T13:35:01Z</time>
      </trkpt>
      <trkpt lat="44.87387" lon="0.23746">
        <ele>65</ele>
        <time>2015-02-10T13:35:02Z</time>
      </trkpt>
      <trkpt lat="44.87387" lon="0.23745">
        <ele>64</ele>
        <time>2015-02-10T13:35:03Z</time>
      </trkpt>
      <trkpt lat="44.87388" lon="0.23744">
        <ele>65</ele>
        <time>2015-02-10T13:35:04Z</time>
      </trkpt>
      <trkpt lat="44.87389" lon="0.23744">
        <ele>65</ele>
        <time>2015-02-10T13:35:05Z</time>
      </trkpt>
      <trkpt lat="44.87388" lon="0.23743">
        <ele>65</ele>
        <time>2015-02-10T13:35:06Z</time>
      </trkpt>
      <trkpt lat="44.87389" lon="0.23744">
        <ele>64</ele>
        <time>2015-02-10T13:35:07Z</time>
      </trkpt>
      <trkpt lat="44.87389" lon="0.23745">
        <ele>63</ele>
        <time>2015-02-10T13:35:08Z</time>
      </trkpt>
      <trkpt lat="44.8739" lon="0.23746">
        <ele>65</ele>
        <time>2015-02-10T13:35:09Z</time>
      </trkpt>
      <trkpt lat="44.8739" lon="0.23747">
        <ele>68</ele>
        <time>2015-02-10T13:35:10Z</time>
      </trkpt>
      <trkpt lat="44.87391" lon="0.23748">
        <ele>72</ele>
        <time>2015-02-10T13:35:11Z</time>
      </trkpt>
      <trkpt lat="44.8739" lon="0.23748">
        <ele>71</ele>
        <time>2015-02-10T13:35:12Z</time>
      </trkpt>
      <trkpt lat="44.8739" lon="0.23747">
        <ele>69</ele>
        <time>2015-02-10T13:35:13Z</time>
      </trkpt>
      <trkpt lat="44.87389" lon="0.23747">
        <ele>69</ele>
        <time>2015-02-10T13:35:14Z</time>
      </trkpt>
      <trkpt lat="44.87388" lon="0.23746">
        <ele>65</ele>
        <time>2015-02-10T13:35:15Z</time>
      </trkpt>
      <trkpt lat="44.87387" lon="0.23746">
        <ele>62</ele>
        <time>2015-02-10T13:35:16Z</time>
      </trkpt>
      <trkpt lat="44.87385" lon="0.23745">
        <ele>63</ele>
        <time>2015-02-10T13:35:17Z</time>
      </trkpt>
      <trkpt lat="44.87384" lon="0.23744">
        <ele>64</ele>
        <time>2015-02-10T13:35:18Z</time>
      </trkpt>
      <trkpt lat="44.87383" lon="0.23744">
        <ele>64</ele>
        <time>2015-02-10T13:35:19Z</time>
      </trkpt>
      <trkpt lat="44.87383" lon="0.23743">
        <ele>58</ele>
        <time>2015-02-10T13:35:20Z</time>
      </trkpt>
      <trkpt lat="44.87382" lon="0.23743">
        <ele>58</ele>
        <time>2015-02-10T13:35:21Z</time>
      </trkpt>
      <trkpt lat="44.87381" lon="0.23742">
        <ele>61</ele>
        <time>2015-02-10T13:35:22Z</time>
      </trkpt>
      <trkpt lat="44.8738" lon="0.23741">
        <ele>61</ele>
        <time>2015-02-10T13:35:23Z</time>
      </trkpt>
      <trkpt lat="44.87379" lon="0.23741">
        <ele>60</ele>
        <time>2015-02-10T13:35:24Z</time>
      </trkpt>
      <trkpt lat="44.87377" lon="0.2374">
        <ele>63</ele>
        <time>2015-02-10T13:35:25Z</time>
      </trkpt>
      <trkpt lat="44.87376" lon="0.23739">
        <ele>61</ele>
        <time>2015-02-10T13:35:26Z</time>
      </trkpt>
      <trkpt lat="44.87375" lon="0.23739">
        <ele>58</ele>
        <time>2015-02-10T13:35:27Z</time>
      </trkpt>
      <trkpt lat="44.87374" lon="0.23738">
        <ele>59</ele>
        <time>2015-02-10T13:35:28Z</time>
      </trkpt>
      <trkpt lat="44.87372" lon="0.23737">
        <ele>60</ele>
        <time>2015-02-10T13:35:29Z</time>
      </trkpt>
      <trkpt lat="44.87371" lon="0.23737">
        <ele>59</ele>
        <time>2015-02-10T13:35:30Z</time>
      </trkpt>
      <trkpt lat="44.87369" lon="0.23736">
        <ele>60</ele>
        <time>2015-02-10T13:35:31Z</time>
      </trkpt>
      <trkpt lat="44.87368" lon="0.23735">
        <ele>62</ele>
        <time>2015-02-10T13:35:32Z</time>
      </trkpt>
      <trkpt lat="44.87367" lon="0.23734">
        <ele>62</ele>
        <time>2015-02-10T13:35:33Z</time>
      </trkpt>
      <trkpt lat="44.87366" lon="0.23733">
        <ele>61</ele>
        <time>2015-02-10T13:35:34Z</time>
      </trkpt>
      <trkpt lat="44.87365" lon="0.23732">
        <ele>62</ele>
        <time>2015-02-10T13:35:35Z</time>
      </trkpt>
      <trkpt lat="44.87364" lon="0.23732">
        <ele>62</ele>
        <time>2015-02-10T13:35:36Z</time>
      </trkpt>
      <trkpt lat="44.87363" lon="0.23731">
        <ele>65</ele>
        <time>2015-02-10T13:35:37Z</time>
      </trkpt>
      <trkpt lat="44.87363" lon="0.2373">
        <ele>65</ele>
        <time>2015-02-10T13:35:38Z</time>
      </trkpt>
      <trkpt lat="44.87361" lon="0.2373">
        <ele>64</ele>
        <time>2015-02-10T13:35:39Z</time>
      </trkpt>
      <trkpt lat="44.8736" lon="0.23729">
        <ele>62</ele>
        <time>2015-02-10T13:35:40Z</time>
      </trkpt>
      <trkpt lat="44.87359" lon="0.23728">
        <ele>61</ele>
        <time>2015-02-10T13:35:41Z</time>
      </trkpt>
      <trkpt lat="44.87357" lon="0.23727">
        <ele>62</ele>
        <time>2015-02-10T13:35:42Z</time>
      </trkpt>
      <trkpt lat="44.87356" lon="0.23727">
        <ele>62</ele>
        <time>2015-02-10T13:35:43Z</time>
      </trkpt>
      <trkpt lat="44.87354" lon="0.23726">
        <ele>61</ele>
        <time>2015-02-10T13:35:44Z</time>
      </trkpt>
      <trkpt lat="44.87353" lon="0.23726">
        <ele>60</ele>
        <time>2015-02-10T13:35:45Z</time>
      </trkpt>
      <trkpt lat="44.87351" lon="0.23726">
        <ele>62</ele>
        <time>2015-02-10T13:35:46Z</time>
      </trkpt>
      <trkpt lat="44.87351" lon="0.23725">
        <ele>60</ele>
        <time>2015-02-10T13:35:47Z</time>
      </trkpt>
      <trkpt lat="44.87351" lon="0.23726">
        <ele>59</ele>
        <time>2015-02-10T13:35:48Z</time>
      </trkpt>
      <trkpt lat="44.87351" lon="0.23727">
        <ele>57</ele>
        <time>2015-02-10T13:35:49Z</time>
      </trkpt>
      <trkpt lat="44.8735" lon="0.23726">
        <ele>59</ele>
        <time>2015-02-10T13:35:50Z</time>
      </trkpt>
      <trkpt lat="44.8735" lon="0.23726">
        <ele>58</ele>
        <time>2015-02-10T13:35:51Z</time>
      </trkpt>
      <trkpt lat="44.8735" lon="0.23726">
        <ele>55</ele>
        <time>2015-02-10T13:35:52Z</time>
      </trkpt>
      <trkpt lat="44.8735" lon="0.23726">
        <ele>55</ele>
        <time>2015-02-10T13:35:53Z</time>
      </trkpt>
      <trkpt lat="44.8735" lon="0.23726">
        <ele>58</ele>
        <time>2015-02-10T13:35:54Z</time>
      </trkpt>
      <trkpt lat="44.8735" lon="0.23726">
        <ele>61</ele>
        <time>2015-02-10T13:35:55Z</time>
      </trkpt>
      <trkpt lat="44.8735" lon="0.23726">
        <ele>64</ele>
        <time>2015-02-10T13:35:56Z</time>
      </trkpt>
      <trkpt lat="44.8735" lon="0.23726">
        <ele>68</ele>
        <time>2015-02-10T13:35:57Z</time>
      </trkpt>
      <trkpt lat="44.8735" lon="0.23726">
        <ele>72</ele>
        <time>2015-02-10T13:35:58Z</time>
      </trkpt>
      <trkpt lat="44.8735" lon="0.23726">
        <ele>75</ele>
        <time>2015-02-10T13:35:59Z</time>
      </trkpt>
      <trkpt lat="44.8735" lon="0.23726">
        <ele>80</ele>
        <time>2015-02-10T13:36:00Z</time>
      </trkpt>
      <trkpt lat="44.8735" lon="0.23726">
        <ele>81</ele>
        <time>2015-02-10T13:36:01Z</time>
      </trkpt>
      <trkpt lat="44.8735" lon="0.23726">
        <ele>81</ele>
        <time>2015-02-10T13:36:02Z</time>
      </trkpt>
      <trkpt lat="44.8735" lon="0.23726">
        <ele>80</ele>
        <time>2015-02-10T13:36:03Z</time>
      </trkpt>
      <trkpt lat="44.8735" lon="0.23726">
        <ele>79</ele>
        <time>2015-02-10T13:36:04Z</time>
      </trkpt>
      <trkpt lat="44.8735" lon="0.23726">
        <ele>78</ele>
        <time>2015-02-10T13:36:05Z</time>
      </trkpt>
      <trkpt lat="44.8735" lon="0.23726">
        <ele>77</ele>
        <time>2015-02-10T13:36:06Z</time>
      </trkpt>
      <trkpt lat="44.8735" lon="0.23726">
        <ele>77</ele>
        <time>2015-02-10T13:36:07Z</time>
      </trkpt>
      <trkpt lat="44.8735" lon="0.23726">
        <ele>75</ele>
        <time>2015-02-10T13:36:08Z</time>
      </trkpt>
      <trkpt lat="44.8735" lon="0.23726">
        <ele>75</ele>
        <time>2015-02-10T13:36:09Z</time>
      </trkpt>
      <trkpt lat="44.8735" lon="0.23726">
        <ele>73</ele>
        <time>2015-02-10T13:36:10Z</time>
      </trkpt>
      <trkpt lat="44.8735" lon="0.23726">
        <ele>74</ele>
        <time>2015-02-10T13:36:11Z</time>
      </trkpt>
      <trkpt lat="44.8735" lon="0.23727">
        <ele>72</ele>
        <time>2015-02-10T13:36:12Z</time>
      </trkpt>
      <trkpt lat="44.87349" lon="0.23727">
        <ele>71</ele>
        <time>2015-02-10T13:36:13Z</time>
      </trkpt>
      <trkpt lat="44.87348" lon="0.23726">
        <ele>68</ele>
        <time>2015-02-10T13:36:14Z</time>
      </trkpt>
      <trkpt lat="44.87347" lon="0.23724">
        <ele>68</ele>
        <time>2015-02-10T13:36:15Z</time>
      </trkpt>
      <trkpt lat="44.87346" lon="0.23723">
        <ele>67</ele>
        <time>2015-02-10T13:36:16Z</time>
      </trkpt>
      <trkpt lat="44.87346" lon="0.23723">
        <ele>65</ele>
        <time>2015-02-10T13:36:17Z</time>
      </trkpt>
      <trkpt lat="44.87345" lon="0.23723">
        <ele>61</ele>
        <time>2015-02-10T13:36:18Z</time>
      </trkpt>
      <trkpt lat="44.87345" lon="0.23722">
        <ele>64</ele>
        <time>2015-02-10T13:36:19Z</time>
      </trkpt>
      <trkpt lat="44.87345" lon="0.23722">
        <ele>62</ele>
        <time>2015-02-10T13:36:20Z</time>
      </trkpt>
      <trkpt lat="44.87344" lon="0.23722">
        <ele>62</ele>
        <time>2015-02-10T13:36:21Z</time>
      </trkpt>
      <trkpt lat="44.87343" lon="0.23722">
        <ele>63</ele>
        <time>2015-02-10T13:36:22Z</time>
      </trkpt>
      <trkpt lat="44.87341" lon="0.23721">
        <ele>64</ele>
        <time>2015-02-10T13:36:23Z</time>
      </trkpt>
      <trkpt lat="44.8734" lon="0.23721">
        <ele>67</ele>
        <time>2015-02-10T13:36:24Z</time>
      </trkpt>
      <trkpt lat="44.87339" lon="0.2372">
        <ele>71</ele>
        <time>2015-02-10T13:36:25Z</time>
      </trkpt>
      <trkpt lat="44.87338" lon="0.2372">
        <ele>65</ele>
        <time>2015-02-10T13:36:26Z</time>
      </trkpt>
      <trkpt lat="44.87337" lon="0.2372">
        <ele>65</ele>
        <time>2015-02-10T13:36:27Z</time>
      </trkpt>
      <trkpt lat="44.87336" lon="0.2372">
        <ele>65</ele>
        <time>2015-02-10T13:36:28Z</time>
      </trkpt>
      <trkpt lat="44.87335" lon="0.23719">
        <ele>65</ele>
        <time>2015-02-10T13:36:29Z</time>
      </trkpt>
      <trkpt lat="44.87334" lon="0.23719">
        <ele>65</ele>
        <time>2015-02-10T13:36:30Z</time>
      </trkpt>
      <trkpt lat="44.87332" lon="0.23718">
        <ele>63</ele>
        <time>2015-02-10T13:36:31Z</time>
      </trkpt>
      <trkpt lat="44.87331" lon="0.23718">
        <ele>62</ele>
        <time>2015-02-10T13:36:32Z</time>
      </trkpt>
      <trkpt lat="44.87331" lon="0.23717">
        <ele>62</ele>
        <time>2015-02-10T13:36:33Z</time>
      </trkpt>
      <trkpt lat="44.8733" lon="0.23717">
        <ele>65</ele>
        <time>2015-02-10T13:36:34Z</time>
      </trkpt>
      <trkpt lat="44.87329" lon="0.23717">
        <ele>65</ele>
        <time>2015-02-10T13:36:35Z</time>
      </trkpt>
      <trkpt lat="44.87327" lon="0.23716">
        <ele>64</ele>
        <time>2015-02-10T13:36:36Z</time>
      </trkpt>
      <trkpt lat="44.87326" lon="0.23716">
        <ele>63</ele>
        <time>2015-02-10T13:36:37Z</time>
      </trkpt>
      <trkpt lat="44.87325" lon="0.23715">
        <ele>63</ele>
        <time>2015-02-10T13:36:38Z</time>
      </trkpt>
      <trkpt lat="44.87324" lon="0.23714">
        <ele>65</ele>
        <time>2015-02-10T13:36:39Z</time>
      </trkpt>
      <trkpt lat="44.87323" lon="0.23714">
        <ele>62</ele>
        <time>2015-02-10T13:36:40Z</time>
      </trkpt>
      <trkpt lat="44.87322" lon="0.23714">
        <ele>61</ele>
        <time>2015-02-10T13:36:41Z</time>
      </trkpt>
      <trkpt lat="44.87321" lon="0.23713">
        <ele>61</ele>
        <time>2015-02-10T13:36:42Z</time>
      </trkpt>
      <trkpt lat="44.87321" lon="0.23713">
        <ele>61</ele>
        <time>2015-02-10T13:36:43Z</time>
      </trkpt>
      <trkpt lat="44.87319" lon="0.23713">
        <ele>61</ele>
        <time>2015-02-10T13:36:44Z</time>
      </trkpt>
      <trkpt lat="44.87318" lon="0.23712">
        <ele>61</ele>
        <time>2015-02-10T13:36:45Z</time>
      </trkpt>
      <trkpt lat="44.87317" lon="0.23712">
        <ele>62</ele>
        <time>2015-02-10T13:36:46Z</time>
      </trkpt>
      <trkpt lat="44.87316" lon="0.23712">
        <ele>62</ele>
        <time>2015-02-10T13:36:47Z</time>
      </trkpt>
      <trkpt lat="44.87315" lon="0.23711">
        <ele>62</ele>
        <time>2015-02-10T13:36:48Z</time>
      </trkpt>
      <trkpt lat="44.87314" lon="0.23711">
        <ele>66</ele>
        <time>2015-02-10T13:36:49Z</time>
      </trkpt>
      <trkpt lat="44.87312" lon="0.2371">
        <ele>67</ele>
        <time>2015-02-10T13:36:50Z</time>
      </trkpt>
      <trkpt lat="44.87311" lon="0.23709">
        <ele>68</ele>
        <time>2015-02-10T13:36:51Z</time>
      </trkpt>
      <trkpt lat="44.8731" lon="0.23709">
        <ele>66</ele>
        <time>2015-02-10T13:36:52Z</time>
      </trkpt>
      <trkpt lat="44.87309" lon="0.23708">
        <ele>66</ele>
        <time>2015-02-10T13:36:53Z</time>
      </trkpt>
      <trkpt lat="44.87308" lon="0.23708">
        <ele>65</ele>
        <time>2015-02-10T13:36:54Z</time>
      </trkpt>
      <trkpt lat="44.87307" lon="0.23708">
        <ele>64</ele>
        <time>2015-02-10T13:36:55Z</time>
      </trkpt>
      <trkpt lat="44.87305" lon="0.23707">
        <ele>64</ele>
        <time>2015-02-10T13:36:56Z</time>
      </trkpt>
      <trkpt lat="44.87304" lon="0.23707">
        <ele>61</ele>
        <time>2015-02-10T13:36:57Z</time>
      </trkpt>
      <trkpt lat="44.87303" lon="0.23707">
        <ele>61</ele>
        <time>2015-02-10T13:36:58Z</time>
      </trkpt>
      <trkpt lat="44.87302" lon="0.23706">
        <ele>60</ele>
        <time>2015-02-10T13:36:59Z</time>
      </trkpt>
      <trkpt lat="44.87301" lon="0.23705">
        <ele>61</ele>
        <time>2015-02-10T13:37:00Z</time>
      </trkpt>
      <trkpt lat="44.873" lon="0.23705">
        <ele>60</ele>
        <time>2015-02-10T13:37:01Z</time>
      </trkpt>
      <trkpt lat="44.87299" lon="0.23704">
        <ele>62</ele>
        <time>2015-02-10T13:37:02Z</time>
      </trkpt>
      <trkpt lat="44.87298" lon="0.23704">
        <ele>61</ele>
        <time>2015-02-10T13:37:03Z</time>
      </trkpt>
      <trkpt lat="44.87297" lon="0.23703">
        <ele>62</ele>
        <time>2015-02-10T13:37:04Z</time>
      </trkpt>
      <trkpt lat="44.87296" lon="0.23703">
        <ele>64</ele>
        <time>2015-02-10T13:37:05Z</time>
      </trkpt>
      <trkpt lat="44.87294" lon="0.23702">
        <ele>64</ele>
        <time>2015-02-10T13:37:06Z</time>
      </trkpt>
      <trkpt lat="44.87293" lon="0.23701">
        <ele>66</ele>
        <time>2015-02-10T13:37:07Z</time>
      </trkpt>
      <trkpt lat="44.87292" lon="0.237">
        <ele>66</ele>
        <time>2015-02-10T13:37:08Z</time>
      </trkpt>
      <trkpt lat="44.87291" lon="0.237">
        <ele>66</ele>
        <time>2015-02-10T13:37:09Z</time>
      </trkpt>
      <trkpt lat="44.8729" lon="0.23699">
        <ele>61</ele>
        <time>2015-02-10T13:37:10Z</time>
      </trkpt>
      <trkpt lat="44.87289" lon="0.23698">
        <ele>58</ele>
        <time>2015-02-10T13:37:11Z</time>
      </trkpt>
      <trkpt lat="44.87288" lon="0.23698">
        <ele>56</ele>
        <time>2015-02-10T13:37:12Z</time>
      </trkpt>
      <trkpt lat="44.87287" lon="0.23697">
        <ele>54</ele>
        <time>2015-02-10T13:37:13Z</time>
      </trkpt>
      <trkpt lat="44.87286" lon="0.23697">
        <ele>56</ele>
        <time>2015-02-10T13:37:14Z</time>
      </trkpt>
      <trkpt lat="44.87285" lon="0.23696">
        <ele>57</ele>
        <time>2015-02-10T13:37:15Z</time>
      </trkpt>
      <trkpt lat="44.87284" lon="0.23695">
        <ele>59</ele>
        <time>2015-02-10T13:37:16Z</time>
      </trkpt>
      <trkpt lat="44.87283" lon="0.23695">
        <ele>57</ele>
        <time>2015-02-10T13:37:17Z</time>
      </trkpt>
      <trkpt lat="44.87283" lon="0.23694">
        <ele>54</ele>
        <time>2015-02-10T13:37:18Z</time>
      </trkpt>
      <trkpt lat="44.87282" lon="0.23693">
        <ele>56</ele>
        <time>2015-02-10T13:37:19Z</time>
      </trkpt>
      <trkpt lat="44.87281" lon="0.23693">
        <ele>57</ele>
        <time>2015-02-10T13:37:20Z</time>
      </trkpt>
      <trkpt lat="44.8728" lon="0.23692">
        <ele>58</ele>
        <time>2015-02-10T13:37:21Z</time>
      </trkpt>
      <trkpt lat="44.87279" lon="0.23692">
        <ele>55</ele>
        <time>2015-02-10T13:37:22Z</time>
      </trkpt>
      <trkpt lat="44.87277" lon="0.23692">
        <ele>57</ele>
        <time>2015-02-10T13:37:23Z</time>
      </trkpt>
      <trkpt lat="44.87276" lon="0.23692">
        <ele>58</ele>
        <time>2015-02-10T13:37:24Z</time>
      </trkpt>
      <trkpt lat="44.87274" lon="0.23691">
        <ele>57</ele>
        <time>2015-02-10T13:37:25Z</time>
      </trkpt>
      <trkpt lat="44.87272" lon="0.23691">
        <ele>54</ele>
        <time>2015-02-10T13:37:26Z</time>
      </trkpt>
      <trkpt lat="44.8727" lon="0.2369">
        <ele>56</ele>
        <time>2015-02-10T13:37:27Z</time>
      </trkpt>
      <trkpt lat="44.87269" lon="0.23688">
        <ele>58</ele>
        <time>2015-02-10T13:37:28Z</time>
      </trkpt>
      <trkpt lat="44.87269" lon="0.23687">
        <ele>59</ele>
        <time>2015-02-10T13:37:29Z</time>
      </trkpt>
      <trkpt lat="44.87269" lon="0.23686">
        <ele>55</ele>
        <time>2015-02-10T13:37:30Z</time>
      </trkpt>
      <trkpt lat="44.87269" lon="0.23686">
        <ele>53</ele>
        <time>2015-02-10T13:37:31Z</time>
      </trkpt>
      <trkpt lat="44.8727" lon="0.23686">
        <ele>54</ele>
        <time>2015-02-10T13:37:32Z</time>
      </trkpt>
      <trkpt lat="44.87271" lon="0.23686">
        <ele>57</ele>
        <time>2015-02-10T13:37:33Z</time>
      </trkpt>
      <trkpt lat="44.87271" lon="0.23687">
        <ele>57</ele>
        <time>2015-02-10T13:37:34Z</time>
      </trkpt>
      <trkpt lat="44.87272" lon="0.23687">
        <ele>60</ele>
        <time>2015-02-10T13:37:35Z</time>
      </trkpt>
      <trkpt lat="44.87273" lon="0.23688">
        <ele>64</ele>
        <time>2015-02-10T13:37:36Z</time>
      </trkpt>
      <trkpt lat="44.87274" lon="0.23689">
        <ele>61</ele>
        <time>2015-02-10T13:37:37Z</time>
      </trkpt>
      <trkpt lat="44.87275" lon="0.2369">
        <ele>63</ele>
        <time>2015-02-10T13:37:38Z</time>
      </trkpt>
      <trkpt lat="44.87275" lon="0.23691">
        <ele>61</ele>
        <time>2015-02-10T13:37:39Z</time>
      </trkpt>
      <trkpt lat="44.87276" lon="0.23693">
        <ele>59</ele>
        <time>2015-02-10T13:37:40Z</time>
      </trkpt>
      <trkpt lat="44.87276" lon="0.23695">
        <ele>59</ele>
        <time>2015-02-10T13:37:41Z</time>
      </trkpt>
      <trkpt lat="44.87276" lon="0.23696">
        <ele>61</ele>
        <time>2015-02-10T13:37:42Z</time>
      </trkpt>
      <trkpt lat="44.87276" lon="0.23697">
        <ele>58</ele>
        <time>2015-02-10T13:37:43Z</time>
      </trkpt>
      <trkpt lat="44.87276" lon="0.23698">
        <ele>59</ele>
        <time>2015-02-10T13:37:44Z</time>
      </trkpt>
      <trkpt lat="44.87276" lon="0.237">
        <ele>60</ele>
        <time>2015-02-10T13:37:45Z</time>
      </trkpt>
      <trkpt lat="44.87276" lon="0.23703">
        <ele>63</ele>
        <time>2015-02-10T13:37:46Z</time>
      </trkpt>
      <trkpt lat="44.87277" lon="0.23705">
        <ele>60</ele>
        <time>2015-02-10T13:37:47Z</time>
      </trkpt>
      <trkpt lat="44.87278" lon="0.23707">
        <ele>58</ele>
        <time>2015-02-10T13:37:48Z</time>
      </trkpt>
      <trkpt lat="44.87278" lon="0.23709">
        <ele>59</ele>
        <time>2015-02-10T13:37:49Z</time>
      </trkpt>
      <trkpt lat="44.87278" lon="0.2371">
        <ele>62</ele>
        <time>2015-02-10T13:37:50Z</time>
      </trkpt>
      <trkpt lat="44.87279" lon="0.23711">
        <ele>62</ele>
        <time>2015-02-10T13:37:51Z</time>
      </trkpt>
      <trkpt lat="44.87279" lon="0.23712">
        <ele>61</ele>
        <time>2015-02-10T13:37:52Z</time>
      </trkpt>
      <trkpt lat="44.87279" lon="0.23713">
        <ele>60</ele>
        <time>2015-02-10T13:37:53Z</time>
      </trkpt>
      <trkpt lat="44.8728" lon="0.23714">
        <ele>60</ele>
        <time>2015-02-10T13:37:54Z</time>
      </trkpt>
      <trkpt lat="44.8728" lon="0.23715">
        <ele>61</ele>
        <time>2015-02-10T13:37:55Z</time>
      </trkpt>
      <trkpt lat="44.87281" lon="0.23716">
        <ele>59</ele>
        <time>2015-02-10T13:37:56Z</time>
      </trkpt>
      <trkpt lat="44.87281" lon="0.23717">
        <ele>58</ele>
        <time>2015-02-10T13:37:57Z</time>
      </trkpt>
      <trkpt lat="44.87281" lon="0.23718">
        <ele>61</ele>
        <time>2015-02-10T13:37:58Z</time>
      </trkpt>
      <trkpt lat="44.87281" lon="0.23719">
        <ele>61</ele>
        <time>2015-02-10T13:37:59Z</time>
      </trkpt>
      <trkpt lat="44.87281" lon="0.23721">
        <ele>62</ele>
        <time>2015-02-10T13:38:00Z</time>
      </trkpt>
      <trkpt lat="44.87282" lon="0.23721">
        <ele>61</ele>
        <time>2015-02-10T13:38:01Z</time>
      </trkpt>
      <trkpt lat="44.87282" lon="0.23722">
        <ele>61</ele>
        <time>2015-02-10T13:38:02Z</time>
      </trkpt>
      <trkpt lat="44.87283" lon="0.23723">
        <ele>63</ele>
        <time>2015-02-10T13:38:03Z</time>
      </trkpt>
      <trkpt lat="44.87283" lon="0.23723">
        <ele>58</ele>
        <time>2015-02-10T13:38:04Z</time>
      </trkpt>
      <trkpt lat="44.87284" lon="0.23724">
        <ele>60</ele>
        <time>2015-02-10T13:38:05Z</time>
      </trkpt>
      <trkpt lat="44.87285" lon="0.23724">
        <ele>63</ele>
        <time>2015-02-10T13:38:06Z</time>
      </trkpt>
      <trkpt lat="44.87285" lon="0.23726">
        <ele>59</ele>
        <time>2015-02-10T13:38:07Z</time>
      </trkpt>
      <trkpt lat="44.87285" lon="0.23727">
        <ele>57</ele>
        <time>2015-02-10T13:38:08Z</time>
      </trkpt>
      <trkpt lat="44.87286" lon="0.23728">
        <ele>59</ele>
        <time>2015-02-10T13:38:09Z</time>
      </trkpt>
      <trkpt lat="44.87286" lon="0.23729">
        <ele>62</ele>
        <time>2015-02-10T13:38:10Z</time>
      </trkpt>
      <trkpt lat="44.87287" lon="0.2373">
        <ele>64</ele>
        <time>2015-02-10T13:38:11Z</time>
      </trkpt>
      <trkpt lat="44.87288" lon="0.23731">
        <ele>62</ele>
        <time>2015-02-10T13:38:12Z</time>
      </trkpt>
      <trkpt lat="44.87288" lon="0.23732">
        <ele>65</ele>
        <time>2015-02-10T13:38:13Z</time>
      </trkpt>
      <trkpt lat="44.87288" lon="0.23733">
        <ele>63</ele>
        <time>2015-02-10T13:38:14Z</time>
      </trkpt>
      <trkpt lat="44.87289" lon="0.23734">
        <ele>60</ele>
        <time>2015-02-10T13:38:15Z</time>
      </trkpt>
      <trkpt lat="44.87289" lon="0.23735">
        <ele>60</ele>
        <time>2015-02-10T13:38:16Z</time>
      </trkpt>
      <trkpt lat="44.8729" lon="0.23736">
        <ele>62</ele>
        <time>2015-02-10T13:38:17Z</time>
      </trkpt>
      <trkpt lat="44.8729" lon="0.23736">
        <ele>61</ele>
        <time>2015-02-10T13:38:18Z</time>
      </trkpt>
      <trkpt lat="44.87291" lon="0.23737">
        <ele>60</ele>
        <time>2015-02-10T13:38:19Z</time>
      </trkpt>
      <trkpt lat="44.87292" lon="0.23738">
        <ele>61</ele>
        <time>2015-02-10T13:38:20Z</time>
      </trkpt>
      <trkpt lat="44.87292" lon="0.23738">
        <ele>62</ele>
        <time>2015-02-10T13:38:21Z</time>
      </trkpt>
      <trkpt lat="44.87293" lon="0.23739">
        <ele>64</ele>
        <time>2015-02-10T13:38:22Z</time>
      </trkpt>
      <trkpt lat="44.87293" lon="0.2374">
        <ele>68</ele>
        <time>2015-02-10T13:38:23Z</time>
      </trkpt>
      <trkpt lat="44.87294" lon="0.23741">
        <ele>66</ele>
        <time>2015-02-10T13:38:24Z</time>
      </trkpt>
      <trkpt lat="44.87294" lon="0.23741">
        <ele>62</ele>
        <time>2015-02-10T13:38:25Z</time>
      </trkpt>
      <trkpt lat="44.87294" lon="0.23741">
        <ele>62</ele>
        <time>2015-02-10T13:38:26Z</time>
      </trkpt>
      <trkpt lat="44.87294" lon="0.23741">
        <ele>65</ele>
        <time>2015-02-10T13:38:27Z</time>
      </trkpt>
      <trkpt lat="44.87294" lon="0.23742">
        <ele>65</ele>
        <time>2015-02-10T13:38:28Z</time>
      </trkpt>
      <trkpt lat="44.87295" lon="0.23743">
        <ele>65</ele>
        <time>2015-02-10T13:38:29Z</time>
      </trkpt>
      <trkpt lat="44.87295" lon="0.23744">
        <ele>66</ele>
        <time>2015-02-10T13:38:30Z</time>
      </trkpt>
      <trkpt lat="44.87296" lon="0.23745">
        <ele>63</ele>
        <time>2015-02-10T13:38:31Z</time>
      </trkpt>
      <trkpt lat="44.87297" lon="0.23746">
        <ele>64</ele>
        <time>2015-02-10T13:38:32Z</time>
      </trkpt>
      <trkpt lat="44.87297" lon="0.23747">
        <ele>62</ele>
        <time>2015-02-10T13:38:33Z</time>
      </trkpt>
      <trkpt lat="44.87297" lon="0.23748">
        <ele>65</ele>
        <time>2015-02-10T13:38:34Z</time>
      </trkpt>
      <trkpt lat="44.87298" lon="0.23749">
        <ele>62</ele>
        <time>2015-02-10T13:38:35Z</time>
      </trkpt>
      <trkpt lat="44.87298" lon="0.2375">
        <ele>63</ele>
        <time>2015-02-10T13:38:36Z</time>
      </trkpt>
      <trkpt lat="44.87299" lon="0.23751">
        <ele>65</ele>
        <time>2015-02-10T13:38:37Z</time>
      </trkpt>
      <trkpt lat="44.873" lon="0.23752">
        <ele>64</ele>
        <time>2015-02-10T13:38:38Z</time>
      </trkpt>
      <trkpt lat="44.873" lon="0.23752">
        <ele>63</ele>
        <time>2015-02-10T13:38:39Z</time>
      </trkpt>
      <trkpt lat="44.87301" lon="0.23753">
        <ele>67</ele>
        <time>2015-02-10T13:38:40Z</time>
      </trkpt>
      <trkpt lat="44.87301" lon="0.23754">
        <ele>67</ele>
        <time>2015-02-10T13:38:41Z</time>
      </trkpt>
      <trkpt lat="44.87302" lon="0.23755">
        <ele>69</ele>
        <time>2015-02-10T13:38:42Z</time>
      </trkpt>
      <trkpt lat="44.87303" lon="0.23755">
        <ele>68</ele>
        <time>2015-02-10T13:38:43Z</time>
      </trkpt>
      <trkpt lat="44.87303" lon="0.23756">
        <ele>69</ele>
        <time>2015-02-10T13:38:44Z</time>
      </trkpt>
      <trkpt lat="44.87304" lon="0.23757">
        <ele>70</ele>
        <time>2015-02-10T13:38:45Z</time>
      </trkpt>
      <trkpt lat="44.87305" lon="0.23759">
        <ele>70</ele>
        <time>2015-02-10T13:38:46Z</time>
      </trkpt>
      <trkpt lat="44.87305" lon="0.23759">
        <ele>69</ele>
        <time>2015-02-10T13:38:47Z</time>
      </trkpt>
      <trkpt lat="44.87306" lon="0.2376">
        <ele>69</ele>
        <time>2015-02-10T13:38:48Z</time>
      </trkpt>
      <trkpt lat="44.87307" lon="0.23761">
        <ele>68</ele>
        <time>2015-02-10T13:38:49Z</time>
      </trkpt>
      <trkpt lat="44.87307" lon="0.23762">
        <ele>65</ele>
        <time>2015-02-10T13:38:50Z</time>
      </trkpt>
      <trkpt lat="44.87308" lon="0.23763">
        <ele>67</ele>
        <time>2015-02-10T13:38:51Z</time>
      </trkpt>
      <trkpt lat="44.87308" lon="0.23765">
        <ele>69</ele>
        <time>2015-02-10T13:38:52Z</time>
      </trkpt>
      <trkpt lat="44.87309" lon="0.23766">
        <ele>70</ele>
        <time>2015-02-10T13:38:53Z</time>
      </trkpt>
      <trkpt lat="44.8731" lon="0.23768">
        <ele>71</ele>
        <time>2015-02-10T13:38:54Z</time>
      </trkpt>
      <trkpt lat="44.8731" lon="0.23768">
        <ele>69</ele>
        <time>2015-02-10T13:38:55Z</time>
      </trkpt>
      <trkpt lat="44.87311" lon="0.23769">
        <ele>71</ele>
        <time>2015-02-10T13:38:56Z</time>
      </trkpt>
      <trkpt lat="44.87311" lon="0.2377">
        <ele>70</ele>
        <time>2015-02-10T13:38:57Z</time>
      </trkpt>
      <trkpt lat="44.87311" lon="0.23771">
        <ele>71</ele>
        <time>2015-02-10T13:38:58Z</time>
      </trkpt>
      <trkpt lat="44.87312" lon="0.23772">
        <ele>69</ele>
        <time>2015-02-10T13:38:59Z</time>
      </trkpt>
      <trkpt lat="44.87312" lon="0.23773">
        <ele>70</ele>
        <time>2015-02-10T13:39:00Z</time>
      </trkpt>
      <trkpt lat="44.87313" lon="0.23774">
        <ele>71</ele>
        <time>2015-02-10T13:39:01Z</time>
      </trkpt>
      <trkpt lat="44.87313" lon="0.23775">
        <ele>69</ele>
        <time>2015-02-10T13:39:02Z</time>
      </trkpt>
      <trkpt lat="44.87314" lon="0.23776">
        <ele>68</ele>
        <time>2015-02-10T13:39:03Z</time>
      </trkpt>
      <trkpt lat="44.87314" lon="0.23777">
        <ele>69</ele>
        <time>2015-02-10T13:39:04Z</time>
      </trkpt>
      <trkpt lat="44.87314" lon="0.23778">
        <ele>68</ele>
        <time>2015-02-10T13:39:05Z</time>
      </trkpt>
      <trkpt lat="44.87315" lon="0.2378">
        <ele>66</ele>
        <time>2015-02-10T13:39:06Z</time>
      </trkpt>
      <trkpt lat="44.87316" lon="0.23781">
        <ele>65</ele>
        <time>2015-02-10T13:39:07Z</time>
      </trkpt>
      <trkpt lat="44.87316" lon="0.23782">
        <ele>65</ele>
        <time>2015-02-10T13:39:08Z</time>
      </trkpt>
      <trkpt lat="44.87316" lon="0.23783">
        <ele>65</ele>
        <time>2015-02-10T13:39:09Z</time>
      </trkpt>
      <trkpt lat="44.87317" lon="0.23784">
        <ele>64</ele>
        <time>2015-02-10T13:39:10Z</time>
      </trkpt>
      <trkpt lat="44.87317" lon="0.23785">
        <ele>62</ele>
        <time>2015-02-10T13:39:11Z</time>
      </trkpt>
      <trkpt lat="44.87318" lon="0.23785">
        <ele>64</ele>
        <time>2015-02-10T13:39:12Z</time>
      </trkpt>
      <trkpt lat="44.87318" lon="0.23786">
        <ele>68</ele>
        <time>2015-02-10T13:39:13Z</time>
      </trkpt>
      <trkpt lat="44.87319" lon="0.23787">
        <ele>67</ele>
        <time>2015-02-10T13:39:14Z</time>
      </trkpt>
      <trkpt lat="44.87319" lon="0.23788">
        <ele>65</ele>
        <time>2015-02-10T13:39:15Z</time>
      </trkpt>
      <trkpt lat="44.8732" lon="0.23789">
        <ele>61</ele>
        <time>2015-02-10T13:39:16Z</time>
      </trkpt>
      <trkpt lat="44.87321" lon="0.2379">
        <ele>61</ele>
        <time>2015-02-10T13:39:17Z</time>
      </trkpt>
      <trkpt lat="44.87321" lon="0.2379">
        <ele>64</ele>
        <time>2015-02-10T13:39:18Z</time>
      </trkpt>
      <trkpt lat="44.87322" lon="0.23792">
        <ele>63</ele>
        <time>2015-02-10T13:39:19Z</time>
      </trkpt>
      <trkpt lat="44.87323" lon="0.23794">
        <ele>62</ele>
        <time>2015-02-10T13:39:20Z</time>
      </trkpt>
      <trkpt lat="44.87324" lon="0.23795">
        <ele>63</ele>
        <time>2015-02-10T13:39:21Z</time>
      </trkpt>
      <trkpt lat="44.87324" lon="0.23796">
        <ele>60</ele>
        <time>2015-02-10T13:39:22Z</time>
      </trkpt>
      <trkpt lat="44.87325" lon="0.23797">
        <ele>63</ele>
        <time>2015-02-10T13:39:23Z</time>
      </trkpt>
      <trkpt lat="44.87325" lon="0.23797">
        <ele>62</ele>
        <time>2015-02-10T13:39:24Z</time>
      </trkpt>
      <trkpt lat="44.87325" lon="0.23799">
        <ele>61</ele>
        <time>2015-02-10T13:39:25Z</time>
      </trkpt>
      <trkpt lat="44.87326" lon="0.238">
        <ele>65</ele>
        <time>2015-02-10T13:39:26Z</time>
      </trkpt>
      <trkpt lat="44.87326" lon="0.23801">
        <ele>64</ele>
        <time>2015-02-10T13:39:27Z</time>
      </trkpt>
      <trkpt lat="44.87327" lon="0.23802">
        <ele>65</ele>
        <time>2015-02-10T13:39:28Z</time>
      </trkpt>
      <trkpt lat="44.87328" lon="0.23803">
        <ele>67</ele>
        <time>2015-02-10T13:39:29Z</time>
      </trkpt>
      <trkpt lat="44.87329" lon="0.23804">
        <ele>68</ele>
        <time>2015-02-10T13:39:30Z</time>
      </trkpt>
      <trkpt lat="44.8733" lon="0.23805">
        <ele>68</ele>
        <time>2015-02-10T13:39:31Z</time>
      </trkpt>
      <trkpt lat="44.8733" lon="0.23806">
        <ele>66</ele>
        <time>2015-02-10T13:39:32Z</time>
      </trkpt>
      <trkpt lat="44.87331" lon="0.23807">
        <ele>64</ele>
        <time>2015-02-10T13:39:33Z</time>
      </trkpt>
      <trkpt lat="44.87331" lon="0.23808">
        <ele>62</ele>
        <time>2015-02-10T13:39:34Z</time>
      </trkpt>
      <trkpt lat="44.87332" lon="0.23809">
        <ele>62</ele>
        <time>2015-02-10T13:39:35Z</time>
      </trkpt>
      <trkpt lat="44.87332" lon="0.23809">
        <ele>59</ele>
        <time>2015-02-10T13:39:36Z</time>
      </trkpt>
      <trkpt lat="44.87333" lon="0.23811">
        <ele>61</ele>
        <time>2015-02-10T13:39:37Z</time>
      </trkpt>
      <trkpt lat="44.87333" lon="0.23812">
        <ele>62</ele>
        <time>2015-02-10T13:39:38Z</time>
      </trkpt>
      <trkpt lat="44.87333" lon="0.23813">
        <ele>61</ele>
        <time>2015-02-10T13:39:39Z</time>
      </trkpt>
      <trkpt lat="44.87334" lon="0.23815">
        <ele>62</ele>
        <time>2015-02-10T13:39:40Z</time>
      </trkpt>
      <trkpt lat="44.87334" lon="0.23815">
        <ele>64</ele>
        <time>2015-02-10T13:39:41Z</time>
      </trkpt>
      <trkpt lat="44.87334" lon="0.23816">
        <ele>62</ele>
        <time>2015-02-10T13:39:42Z</time>
      </trkpt>
      <trkpt lat="44.87335" lon="0.23818">
        <ele>66</ele>
        <time>2015-02-10T13:39:43Z</time>
      </trkpt>
      <trkpt lat="44.87336" lon="0.2382">
        <ele>67</ele>
        <time>2015-02-10T13:39:44Z</time>
      </trkpt>
      <trkpt lat="44.87336" lon="0.23822">
        <ele>65</ele>
        <time>2015-02-10T13:39:45Z</time>
      </trkpt>
      <trkpt lat="44.87336" lon="0.23823">
        <ele>63</ele>
        <time>2015-02-10T13:39:46Z</time>
      </trkpt>
      <trkpt lat="44.87337" lon="0.23825">
        <ele>59</ele>
        <time>2015-02-10T13:39:47Z</time>
      </trkpt>
      <trkpt lat="44.87338" lon="0.23827">
        <ele>59</ele>
        <time>2015-02-10T13:39:48Z</time>
      </trkpt>
      <trkpt lat="44.87338" lon="0.23828">
        <ele>62</ele>
        <time>2015-02-10T13:39:49Z</time>
      </trkpt>
      <trkpt lat="44.87339" lon="0.2383">
        <ele>63</ele>
        <time>2015-02-10T13:39:50Z</time>
      </trkpt>
      <trkpt lat="44.8734" lon="0.23832">
        <ele>65</ele>
        <time>2015-02-10T13:39:51Z</time>
      </trkpt>
      <trkpt lat="44.8734" lon="0.23833">
        <ele>64</ele>
        <time>2015-02-10T13:39:52Z</time>
      </trkpt>
      <trkpt lat="44.87341" lon="0.23835">
        <ele>65</ele>
        <time>2015-02-10T13:39:53Z</time>
      </trkpt>
      <trkpt lat="44.87342" lon="0.23836">
        <ele>63</ele>
        <time>2015-02-10T13:39:54Z</time>
      </trkpt>
      <trkpt lat="44.87342" lon="0.23837">
        <ele>62</ele>
        <time>2015-02-10T13:39:55Z</time>
      </trkpt>
      <trkpt lat="44.87343" lon="0.23839">
        <ele>66</ele>
        <time>2015-02-10T13:39:56Z</time>
      </trkpt>
      <trkpt lat="44.87343" lon="0.23841">
        <ele>66</ele>
        <time>2015-02-10T13:39:57Z</time>
      </trkpt>
      <trkpt lat="44.87344" lon="0.23842">
        <ele>67</ele>
        <time>2015-02-10T13:39:58Z</time>
      </trkpt>
      <trkpt lat="44.87344" lon="0.23843">
        <ele>65</ele>
        <time>2015-02-10T13:39:59Z</time>
      </trkpt>
      <trkpt lat="44.87344" lon="0.23844">
        <ele>64</ele>
        <time>2015-02-10T13:40:00Z</time>
      </trkpt>
      <trkpt lat="44.87345" lon="0.23845">
        <ele>65</ele>
        <time>2015-02-10T13:40:01Z</time>
      </trkpt>
      <trkpt lat="44.87345" lon="0.23846">
        <ele>64</ele>
        <time>2015-02-10T13:40:02Z</time>
      </trkpt>
      <trkpt lat="44.87345" lon="0.23846">
        <ele>64</ele>
        <time>2015-02-10T13:40:03Z</time>
      </trkpt>
      <trkpt lat="44.87345" lon="0.23847">
        <ele>64</ele>
        <time>2015-02-10T13:40:04Z</time>
      </trkpt>
      <trkpt lat="44.87345" lon="0.23848">
        <ele>64</ele>
        <time>2015-02-10T13:40:05Z</time>
      </trkpt>
      <trkpt lat="44.87346" lon="0.23849">
        <ele>67</ele>
        <time>2015-02-10T13:40:06Z</time>
      </trkpt>
      <trkpt lat="44.87346" lon="0.23849">
        <ele>62</ele>
        <time>2015-02-10T13:40:07Z</time>
      </trkpt>
      <trkpt lat="44.87346" lon="0.23851">
        <ele>59</ele>
        <time>2015-02-10T13:40:08Z</time>
      </trkpt>
      <trkpt lat="44.87347" lon="0.23851">
        <ele>61</ele>
        <time>2015-02-10T13:40:09Z</time>
      </trkpt>
      <trkpt lat="44.87347" lon="0.23852">
        <ele>61</ele>
        <time>2015-02-10T13:40:10Z</time>
      </trkpt>
      <trkpt lat="44.87347" lon="0.23853">
        <ele>57</ele>
        <time>2015-02-10T13:40:11Z</time>
      </trkpt>
      <trkpt lat="44.87347" lon="0.23854">
        <ele>59</ele>
        <time>2015-02-10T13:40:12Z</time>
      </trkpt>
      <trkpt lat="44.87347" lon="0.23855">
        <ele>59</ele>
        <time>2015-02-10T13:40:13Z</time>
      </trkpt>
      <trkpt lat="44.87348" lon="0.23855">
        <ele>59</ele>
        <time>2015-02-10T13:40:14Z</time>
      </trkpt>
      <trkpt lat="44.87347" lon="0.23856">
        <ele>58</ele>
        <time>2015-02-10T13:40:15Z</time>
      </trkpt>
      <trkpt lat="44.87347" lon="0.23858">
        <ele>60</ele>
        <time>2015-02-10T13:40:16Z</time>
      </trkpt>
      <trkpt lat="44.87348" lon="0.2386">
        <ele>61</ele>
        <time>2015-02-10T13:40:17Z</time>
      </trkpt>
      <trkpt lat="44.87348" lon="0.23862">
        <ele>65</ele>
        <time>2015-02-10T13:40:18Z</time>
      </trkpt>
      <trkpt lat="44.87348" lon="0.23864">
        <ele>65</ele>
        <time>2015-02-10T13:40:19Z</time>
      </trkpt>
      <trkpt lat="44.87348" lon="0.23865">
        <ele>63</ele>
        <time>2015-02-10T13:40:20Z</time>
      </trkpt>
      <trkpt lat="44.87348" lon="0.23867">
        <ele>63</ele>
        <time>2015-02-10T13:40:21Z</time>
      </trkpt>
      <trkpt lat="44.87348" lon="0.23868">
        <ele>62</ele>
        <time>2015-02-10T13:40:22Z</time>
      </trkpt>
      <trkpt lat="44.87349" lon="0.2387">
        <ele>59</ele>
        <time>2015-02-10T13:40:23Z</time>
      </trkpt>
      <trkpt lat="44.87349" lon="0.23872">
        <ele>61</ele>
        <time>2015-02-10T13:40:24Z</time>
      </trkpt>
      <trkpt lat="44.87349" lon="0.23874">
        <ele>64</ele>
        <time>2015-02-10T13:40:25Z</time>
      </trkpt>
      <trkpt lat="44.87349" lon="0.23875">
        <ele>66</ele>
        <time>2015-02-10T13:40:26Z</time>
      </trkpt>
      <trkpt lat="44.87349" lon="0.23877">
        <ele>66</ele>
        <time>2015-02-10T13:40:27Z</time>
      </trkpt>
      <trkpt lat="44.87349" lon="0.23878">
        <ele>65</ele>
        <time>2015-02-10T13:40:28Z</time>
      </trkpt>
      <trkpt lat="44.8735" lon="0.23879">
        <ele>65</ele>
        <time>2015-02-10T13:40:29Z</time>
      </trkpt>
      <trkpt lat="44.8735" lon="0.2388">
        <ele>68</ele>
        <time>2015-02-10T13:40:30Z</time>
      </trkpt>
      <trkpt lat="44.8735" lon="0.23882">
        <ele>67</ele>
        <time>2015-02-10T13:40:31Z</time>
      </trkpt>
      <trkpt lat="44.8735" lon="0.23884">
        <ele>70</ele>
        <time>2015-02-10T13:40:32Z</time>
      </trkpt>
      <trkpt lat="44.8735" lon="0.23885">
        <ele>70</ele>
        <time>2015-02-10T13:40:33Z</time>
      </trkpt>
      <trkpt lat="44.8735" lon="0.23888">
        <ele>68</ele>
        <time>2015-02-10T13:40:34Z</time>
      </trkpt>
      <trkpt lat="44.8735" lon="0.2389">
        <ele>68</ele>
        <time>2015-02-10T13:40:35Z</time>
      </trkpt>
      <trkpt lat="44.8735" lon="0.23891">
        <ele>67</ele>
        <time>2015-02-10T13:40:36Z</time>
      </trkpt>
      <trkpt lat="44.8735" lon="0.23893">
        <ele>69</ele>
        <time>2015-02-10T13:40:37Z</time>
      </trkpt>
      <trkpt lat="44.8735" lon="0.23893">
        <ele>69</ele>
        <time>2015-02-10T13:40:38Z</time>
      </trkpt>
      <trkpt lat="44.87351" lon="0.23894">
        <ele>66</ele>
        <time>2015-02-10T13:40:39Z</time>
      </trkpt>
      <trkpt lat="44.87351" lon="0.23896">
        <ele>67</ele>
        <time>2015-02-10T13:40:40Z</time>
      </trkpt>
      <trkpt lat="44.87352" lon="0.23898">
        <ele>65</ele>
        <time>2015-02-10T13:40:41Z</time>
      </trkpt>
      <trkpt lat="44.87353" lon="0.23899">
        <ele>65</ele>
        <time>2015-02-10T13:40:42Z</time>
      </trkpt>
      <trkpt lat="44.87353" lon="0.239">
        <ele>66</ele>
        <time>2015-02-10T13:40:43Z</time>
      </trkpt>
      <trkpt lat="44.87353" lon="0.23901">
        <ele>68</ele>
        <time>2015-02-10T13:40:44Z</time>
      </trkpt>
      <trkpt lat="44.87353" lon="0.23901">
        <ele>66</ele>
        <time>2015-02-10T13:40:45Z</time>
      </trkpt>
      <trkpt lat="44.87353" lon="0.23901">
        <ele>65</ele>
        <time>2015-02-10T13:40:46Z</time>
      </trkpt>
      <trkpt lat="44.87353" lon="0.23901">
        <ele>62</ele>
        <time>2015-02-10T13:40:47Z</time>
      </trkpt>
      <trkpt lat="44.87353" lon="0.23902">
        <ele>61</ele>
        <time>2015-02-10T13:40:48Z</time>
      </trkpt>
      <trkpt lat="44.87353" lon="0.23902">
        <ele>61</ele>
        <time>2015-02-10T13:40:49Z</time>
      </trkpt>
      <trkpt lat="44.87353" lon="0.23902">
        <ele>59</ele>
        <time>2015-02-10T13:40:50Z</time>
      </trkpt>
      <trkpt lat="44.87353" lon="0.23902">
        <ele>60</ele>
        <time>2015-02-10T13:40:51Z</time>
      </trkpt>
      <trkpt lat="44.87353" lon="0.23902">
        <ele>60</ele>
        <time>2015-02-10T13:40:52Z</time>
      </trkpt>
      <trkpt lat="44.87353" lon="0.23902">
        <ele>60</ele>
        <time>2015-02-10T13:40:53Z</time>
      </trkpt>
      <trkpt lat="44.87353" lon="0.23902">
        <ele>60</ele>
        <time>2015-02-10T13:40:54Z</time>
      </trkpt>
      <trkpt lat="44.87354" lon="0.23903">
        <ele>63</ele>
        <time>2015-02-10T13:40:55Z</time>
      </trkpt>
      <trkpt lat="44.87354" lon="0.23904">
        <ele>64</ele>
        <time>2015-02-10T13:40:56Z</time>
      </trkpt>
      <trkpt lat="44.87355" lon="0.23906">
        <ele>64</ele>
        <time>2015-02-10T13:40:57Z</time>
      </trkpt>
      <trkpt lat="44.87355" lon="0.23908">
        <ele>63</ele>
        <time>2015-02-10T13:40:58Z</time>
      </trkpt>
      <trkpt lat="44.87355" lon="0.23909">
        <ele>62</ele>
        <time>2015-02-10T13:40:59Z</time>
      </trkpt>
      <trkpt lat="44.87355" lon="0.2391">
        <ele>63</ele>
        <time>2015-02-10T13:41:00Z</time>
      </trkpt>
      <trkpt lat="44.87355" lon="0.23912">
        <ele>63</ele>
        <time>2015-02-10T13:41:01Z</time>
      </trkpt>
      <trkpt lat="44.87355" lon="0.23913">
        <ele>62</ele>
        <time>2015-02-10T13:41:02Z</time>
      </trkpt>
      <trkpt lat="44.87355" lon="0.23914">
        <ele>62</ele>
        <time>2015-02-10T13:41:03Z</time>
      </trkpt>
      <trkpt lat="44.87355" lon="0.23915">
        <ele>60</ele>
        <time>2015-02-10T13:41:04Z</time>
      </trkpt>
      <trkpt lat="44.87355" lon="0.23917">
        <ele>62</ele>
        <time>2015-02-10T13:41:05Z</time>
      </trkpt>
      <trkpt lat="44.87355" lon="0.23918">
        <ele>63</ele>
        <time>2015-02-10T13:41:06Z</time>
      </trkpt>
      <trkpt lat="44.87355" lon="0.2392">
        <ele>66</ele>
        <time>2015-02-10T13:41:07Z</time>
      </trkpt>
      <trkpt lat="44.87356" lon="0.23921">
        <ele>65</ele>
        <time>2015-02-10T13:41:08Z</time>
      </trkpt>
      <trkpt lat="44.87356" lon="0.23922">
        <ele>64</ele>
        <time>2015-02-10T13:41:09Z</time>
      </trkpt>
      <trkpt lat="44.87356" lon="0.23923">
        <ele>60</ele>
        <time>2015-02-10T13:41:10Z</time>
      </trkpt>
      <trkpt lat="44.87356" lon="0.23926">
        <ele>59</ele>
        <time>2015-02-10T13:41:11Z</time>
      </trkpt>
      <trkpt lat="44.87357" lon="0.23927">
        <ele>60</ele>
        <time>2015-02-10T13:41:12Z</time>
      </trkpt>
      <trkpt lat="44.87357" lon="0.23929">
        <ele>60</ele>
        <time>2015-02-10T13:41:13Z</time>
      </trkpt>
      <trkpt lat="44.87357" lon="0.23931">
        <ele>58</ele>
        <time>2015-02-10T13:41:14Z</time>
      </trkpt>
      <trkpt lat="44.87358" lon="0.23932">
        <ele>58</ele>
        <time>2015-02-10T13:41:15Z</time>
      </trkpt>
      <trkpt lat="44.87358" lon="0.23934">
        <ele>57</ele>
        <time>2015-02-10T13:41:16Z</time>
      </trkpt>
      <trkpt lat="44.87358" lon="0.23935">
        <ele>60</ele>
        <time>2015-02-10T13:41:17Z</time>
      </trkpt>
      <trkpt lat="44.87358" lon="0.23936">
        <ele>60</ele>
        <time>2015-02-10T13:41:18Z</time>
      </trkpt>
      <trkpt lat="44.87358" lon="0.23938">
        <ele>60</ele>
        <time>2015-02-10T13:41:19Z</time>
      </trkpt>
      <trkpt lat="44.87358" lon="0.23939">
        <ele>59</ele>
        <time>2015-02-10T13:41:20Z</time>
      </trkpt>
      <trkpt lat="44.87357" lon="0.23941">
        <ele>60</ele>
        <time>2015-02-10T13:41:21Z</time>
      </trkpt>
      <trkpt lat="44.87357" lon="0.23942">
        <ele>61</ele>
        <time>2015-02-10T13:41:22Z</time>
      </trkpt>
      <trkpt lat="44.87357" lon="0.23944">
        <ele>61</ele>
        <time>2015-02-10T13:41:23Z</time>
      </trkpt>
      <trkpt lat="44.87357" lon="0.23945">
        <ele>62</ele>
        <time>2015-02-10T13:41:24Z</time>
      </trkpt>
      <trkpt lat="44.87356" lon="0.23947">
        <ele>63</ele>
        <time>2015-02-10T13:41:25Z</time>
      </trkpt>
      <trkpt lat="44.87356" lon="0.23947">
        <ele>63</ele>
        <time>2015-02-10T13:41:26Z</time>
      </trkpt>
      <trkpt lat="44.87356" lon="0.23947">
        <ele>64</ele>
        <time>2015-02-10T13:41:27Z</time>
      </trkpt>
      <trkpt lat="44.87356" lon="0.23947">
        <ele>64</ele>
        <time>2015-02-10T13:41:28Z</time>
      </trkpt>
      <trkpt lat="44.87356" lon="0.23947">
        <ele>64</ele>
        <time>2015-02-10T13:41:29Z</time>
      </trkpt>
      <trkpt lat="44.87356" lon="0.23947">
        <ele>65</ele>
        <time>2015-02-10T13:41:30Z</time>
      </trkpt>
      <trkpt lat="44.87356" lon="0.23947">
        <ele>66</ele>
        <time>2015-02-10T13:41:31Z</time>
      </trkpt>
      <trkpt lat="44.87356" lon="0.23947">
        <ele>67</ele>
        <time>2015-02-10T13:41:32Z</time>
      </trkpt>
      <trkpt lat="44.87356" lon="0.23947">
        <ele>68</ele>
        <time>2015-02-10T13:41:33Z</time>
      </trkpt>
      <trkpt lat="44.87356" lon="0.23947">
        <ele>69</ele>
        <time>2015-02-10T13:41:34Z</time>
      </trkpt>
      <trkpt lat="44.87356" lon="0.23947">
        <ele>69</ele>
        <time>2015-02-10T13:41:35Z</time>
      </trkpt>
      <trkpt lat="44.87356" lon="0.23947">
        <ele>69</ele>
        <time>2015-02-10T13:41:36Z</time>
      </trkpt>
      <trkpt lat="44.87356" lon="0.23947">
        <ele>69</ele>
        <time>2015-02-10T13:41:37Z</time>
      </trkpt>
      <trkpt lat="44.87356" lon="0.23947">
        <ele>68</ele>
        <time>2015-02-10T13:41:38Z</time>
      </trkpt>
      <trkpt lat="44.87356" lon="0.23947">
        <ele>69</ele>
        <time>2015-02-10T13:41:39Z</time>
      </trkpt>
      <trkpt lat="44.87356" lon="0.23947">
        <ele>70</ele>
        <time>2015-02-10T13:41:40Z</time>
      </trkpt>
      <trkpt lat="44.87356" lon="0.23947">
        <ele>70</ele>
        <time>2015-02-10T13:41:41Z</time>
      </trkpt>
      <trkpt lat="44.87356" lon="0.23947">
        <ele>71</ele>
        <time>2015-02-10T13:41:42Z</time>
      </trkpt>
      <trkpt lat="44.87356" lon="0.23947">
        <ele>71</ele>
        <time>2015-02-10T13:41:43Z</time>
      </trkpt>
      <trkpt lat="44.87357" lon="0.23947">
        <ele>71</ele>
        <time>2015-02-10T13:41:44Z</time>
      </trkpt>
      <trkpt lat="44.87357" lon="0.23947">
        <ele>71</ele>
        <time>2015-02-10T13:41:45Z</time>
      </trkpt>
      <trkpt lat="44.87357" lon="0.23947">
        <ele>72</ele>
        <time>2015-02-10T13:41:46Z</time>
      </trkpt>
      <trkpt lat="44.87357" lon="0.23947">
        <ele>72</ele>
        <time>2015-02-10T13:41:47Z</time>
      </trkpt>
      <trkpt lat="44.87357" lon="0.23947">
        <ele>72</ele>
        <time>2015-02-10T13:41:48Z</time>
      </trkpt>
      <trkpt lat="44.87357" lon="0.23947">
        <ele>72</ele>
        <time>2015-02-10T13:41:49Z</time>
      </trkpt>
      <trkpt lat="44.87357" lon="0.23947">
        <ele>72</ele>
        <time>2015-02-10T13:41:50Z</time>
      </trkpt>
      <trkpt lat="44.87357" lon="0.23947">
        <ele>71</ele>
        <time>2015-02-10T13:41:51Z</time>
      </trkpt>
      <trkpt lat="44.87357" lon="0.23947">
        <ele>70</ele>
        <time>2015-02-10T13:41:52Z</time>
      </trkpt>
      <trkpt lat="44.87357" lon="0.23949">
        <ele>70</ele>
        <time>2015-02-10T13:41:53Z</time>
      </trkpt>
      <trkpt lat="44.87358" lon="0.23951">
        <ele>69</ele>
        <time>2015-02-10T13:41:54Z</time>
      </trkpt>
      <trkpt lat="44.87358" lon="0.23954">
        <ele>69</ele>
        <time>2015-02-10T13:41:55Z</time>
      </trkpt>
      <trkpt lat="44.87359" lon="0.23956">
        <ele>69</ele>
        <time>2015-02-10T13:41:56Z</time>
      </trkpt>
      <trkpt lat="44.87359" lon="0.23957">
        <ele>69</ele>
        <time>2015-02-10T13:41:57Z</time>
      </trkpt>
      <trkpt lat="44.87359" lon="0.23957">
        <ele>71</ele>
        <time>2015-02-10T13:41:58Z</time>
      </trkpt>
      <trkpt lat="44.87359" lon="0.23958">
        <ele>72</ele>
        <time>2015-02-10T13:41:59Z</time>
      </trkpt>
      <trkpt lat="44.8736" lon="0.23959">
        <ele>66</ele>
        <time>2015-02-10T13:42:00Z</time>
      </trkpt>
      <trkpt lat="44.8736" lon="0.23961">
        <ele>65</ele>
        <time>2015-02-10T13:42:01Z</time>
      </trkpt>
      <trkpt lat="44.8736" lon="0.23962">
        <ele>66</ele>
        <time>2015-02-10T13:42:02Z</time>
      </trkpt>
      <trkpt lat="44.8736" lon="0.23964">
        <ele>66</ele>
        <time>2015-02-10T13:42:03Z</time>
      </trkpt>
      <trkpt lat="44.87361" lon="0.23966">
        <ele>66</ele>
        <time>2015-02-10T13:42:04Z</time>
      </trkpt>
      <trkpt lat="44.87361" lon="0.23967">
        <ele>67</ele>
        <time>2015-02-10T13:42:05Z</time>
      </trkpt>
      <trkpt lat="44.87362" lon="0.23968">
        <ele>65</ele>
        <time>2015-02-10T13:42:06Z</time>
      </trkpt>
      <trkpt lat="44.87362" lon="0.23969">
        <ele>63</ele>
        <time>2015-02-10T13:42:07Z</time>
      </trkpt>
      <trkpt lat="44.87363" lon="0.23971">
        <ele>63</ele>
        <time>2015-02-10T13:42:08Z</time>
      </trkpt>
      <trkpt lat="44.87363" lon="0.23972">
        <ele>62</ele>
        <time>2015-02-10T13:42:09Z</time>
      </trkpt>
      <trkpt lat="44.87363" lon="0.23974">
        <ele>63</ele>
        <time>2015-02-10T13:42:10Z</time>
      </trkpt>
      <trkpt lat="44.87364" lon="0.23975">
        <ele>64</ele>
        <time>2015-02-10T13:42:11Z</time>
      </trkpt>
      <trkpt lat="44.87364" lon="0.23976">
        <ele>65</ele>
        <time>2015-02-10T13:42:12Z</time>
      </trkpt>
      <trkpt lat="44.87364" lon="0.23978">
        <ele>65</ele>
        <time>2015-02-10T13:42:13Z</time>
      </trkpt>
      <trkpt lat="44.87364" lon="0.23979">
        <ele>64</ele>
        <time>2015-02-10T13:42:14Z</time>
      </trkpt>
      <trkpt lat="44.87365" lon="0.23982">
        <ele>65</ele>
        <time>2015-02-10T13:42:15Z</time>
      </trkpt>
      <trkpt lat="44.87365" lon="0.23983">
        <ele>64</ele>
        <time>2015-02-10T13:42:16Z</time>
      </trkpt>
      <trkpt lat="44.87365" lon="0.23984">
        <ele>65</ele>
        <time>2015-02-10T13:42:17Z</time>
      </trkpt>
      <trkpt lat="44.87366" lon="0.23986">
        <ele>65</ele>
        <time>2015-02-10T13:42:18Z</time>
      </trkpt>
      <trkpt lat="44.87366" lon="0.23987">
        <ele>59</ele>
        <time>2015-02-10T13:42:19Z</time>
      </trkpt>
      <trkpt lat="44.87367" lon="0.23989">
        <ele>61</ele>
        <time>2015-02-10T13:42:20Z</time>
      </trkpt>
      <trkpt lat="44.87367" lon="0.23991">
        <ele>62</ele>
        <time>2015-02-10T13:42:21Z</time>
      </trkpt>
      <trkpt lat="44.87368" lon="0.23992">
        <ele>64</ele>
        <time>2015-02-10T13:42:22Z</time>
      </trkpt>
      <trkpt lat="44.87368" lon="0.23993">
        <ele>63</ele>
        <time>2015-02-10T13:42:23Z</time>
      </trkpt>
      <trkpt lat="44.87368" lon="0.23995">
        <ele>65</ele>
        <time>2015-02-10T13:42:24Z</time>
      </trkpt>
      <trkpt lat="44.87369" lon="0.23996">
        <ele>67</ele>
        <time>2015-02-10T13:42:25Z</time>
      </trkpt>
      <trkpt lat="44.87369" lon="0.23997">
        <ele>66</ele>
        <time>2015-02-10T13:42:26Z</time>
      </trkpt>
      <trkpt lat="44.87369" lon="0.23999">
        <ele>66</ele>
        <time>2015-02-10T13:42:27Z</time>
      </trkpt>
      <trkpt lat="44.8737" lon="0.24001">
        <ele>65</ele>
        <time>2015-02-10T13:42:28Z</time>
      </trkpt>
      <trkpt lat="44.8737" lon="0.24002">
        <ele>63</ele>
        <time>2015-02-10T13:42:29Z</time>
      </trkpt>
      <trkpt lat="44.8737" lon="0.24003">
        <ele>65</ele>
        <time>2015-02-10T13:42:30Z</time>
      </trkpt>
      <trkpt lat="44.8737" lon="0.24004">
        <ele>63</ele>
        <time>2015-02-10T13:42:31Z</time>
      </trkpt>
      <trkpt lat="44.8737" lon="0.24005">
        <ele>62</ele>
        <time>2015-02-10T13:42:32Z</time>
      </trkpt>
      <trkpt lat="44.87371" lon="0.24006">
        <ele>62</ele>
        <time>2015-02-10T13:42:33Z</time>
      </trkpt>
      <trkpt lat="44.87371" lon="0.24007">
        <ele>62</ele>
        <time>2015-02-10T13:42:34Z</time>
      </trkpt>
      <trkpt lat="44.87371" lon="0.2401">
        <ele>62</ele>
        <time>2015-02-10T13:42:35Z</time>
      </trkpt>
      <trkpt lat="44.87372" lon="0.24012">
        <ele>60</ele>
        <time>2015-02-10T13:42:36Z</time>
      </trkpt>
      <trkpt lat="44.87372" lon="0.24013">
        <ele>61</ele>
        <time>2015-02-10T13:42:37Z</time>
      </trkpt>
      <trkpt lat="44.87372" lon="0.24014">
        <ele>60</ele>
        <time>2015-02-10T13:42:38Z</time>
      </trkpt>
      <trkpt lat="44.87372" lon="0.24015">
        <ele>59</ele>
        <time>2015-02-10T13:42:39Z</time>
      </trkpt>
      <trkpt lat="44.87372" lon="0.24017">
        <ele>61</ele>
        <time>2015-02-10T13:42:40Z</time>
      </trkpt>
      <trkpt lat="44.87372" lon="0.24019">
        <ele>59</ele>
        <time>2015-02-10T13:42:41Z</time>
      </trkpt>
      <trkpt lat="44.87372" lon="0.24021">
        <ele>60</ele>
        <time>2015-02-10T13:42:42Z</time>
      </trkpt>
      <trkpt lat="44.87372" lon="0.24022">
        <ele>60</ele>
        <time>2015-02-10T13:42:43Z</time>
      </trkpt>
      <trkpt lat="44.87372" lon="0.24023">
        <ele>60</ele>
        <time>2015-02-10T13:42:44Z</time>
      </trkpt>
      <trkpt lat="44.87372" lon="0.24025">
        <ele>61</ele>
        <time>2015-02-10T13:42:45Z</time>
      </trkpt>
      <trkpt lat="44.87372" lon="0.24026">
        <ele>60</ele>
        <time>2015-02-10T13:42:46Z</time>
      </trkpt>
      <trkpt lat="44.87372" lon="0.24027">
        <ele>61</ele>
        <time>2015-02-10T13:42:47Z</time>
      </trkpt>
      <trkpt lat="44.87372" lon="0.24028">
        <ele>62</ele>
        <time>2015-02-10T13:42:48Z</time>
      </trkpt>
      <trkpt lat="44.87372" lon="0.2403">
        <ele>62</ele>
        <time>2015-02-10T13:42:49Z</time>
      </trkpt>
      <trkpt lat="44.87372" lon="0.24031">
        <ele>62</ele>
        <time>2015-02-10T13:42:50Z</time>
      </trkpt>
      <trkpt lat="44.87372" lon="0.24032">
        <ele>59</ele>
        <time>2015-02-10T13:42:51Z</time>
      </trkpt>
      <trkpt lat="44.87372" lon="0.24034">
        <ele>59</ele>
        <time>2015-02-10T13:42:52Z</time>
      </trkpt>
      <trkpt lat="44.87372" lon="0.24035">
        <ele>58</ele>
        <time>2015-02-10T13:42:53Z</time>
      </trkpt>
      <trkpt lat="44.87372" lon="0.24037">
        <ele>59</ele>
        <time>2015-02-10T13:42:54Z</time>
      </trkpt>
      <trkpt lat="44.87372" lon="0.24038">
        <ele>57</ele>
        <time>2015-02-10T13:42:55Z</time>
      </trkpt>
      <trkpt lat="44.87372" lon="0.2404">
        <ele>58</ele>
        <time>2015-02-10T13:42:56Z</time>
      </trkpt>
      <trkpt lat="44.87371" lon="0.24042">
        <ele>55</ele>
        <time>2015-02-10T13:42:57Z</time>
      </trkpt>
      <trkpt lat="44.87371" lon="0.24043">
        <ele>56</ele>
        <time>2015-02-10T13:42:58Z</time>
      </trkpt>
      <trkpt lat="44.87372" lon="0.24045">
        <ele>62</ele>
        <time>2015-02-10T13:42:59Z</time>
      </trkpt>
      <trkpt lat="44.87372" lon="0.24046">
        <ele>63</ele>
        <time>2015-02-10T13:43:00Z</time>
      </trkpt>
      <trkpt lat="44.87372" lon="0.24048">
        <ele>58</ele>
        <time>2015-02-10T13:43:01Z</time>
      </trkpt>
      <trkpt lat="44.87372" lon="0.24049">
        <ele>60</ele>
        <time>2015-02-10T13:43:02Z</time>
      </trkpt>
      <trkpt lat="44.87372" lon="0.24051">
        <ele>59</ele>
        <time>2015-02-10T13:43:03Z</time>
      </trkpt>
      <trkpt lat="44.87372" lon="0.24052">
        <ele>57</ele>
        <time>2015-02-10T13:43:04Z</time>
      </trkpt>
      <trkpt lat="44.87372" lon="0.24054">
        <ele>57</ele>
        <time>2015-02-10T13:43:05Z</time>
      </trkpt>
      <trkpt lat="44.87372" lon="0.24055">
        <ele>56</ele>
        <time>2015-02-10T13:43:06Z</time>
      </trkpt>
      <trkpt lat="44.87372" lon="0.24056">
        <ele>56</ele>
        <time>2015-02-10T13:43:07Z</time>
      </trkpt>
      <trkpt lat="44.87372" lon="0.24058">
        <ele>54</ele>
        <time>2015-02-10T13:43:08Z</time>
      </trkpt>
      <trkpt lat="44.87373" lon="0.2406">
        <ele>57</ele>
        <time>2015-02-10T13:43:09Z</time>
      </trkpt>
      <trkpt lat="44.87373" lon="0.24061">
        <ele>58</ele>
        <time>2015-02-10T13:43:10Z</time>
      </trkpt>
      <trkpt lat="44.87372" lon="0.24063">
        <ele>57</ele>
        <time>2015-02-10T13:43:11Z</time>
      </trkpt>
      <trkpt lat="44.87372" lon="0.24065">
        <ele>57</ele>
        <time>2015-02-10T13:43:12Z</time>
      </trkpt>
      <trkpt lat="44.87372" lon="0.24066">
        <ele>58</ele>
        <time>2015-02-10T13:43:13Z</time>
      </trkpt>
      <trkpt lat="44.87372" lon="0.24068">
        <ele>58</ele>
        <time>2015-02-10T13:43:14Z</time>
      </trkpt>
      <trkpt lat="44.87371" lon="0.2407">
        <ele>59</ele>
        <time>2015-02-10T13:43:15Z</time>
      </trkpt>
      <trkpt lat="44.87371" lon="0.24071">
        <ele>58</ele>
        <time>2015-02-10T13:43:16Z</time>
      </trkpt>
      <trkpt lat="44.87371" lon="0.24072">
        <ele>56</ele>
        <time>2015-02-10T13:43:17Z</time>
      </trkpt>
      <trkpt lat="44.87371" lon="0.24072">
        <ele>54</ele>
        <time>2015-02-10T13:43:18Z</time>
      </trkpt>
      <trkpt lat="44.87371" lon="0.24073">
        <ele>53</ele>
        <time>2015-02-10T13:43:19Z</time>
      </trkpt>
      <trkpt lat="44.87371" lon="0.24074">
        <ele>53</ele>
        <time>2015-02-10T13:43:20Z</time>
      </trkpt>
      <trkpt lat="44.87371" lon="0.24074">
        <ele>53</ele>
        <time>2015-02-10T13:43:21Z</time>
      </trkpt>
      <trkpt lat="44.8737" lon="0.24076">
        <ele>54</ele>
        <time>2015-02-10T13:43:22Z</time>
      </trkpt>
      <trkpt lat="44.8737" lon="0.24077">
        <ele>56</ele>
        <time>2015-02-10T13:43:23Z</time>
      </trkpt>
      <trkpt lat="44.8737" lon="0.24078">
        <ele>55</ele>
        <time>2015-02-10T13:43:24Z</time>
      </trkpt>
      <trkpt lat="44.8737" lon="0.24079">
        <ele>55</ele>
        <time>2015-02-10T13:43:25Z</time>
      </trkpt>
      <trkpt lat="44.8737" lon="0.24081">
        <ele>55</ele>
        <time>2015-02-10T13:43:26Z</time>
      </trkpt>
      <trkpt lat="44.8737" lon="0.24082">
        <ele>56</ele>
        <time>2015-02-10T13:43:27Z</time>
      </trkpt>
      <trkpt lat="44.8737" lon="0.24083">
        <ele>54</ele>
        <time>2015-02-10T13:43:28Z</time>
      </trkpt>
      <trkpt lat="44.8737" lon="0.24084">
        <ele>55</ele>
        <time>2015-02-10T13:43:29Z</time>
      </trkpt>
      <trkpt lat="44.8737" lon="0.24085">
        <ele>56</ele>
        <time>2015-02-10T13:43:30Z</time>
      </trkpt>
      <trkpt lat="44.87369" lon="0.24087">
        <ele>57</ele>
        <time>2015-02-10T13:43:31Z</time>
      </trkpt>
      <trkpt lat="44.87369" lon="0.24088">
        <ele>58</ele>
        <time>2015-02-10T13:43:32Z</time>
      </trkpt>
      <trkpt lat="44.87369" lon="0.2409">
        <ele>57</ele>
        <time>2015-02-10T13:43:33Z</time>
      </trkpt>
      <trkpt lat="44.87369" lon="0.24092">
        <ele>57</ele>
        <time>2015-02-10T13:43:34Z</time>
      </trkpt>
      <trkpt lat="44.87369" lon="0.24094">
        <ele>57</ele>
        <time>2015-02-10T13:43:35Z</time>
      </trkpt>
      <trkpt lat="44.87369" lon="0.24095">
        <ele>55</ele>
        <time>2015-02-10T13:43:36Z</time>
      </trkpt>
      <trkpt lat="44.87369" lon="0.24097">
        <ele>54</ele>
        <time>2015-02-10T13:43:37Z</time>
      </trkpt>
      <trkpt lat="44.87369" lon="0.24098">
        <ele>53</ele>
        <time>2015-02-10T13:43:38Z</time>
      </trkpt>
      <trkpt lat="44.87369" lon="0.241">
        <ele>54</ele>
        <time>2015-02-10T13:43:39Z</time>
      </trkpt>
      <trkpt lat="44.87369" lon="0.24101">
        <ele>54</ele>
        <time>2015-02-10T13:43:40Z</time>
      </trkpt>
      <trkpt lat="44.87369" lon="0.24103">
        <ele>57</ele>
        <time>2015-02-10T13:43:41Z</time>
      </trkpt>
      <trkpt lat="44.87369" lon="0.24105">
        <ele>57</ele>
        <time>2015-02-10T13:43:42Z</time>
      </trkpt>
      <trkpt lat="44.87369" lon="0.24106">
        <ele>59</ele>
        <time>2015-02-10T13:43:43Z</time>
      </trkpt>
      <trkpt lat="44.8737" lon="0.24108">
        <ele>59</ele>
        <time>2015-02-10T13:43:44Z</time>
      </trkpt>
      <trkpt lat="44.8737" lon="0.2411">
        <ele>59</ele>
        <time>2015-02-10T13:43:45Z</time>
      </trkpt>
      <trkpt lat="44.8737" lon="0.24112">
        <ele>59</ele>
        <time>2015-02-10T13:43:46Z</time>
      </trkpt>
      <trkpt lat="44.8737" lon="0.24114">
        <ele>60</ele>
        <time>2015-02-10T13:43:47Z</time>
      </trkpt>
      <trkpt lat="44.8737" lon="0.24115">
        <ele>61</ele>
        <time>2015-02-10T13:43:48Z</time>
      </trkpt>
      <trkpt lat="44.8737" lon="0.24117">
        <ele>61</ele>
        <time>2015-02-10T13:43:49Z</time>
      </trkpt>
      <trkpt lat="44.8737" lon="0.24119">
        <ele>61</ele>
        <time>2015-02-10T13:43:50Z</time>
      </trkpt>
      <trkpt lat="44.8737" lon="0.2412">
        <ele>61</ele>
        <time>2015-02-10T13:43:51Z</time>
      </trkpt>
      <trkpt lat="44.87371" lon="0.24122">
        <ele>61</ele>
        <time>2015-02-10T13:43:52Z</time>
      </trkpt>
      <trkpt lat="44.87371" lon="0.24123">
        <ele>62</ele>
        <time>2015-02-10T13:43:53Z</time>
      </trkpt>
      <trkpt lat="44.87371" lon="0.24124">
        <ele>61</ele>
        <time>2015-02-10T13:43:54Z</time>
      </trkpt>
      <trkpt lat="44.87371" lon="0.24126">
        <ele>60</ele>
        <time>2015-02-10T13:43:55Z</time>
      </trkpt>
      <trkpt lat="44.87372" lon="0.24128">
        <ele>58</ele>
        <time>2015-02-10T13:43:56Z</time>
      </trkpt>
      <trkpt lat="44.87372" lon="0.24129">
        <ele>59</ele>
        <time>2015-02-10T13:43:57Z</time>
      </trkpt>
      <trkpt lat="44.87373" lon="0.2413">
        <ele>59</ele>
        <time>2015-02-10T13:43:58Z</time>
      </trkpt>
      <trkpt lat="44.87374" lon="0.24131">
        <ele>60</ele>
        <time>2015-02-10T13:43:59Z</time>
      </trkpt>
      <trkpt lat="44.87374" lon="0.24132">
        <ele>60</ele>
        <time>2015-02-10T13:44:00Z</time>
      </trkpt>
      <trkpt lat="44.87375" lon="0.24133">
        <ele>61</ele>
        <time>2015-02-10T13:44:01Z</time>
      </trkpt>
      <trkpt lat="44.87376" lon="0.24134">
        <ele>60</ele>
        <time>2015-02-10T13:44:02Z</time>
      </trkpt>
      <trkpt lat="44.87376" lon="0.24135">
        <ele>62</ele>
        <time>2015-02-10T13:44:03Z</time>
      </trkpt>
      <trkpt lat="44.87376" lon="0.24136">
        <ele>60</ele>
        <time>2015-02-10T13:44:04Z</time>
      </trkpt>
      <trkpt lat="44.87377" lon="0.24137">
        <ele>61</ele>
        <time>2015-02-10T13:44:05Z</time>
      </trkpt>
      <trkpt lat="44.87377" lon="0.24138">
        <ele>60</ele>
        <time>2015-02-10T13:44:06Z</time>
      </trkpt>
      <trkpt lat="44.87378" lon="0.2414">
        <ele>60</ele>
        <time>2015-02-10T13:44:07Z</time>
      </trkpt>
      <trkpt lat="44.87379" lon="0.24141">
        <ele>60</ele>
        <time>2015-02-10T13:44:08Z</time>
      </trkpt>
      <trkpt lat="44.87379" lon="0.24143">
        <ele>61</ele>
        <time>2015-02-10T13:44:09Z</time>
      </trkpt>
      <trkpt lat="44.8738" lon="0.24144">
        <ele>62</ele>
        <time>2015-02-10T13:44:10Z</time>
      </trkpt>
      <trkpt lat="44.87381" lon="0.24145">
        <ele>62</ele>
        <time>2015-02-10T13:44:11Z</time>
      </trkpt>
      <trkpt lat="44.8738" lon="0.24146">
        <ele>64</ele>
        <time>2015-02-10T13:44:12Z</time>
      </trkpt>
      <trkpt lat="44.8738" lon="0.24148">
        <ele>61</ele>
        <time>2015-02-10T13:44:13Z</time>
      </trkpt>
      <trkpt lat="44.87379" lon="0.24149">
        <ele>61</ele>
        <time>2015-02-10T13:44:14Z</time>
      </trkpt>
      <trkpt lat="44.87379" lon="0.24151">
        <ele>61</ele>
        <time>2015-02-10T13:44:15Z</time>
      </trkpt>
      <trkpt lat="44.87378" lon="0.24153">
        <ele>61</ele>
        <time>2015-02-10T13:44:16Z</time>
      </trkpt>
      <trkpt lat="44.87377" lon="0.24154">
        <ele>62</ele>
        <time>2015-02-10T13:44:17Z</time>
      </trkpt>
      <trkpt lat="44.87377" lon="0.24155">
        <ele>62</ele>
        <time>2015-02-10T13:44:18Z</time>
      </trkpt>
      <trkpt lat="44.87376" lon="0.24156">
        <ele>63</ele>
        <time>2015-02-10T13:44:19Z</time>
      </trkpt>
      <trkpt lat="44.87376" lon="0.24156">
        <ele>63</ele>
        <time>2015-02-10T13:44:20Z</time>
      </trkpt>
      <trkpt lat="44.87376" lon="0.24155">
        <ele>64</ele>
        <time>2015-02-10T13:44:21Z</time>
      </trkpt>
      <trkpt lat="44.87377" lon="0.24153">
        <ele>65</ele>
        <time>2015-02-10T13:44:22Z</time>
      </trkpt>
      <trkpt lat="44.87377" lon="0.24152">
        <ele>64</ele>
        <time>2015-02-10T13:44:23Z</time>
      </trkpt>
      <trkpt lat="44.87378" lon="0.24151">
        <ele>65</ele>
        <time>2015-02-10T13:44:24Z</time>
      </trkpt>
      <trkpt lat="44.87378" lon="0.24149">
        <ele>61</ele>
        <time>2015-02-10T13:44:25Z</time>
      </trkpt>
      <trkpt lat="44.87378" lon="0.24146">
        <ele>60</ele>
        <time>2015-02-10T13:44:26Z</time>
      </trkpt>
      <trkpt lat="44.87379" lon="0.24145">
        <ele>62</ele>
        <time>2015-02-10T13:44:27Z</time>
      </trkpt>
      <trkpt lat="44.8738" lon="0.24144">
        <ele>63</ele>
        <time>2015-02-10T13:44:28Z</time>
      </trkpt>
      <trkpt lat="44.87381" lon="0.24143">
        <ele>61</ele>
        <time>2015-02-10T13:44:29Z</time>
      </trkpt>
      <trkpt lat="44.87382" lon="0.24142">
        <ele>61</ele>
        <time>2015-02-10T13:44:30Z</time>
      </trkpt>
      <trkpt lat="44.87383" lon="0.24141">
        <ele>61</ele>
        <time>2015-02-10T13:44:31Z</time>
      </trkpt>
      <trkpt lat="44.87384" lon="0.24139">
        <ele>61</ele>
        <time>2015-02-10T13:44:32Z</time>
      </trkpt>
      <trkpt lat="44.87384" lon="0.24138">
        <ele>61</ele>
        <time>2015-02-10T13:44:33Z</time>
      </trkpt>
      <trkpt lat="44.87385" lon="0.24138">
        <ele>65</ele>
        <time>2015-02-10T13:44:34Z</time>
      </trkpt>
      <trkpt lat="44.87386" lon="0.24137">
        <ele>66</ele>
        <time>2015-02-10T13:44:35Z</time>
      </trkpt>
      <trkpt lat="44.87386" lon="0.24136">
        <ele>67</ele>
        <time>2015-02-10T13:44:36Z</time>
      </trkpt>
      <trkpt lat="44.87387" lon="0.24136">
        <ele>66</ele>
        <time>2015-02-10T13:44:37Z</time>
      </trkpt>
      <trkpt lat="44.87388" lon="0.24135">
        <ele>69</ele>
        <time>2015-02-10T13:44:38Z</time>
      </trkpt>
      <trkpt lat="44.87389" lon="0.24133">
        <ele>68</ele>
        <time>2015-02-10T13:44:39Z</time>
      </trkpt>
      <trkpt lat="44.8739" lon="0.24132">
        <ele>68</ele>
        <time>2015-02-10T13:44:40Z</time>
      </trkpt>
      <trkpt lat="44.8739" lon="0.24132">
        <ele>71</ele>
        <time>2015-02-10T13:44:41Z</time>
      </trkpt>
      <trkpt lat="44.87391" lon="0.2413">
        <ele>71</ele>
        <time>2015-02-10T13:44:42Z</time>
      </trkpt>
      <trkpt lat="44.87392" lon="0.24129">
        <ele>68</ele>
        <time>2015-02-10T13:44:43Z</time>
      </trkpt>
      <trkpt lat="44.87392" lon="0.24127">
        <ele>67</ele>
        <time>2015-02-10T13:44:44Z</time>
      </trkpt>
      <trkpt lat="44.87393" lon="0.24126">
        <ele>65</ele>
        <time>2015-02-10T13:44:45Z</time>
      </trkpt>
      <trkpt lat="44.87393" lon="0.24125">
        <ele>68</ele>
        <time>2015-02-10T13:44:46Z</time>
      </trkpt>
      <trkpt lat="44.87394" lon="0.24123">
        <ele>69</ele>
        <time>2015-02-10T13:44:47Z</time>
      </trkpt>
      <trkpt lat="44.87394" lon="0.24123">
        <ele>67</ele>
        <time>2015-02-10T13:44:48Z</time>
      </trkpt>
      <trkpt lat="44.87393" lon="0.24123">
        <ele>66</ele>
        <time>2015-02-10T13:44:49Z</time>
      </trkpt>
      <trkpt lat="44.87393" lon="0.24124">
        <ele>66</ele>
        <time>2015-02-10T13:44:50Z</time>
      </trkpt>
      <trkpt lat="44.87392" lon="0.24125">
        <ele>66</ele>
        <time>2015-02-10T13:44:51Z</time>
      </trkpt>
      <trkpt lat="44.87391" lon="0.24125">
        <ele>66</ele>
        <time>2015-02-10T13:44:52Z</time>
      </trkpt>
      <trkpt lat="44.8739" lon="0.24126">
        <ele>66</ele>
        <time>2015-02-10T13:44:53Z</time>
      </trkpt>
      <trkpt lat="44.87388" lon="0.24127">
        <ele>65</ele>
        <time>2015-02-10T13:44:54Z</time>
      </trkpt>
      <trkpt lat="44.87387" lon="0.24127">
        <ele>66</ele>
        <time>2015-02-10T13:44:55Z</time>
      </trkpt>
      <trkpt lat="44.87386" lon="0.24126">
        <ele>66</ele>
        <time>2015-02-10T13:44:56Z</time>
      </trkpt>
      <trkpt lat="44.87386" lon="0.24125">
        <ele>66</ele>
        <time>2015-02-10T13:44:57Z</time>
      </trkpt>
      <trkpt lat="44.87386" lon="0.24124">
        <ele>67</ele>
        <time>2015-02-10T13:44:58Z</time>
      </trkpt>
      <trkpt lat="44.87385" lon="0.24124">
        <ele>66</ele>
        <time>2015-02-10T13:44:59Z</time>
      </trkpt>
      <trkpt lat="44.87385" lon="0.24123">
        <ele>64</ele>
        <time>2015-02-10T13:45:00Z</time>
      </trkpt>
      <trkpt lat="44.87385" lon="0.24123">
        <ele>65</ele>
        <time>2015-02-10T13:45:01Z</time>
      </trkpt>
      <trkpt lat="44.87384" lon="0.24122">
        <ele>64</ele>
        <time>2015-02-10T13:45:02Z</time>
      </trkpt>
      <trkpt lat="44.87384" lon="0.24121">
        <ele>63</ele>
        <time>2015-02-10T13:45:03Z</time>
      </trkpt>
      <trkpt lat="44.87384" lon="0.24121">
        <ele>60</ele>
        <time>2015-02-10T13:45:04Z</time>
      </trkpt>
      <trkpt lat="44.87384" lon="0.2412">
        <ele>59</ele>
        <time>2015-02-10T13:45:05Z</time>
      </trkpt>
      <trkpt lat="44.87384" lon="0.2412">
        <ele>59</ele>
        <time>2015-02-10T13:45:06Z</time>
      </trkpt>
      <trkpt lat="44.87384" lon="0.2412">
        <ele>55</ele>
        <time>2015-02-10T13:45:07Z</time>
      </trkpt>
      <trkpt lat="44.87384" lon="0.2412">
        <ele>58</ele>
        <time>2015-02-10T13:45:08Z</time>
      </trkpt>
      <trkpt lat="44.87384" lon="0.2412">
        <ele>58</ele>
        <time>2015-02-10T13:45:09Z</time>
      </trkpt>
      <trkpt lat="44.87384" lon="0.2412">
        <ele>58</ele>
        <time>2015-02-10T13:45:10Z</time>
      </trkpt>
      <trkpt lat="44.87384" lon="0.24119">
        <ele>57</ele>
        <time>2015-02-10T13:45:11Z</time>
      </trkpt>
      <trkpt lat="44.87384" lon="0.24119">
        <ele>59</ele>
        <time>2015-02-10T13:45:12Z</time>
      </trkpt>
      <trkpt lat="44.87384" lon="0.24119">
        <ele>60</ele>
        <time>2015-02-10T13:45:13Z</time>
      </trkpt>
      <trkpt lat="44.87384" lon="0.24119">
        <ele>61</ele>
        <time>2015-02-10T13:45:14Z</time>
      </trkpt>
      <trkpt lat="44.87385" lon="0.24118">
        <ele>61</ele>
        <time>2015-02-10T13:45:15Z</time>
      </trkpt>
      <trkpt lat="44.87385" lon="0.24117">
        <ele>64</ele>
        <time>2015-02-10T13:45:16Z</time>
      </trkpt>
      <trkpt lat="44.87385" lon="0.24117">
        <ele>65</ele>
        <time>2015-02-10T13:45:17Z</time>
      </trkpt>
      <trkpt lat="44.87385" lon="0.24116">
        <ele>63</ele>
        <time>2015-02-10T13:45:18Z</time>
      </trkpt>
      <trkpt lat="44.87384" lon="0.24116">
        <ele>66</ele>
        <time>2015-02-10T13:45:19Z</time>
      </trkpt>
      <trkpt lat="44.87384" lon="0.24116">
        <ele>66</ele>
        <time>2015-02-10T13:45:20Z</time>
      </trkpt>
      <trkpt lat="44.87385" lon="0.24115">
        <ele>66</ele>
        <time>2015-02-10T13:45:21Z</time>
      </trkpt>
      <trkpt lat="44.87385" lon="0.24115">
        <ele>64</ele>
        <time>2015-02-10T13:45:22Z</time>
      </trkpt>
      <trkpt lat="44.87385" lon="0.24114">
        <ele>64</ele>
        <time>2015-02-10T13:45:23Z</time>
      </trkpt>
      <trkpt lat="44.87386" lon="0.24114">
        <ele>64</ele>
        <time>2015-02-10T13:45:24Z</time>
      </trkpt>
      <trkpt lat="44.87386" lon="0.24113">
        <ele>63</ele>
        <time>2015-02-10T13:45:25Z</time>
      </trkpt>
      <trkpt lat="44.87387" lon="0.24113">
        <ele>61</ele>
        <time>2015-02-10T13:45:26Z</time>
      </trkpt>
      <trkpt lat="44.87387" lon="0.24111">
        <ele>61</ele>
        <time>2015-02-10T13:45:27Z</time>
      </trkpt>
      <trkpt lat="44.87387" lon="0.24111">
        <ele>64</ele>
        <time>2015-02-10T13:45:28Z</time>
      </trkpt>
      <trkpt lat="44.87387" lon="0.24111">
        <ele>65</ele>
        <time>2015-02-10T13:45:29Z</time>
      </trkpt>
      <trkpt lat="44.87387" lon="0.24111">
        <ele>65</ele>
        <time>2015-02-10T13:45:30Z</time>
      </trkpt>
      <trkpt lat="44.87387" lon="0.24111">
        <ele>65</ele>
        <time>2015-02-10T13:45:31Z</time>
      </trkpt>
      <trkpt lat="44.87387" lon="0.24111">
        <ele>65</ele>
        <time>2015-02-10T13:45:32Z</time>
      </trkpt>
      <trkpt lat="44.87387" lon="0.24111">
        <ele>65</ele>
        <time>2015-02-10T13:45:33Z</time>
      </trkpt>
      <trkpt lat="44.87387" lon="0.24111">
        <ele>65</ele>
        <time>2015-02-10T13:45:34Z</time>
      </trkpt>
      <trkpt lat="44.87387" lon="0.24111">
        <ele>65</ele>
        <time>2015-02-10T13:45:35Z</time>
      </trkpt>
      <trkpt lat="44.87387" lon="0.24111">
        <ele>63</ele>
        <time>2015-02-10T13:45:36Z</time>
      </trkpt>
      <trkpt lat="44.87387" lon="0.24111">
        <ele>64</ele>
        <time>2015-02-10T13:45:37Z</time>
      </trkpt>
      <trkpt lat="44.87387" lon="0.24111">
        <ele>62</ele>
        <time>2015-02-10T13:45:38Z</time>
      </trkpt>
      <trkpt lat="44.87387" lon="0.24111">
        <ele>61</ele>
        <time>2015-02-10T13:45:39Z</time>
      </trkpt>
      <trkpt lat="44.87387" lon="0.24111">
        <ele>61</ele>
        <time>2015-02-10T13:45:40Z</time>
      </trkpt>
      <trkpt lat="44.87387" lon="0.2411">
        <ele>64</ele>
        <time>2015-02-10T13:45:41Z</time>
      </trkpt>
      <trkpt lat="44.87387" lon="0.24109">
        <ele>64</ele>
        <time>2015-02-10T13:45:42Z</time>
      </trkpt>
      <trkpt lat="44.87387" lon="0.24109">
        <ele>61</ele>
        <time>2015-02-10T13:45:43Z</time>
      </trkpt>
      <trkpt lat="44.87387" lon="0.2411">
        <ele>62</ele>
        <time>2015-02-10T13:45:44Z</time>
      </trkpt>
      <trkpt lat="44.87387" lon="0.2411">
        <ele>61</ele>
        <time>2015-02-10T13:45:45Z</time>
      </trkpt>
      <trkpt lat="44.87388" lon="0.2411">
        <ele>60</ele>
        <time>2015-02-10T13:45:46Z</time>
      </trkpt>
      <trkpt lat="44.87388" lon="0.2411">
        <ele>62</ele>
        <time>2015-02-10T13:45:47Z</time>
      </trkpt>
      <trkpt lat="44.87388" lon="0.2411">
        <ele>62</ele>
        <time>2015-02-10T13:45:48Z</time>
      </trkpt>
      <trkpt lat="44.87388" lon="0.2411">
        <ele>62</ele>
        <time>2015-02-10T13:45:49Z</time>
      </trkpt>
      <trkpt lat="44.87388" lon="0.2411">
        <ele>62</ele>
        <time>2015-02-10T13:45:50Z</time>
      </trkpt>
      <trkpt lat="44.87388" lon="0.2411">
        <ele>62</ele>
        <time>2015-02-10T13:45:51Z</time>
      </trkpt>
      <trkpt lat="44.87388" lon="0.2411">
        <ele>63</ele>
        <time>2015-02-10T13:45:52Z</time>
      </trkpt>
      <trkpt lat="44.87388" lon="0.2411">
        <ele>63</ele>
        <time>2015-02-10T13:45:53Z</time>
      </trkpt>
      <trkpt lat="44.87388" lon="0.2411">
        <ele>64</ele>
        <time>2015-02-10T13:45:54Z</time>
      </trkpt>
      <trkpt lat="44.87388" lon="0.2411">
        <ele>65</ele>
        <time>2015-02-10T13:45:55Z</time>
      </trkpt>
      <trkpt lat="44.87388" lon="0.24111">
        <ele>66</ele>
        <time>2015-02-10T13:45:56Z</time>
      </trkpt>
      <trkpt lat="44.87388" lon="0.24112">
        <ele>66</ele>
        <time>2015-02-10T13:45:57Z</time>
      </trkpt>
      <trkpt lat="44.87387" lon="0.24113">
        <ele>65</ele>
        <time>2015-02-10T13:45:58Z</time>
      </trkpt>
      <trkpt lat="44.87387" lon="0.24113">
        <ele>63</ele>
        <time>2015-02-10T13:45:59Z</time>
      </trkpt>
      <trkpt lat="44.87387" lon="0.24114">
        <ele>62</ele>
        <time>2015-02-10T13:46:00Z</time>
      </trkpt>
      <trkpt lat="44.87387" lon="0.24114">
        <ele>62</ele>
        <time>2015-02-10T13:46:01Z</time>
      </trkpt>
      <trkpt lat="44.87387" lon="0.24114">
        <ele>62</ele>
        <time>2015-02-10T13:46:02Z</time>
      </trkpt>
      <trkpt lat="44.87387" lon="0.24114">
        <ele>62</ele>
        <time>2015-02-10T13:46:03Z</time>
      </trkpt>
    </trkseg>
  </trk>
</gpx>